<?xml version="1.0" encoding="UTF-8" standalone="no" ?>
<gpx xmlns="http://www.topografix.com/GPX/1/1" xmlns:xsi="http://www.w3.org/2001/XMLSchema-instance" xsi:schemaLocation="http://www.topografix.com/GPX/1/1 http://www.topografix.com/GPX/1/1/gpx.xsd" version="1.1" creator="VisuGPX - https://www.visugpx.com">
  <metadata>
    <name>Pic d'Anie en ski de randonnée ... le 2ème jour de l'été 2013 !</name>
    <desc><![CDATA[Sortie en ski de randonnée en chaussant dès le départ ... au deuxième jour de l'été 2013 !
]]></desc>
  </metadata>
  <trk>
    <name><![CDATA[Pic d'Anie en ski de randonnée ... le 2ème jour de l'été 2013 !_1]]></name>
    <trkseg>
      <trkpt lat="42.96324" lon="-0.77267">
        <ele>1676</ele>
        <time>2013-06-22T04:20:36Z</time>
      </trkpt>
      <trkpt lat="42.96344" lon="-0.7724">
        <ele>1680</ele>
        <time>2013-06-22T04:21:04Z</time>
      </trkpt>
      <trkpt lat="42.96345" lon="-0.77238">
        <ele>1680</ele>
        <time>2013-06-22T04:21:05Z</time>
      </trkpt>
      <trkpt lat="42.96346" lon="-0.77237">
        <ele>1679</ele>
        <time>2013-06-22T04:21:06Z</time>
      </trkpt>
      <trkpt lat="42.96346" lon="-0.77235">
        <ele>1679</ele>
        <time>2013-06-22T04:21:07Z</time>
      </trkpt>
      <trkpt lat="42.96347" lon="-0.77233">
        <ele>1679</ele>
        <time>2013-06-22T04:21:08Z</time>
      </trkpt>
      <trkpt lat="42.96348" lon="-0.77232">
        <ele>1679</ele>
        <time>2013-06-22T04:21:09Z</time>
      </trkpt>
      <trkpt lat="42.9635" lon="-0.77229">
        <ele>1679</ele>
        <time>2013-06-22T04:21:11Z</time>
      </trkpt>
      <trkpt lat="42.96352" lon="-0.77227">
        <ele>1679</ele>
        <time>2013-06-22T04:21:13Z</time>
      </trkpt>
      <trkpt lat="42.96353" lon="-0.77225">
        <ele>1679</ele>
        <time>2013-06-22T04:21:15Z</time>
      </trkpt>
      <trkpt lat="42.96354" lon="-0.77223">
        <ele>1679</ele>
        <time>2013-06-22T04:21:17Z</time>
      </trkpt>
      <trkpt lat="42.96354" lon="-0.77221">
        <ele>1679</ele>
        <time>2013-06-22T04:21:19Z</time>
      </trkpt>
      <trkpt lat="42.96354" lon="-0.77217">
        <ele>1678</ele>
        <time>2013-06-22T04:21:21Z</time>
      </trkpt>
      <trkpt lat="42.96354" lon="-0.77215">
        <ele>1678</ele>
        <time>2013-06-22T04:21:22Z</time>
      </trkpt>
      <trkpt lat="42.96354" lon="-0.77214">
        <ele>1678</ele>
        <time>2013-06-22T04:21:23Z</time>
      </trkpt>
      <trkpt lat="42.96355" lon="-0.77212">
        <ele>1678</ele>
        <time>2013-06-22T04:21:24Z</time>
      </trkpt>
      <trkpt lat="42.96355" lon="-0.7721">
        <ele>1678</ele>
        <time>2013-06-22T04:21:25Z</time>
      </trkpt>
      <trkpt lat="42.96355" lon="-0.77208">
        <ele>1678</ele>
        <time>2013-06-22T04:21:26Z</time>
      </trkpt>
      <trkpt lat="42.96355" lon="-0.77206">
        <ele>1678</ele>
        <time>2013-06-22T04:21:27Z</time>
      </trkpt>
      <trkpt lat="42.96355" lon="-0.77204">
        <ele>1678</ele>
        <time>2013-06-22T04:21:28Z</time>
      </trkpt>
      <trkpt lat="42.96355" lon="-0.77201">
        <ele>1678</ele>
        <time>2013-06-22T04:21:29Z</time>
      </trkpt>
      <trkpt lat="42.96355" lon="-0.772">
        <ele>1678</ele>
        <time>2013-06-22T04:21:30Z</time>
      </trkpt>
      <trkpt lat="42.96355" lon="-0.77198">
        <ele>1678</ele>
        <time>2013-06-22T04:21:31Z</time>
      </trkpt>
      <trkpt lat="42.96355" lon="-0.77197">
        <ele>1678</ele>
        <time>2013-06-22T04:21:32Z</time>
      </trkpt>
      <trkpt lat="42.96355" lon="-0.77195">
        <ele>1678</ele>
        <time>2013-06-22T04:21:33Z</time>
      </trkpt>
      <trkpt lat="42.96355" lon="-0.77193">
        <ele>1678</ele>
        <time>2013-06-22T04:21:34Z</time>
      </trkpt>
      <trkpt lat="42.96355" lon="-0.77192">
        <ele>1678</ele>
        <time>2013-06-22T04:21:35Z</time>
      </trkpt>
      <trkpt lat="42.96355" lon="-0.77189">
        <ele>1678</ele>
        <time>2013-06-22T04:21:37Z</time>
      </trkpt>
      <trkpt lat="42.96356" lon="-0.77188">
        <ele>1678</ele>
        <time>2013-06-22T04:21:38Z</time>
      </trkpt>
      <trkpt lat="42.96357" lon="-0.77185">
        <ele>1678</ele>
        <time>2013-06-22T04:21:40Z</time>
      </trkpt>
      <trkpt lat="42.96359" lon="-0.77185">
        <ele>1678</ele>
        <time>2013-06-22T04:21:41Z</time>
      </trkpt>
      <trkpt lat="42.9636" lon="-0.77185">
        <ele>1678</ele>
        <time>2013-06-22T04:21:42Z</time>
      </trkpt>
      <trkpt lat="42.96362" lon="-0.77184">
        <ele>1678</ele>
        <time>2013-06-22T04:21:43Z</time>
      </trkpt>
      <trkpt lat="42.96363" lon="-0.77183">
        <ele>1678</ele>
        <time>2013-06-22T04:21:45Z</time>
      </trkpt>
      <trkpt lat="42.96364" lon="-0.77182">
        <ele>1678</ele>
        <time>2013-06-22T04:21:46Z</time>
      </trkpt>
      <trkpt lat="42.96365" lon="-0.7718">
        <ele>1678</ele>
        <time>2013-06-22T04:21:49Z</time>
      </trkpt>
      <trkpt lat="42.96365" lon="-0.77178">
        <ele>1678</ele>
        <time>2013-06-22T04:21:50Z</time>
      </trkpt>
      <trkpt lat="42.96367" lon="-0.77177">
        <ele>1678</ele>
        <time>2013-06-22T04:21:52Z</time>
      </trkpt>
      <trkpt lat="42.96368" lon="-0.77175">
        <ele>1678</ele>
        <time>2013-06-22T04:21:54Z</time>
      </trkpt>
      <trkpt lat="42.9637" lon="-0.77174">
        <ele>1678</ele>
        <time>2013-06-22T04:21:56Z</time>
      </trkpt>
      <trkpt lat="42.96371" lon="-0.77174">
        <ele>1678</ele>
        <time>2013-06-22T04:21:57Z</time>
      </trkpt>
      <trkpt lat="42.96372" lon="-0.77173">
        <ele>1678</ele>
        <time>2013-06-22T04:21:59Z</time>
      </trkpt>
      <trkpt lat="42.96374" lon="-0.77172">
        <ele>1678</ele>
        <time>2013-06-22T04:22:01Z</time>
      </trkpt>
      <trkpt lat="42.96376" lon="-0.7717">
        <ele>1678</ele>
        <time>2013-06-22T04:22:03Z</time>
      </trkpt>
      <trkpt lat="42.96376" lon="-0.77169">
        <ele>1678</ele>
        <time>2013-06-22T04:22:05Z</time>
      </trkpt>
      <trkpt lat="42.96378" lon="-0.77168">
        <ele>1678</ele>
        <time>2013-06-22T04:22:09Z</time>
      </trkpt>
      <trkpt lat="42.96381" lon="-0.77169">
        <ele>1678</ele>
        <time>2013-06-22T04:22:11Z</time>
      </trkpt>
      <trkpt lat="42.96382" lon="-0.7717">
        <ele>1678</ele>
        <time>2013-06-22T04:22:12Z</time>
      </trkpt>
      <trkpt lat="42.96383" lon="-0.7717">
        <ele>1678</ele>
        <time>2013-06-22T04:22:14Z</time>
      </trkpt>
      <trkpt lat="42.96384" lon="-0.77168">
        <ele>1678</ele>
        <time>2013-06-22T04:22:16Z</time>
      </trkpt>
      <trkpt lat="42.96386" lon="-0.77166">
        <ele>1678</ele>
        <time>2013-06-22T04:22:18Z</time>
      </trkpt>
      <trkpt lat="42.96387" lon="-0.77164">
        <ele>1678</ele>
        <time>2013-06-22T04:22:20Z</time>
      </trkpt>
      <trkpt lat="42.96386" lon="-0.7716">
        <ele>1678</ele>
        <time>2013-06-22T04:22:22Z</time>
      </trkpt>
      <trkpt lat="42.96386" lon="-0.77158">
        <ele>1678</ele>
        <time>2013-06-22T04:22:23Z</time>
      </trkpt>
      <trkpt lat="42.96386" lon="-0.77156">
        <ele>1678</ele>
        <time>2013-06-22T04:22:24Z</time>
      </trkpt>
      <trkpt lat="42.96387" lon="-0.77154">
        <ele>1678</ele>
        <time>2013-06-22T04:22:26Z</time>
      </trkpt>
      <trkpt lat="42.96386" lon="-0.77153">
        <ele>1678</ele>
        <time>2013-06-22T04:22:27Z</time>
      </trkpt>
      <trkpt lat="42.96386" lon="-0.77151">
        <ele>1678</ele>
        <time>2013-06-22T04:22:28Z</time>
      </trkpt>
      <trkpt lat="42.96386" lon="-0.77149">
        <ele>1678</ele>
        <time>2013-06-22T04:22:29Z</time>
      </trkpt>
      <trkpt lat="42.96387" lon="-0.77147">
        <ele>1678</ele>
        <time>2013-06-22T04:22:31Z</time>
      </trkpt>
      <trkpt lat="42.96387" lon="-0.77145">
        <ele>1678</ele>
        <time>2013-06-22T04:22:33Z</time>
      </trkpt>
      <trkpt lat="42.96386" lon="-0.77143">
        <ele>1677</ele>
        <time>2013-06-22T04:22:35Z</time>
      </trkpt>
      <trkpt lat="42.96386" lon="-0.7714">
        <ele>1677</ele>
        <time>2013-06-22T04:22:37Z</time>
      </trkpt>
      <trkpt lat="42.96386" lon="-0.77138">
        <ele>1677</ele>
        <time>2013-06-22T04:22:38Z</time>
      </trkpt>
      <trkpt lat="42.96387" lon="-0.77136">
        <ele>1677</ele>
        <time>2013-06-22T04:22:39Z</time>
      </trkpt>
      <trkpt lat="42.96387" lon="-0.77135">
        <ele>1677</ele>
        <time>2013-06-22T04:22:40Z</time>
      </trkpt>
      <trkpt lat="42.96387" lon="-0.77133">
        <ele>1677</ele>
        <time>2013-06-22T04:22:41Z</time>
      </trkpt>
      <trkpt lat="42.96387" lon="-0.77131">
        <ele>1677</ele>
        <time>2013-06-22T04:22:42Z</time>
      </trkpt>
      <trkpt lat="42.96387" lon="-0.77129">
        <ele>1677</ele>
        <time>2013-06-22T04:22:44Z</time>
      </trkpt>
      <trkpt lat="42.96387" lon="-0.77127">
        <ele>1677</ele>
        <time>2013-06-22T04:22:45Z</time>
      </trkpt>
      <trkpt lat="42.96387" lon="-0.77126">
        <ele>1677</ele>
        <time>2013-06-22T04:22:46Z</time>
      </trkpt>
      <trkpt lat="42.96387" lon="-0.77124">
        <ele>1677</ele>
        <time>2013-06-22T04:22:47Z</time>
      </trkpt>
      <trkpt lat="42.96387" lon="-0.77123">
        <ele>1677</ele>
        <time>2013-06-22T04:22:48Z</time>
      </trkpt>
      <trkpt lat="42.96387" lon="-0.77121">
        <ele>1677</ele>
        <time>2013-06-22T04:22:49Z</time>
      </trkpt>
      <trkpt lat="42.96387" lon="-0.7712">
        <ele>1677</ele>
        <time>2013-06-22T04:22:50Z</time>
      </trkpt>
      <trkpt lat="42.96387" lon="-0.77118">
        <ele>1677</ele>
        <time>2013-06-22T04:22:51Z</time>
      </trkpt>
      <trkpt lat="42.96387" lon="-0.77117">
        <ele>1677</ele>
        <time>2013-06-22T04:22:52Z</time>
      </trkpt>
      <trkpt lat="42.96387" lon="-0.77114">
        <ele>1677</ele>
        <time>2013-06-22T04:22:54Z</time>
      </trkpt>
      <trkpt lat="42.96387" lon="-0.77111">
        <ele>1677</ele>
        <time>2013-06-22T04:22:56Z</time>
      </trkpt>
      <trkpt lat="42.96387" lon="-0.77109">
        <ele>1677</ele>
        <time>2013-06-22T04:22:58Z</time>
      </trkpt>
      <trkpt lat="42.96387" lon="-0.77106">
        <ele>1677</ele>
        <time>2013-06-22T04:23:00Z</time>
      </trkpt>
      <trkpt lat="42.96387" lon="-0.77104">
        <ele>1677</ele>
        <time>2013-06-22T04:23:01Z</time>
      </trkpt>
      <trkpt lat="42.96387" lon="-0.77103">
        <ele>1677</ele>
        <time>2013-06-22T04:23:02Z</time>
      </trkpt>
      <trkpt lat="42.96387" lon="-0.77101">
        <ele>1677</ele>
        <time>2013-06-22T04:23:03Z</time>
      </trkpt>
      <trkpt lat="42.96388" lon="-0.771">
        <ele>1677</ele>
        <time>2013-06-22T04:23:04Z</time>
      </trkpt>
      <trkpt lat="42.96388" lon="-0.77098">
        <ele>1677</ele>
        <time>2013-06-22T04:23:05Z</time>
      </trkpt>
      <trkpt lat="42.96389" lon="-0.77096">
        <ele>1677</ele>
        <time>2013-06-22T04:23:07Z</time>
      </trkpt>
      <trkpt lat="42.9639" lon="-0.77093">
        <ele>1677</ele>
        <time>2013-06-22T04:23:09Z</time>
      </trkpt>
      <trkpt lat="42.96391" lon="-0.7709">
        <ele>1677</ele>
        <time>2013-06-22T04:23:11Z</time>
      </trkpt>
      <trkpt lat="42.96392" lon="-0.77089">
        <ele>1677</ele>
        <time>2013-06-22T04:23:12Z</time>
      </trkpt>
      <trkpt lat="42.96392" lon="-0.77087">
        <ele>1677</ele>
        <time>2013-06-22T04:23:14Z</time>
      </trkpt>
      <trkpt lat="42.96392" lon="-0.77085">
        <ele>1677</ele>
        <time>2013-06-22T04:23:23Z</time>
      </trkpt>
      <trkpt lat="42.96391" lon="-0.77084">
        <ele>1677</ele>
        <time>2013-06-22T04:23:29Z</time>
      </trkpt>
      <trkpt lat="42.9639" lon="-0.77082">
        <ele>1677</ele>
        <time>2013-06-22T04:23:33Z</time>
      </trkpt>
      <trkpt lat="42.96389" lon="-0.77081">
        <ele>1677</ele>
        <time>2013-06-22T04:23:44Z</time>
      </trkpt>
      <trkpt lat="42.96391" lon="-0.7708">
        <ele>1678</ele>
        <time>2013-06-22T04:24:02Z</time>
      </trkpt>
      <trkpt lat="42.96392" lon="-0.77079">
        <ele>1678</ele>
        <time>2013-06-22T04:24:50Z</time>
      </trkpt>
      <trkpt lat="42.96391" lon="-0.77079">
        <ele>1678</ele>
        <time>2013-06-22T04:25:49Z</time>
      </trkpt>
      <trkpt lat="42.96392" lon="-0.7708">
        <ele>1678</ele>
        <time>2013-06-22T04:25:58Z</time>
      </trkpt>
      <trkpt lat="42.96391" lon="-0.77079">
        <ele>1678</ele>
        <time>2013-06-22T04:26:14Z</time>
      </trkpt>
      <trkpt lat="42.96389" lon="-0.77078">
        <ele>1678</ele>
        <time>2013-06-22T04:26:26Z</time>
      </trkpt>
      <trkpt lat="42.9639" lon="-0.77079">
        <ele>1678</ele>
        <time>2013-06-22T04:27:29Z</time>
      </trkpt>
      <trkpt lat="42.96391" lon="-0.77081">
        <ele>1678</ele>
        <time>2013-06-22T04:28:08Z</time>
      </trkpt>
      <trkpt lat="42.96391" lon="-0.77079">
        <ele>1678</ele>
        <time>2013-06-22T04:29:16Z</time>
      </trkpt>
      <trkpt lat="42.9639" lon="-0.77078">
        <ele>1678</ele>
        <time>2013-06-22T04:29:19Z</time>
      </trkpt>
      <trkpt lat="42.96389" lon="-0.77076">
        <ele>1680</ele>
        <time>2013-06-22T04:29:28Z</time>
      </trkpt>
      <trkpt lat="42.96389" lon="-0.77077">
        <ele>1680</ele>
        <time>2013-06-22T04:29:36Z</time>
      </trkpt>
      <trkpt lat="42.9639" lon="-0.77076">
        <ele>1680</ele>
        <time>2013-06-22T04:30:06Z</time>
      </trkpt>
      <trkpt lat="42.9639" lon="-0.77074">
        <ele>1680</ele>
        <time>2013-06-22T04:30:08Z</time>
      </trkpt>
      <trkpt lat="42.9639" lon="-0.77072">
        <ele>1680</ele>
        <time>2013-06-22T04:30:10Z</time>
      </trkpt>
      <trkpt lat="42.9639" lon="-0.7707">
        <ele>1680</ele>
        <time>2013-06-22T04:30:12Z</time>
      </trkpt>
      <trkpt lat="42.9639" lon="-0.77068">
        <ele>1680</ele>
        <time>2013-06-22T04:30:14Z</time>
      </trkpt>
      <trkpt lat="42.9639" lon="-0.77066">
        <ele>1680</ele>
        <time>2013-06-22T04:30:16Z</time>
      </trkpt>
      <trkpt lat="42.9639" lon="-0.77064">
        <ele>1680</ele>
        <time>2013-06-22T04:30:18Z</time>
      </trkpt>
      <trkpt lat="42.9639" lon="-0.77061">
        <ele>1680</ele>
        <time>2013-06-22T04:30:20Z</time>
      </trkpt>
      <trkpt lat="42.9639" lon="-0.77059">
        <ele>1680</ele>
        <time>2013-06-22T04:30:22Z</time>
      </trkpt>
      <trkpt lat="42.96389" lon="-0.77056">
        <ele>1680</ele>
        <time>2013-06-22T04:30:24Z</time>
      </trkpt>
      <trkpt lat="42.96389" lon="-0.77054">
        <ele>1680</ele>
        <time>2013-06-22T04:30:26Z</time>
      </trkpt>
      <trkpt lat="42.9639" lon="-0.77052">
        <ele>1680</ele>
        <time>2013-06-22T04:30:28Z</time>
      </trkpt>
      <trkpt lat="42.9639" lon="-0.77049">
        <ele>1680</ele>
        <time>2013-06-22T04:30:30Z</time>
      </trkpt>
      <trkpt lat="42.9639" lon="-0.77047">
        <ele>1680</ele>
        <time>2013-06-22T04:30:32Z</time>
      </trkpt>
      <trkpt lat="42.96391" lon="-0.77045">
        <ele>1680</ele>
        <time>2013-06-22T04:30:34Z</time>
      </trkpt>
      <trkpt lat="42.96391" lon="-0.77043">
        <ele>1680</ele>
        <time>2013-06-22T04:30:36Z</time>
      </trkpt>
      <trkpt lat="42.96392" lon="-0.77041">
        <ele>1680</ele>
        <time>2013-06-22T04:30:38Z</time>
      </trkpt>
      <trkpt lat="42.96392" lon="-0.77039">
        <ele>1680</ele>
        <time>2013-06-22T04:30:40Z</time>
      </trkpt>
      <trkpt lat="42.96393" lon="-0.77037">
        <ele>1680</ele>
        <time>2013-06-22T04:30:42Z</time>
      </trkpt>
      <trkpt lat="42.96394" lon="-0.77035">
        <ele>1680</ele>
        <time>2013-06-22T04:30:44Z</time>
      </trkpt>
      <trkpt lat="42.96394" lon="-0.77033">
        <ele>1680</ele>
        <time>2013-06-22T04:30:46Z</time>
      </trkpt>
      <trkpt lat="42.96395" lon="-0.77031">
        <ele>1680</ele>
        <time>2013-06-22T04:30:48Z</time>
      </trkpt>
      <trkpt lat="42.96396" lon="-0.77029">
        <ele>1680</ele>
        <time>2013-06-22T04:30:50Z</time>
      </trkpt>
      <trkpt lat="42.96397" lon="-0.77027">
        <ele>1680</ele>
        <time>2013-06-22T04:30:52Z</time>
      </trkpt>
      <trkpt lat="42.96397" lon="-0.77025">
        <ele>1680</ele>
        <time>2013-06-22T04:30:54Z</time>
      </trkpt>
      <trkpt lat="42.96399" lon="-0.77023">
        <ele>1680</ele>
        <time>2013-06-22T04:30:56Z</time>
      </trkpt>
      <trkpt lat="42.964" lon="-0.77021">
        <ele>1680</ele>
        <time>2013-06-22T04:30:58Z</time>
      </trkpt>
      <trkpt lat="42.964" lon="-0.77019">
        <ele>1680</ele>
        <time>2013-06-22T04:31:00Z</time>
      </trkpt>
      <trkpt lat="42.96401" lon="-0.77017">
        <ele>1680</ele>
        <time>2013-06-22T04:31:02Z</time>
      </trkpt>
      <trkpt lat="42.96402" lon="-0.77015">
        <ele>1680</ele>
        <time>2013-06-22T04:31:04Z</time>
      </trkpt>
      <trkpt lat="42.96402" lon="-0.77013">
        <ele>1680</ele>
        <time>2013-06-22T04:31:06Z</time>
      </trkpt>
      <trkpt lat="42.96403" lon="-0.77011">
        <ele>1680</ele>
        <time>2013-06-22T04:31:08Z</time>
      </trkpt>
      <trkpt lat="42.96404" lon="-0.77008">
        <ele>1680</ele>
        <time>2013-06-22T04:31:10Z</time>
      </trkpt>
      <trkpt lat="42.96404" lon="-0.77006">
        <ele>1680</ele>
        <time>2013-06-22T04:31:12Z</time>
      </trkpt>
      <trkpt lat="42.96405" lon="-0.77004">
        <ele>1680</ele>
        <time>2013-06-22T04:31:14Z</time>
      </trkpt>
      <trkpt lat="42.96406" lon="-0.77002">
        <ele>1680</ele>
        <time>2013-06-22T04:31:16Z</time>
      </trkpt>
      <trkpt lat="42.96407" lon="-0.76999">
        <ele>1680</ele>
        <time>2013-06-22T04:31:18Z</time>
      </trkpt>
      <trkpt lat="42.96409" lon="-0.76997">
        <ele>1680</ele>
        <time>2013-06-22T04:31:20Z</time>
      </trkpt>
      <trkpt lat="42.9641" lon="-0.76995">
        <ele>1680</ele>
        <time>2013-06-22T04:31:22Z</time>
      </trkpt>
      <trkpt lat="42.96412" lon="-0.76994">
        <ele>1680</ele>
        <time>2013-06-22T04:31:24Z</time>
      </trkpt>
      <trkpt lat="42.96413" lon="-0.76991">
        <ele>1680</ele>
        <time>2013-06-22T04:31:26Z</time>
      </trkpt>
      <trkpt lat="42.96415" lon="-0.7699">
        <ele>1680</ele>
        <time>2013-06-22T04:31:28Z</time>
      </trkpt>
      <trkpt lat="42.96416" lon="-0.76987">
        <ele>1680</ele>
        <time>2013-06-22T04:31:30Z</time>
      </trkpt>
      <trkpt lat="42.96416" lon="-0.76986">
        <ele>1680</ele>
        <time>2013-06-22T04:31:32Z</time>
      </trkpt>
      <trkpt lat="42.96418" lon="-0.76983">
        <ele>1680</ele>
        <time>2013-06-22T04:31:34Z</time>
      </trkpt>
      <trkpt lat="42.96418" lon="-0.76981">
        <ele>1680</ele>
        <time>2013-06-22T04:31:36Z</time>
      </trkpt>
      <trkpt lat="42.96419" lon="-0.76979">
        <ele>1680</ele>
        <time>2013-06-22T04:31:37Z</time>
      </trkpt>
      <trkpt lat="42.9642" lon="-0.76977">
        <ele>1680</ele>
        <time>2013-06-22T04:31:39Z</time>
      </trkpt>
      <trkpt lat="42.9642" lon="-0.76975">
        <ele>1680</ele>
        <time>2013-06-22T04:31:40Z</time>
      </trkpt>
      <trkpt lat="42.96421" lon="-0.76973">
        <ele>1680</ele>
        <time>2013-06-22T04:31:42Z</time>
      </trkpt>
      <trkpt lat="42.96422" lon="-0.76972">
        <ele>1680</ele>
        <time>2013-06-22T04:31:44Z</time>
      </trkpt>
      <trkpt lat="42.96423" lon="-0.76969">
        <ele>1680</ele>
        <time>2013-06-22T04:31:46Z</time>
      </trkpt>
      <trkpt lat="42.96424" lon="-0.76967">
        <ele>1680</ele>
        <time>2013-06-22T04:31:56Z</time>
      </trkpt>
      <trkpt lat="42.96425" lon="-0.76965">
        <ele>1680</ele>
        <time>2013-06-22T04:31:58Z</time>
      </trkpt>
      <trkpt lat="42.96425" lon="-0.76962">
        <ele>1680</ele>
        <time>2013-06-22T04:32:00Z</time>
      </trkpt>
      <trkpt lat="42.96426" lon="-0.7696">
        <ele>1680</ele>
        <time>2013-06-22T04:32:02Z</time>
      </trkpt>
      <trkpt lat="42.96427" lon="-0.76957">
        <ele>1680</ele>
        <time>2013-06-22T04:32:04Z</time>
      </trkpt>
      <trkpt lat="42.96428" lon="-0.76955">
        <ele>1680</ele>
        <time>2013-06-22T04:32:06Z</time>
      </trkpt>
      <trkpt lat="42.96428" lon="-0.76953">
        <ele>1680</ele>
        <time>2013-06-22T04:32:08Z</time>
      </trkpt>
      <trkpt lat="42.96429" lon="-0.76951">
        <ele>1680</ele>
        <time>2013-06-22T04:32:10Z</time>
      </trkpt>
      <trkpt lat="42.96429" lon="-0.76948">
        <ele>1680</ele>
        <time>2013-06-22T04:32:12Z</time>
      </trkpt>
      <trkpt lat="42.9643" lon="-0.76946">
        <ele>1680</ele>
        <time>2013-06-22T04:32:14Z</time>
      </trkpt>
      <trkpt lat="42.9643" lon="-0.76943">
        <ele>1680</ele>
        <time>2013-06-22T04:32:16Z</time>
      </trkpt>
      <trkpt lat="42.96431" lon="-0.76941">
        <ele>1680</ele>
        <time>2013-06-22T04:32:18Z</time>
      </trkpt>
      <trkpt lat="42.96431" lon="-0.76938">
        <ele>1680</ele>
        <time>2013-06-22T04:32:20Z</time>
      </trkpt>
      <trkpt lat="42.96431" lon="-0.76937">
        <ele>1680</ele>
        <time>2013-06-22T04:32:21Z</time>
      </trkpt>
      <trkpt lat="42.96432" lon="-0.76934">
        <ele>1680</ele>
        <time>2013-06-22T04:32:23Z</time>
      </trkpt>
      <trkpt lat="42.96432" lon="-0.76932">
        <ele>1680</ele>
        <time>2013-06-22T04:32:25Z</time>
      </trkpt>
      <trkpt lat="42.96432" lon="-0.76929">
        <ele>1680</ele>
        <time>2013-06-22T04:32:27Z</time>
      </trkpt>
      <trkpt lat="42.96432" lon="-0.76928">
        <ele>1680</ele>
        <time>2013-06-22T04:32:28Z</time>
      </trkpt>
      <trkpt lat="42.96433" lon="-0.76925">
        <ele>1680</ele>
        <time>2013-06-22T04:32:30Z</time>
      </trkpt>
      <trkpt lat="42.96434" lon="-0.76923">
        <ele>1680</ele>
        <time>2013-06-22T04:32:32Z</time>
      </trkpt>
      <trkpt lat="42.96434" lon="-0.76921">
        <ele>1680</ele>
        <time>2013-06-22T04:32:34Z</time>
      </trkpt>
      <trkpt lat="42.96435" lon="-0.76919">
        <ele>1680</ele>
        <time>2013-06-22T04:32:36Z</time>
      </trkpt>
      <trkpt lat="42.96435" lon="-0.76916">
        <ele>1680</ele>
        <time>2013-06-22T04:32:38Z</time>
      </trkpt>
      <trkpt lat="42.96436" lon="-0.76914">
        <ele>1680</ele>
        <time>2013-06-22T04:32:40Z</time>
      </trkpt>
      <trkpt lat="42.96437" lon="-0.76911">
        <ele>1680</ele>
        <time>2013-06-22T04:32:42Z</time>
      </trkpt>
      <trkpt lat="42.96437" lon="-0.76909">
        <ele>1680</ele>
        <time>2013-06-22T04:32:44Z</time>
      </trkpt>
      <trkpt lat="42.96438" lon="-0.76907">
        <ele>1680</ele>
        <time>2013-06-22T04:32:46Z</time>
      </trkpt>
      <trkpt lat="42.96439" lon="-0.76905">
        <ele>1680</ele>
        <time>2013-06-22T04:32:48Z</time>
      </trkpt>
      <trkpt lat="42.96439" lon="-0.76903">
        <ele>1680</ele>
        <time>2013-06-22T04:32:50Z</time>
      </trkpt>
      <trkpt lat="42.96439" lon="-0.76901">
        <ele>1680</ele>
        <time>2013-06-22T04:32:51Z</time>
      </trkpt>
      <trkpt lat="42.96439" lon="-0.769">
        <ele>1680</ele>
        <time>2013-06-22T04:32:52Z</time>
      </trkpt>
      <trkpt lat="42.9644" lon="-0.76898">
        <ele>1680</ele>
        <time>2013-06-22T04:32:54Z</time>
      </trkpt>
      <trkpt lat="42.9644" lon="-0.76896">
        <ele>1680</ele>
        <time>2013-06-22T04:32:56Z</time>
      </trkpt>
      <trkpt lat="42.9644" lon="-0.76894">
        <ele>1681</ele>
        <time>2013-06-22T04:32:58Z</time>
      </trkpt>
      <trkpt lat="42.9644" lon="-0.76891">
        <ele>1681</ele>
        <time>2013-06-22T04:33:00Z</time>
      </trkpt>
      <trkpt lat="42.9644" lon="-0.76889">
        <ele>1682</ele>
        <time>2013-06-22T04:33:02Z</time>
      </trkpt>
      <trkpt lat="42.9644" lon="-0.76887">
        <ele>1682</ele>
        <time>2013-06-22T04:33:04Z</time>
      </trkpt>
      <trkpt lat="42.9644" lon="-0.76885">
        <ele>1682</ele>
        <time>2013-06-22T04:33:06Z</time>
      </trkpt>
      <trkpt lat="42.9644" lon="-0.76882">
        <ele>1683</ele>
        <time>2013-06-22T04:33:08Z</time>
      </trkpt>
      <trkpt lat="42.96439" lon="-0.7688">
        <ele>1683</ele>
        <time>2013-06-22T04:33:10Z</time>
      </trkpt>
      <trkpt lat="42.96439" lon="-0.76878">
        <ele>1683</ele>
        <time>2013-06-22T04:33:12Z</time>
      </trkpt>
      <trkpt lat="42.96438" lon="-0.76875">
        <ele>1683</ele>
        <time>2013-06-22T04:33:14Z</time>
      </trkpt>
      <trkpt lat="42.96438" lon="-0.76873">
        <ele>1683</ele>
        <time>2013-06-22T04:33:16Z</time>
      </trkpt>
      <trkpt lat="42.96438" lon="-0.76871">
        <ele>1683</ele>
        <time>2013-06-22T04:33:17Z</time>
      </trkpt>
      <trkpt lat="42.96437" lon="-0.76869">
        <ele>1684</ele>
        <time>2013-06-22T04:33:19Z</time>
      </trkpt>
      <trkpt lat="42.96437" lon="-0.76867">
        <ele>1684</ele>
        <time>2013-06-22T04:33:21Z</time>
      </trkpt>
      <trkpt lat="42.96436" lon="-0.76864">
        <ele>1684</ele>
        <time>2013-06-22T04:33:23Z</time>
      </trkpt>
      <trkpt lat="42.96436" lon="-0.76862">
        <ele>1685</ele>
        <time>2013-06-22T04:33:25Z</time>
      </trkpt>
      <trkpt lat="42.96436" lon="-0.7686">
        <ele>1685</ele>
        <time>2013-06-22T04:33:27Z</time>
      </trkpt>
      <trkpt lat="42.96436" lon="-0.76858">
        <ele>1685</ele>
        <time>2013-06-22T04:33:29Z</time>
      </trkpt>
      <trkpt lat="42.96435" lon="-0.76856">
        <ele>1685</ele>
        <time>2013-06-22T04:33:31Z</time>
      </trkpt>
      <trkpt lat="42.96435" lon="-0.76854">
        <ele>1685</ele>
        <time>2013-06-22T04:33:33Z</time>
      </trkpt>
      <trkpt lat="42.96434" lon="-0.76851">
        <ele>1686</ele>
        <time>2013-06-22T04:33:35Z</time>
      </trkpt>
      <trkpt lat="42.96434" lon="-0.76848">
        <ele>1686</ele>
        <time>2013-06-22T04:33:37Z</time>
      </trkpt>
      <trkpt lat="42.96434" lon="-0.76846">
        <ele>1686</ele>
        <time>2013-06-22T04:33:39Z</time>
      </trkpt>
      <trkpt lat="42.96433" lon="-0.76844">
        <ele>1686</ele>
        <time>2013-06-22T04:33:41Z</time>
      </trkpt>
      <trkpt lat="42.96431" lon="-0.76843">
        <ele>1687</ele>
        <time>2013-06-22T04:33:43Z</time>
      </trkpt>
      <trkpt lat="42.96429" lon="-0.76842">
        <ele>1687</ele>
        <time>2013-06-22T04:33:45Z</time>
      </trkpt>
      <trkpt lat="42.96428" lon="-0.76841">
        <ele>1687</ele>
        <time>2013-06-22T04:33:47Z</time>
      </trkpt>
      <trkpt lat="42.96426" lon="-0.7684">
        <ele>1687</ele>
        <time>2013-06-22T04:33:49Z</time>
      </trkpt>
      <trkpt lat="42.96425" lon="-0.76838">
        <ele>1687</ele>
        <time>2013-06-22T04:33:51Z</time>
      </trkpt>
      <trkpt lat="42.96423" lon="-0.76836">
        <ele>1687</ele>
        <time>2013-06-22T04:33:54Z</time>
      </trkpt>
      <trkpt lat="42.96422" lon="-0.76834">
        <ele>1687</ele>
        <time>2013-06-22T04:33:57Z</time>
      </trkpt>
      <trkpt lat="42.96421" lon="-0.76833">
        <ele>1687</ele>
        <time>2013-06-22T04:33:59Z</time>
      </trkpt>
      <trkpt lat="42.9642" lon="-0.76831">
        <ele>1687</ele>
        <time>2013-06-22T04:34:02Z</time>
      </trkpt>
      <trkpt lat="42.96419" lon="-0.76829">
        <ele>1687</ele>
        <time>2013-06-22T04:34:04Z</time>
      </trkpt>
      <trkpt lat="42.96419" lon="-0.76828">
        <ele>1687</ele>
        <time>2013-06-22T04:34:06Z</time>
      </trkpt>
      <trkpt lat="42.96418" lon="-0.76826">
        <ele>1687</ele>
        <time>2013-06-22T04:34:08Z</time>
      </trkpt>
      <trkpt lat="42.96418" lon="-0.76824">
        <ele>1688</ele>
        <time>2013-06-22T04:34:10Z</time>
      </trkpt>
      <trkpt lat="42.96419" lon="-0.76822">
        <ele>1688</ele>
        <time>2013-06-22T04:34:12Z</time>
      </trkpt>
      <trkpt lat="42.96419" lon="-0.7682">
        <ele>1689</ele>
        <time>2013-06-22T04:34:14Z</time>
      </trkpt>
      <trkpt lat="42.96419" lon="-0.76818">
        <ele>1689</ele>
        <time>2013-06-22T04:34:16Z</time>
      </trkpt>
      <trkpt lat="42.9642" lon="-0.76816">
        <ele>1690</ele>
        <time>2013-06-22T04:34:18Z</time>
      </trkpt>
      <trkpt lat="42.9642" lon="-0.76814">
        <ele>1690</ele>
        <time>2013-06-22T04:34:20Z</time>
      </trkpt>
      <trkpt lat="42.96421" lon="-0.76812">
        <ele>1690</ele>
        <time>2013-06-22T04:34:22Z</time>
      </trkpt>
      <trkpt lat="42.96421" lon="-0.7681">
        <ele>1690</ele>
        <time>2013-06-22T04:34:24Z</time>
      </trkpt>
      <trkpt lat="42.96423" lon="-0.76808">
        <ele>1690</ele>
        <time>2013-06-22T04:34:26Z</time>
      </trkpt>
      <trkpt lat="42.96424" lon="-0.76806">
        <ele>1690</ele>
        <time>2013-06-22T04:34:28Z</time>
      </trkpt>
      <trkpt lat="42.96425" lon="-0.76806">
        <ele>1691</ele>
        <time>2013-06-22T04:34:31Z</time>
      </trkpt>
      <trkpt lat="42.96426" lon="-0.76805">
        <ele>1691</ele>
        <time>2013-06-22T04:34:33Z</time>
      </trkpt>
      <trkpt lat="42.96428" lon="-0.76805">
        <ele>1692</ele>
        <time>2013-06-22T04:34:35Z</time>
      </trkpt>
      <trkpt lat="42.9643" lon="-0.76804">
        <ele>1692</ele>
        <time>2013-06-22T04:34:37Z</time>
      </trkpt>
      <trkpt lat="42.96431" lon="-0.76802">
        <ele>1693</ele>
        <time>2013-06-22T04:34:39Z</time>
      </trkpt>
      <trkpt lat="42.96432" lon="-0.76802">
        <ele>1693</ele>
        <time>2013-06-22T04:34:41Z</time>
      </trkpt>
      <trkpt lat="42.96433" lon="-0.768">
        <ele>1693</ele>
        <time>2013-06-22T04:34:45Z</time>
      </trkpt>
      <trkpt lat="42.96433" lon="-0.76798">
        <ele>1693</ele>
        <time>2013-06-22T04:34:47Z</time>
      </trkpt>
      <trkpt lat="42.96433" lon="-0.76797">
        <ele>1693</ele>
        <time>2013-06-22T04:34:50Z</time>
      </trkpt>
      <trkpt lat="42.96433" lon="-0.76795">
        <ele>1693</ele>
        <time>2013-06-22T04:34:52Z</time>
      </trkpt>
      <trkpt lat="42.96434" lon="-0.76794">
        <ele>1693</ele>
        <time>2013-06-22T04:35:20Z</time>
      </trkpt>
      <trkpt lat="42.96434" lon="-0.76792">
        <ele>1693</ele>
        <time>2013-06-22T04:35:22Z</time>
      </trkpt>
      <trkpt lat="42.96434" lon="-0.7679">
        <ele>1693</ele>
        <time>2013-06-22T04:35:24Z</time>
      </trkpt>
      <trkpt lat="42.96434" lon="-0.76789">
        <ele>1693</ele>
        <time>2013-06-22T04:35:27Z</time>
      </trkpt>
      <trkpt lat="42.96434" lon="-0.76787">
        <ele>1693</ele>
        <time>2013-06-22T04:35:29Z</time>
      </trkpt>
      <trkpt lat="42.96434" lon="-0.76784">
        <ele>1693</ele>
        <time>2013-06-22T04:35:31Z</time>
      </trkpt>
      <trkpt lat="42.96433" lon="-0.76783">
        <ele>1693</ele>
        <time>2013-06-22T04:35:33Z</time>
      </trkpt>
      <trkpt lat="42.96433" lon="-0.76781">
        <ele>1693</ele>
        <time>2013-06-22T04:35:35Z</time>
      </trkpt>
      <trkpt lat="42.96433" lon="-0.7678">
        <ele>1693</ele>
        <time>2013-06-22T04:35:37Z</time>
      </trkpt>
      <trkpt lat="42.96433" lon="-0.76777">
        <ele>1692</ele>
        <time>2013-06-22T04:35:40Z</time>
      </trkpt>
      <trkpt lat="42.96433" lon="-0.76776">
        <ele>1691</ele>
        <time>2013-06-22T04:35:42Z</time>
      </trkpt>
      <trkpt lat="42.96433" lon="-0.76774">
        <ele>1691</ele>
        <time>2013-06-22T04:35:44Z</time>
      </trkpt>
      <trkpt lat="42.96432" lon="-0.76772">
        <ele>1690</ele>
        <time>2013-06-22T04:35:46Z</time>
      </trkpt>
      <trkpt lat="42.96431" lon="-0.76769">
        <ele>1689</ele>
        <time>2013-06-22T04:35:48Z</time>
      </trkpt>
      <trkpt lat="42.96431" lon="-0.76767">
        <ele>1689</ele>
        <time>2013-06-22T04:35:50Z</time>
      </trkpt>
      <trkpt lat="42.9643" lon="-0.76766">
        <ele>1689</ele>
        <time>2013-06-22T04:35:52Z</time>
      </trkpt>
      <trkpt lat="42.9643" lon="-0.76764">
        <ele>1688</ele>
        <time>2013-06-22T04:35:54Z</time>
      </trkpt>
      <trkpt lat="42.96429" lon="-0.76762">
        <ele>1688</ele>
        <time>2013-06-22T04:35:57Z</time>
      </trkpt>
      <trkpt lat="42.96429" lon="-0.7676">
        <ele>1688</ele>
        <time>2013-06-22T04:36:28Z</time>
      </trkpt>
      <trkpt lat="42.9643" lon="-0.76759">
        <ele>1688</ele>
        <time>2013-06-22T04:36:32Z</time>
      </trkpt>
      <trkpt lat="42.96431" lon="-0.76757">
        <ele>1688</ele>
        <time>2013-06-22T04:36:34Z</time>
      </trkpt>
      <trkpt lat="42.96432" lon="-0.76755">
        <ele>1688</ele>
        <time>2013-06-22T04:36:36Z</time>
      </trkpt>
      <trkpt lat="42.96432" lon="-0.76754">
        <ele>1688</ele>
        <time>2013-06-22T04:36:38Z</time>
      </trkpt>
      <trkpt lat="42.96431" lon="-0.76752">
        <ele>1688</ele>
        <time>2013-06-22T04:36:40Z</time>
      </trkpt>
      <trkpt lat="42.96431" lon="-0.76751">
        <ele>1688</ele>
        <time>2013-06-22T04:36:42Z</time>
      </trkpt>
      <trkpt lat="42.96431" lon="-0.76749">
        <ele>1688</ele>
        <time>2013-06-22T04:36:44Z</time>
      </trkpt>
      <trkpt lat="42.96431" lon="-0.76748">
        <ele>1688</ele>
        <time>2013-06-22T04:36:46Z</time>
      </trkpt>
      <trkpt lat="42.96431" lon="-0.76746">
        <ele>1689</ele>
        <time>2013-06-22T04:36:48Z</time>
      </trkpt>
      <trkpt lat="42.9643" lon="-0.76745">
        <ele>1689</ele>
        <time>2013-06-22T04:36:49Z</time>
      </trkpt>
      <trkpt lat="42.9643" lon="-0.76743">
        <ele>1689</ele>
        <time>2013-06-22T04:36:51Z</time>
      </trkpt>
      <trkpt lat="42.9643" lon="-0.76741">
        <ele>1689</ele>
        <time>2013-06-22T04:36:53Z</time>
      </trkpt>
      <trkpt lat="42.96429" lon="-0.76739">
        <ele>1689</ele>
        <time>2013-06-22T04:36:54Z</time>
      </trkpt>
      <trkpt lat="42.96429" lon="-0.76737">
        <ele>1689</ele>
        <time>2013-06-22T04:36:56Z</time>
      </trkpt>
      <trkpt lat="42.96428" lon="-0.76735">
        <ele>1689</ele>
        <time>2013-06-22T04:36:58Z</time>
      </trkpt>
      <trkpt lat="42.96427" lon="-0.76733">
        <ele>1690</ele>
        <time>2013-06-22T04:37:00Z</time>
      </trkpt>
      <trkpt lat="42.96427" lon="-0.76732">
        <ele>1690</ele>
        <time>2013-06-22T04:37:02Z</time>
      </trkpt>
      <trkpt lat="42.96426" lon="-0.7673">
        <ele>1691</ele>
        <time>2013-06-22T04:37:04Z</time>
      </trkpt>
      <trkpt lat="42.96426" lon="-0.76728">
        <ele>1691</ele>
        <time>2013-06-22T04:37:06Z</time>
      </trkpt>
      <trkpt lat="42.96425" lon="-0.76727">
        <ele>1692</ele>
        <time>2013-06-22T04:37:08Z</time>
      </trkpt>
      <trkpt lat="42.96425" lon="-0.76725">
        <ele>1692</ele>
        <time>2013-06-22T04:37:10Z</time>
      </trkpt>
      <trkpt lat="42.96424" lon="-0.76723">
        <ele>1693</ele>
        <time>2013-06-22T04:37:12Z</time>
      </trkpt>
      <trkpt lat="42.96424" lon="-0.76721">
        <ele>1694</ele>
        <time>2013-06-22T04:37:14Z</time>
      </trkpt>
      <trkpt lat="42.96423" lon="-0.76719">
        <ele>1694</ele>
        <time>2013-06-22T04:37:16Z</time>
      </trkpt>
      <trkpt lat="42.96423" lon="-0.76717">
        <ele>1695</ele>
        <time>2013-06-22T04:37:18Z</time>
      </trkpt>
      <trkpt lat="42.96423" lon="-0.76715">
        <ele>1695</ele>
        <time>2013-06-22T04:37:20Z</time>
      </trkpt>
      <trkpt lat="42.96422" lon="-0.76713">
        <ele>1696</ele>
        <time>2013-06-22T04:37:23Z</time>
      </trkpt>
      <trkpt lat="42.96421" lon="-0.76712">
        <ele>1696</ele>
        <time>2013-06-22T04:37:26Z</time>
      </trkpt>
      <trkpt lat="42.96421" lon="-0.7671">
        <ele>1696</ele>
        <time>2013-06-22T04:37:29Z</time>
      </trkpt>
      <trkpt lat="42.9642" lon="-0.76708">
        <ele>1696</ele>
        <time>2013-06-22T04:37:31Z</time>
      </trkpt>
      <trkpt lat="42.96419" lon="-0.76706">
        <ele>1696</ele>
        <time>2013-06-22T04:37:33Z</time>
      </trkpt>
      <trkpt lat="42.96418" lon="-0.76704">
        <ele>1696</ele>
        <time>2013-06-22T04:37:36Z</time>
      </trkpt>
      <trkpt lat="42.96418" lon="-0.76702">
        <ele>1696</ele>
        <time>2013-06-22T04:37:38Z</time>
      </trkpt>
      <trkpt lat="42.96416" lon="-0.76701">
        <ele>1696</ele>
        <time>2013-06-22T04:37:40Z</time>
      </trkpt>
      <trkpt lat="42.96416" lon="-0.76699">
        <ele>1696</ele>
        <time>2013-06-22T04:37:42Z</time>
      </trkpt>
      <trkpt lat="42.96415" lon="-0.76697">
        <ele>1696</ele>
        <time>2013-06-22T04:37:44Z</time>
      </trkpt>
      <trkpt lat="42.96415" lon="-0.76696">
        <ele>1696</ele>
        <time>2013-06-22T04:37:46Z</time>
      </trkpt>
      <trkpt lat="42.96414" lon="-0.76693">
        <ele>1697</ele>
        <time>2013-06-22T04:37:48Z</time>
      </trkpt>
      <trkpt lat="42.96413" lon="-0.76691">
        <ele>1697</ele>
        <time>2013-06-22T04:37:50Z</time>
      </trkpt>
      <trkpt lat="42.96413" lon="-0.76689">
        <ele>1697</ele>
        <time>2013-06-22T04:37:52Z</time>
      </trkpt>
      <trkpt lat="42.96412" lon="-0.76687">
        <ele>1697</ele>
        <time>2013-06-22T04:37:55Z</time>
      </trkpt>
      <trkpt lat="42.96411" lon="-0.76685">
        <ele>1697</ele>
        <time>2013-06-22T04:37:57Z</time>
      </trkpt>
      <trkpt lat="42.9641" lon="-0.76683">
        <ele>1698</ele>
        <time>2013-06-22T04:37:59Z</time>
      </trkpt>
      <trkpt lat="42.96409" lon="-0.76681">
        <ele>1698</ele>
        <time>2013-06-22T04:38:01Z</time>
      </trkpt>
      <trkpt lat="42.96408" lon="-0.76678">
        <ele>1698</ele>
        <time>2013-06-22T04:38:03Z</time>
      </trkpt>
      <trkpt lat="42.96407" lon="-0.76677">
        <ele>1698</ele>
        <time>2013-06-22T04:38:04Z</time>
      </trkpt>
      <trkpt lat="42.96407" lon="-0.76675">
        <ele>1698</ele>
        <time>2013-06-22T04:38:06Z</time>
      </trkpt>
      <trkpt lat="42.96407" lon="-0.76673">
        <ele>1698</ele>
        <time>2013-06-22T04:38:08Z</time>
      </trkpt>
      <trkpt lat="42.96406" lon="-0.76671">
        <ele>1698</ele>
        <time>2013-06-22T04:38:10Z</time>
      </trkpt>
      <trkpt lat="42.96407" lon="-0.76669">
        <ele>1698</ele>
        <time>2013-06-22T04:38:12Z</time>
      </trkpt>
      <trkpt lat="42.96407" lon="-0.76667">
        <ele>1698</ele>
        <time>2013-06-22T04:38:14Z</time>
      </trkpt>
      <trkpt lat="42.96407" lon="-0.76666">
        <ele>1699</ele>
        <time>2013-06-22T04:38:16Z</time>
      </trkpt>
      <trkpt lat="42.96408" lon="-0.76664">
        <ele>1699</ele>
        <time>2013-06-22T04:38:18Z</time>
      </trkpt>
      <trkpt lat="42.96407" lon="-0.76662">
        <ele>1700</ele>
        <time>2013-06-22T04:38:20Z</time>
      </trkpt>
      <trkpt lat="42.96407" lon="-0.7666">
        <ele>1700</ele>
        <time>2013-06-22T04:38:22Z</time>
      </trkpt>
      <trkpt lat="42.96405" lon="-0.76658">
        <ele>1701</ele>
        <time>2013-06-22T04:38:25Z</time>
      </trkpt>
      <trkpt lat="42.96404" lon="-0.76657">
        <ele>1702</ele>
        <time>2013-06-22T04:38:27Z</time>
      </trkpt>
      <trkpt lat="42.96402" lon="-0.76657">
        <ele>1702</ele>
        <time>2013-06-22T04:38:29Z</time>
      </trkpt>
      <trkpt lat="42.964" lon="-0.76656">
        <ele>1702</ele>
        <time>2013-06-22T04:38:31Z</time>
      </trkpt>
      <trkpt lat="42.96399" lon="-0.76657">
        <ele>1702</ele>
        <time>2013-06-22T04:38:33Z</time>
      </trkpt>
      <trkpt lat="42.96397" lon="-0.76657">
        <ele>1702</ele>
        <time>2013-06-22T04:38:35Z</time>
      </trkpt>
      <trkpt lat="42.96396" lon="-0.76658">
        <ele>1702</ele>
        <time>2013-06-22T04:38:37Z</time>
      </trkpt>
      <trkpt lat="42.96395" lon="-0.76659">
        <ele>1702</ele>
        <time>2013-06-22T04:38:39Z</time>
      </trkpt>
      <trkpt lat="42.96394" lon="-0.76661">
        <ele>1702</ele>
        <time>2013-06-22T04:38:41Z</time>
      </trkpt>
      <trkpt lat="42.96392" lon="-0.76662">
        <ele>1702</ele>
        <time>2013-06-22T04:38:43Z</time>
      </trkpt>
      <trkpt lat="42.96391" lon="-0.76664">
        <ele>1702</ele>
        <time>2013-06-22T04:38:45Z</time>
      </trkpt>
      <trkpt lat="42.96389" lon="-0.76665">
        <ele>1702</ele>
        <time>2013-06-22T04:38:47Z</time>
      </trkpt>
      <trkpt lat="42.96388" lon="-0.76666">
        <ele>1702</ele>
        <time>2013-06-22T04:38:49Z</time>
      </trkpt>
      <trkpt lat="42.96386" lon="-0.76666">
        <ele>1702</ele>
        <time>2013-06-22T04:38:51Z</time>
      </trkpt>
      <trkpt lat="42.96383" lon="-0.76669">
        <ele>1702</ele>
        <time>2013-06-22T04:38:53Z</time>
      </trkpt>
      <trkpt lat="42.96382" lon="-0.76667">
        <ele>1704</ele>
        <time>2013-06-22T04:38:55Z</time>
      </trkpt>
      <trkpt lat="42.96381" lon="-0.76666">
        <ele>1706</ele>
        <time>2013-06-22T04:38:57Z</time>
      </trkpt>
      <trkpt lat="42.9638" lon="-0.76664">
        <ele>1707</ele>
        <time>2013-06-22T04:38:59Z</time>
      </trkpt>
      <trkpt lat="42.96379" lon="-0.76662">
        <ele>1707</ele>
        <time>2013-06-22T04:39:01Z</time>
      </trkpt>
      <trkpt lat="42.96378" lon="-0.7666">
        <ele>1707</ele>
        <time>2013-06-22T04:39:03Z</time>
      </trkpt>
      <trkpt lat="42.96377" lon="-0.76658">
        <ele>1707</ele>
        <time>2013-06-22T04:39:05Z</time>
      </trkpt>
      <trkpt lat="42.96377" lon="-0.76657">
        <ele>1707</ele>
        <time>2013-06-22T04:39:07Z</time>
      </trkpt>
      <trkpt lat="42.96376" lon="-0.76655">
        <ele>1707</ele>
        <time>2013-06-22T04:39:09Z</time>
      </trkpt>
      <trkpt lat="42.96376" lon="-0.76652">
        <ele>1707</ele>
        <time>2013-06-22T04:39:11Z</time>
      </trkpt>
      <trkpt lat="42.96376" lon="-0.7665">
        <ele>1707</ele>
        <time>2013-06-22T04:39:13Z</time>
      </trkpt>
      <trkpt lat="42.96376" lon="-0.76648">
        <ele>1707</ele>
        <time>2013-06-22T04:39:15Z</time>
      </trkpt>
      <trkpt lat="42.96375" lon="-0.76645">
        <ele>1707</ele>
        <time>2013-06-22T04:39:17Z</time>
      </trkpt>
      <trkpt lat="42.96375" lon="-0.76643">
        <ele>1707</ele>
        <time>2013-06-22T04:39:19Z</time>
      </trkpt>
      <trkpt lat="42.96375" lon="-0.76641">
        <ele>1707</ele>
        <time>2013-06-22T04:39:21Z</time>
      </trkpt>
      <trkpt lat="42.96375" lon="-0.76639">
        <ele>1707</ele>
        <time>2013-06-22T04:39:23Z</time>
      </trkpt>
      <trkpt lat="42.96375" lon="-0.76637">
        <ele>1707</ele>
        <time>2013-06-22T04:39:25Z</time>
      </trkpt>
      <trkpt lat="42.96375" lon="-0.76636">
        <ele>1707</ele>
        <time>2013-06-22T04:39:27Z</time>
      </trkpt>
      <trkpt lat="42.96375" lon="-0.76634">
        <ele>1707</ele>
        <time>2013-06-22T04:39:30Z</time>
      </trkpt>
      <trkpt lat="42.96375" lon="-0.76632">
        <ele>1707</ele>
        <time>2013-06-22T04:39:32Z</time>
      </trkpt>
      <trkpt lat="42.96375" lon="-0.76631">
        <ele>1707</ele>
        <time>2013-06-22T04:39:34Z</time>
      </trkpt>
      <trkpt lat="42.96375" lon="-0.76629">
        <ele>1707</ele>
        <time>2013-06-22T04:39:36Z</time>
      </trkpt>
      <trkpt lat="42.96376" lon="-0.76627">
        <ele>1707</ele>
        <time>2013-06-22T04:39:38Z</time>
      </trkpt>
      <trkpt lat="42.96376" lon="-0.76626">
        <ele>1707</ele>
        <time>2013-06-22T04:39:40Z</time>
      </trkpt>
      <trkpt lat="42.96376" lon="-0.76624">
        <ele>1707</ele>
        <time>2013-06-22T04:39:43Z</time>
      </trkpt>
      <trkpt lat="42.96377" lon="-0.76622">
        <ele>1707</ele>
        <time>2013-06-22T04:39:46Z</time>
      </trkpt>
      <trkpt lat="42.96377" lon="-0.76621">
        <ele>1707</ele>
        <time>2013-06-22T04:39:48Z</time>
      </trkpt>
      <trkpt lat="42.96378" lon="-0.7662">
        <ele>1707</ele>
        <time>2013-06-22T04:39:52Z</time>
      </trkpt>
      <trkpt lat="42.96379" lon="-0.76618">
        <ele>1707</ele>
        <time>2013-06-22T04:39:58Z</time>
      </trkpt>
      <trkpt lat="42.96379" lon="-0.76617">
        <ele>1707</ele>
        <time>2013-06-22T04:39:59Z</time>
      </trkpt>
      <trkpt lat="42.9638" lon="-0.76615">
        <ele>1707</ele>
        <time>2013-06-22T04:40:00Z</time>
      </trkpt>
      <trkpt lat="42.96379" lon="-0.76613">
        <ele>1707</ele>
        <time>2013-06-22T04:40:02Z</time>
      </trkpt>
      <trkpt lat="42.96379" lon="-0.76611">
        <ele>1707</ele>
        <time>2013-06-22T04:40:04Z</time>
      </trkpt>
      <trkpt lat="42.96378" lon="-0.76609">
        <ele>1707</ele>
        <time>2013-06-22T04:40:06Z</time>
      </trkpt>
      <trkpt lat="42.96376" lon="-0.76607">
        <ele>1707</ele>
        <time>2013-06-22T04:40:07Z</time>
      </trkpt>
      <trkpt lat="42.96375" lon="-0.76605">
        <ele>1706</ele>
        <time>2013-06-22T04:40:08Z</time>
      </trkpt>
      <trkpt lat="42.96375" lon="-0.76604">
        <ele>1706</ele>
        <time>2013-06-22T04:40:09Z</time>
      </trkpt>
      <trkpt lat="42.96373" lon="-0.76602">
        <ele>1705</ele>
        <time>2013-06-22T04:40:11Z</time>
      </trkpt>
      <trkpt lat="42.96372" lon="-0.76599">
        <ele>1705</ele>
        <time>2013-06-22T04:40:13Z</time>
      </trkpt>
      <trkpt lat="42.96372" lon="-0.76597">
        <ele>1704</ele>
        <time>2013-06-22T04:40:15Z</time>
      </trkpt>
      <trkpt lat="42.96372" lon="-0.76595">
        <ele>1704</ele>
        <time>2013-06-22T04:40:17Z</time>
      </trkpt>
      <trkpt lat="42.96371" lon="-0.76593">
        <ele>1704</ele>
        <time>2013-06-22T04:40:19Z</time>
      </trkpt>
      <trkpt lat="42.96371" lon="-0.76591">
        <ele>1704</ele>
        <time>2013-06-22T04:40:21Z</time>
      </trkpt>
      <trkpt lat="42.96371" lon="-0.76589">
        <ele>1704</ele>
        <time>2013-06-22T04:40:23Z</time>
      </trkpt>
      <trkpt lat="42.96371" lon="-0.76587">
        <ele>1704</ele>
        <time>2013-06-22T04:40:25Z</time>
      </trkpt>
      <trkpt lat="42.96371" lon="-0.76586">
        <ele>1704</ele>
        <time>2013-06-22T04:40:27Z</time>
      </trkpt>
      <trkpt lat="42.96371" lon="-0.76584">
        <ele>1704</ele>
        <time>2013-06-22T04:40:29Z</time>
      </trkpt>
      <trkpt lat="42.9637" lon="-0.76582">
        <ele>1704</ele>
        <time>2013-06-22T04:40:31Z</time>
      </trkpt>
      <trkpt lat="42.9637" lon="-0.76579">
        <ele>1704</ele>
        <time>2013-06-22T04:40:33Z</time>
      </trkpt>
      <trkpt lat="42.96369" lon="-0.76577">
        <ele>1704</ele>
        <time>2013-06-22T04:40:35Z</time>
      </trkpt>
      <trkpt lat="42.96368" lon="-0.76575">
        <ele>1704</ele>
        <time>2013-06-22T04:40:37Z</time>
      </trkpt>
      <trkpt lat="42.96368" lon="-0.76573">
        <ele>1704</ele>
        <time>2013-06-22T04:40:39Z</time>
      </trkpt>
      <trkpt lat="42.96368" lon="-0.76572">
        <ele>1704</ele>
        <time>2013-06-22T04:40:41Z</time>
      </trkpt>
      <trkpt lat="42.96367" lon="-0.7657">
        <ele>1704</ele>
        <time>2013-06-22T04:40:43Z</time>
      </trkpt>
      <trkpt lat="42.96367" lon="-0.76568">
        <ele>1704</ele>
        <time>2013-06-22T04:40:45Z</time>
      </trkpt>
      <trkpt lat="42.96366" lon="-0.76566">
        <ele>1704</ele>
        <time>2013-06-22T04:40:47Z</time>
      </trkpt>
      <trkpt lat="42.96366" lon="-0.76564">
        <ele>1704</ele>
        <time>2013-06-22T04:40:49Z</time>
      </trkpt>
      <trkpt lat="42.96365" lon="-0.76562">
        <ele>1705</ele>
        <time>2013-06-22T04:40:51Z</time>
      </trkpt>
      <trkpt lat="42.96365" lon="-0.7656">
        <ele>1705</ele>
        <time>2013-06-22T04:40:53Z</time>
      </trkpt>
      <trkpt lat="42.96364" lon="-0.76558">
        <ele>1705</ele>
        <time>2013-06-22T04:40:55Z</time>
      </trkpt>
      <trkpt lat="42.96363" lon="-0.76556">
        <ele>1705</ele>
        <time>2013-06-22T04:40:58Z</time>
      </trkpt>
      <trkpt lat="42.96363" lon="-0.76554">
        <ele>1705</ele>
        <time>2013-06-22T04:41:01Z</time>
      </trkpt>
      <trkpt lat="42.96362" lon="-0.76553">
        <ele>1705</ele>
        <time>2013-06-22T04:41:03Z</time>
      </trkpt>
      <trkpt lat="42.96362" lon="-0.76551">
        <ele>1705</ele>
        <time>2013-06-22T04:41:05Z</time>
      </trkpt>
      <trkpt lat="42.96361" lon="-0.7655">
        <ele>1705</ele>
        <time>2013-06-22T04:41:07Z</time>
      </trkpt>
      <trkpt lat="42.9636" lon="-0.76547">
        <ele>1705</ele>
        <time>2013-06-22T04:41:09Z</time>
      </trkpt>
      <trkpt lat="42.96359" lon="-0.76545">
        <ele>1705</ele>
        <time>2013-06-22T04:41:11Z</time>
      </trkpt>
      <trkpt lat="42.96359" lon="-0.76543">
        <ele>1705</ele>
        <time>2013-06-22T04:41:13Z</time>
      </trkpt>
      <trkpt lat="42.96358" lon="-0.76542">
        <ele>1705</ele>
        <time>2013-06-22T04:41:15Z</time>
      </trkpt>
      <trkpt lat="42.96357" lon="-0.7654">
        <ele>1705</ele>
        <time>2013-06-22T04:41:17Z</time>
      </trkpt>
      <trkpt lat="42.96357" lon="-0.76538">
        <ele>1705</ele>
        <time>2013-06-22T04:41:19Z</time>
      </trkpt>
      <trkpt lat="42.96356" lon="-0.76536">
        <ele>1705</ele>
        <time>2013-06-22T04:41:21Z</time>
      </trkpt>
      <trkpt lat="42.96356" lon="-0.76535">
        <ele>1705</ele>
        <time>2013-06-22T04:41:23Z</time>
      </trkpt>
      <trkpt lat="42.96355" lon="-0.76533">
        <ele>1705</ele>
        <time>2013-06-22T04:41:25Z</time>
      </trkpt>
      <trkpt lat="42.96355" lon="-0.76531">
        <ele>1705</ele>
        <time>2013-06-22T04:41:27Z</time>
      </trkpt>
      <trkpt lat="42.96355" lon="-0.76529">
        <ele>1705</ele>
        <time>2013-06-22T04:41:29Z</time>
      </trkpt>
      <trkpt lat="42.96354" lon="-0.76527">
        <ele>1705</ele>
        <time>2013-06-22T04:41:31Z</time>
      </trkpt>
      <trkpt lat="42.96353" lon="-0.76525">
        <ele>1705</ele>
        <time>2013-06-22T04:41:33Z</time>
      </trkpt>
      <trkpt lat="42.96353" lon="-0.76524">
        <ele>1705</ele>
        <time>2013-06-22T04:41:35Z</time>
      </trkpt>
      <trkpt lat="42.96352" lon="-0.76522">
        <ele>1705</ele>
        <time>2013-06-22T04:41:37Z</time>
      </trkpt>
      <trkpt lat="42.96352" lon="-0.7652">
        <ele>1705</ele>
        <time>2013-06-22T04:41:39Z</time>
      </trkpt>
      <trkpt lat="42.96352" lon="-0.76518">
        <ele>1705</ele>
        <time>2013-06-22T04:41:41Z</time>
      </trkpt>
      <trkpt lat="42.96352" lon="-0.76516">
        <ele>1705</ele>
        <time>2013-06-22T04:41:43Z</time>
      </trkpt>
      <trkpt lat="42.96352" lon="-0.76513">
        <ele>1705</ele>
        <time>2013-06-22T04:41:45Z</time>
      </trkpt>
      <trkpt lat="42.96352" lon="-0.76512">
        <ele>1705</ele>
        <time>2013-06-22T04:41:47Z</time>
      </trkpt>
      <trkpt lat="42.96352" lon="-0.7651">
        <ele>1705</ele>
        <time>2013-06-22T04:41:48Z</time>
      </trkpt>
      <trkpt lat="42.96352" lon="-0.76508">
        <ele>1704</ele>
        <time>2013-06-22T04:41:50Z</time>
      </trkpt>
      <trkpt lat="42.96352" lon="-0.76505">
        <ele>1704</ele>
        <time>2013-06-22T04:41:52Z</time>
      </trkpt>
      <trkpt lat="42.96352" lon="-0.76503">
        <ele>1704</ele>
        <time>2013-06-22T04:41:54Z</time>
      </trkpt>
      <trkpt lat="42.96352" lon="-0.76501">
        <ele>1704</ele>
        <time>2013-06-22T04:41:55Z</time>
      </trkpt>
      <trkpt lat="42.96353" lon="-0.76499">
        <ele>1704</ele>
        <time>2013-06-22T04:41:57Z</time>
      </trkpt>
      <trkpt lat="42.96353" lon="-0.76498">
        <ele>1704</ele>
        <time>2013-06-22T04:41:58Z</time>
      </trkpt>
      <trkpt lat="42.96354" lon="-0.76495">
        <ele>1704</ele>
        <time>2013-06-22T04:42:00Z</time>
      </trkpt>
      <trkpt lat="42.96354" lon="-0.76493">
        <ele>1704</ele>
        <time>2013-06-22T04:42:02Z</time>
      </trkpt>
      <trkpt lat="42.96355" lon="-0.76491">
        <ele>1704</ele>
        <time>2013-06-22T04:42:03Z</time>
      </trkpt>
      <trkpt lat="42.96355" lon="-0.7649">
        <ele>1704</ele>
        <time>2013-06-22T04:42:04Z</time>
      </trkpt>
      <trkpt lat="42.96356" lon="-0.76488">
        <ele>1704</ele>
        <time>2013-06-22T04:42:07Z</time>
      </trkpt>
      <trkpt lat="42.96357" lon="-0.76485">
        <ele>1704</ele>
        <time>2013-06-22T04:42:09Z</time>
      </trkpt>
      <trkpt lat="42.96357" lon="-0.76482">
        <ele>1704</ele>
        <time>2013-06-22T04:42:11Z</time>
      </trkpt>
      <trkpt lat="42.96357" lon="-0.7648">
        <ele>1704</ele>
        <time>2013-06-22T04:42:13Z</time>
      </trkpt>
      <trkpt lat="42.96357" lon="-0.76478">
        <ele>1704</ele>
        <time>2013-06-22T04:42:15Z</time>
      </trkpt>
      <trkpt lat="42.96357" lon="-0.76476">
        <ele>1704</ele>
        <time>2013-06-22T04:42:17Z</time>
      </trkpt>
      <trkpt lat="42.96357" lon="-0.76474">
        <ele>1704</ele>
        <time>2013-06-22T04:42:18Z</time>
      </trkpt>
      <trkpt lat="42.96357" lon="-0.76472">
        <ele>1704</ele>
        <time>2013-06-22T04:42:20Z</time>
      </trkpt>
      <trkpt lat="42.96357" lon="-0.76469">
        <ele>1704</ele>
        <time>2013-06-22T04:42:22Z</time>
      </trkpt>
      <trkpt lat="42.96357" lon="-0.76467">
        <ele>1704</ele>
        <time>2013-06-22T04:42:24Z</time>
      </trkpt>
      <trkpt lat="42.96357" lon="-0.76466">
        <ele>1704</ele>
        <time>2013-06-22T04:42:25Z</time>
      </trkpt>
      <trkpt lat="42.96357" lon="-0.76463">
        <ele>1704</ele>
        <time>2013-06-22T04:42:27Z</time>
      </trkpt>
      <trkpt lat="42.96357" lon="-0.76461">
        <ele>1704</ele>
        <time>2013-06-22T04:42:29Z</time>
      </trkpt>
      <trkpt lat="42.96357" lon="-0.76458">
        <ele>1704</ele>
        <time>2013-06-22T04:42:31Z</time>
      </trkpt>
      <trkpt lat="42.96358" lon="-0.76457">
        <ele>1704</ele>
        <time>2013-06-22T04:42:32Z</time>
      </trkpt>
      <trkpt lat="42.96358" lon="-0.76454">
        <ele>1704</ele>
        <time>2013-06-22T04:42:34Z</time>
      </trkpt>
      <trkpt lat="42.96358" lon="-0.76453">
        <ele>1704</ele>
        <time>2013-06-22T04:42:36Z</time>
      </trkpt>
      <trkpt lat="42.96358" lon="-0.76451">
        <ele>1704</ele>
        <time>2013-06-22T04:42:38Z</time>
      </trkpt>
      <trkpt lat="42.96358" lon="-0.76449">
        <ele>1704</ele>
        <time>2013-06-22T04:42:40Z</time>
      </trkpt>
      <trkpt lat="42.96357" lon="-0.76447">
        <ele>1704</ele>
        <time>2013-06-22T04:42:42Z</time>
      </trkpt>
      <trkpt lat="42.96358" lon="-0.76445">
        <ele>1704</ele>
        <time>2013-06-22T04:42:44Z</time>
      </trkpt>
      <trkpt lat="42.96359" lon="-0.76443">
        <ele>1704</ele>
        <time>2013-06-22T04:42:46Z</time>
      </trkpt>
      <trkpt lat="42.9636" lon="-0.76441">
        <ele>1704</ele>
        <time>2013-06-22T04:42:48Z</time>
      </trkpt>
      <trkpt lat="42.96362" lon="-0.76439">
        <ele>1704</ele>
        <time>2013-06-22T04:42:50Z</time>
      </trkpt>
      <trkpt lat="42.96362" lon="-0.76437">
        <ele>1704</ele>
        <time>2013-06-22T04:42:52Z</time>
      </trkpt>
      <trkpt lat="42.96363" lon="-0.76435">
        <ele>1704</ele>
        <time>2013-06-22T04:42:54Z</time>
      </trkpt>
      <trkpt lat="42.96365" lon="-0.76433">
        <ele>1704</ele>
        <time>2013-06-22T04:42:56Z</time>
      </trkpt>
      <trkpt lat="42.96366" lon="-0.76432">
        <ele>1704</ele>
        <time>2013-06-22T04:42:58Z</time>
      </trkpt>
      <trkpt lat="42.96367" lon="-0.7643">
        <ele>1704</ele>
        <time>2013-06-22T04:43:00Z</time>
      </trkpt>
      <trkpt lat="42.96367" lon="-0.76427">
        <ele>1703</ele>
        <time>2013-06-22T04:43:02Z</time>
      </trkpt>
      <trkpt lat="42.96367" lon="-0.76426">
        <ele>1703</ele>
        <time>2013-06-22T04:43:03Z</time>
      </trkpt>
      <trkpt lat="42.96367" lon="-0.76424">
        <ele>1703</ele>
        <time>2013-06-22T04:43:04Z</time>
      </trkpt>
      <trkpt lat="42.96366" lon="-0.76422">
        <ele>1703</ele>
        <time>2013-06-22T04:43:06Z</time>
      </trkpt>
      <trkpt lat="42.96366" lon="-0.7642">
        <ele>1703</ele>
        <time>2013-06-22T04:43:07Z</time>
      </trkpt>
      <trkpt lat="42.96366" lon="-0.76418">
        <ele>1703</ele>
        <time>2013-06-22T04:43:09Z</time>
      </trkpt>
      <trkpt lat="42.96366" lon="-0.76416">
        <ele>1703</ele>
        <time>2013-06-22T04:43:11Z</time>
      </trkpt>
      <trkpt lat="42.96366" lon="-0.76414">
        <ele>1703</ele>
        <time>2013-06-22T04:43:13Z</time>
      </trkpt>
      <trkpt lat="42.96366" lon="-0.76412">
        <ele>1703</ele>
        <time>2013-06-22T04:43:15Z</time>
      </trkpt>
      <trkpt lat="42.96366" lon="-0.76411">
        <ele>1703</ele>
        <time>2013-06-22T04:43:17Z</time>
      </trkpt>
      <trkpt lat="42.96366" lon="-0.76409">
        <ele>1703</ele>
        <time>2013-06-22T04:43:19Z</time>
      </trkpt>
      <trkpt lat="42.96367" lon="-0.76407">
        <ele>1703</ele>
        <time>2013-06-22T04:43:21Z</time>
      </trkpt>
      <trkpt lat="42.96368" lon="-0.76405">
        <ele>1703</ele>
        <time>2013-06-22T04:43:24Z</time>
      </trkpt>
      <trkpt lat="42.96367" lon="-0.76404">
        <ele>1703</ele>
        <time>2013-06-22T04:43:26Z</time>
      </trkpt>
      <trkpt lat="42.96368" lon="-0.76402">
        <ele>1703</ele>
        <time>2013-06-22T04:43:28Z</time>
      </trkpt>
      <trkpt lat="42.96367" lon="-0.76401">
        <ele>1703</ele>
        <time>2013-06-22T04:43:30Z</time>
      </trkpt>
      <trkpt lat="42.96367" lon="-0.76399">
        <ele>1703</ele>
        <time>2013-06-22T04:43:32Z</time>
      </trkpt>
      <trkpt lat="42.96367" lon="-0.76397">
        <ele>1703</ele>
        <time>2013-06-22T04:43:34Z</time>
      </trkpt>
      <trkpt lat="42.96367" lon="-0.76395">
        <ele>1703</ele>
        <time>2013-06-22T04:43:36Z</time>
      </trkpt>
      <trkpt lat="42.96367" lon="-0.76393">
        <ele>1704</ele>
        <time>2013-06-22T04:43:38Z</time>
      </trkpt>
      <trkpt lat="42.96367" lon="-0.76391">
        <ele>1704</ele>
        <time>2013-06-22T04:43:40Z</time>
      </trkpt>
      <trkpt lat="42.96367" lon="-0.76389">
        <ele>1704</ele>
        <time>2013-06-22T04:43:42Z</time>
      </trkpt>
      <trkpt lat="42.96367" lon="-0.76386">
        <ele>1704</ele>
        <time>2013-06-22T04:43:44Z</time>
      </trkpt>
      <trkpt lat="42.96367" lon="-0.76384">
        <ele>1704</ele>
        <time>2013-06-22T04:43:46Z</time>
      </trkpt>
      <trkpt lat="42.96367" lon="-0.76382">
        <ele>1704</ele>
        <time>2013-06-22T04:43:48Z</time>
      </trkpt>
      <trkpt lat="42.96366" lon="-0.7638">
        <ele>1704</ele>
        <time>2013-06-22T04:43:50Z</time>
      </trkpt>
      <trkpt lat="42.96366" lon="-0.76378">
        <ele>1704</ele>
        <time>2013-06-22T04:43:52Z</time>
      </trkpt>
      <trkpt lat="42.96366" lon="-0.76376">
        <ele>1704</ele>
        <time>2013-06-22T04:43:54Z</time>
      </trkpt>
      <trkpt lat="42.96366" lon="-0.76374">
        <ele>1704</ele>
        <time>2013-06-22T04:43:56Z</time>
      </trkpt>
      <trkpt lat="42.96366" lon="-0.76372">
        <ele>1704</ele>
        <time>2013-06-22T04:43:58Z</time>
      </trkpt>
      <trkpt lat="42.96366" lon="-0.7637">
        <ele>1704</ele>
        <time>2013-06-22T04:44:00Z</time>
      </trkpt>
      <trkpt lat="42.96367" lon="-0.76368">
        <ele>1704</ele>
        <time>2013-06-22T04:44:02Z</time>
      </trkpt>
      <trkpt lat="42.96367" lon="-0.76366">
        <ele>1705</ele>
        <time>2013-06-22T04:44:04Z</time>
      </trkpt>
      <trkpt lat="42.96368" lon="-0.76364">
        <ele>1705</ele>
        <time>2013-06-22T04:44:06Z</time>
      </trkpt>
      <trkpt lat="42.96368" lon="-0.76362">
        <ele>1705</ele>
        <time>2013-06-22T04:44:08Z</time>
      </trkpt>
      <trkpt lat="42.96368" lon="-0.76359">
        <ele>1705</ele>
        <time>2013-06-22T04:44:10Z</time>
      </trkpt>
      <trkpt lat="42.96368" lon="-0.76357">
        <ele>1705</ele>
        <time>2013-06-22T04:44:12Z</time>
      </trkpt>
      <trkpt lat="42.96368" lon="-0.76355">
        <ele>1705</ele>
        <time>2013-06-22T04:44:14Z</time>
      </trkpt>
      <trkpt lat="42.96368" lon="-0.76352">
        <ele>1706</ele>
        <time>2013-06-22T04:44:16Z</time>
      </trkpt>
      <trkpt lat="42.96367" lon="-0.76351">
        <ele>1706</ele>
        <time>2013-06-22T04:44:17Z</time>
      </trkpt>
      <trkpt lat="42.96367" lon="-0.76349">
        <ele>1706</ele>
        <time>2013-06-22T04:44:19Z</time>
      </trkpt>
      <trkpt lat="42.96367" lon="-0.76346">
        <ele>1706</ele>
        <time>2013-06-22T04:44:21Z</time>
      </trkpt>
      <trkpt lat="42.96367" lon="-0.76344">
        <ele>1706</ele>
        <time>2013-06-22T04:44:23Z</time>
      </trkpt>
      <trkpt lat="42.96366" lon="-0.76343">
        <ele>1706</ele>
        <time>2013-06-22T04:44:24Z</time>
      </trkpt>
      <trkpt lat="42.96366" lon="-0.76341">
        <ele>1706</ele>
        <time>2013-06-22T04:44:26Z</time>
      </trkpt>
      <trkpt lat="42.96367" lon="-0.7634">
        <ele>1706</ele>
        <time>2013-06-22T04:44:28Z</time>
      </trkpt>
      <trkpt lat="42.96367" lon="-0.76337">
        <ele>1706</ele>
        <time>2013-06-22T04:44:31Z</time>
      </trkpt>
      <trkpt lat="42.96367" lon="-0.76336">
        <ele>1706</ele>
        <time>2013-06-22T04:44:33Z</time>
      </trkpt>
      <trkpt lat="42.96367" lon="-0.76334">
        <ele>1706</ele>
        <time>2013-06-22T04:44:35Z</time>
      </trkpt>
      <trkpt lat="42.96367" lon="-0.76333">
        <ele>1706</ele>
        <time>2013-06-22T04:44:37Z</time>
      </trkpt>
      <trkpt lat="42.96367" lon="-0.76331">
        <ele>1707</ele>
        <time>2013-06-22T04:44:39Z</time>
      </trkpt>
      <trkpt lat="42.96368" lon="-0.76329">
        <ele>1707</ele>
        <time>2013-06-22T04:44:41Z</time>
      </trkpt>
      <trkpt lat="42.96368" lon="-0.76327">
        <ele>1707</ele>
        <time>2013-06-22T04:44:43Z</time>
      </trkpt>
      <trkpt lat="42.96368" lon="-0.76325">
        <ele>1707</ele>
        <time>2013-06-22T04:44:45Z</time>
      </trkpt>
      <trkpt lat="42.96369" lon="-0.76323">
        <ele>1707</ele>
        <time>2013-06-22T04:44:47Z</time>
      </trkpt>
      <trkpt lat="42.96369" lon="-0.76321">
        <ele>1707</ele>
        <time>2013-06-22T04:44:49Z</time>
      </trkpt>
      <trkpt lat="42.96369" lon="-0.76319">
        <ele>1707</ele>
        <time>2013-06-22T04:44:51Z</time>
      </trkpt>
      <trkpt lat="42.96369" lon="-0.76318">
        <ele>1708</ele>
        <time>2013-06-22T04:44:53Z</time>
      </trkpt>
      <trkpt lat="42.96369" lon="-0.76316">
        <ele>1708</ele>
        <time>2013-06-22T04:44:55Z</time>
      </trkpt>
      <trkpt lat="42.96368" lon="-0.76314">
        <ele>1709</ele>
        <time>2013-06-22T04:44:57Z</time>
      </trkpt>
      <trkpt lat="42.96368" lon="-0.76312">
        <ele>1709</ele>
        <time>2013-06-22T04:45:00Z</time>
      </trkpt>
      <trkpt lat="42.96368" lon="-0.76311">
        <ele>1710</ele>
        <time>2013-06-22T04:45:02Z</time>
      </trkpt>
      <trkpt lat="42.96368" lon="-0.76309">
        <ele>1712</ele>
        <time>2013-06-22T04:45:04Z</time>
      </trkpt>
      <trkpt lat="42.96368" lon="-0.76307">
        <ele>1713</ele>
        <time>2013-06-22T04:45:07Z</time>
      </trkpt>
      <trkpt lat="42.96369" lon="-0.76306">
        <ele>1713</ele>
        <time>2013-06-22T04:45:10Z</time>
      </trkpt>
      <trkpt lat="42.96368" lon="-0.76304">
        <ele>1714</ele>
        <time>2013-06-22T04:45:12Z</time>
      </trkpt>
      <trkpt lat="42.96369" lon="-0.76302">
        <ele>1714</ele>
        <time>2013-06-22T04:45:15Z</time>
      </trkpt>
      <trkpt lat="42.9637" lon="-0.76301">
        <ele>1714</ele>
        <time>2013-06-22T04:45:17Z</time>
      </trkpt>
      <trkpt lat="42.9637" lon="-0.76299">
        <ele>1714</ele>
        <time>2013-06-22T04:45:19Z</time>
      </trkpt>
      <trkpt lat="42.9637" lon="-0.76297">
        <ele>1715</ele>
        <time>2013-06-22T04:45:21Z</time>
      </trkpt>
      <trkpt lat="42.96369" lon="-0.76294">
        <ele>1715</ele>
        <time>2013-06-22T04:45:23Z</time>
      </trkpt>
      <trkpt lat="42.96369" lon="-0.76293">
        <ele>1715</ele>
        <time>2013-06-22T04:45:25Z</time>
      </trkpt>
      <trkpt lat="42.96368" lon="-0.7629">
        <ele>1715</ele>
        <time>2013-06-22T04:45:27Z</time>
      </trkpt>
      <trkpt lat="42.96368" lon="-0.76288">
        <ele>1715</ele>
        <time>2013-06-22T04:45:29Z</time>
      </trkpt>
      <trkpt lat="42.96368" lon="-0.76286">
        <ele>1715</ele>
        <time>2013-06-22T04:45:31Z</time>
      </trkpt>
      <trkpt lat="42.96367" lon="-0.76284">
        <ele>1715</ele>
        <time>2013-06-22T04:45:33Z</time>
      </trkpt>
      <trkpt lat="42.96366" lon="-0.76282">
        <ele>1715</ele>
        <time>2013-06-22T04:45:35Z</time>
      </trkpt>
      <trkpt lat="42.96365" lon="-0.7628">
        <ele>1715</ele>
        <time>2013-06-22T04:45:37Z</time>
      </trkpt>
      <trkpt lat="42.96365" lon="-0.76278">
        <ele>1715</ele>
        <time>2013-06-22T04:45:39Z</time>
      </trkpt>
      <trkpt lat="42.96365" lon="-0.76275">
        <ele>1715</ele>
        <time>2013-06-22T04:45:41Z</time>
      </trkpt>
      <trkpt lat="42.96365" lon="-0.76273">
        <ele>1715</ele>
        <time>2013-06-22T04:45:43Z</time>
      </trkpt>
      <trkpt lat="42.96367" lon="-0.76271">
        <ele>1715</ele>
        <time>2013-06-22T04:45:45Z</time>
      </trkpt>
      <trkpt lat="42.96368" lon="-0.7627">
        <ele>1715</ele>
        <time>2013-06-22T04:45:47Z</time>
      </trkpt>
      <trkpt lat="42.96369" lon="-0.76267">
        <ele>1715</ele>
        <time>2013-06-22T04:45:49Z</time>
      </trkpt>
      <trkpt lat="42.9637" lon="-0.76265">
        <ele>1715</ele>
        <time>2013-06-22T04:45:51Z</time>
      </trkpt>
      <trkpt lat="42.9637" lon="-0.76263">
        <ele>1715</ele>
        <time>2013-06-22T04:45:53Z</time>
      </trkpt>
      <trkpt lat="42.9637" lon="-0.76262">
        <ele>1716</ele>
        <time>2013-06-22T04:46:07Z</time>
      </trkpt>
      <trkpt lat="42.9637" lon="-0.7626">
        <ele>1716</ele>
        <time>2013-06-22T04:46:09Z</time>
      </trkpt>
      <trkpt lat="42.9637" lon="-0.76258">
        <ele>1716</ele>
        <time>2013-06-22T04:46:10Z</time>
      </trkpt>
      <trkpt lat="42.9637" lon="-0.76256">
        <ele>1717</ele>
        <time>2013-06-22T04:46:12Z</time>
      </trkpt>
      <trkpt lat="42.96371" lon="-0.76254">
        <ele>1717</ele>
        <time>2013-06-22T04:46:14Z</time>
      </trkpt>
      <trkpt lat="42.96371" lon="-0.76253">
        <ele>1717</ele>
        <time>2013-06-22T04:46:15Z</time>
      </trkpt>
      <trkpt lat="42.96371" lon="-0.76251">
        <ele>1717</ele>
        <time>2013-06-22T04:46:16Z</time>
      </trkpt>
      <trkpt lat="42.96371" lon="-0.76249">
        <ele>1717</ele>
        <time>2013-06-22T04:46:18Z</time>
      </trkpt>
      <trkpt lat="42.96371" lon="-0.76247">
        <ele>1717</ele>
        <time>2013-06-22T04:46:20Z</time>
      </trkpt>
      <trkpt lat="42.96371" lon="-0.76244">
        <ele>1718</ele>
        <time>2013-06-22T04:46:22Z</time>
      </trkpt>
      <trkpt lat="42.96371" lon="-0.76241">
        <ele>1718</ele>
        <time>2013-06-22T04:46:24Z</time>
      </trkpt>
      <trkpt lat="42.96371" lon="-0.76239">
        <ele>1718</ele>
        <time>2013-06-22T04:46:26Z</time>
      </trkpt>
      <trkpt lat="42.96371" lon="-0.76236">
        <ele>1718</ele>
        <time>2013-06-22T04:46:28Z</time>
      </trkpt>
      <trkpt lat="42.96371" lon="-0.76234">
        <ele>1718</ele>
        <time>2013-06-22T04:46:30Z</time>
      </trkpt>
      <trkpt lat="42.96371" lon="-0.76232">
        <ele>1718</ele>
        <time>2013-06-22T04:46:32Z</time>
      </trkpt>
      <trkpt lat="42.96371" lon="-0.7623">
        <ele>1718</ele>
        <time>2013-06-22T04:46:34Z</time>
      </trkpt>
      <trkpt lat="42.96372" lon="-0.76228">
        <ele>1718</ele>
        <time>2013-06-22T04:46:36Z</time>
      </trkpt>
      <trkpt lat="42.96372" lon="-0.76226">
        <ele>1718</ele>
        <time>2013-06-22T04:46:38Z</time>
      </trkpt>
      <trkpt lat="42.96373" lon="-0.76223">
        <ele>1718</ele>
        <time>2013-06-22T04:46:40Z</time>
      </trkpt>
      <trkpt lat="42.96373" lon="-0.76221">
        <ele>1718</ele>
        <time>2013-06-22T04:46:42Z</time>
      </trkpt>
      <trkpt lat="42.96373" lon="-0.76219">
        <ele>1718</ele>
        <time>2013-06-22T04:46:44Z</time>
      </trkpt>
      <trkpt lat="42.96374" lon="-0.76217">
        <ele>1718</ele>
        <time>2013-06-22T04:46:46Z</time>
      </trkpt>
      <trkpt lat="42.96375" lon="-0.76214">
        <ele>1718</ele>
        <time>2013-06-22T04:46:48Z</time>
      </trkpt>
      <trkpt lat="42.96375" lon="-0.76212">
        <ele>1718</ele>
        <time>2013-06-22T04:46:50Z</time>
      </trkpt>
      <trkpt lat="42.96376" lon="-0.7621">
        <ele>1718</ele>
        <time>2013-06-22T04:46:52Z</time>
      </trkpt>
      <trkpt lat="42.96376" lon="-0.76208">
        <ele>1718</ele>
        <time>2013-06-22T04:46:54Z</time>
      </trkpt>
      <trkpt lat="42.96377" lon="-0.76206">
        <ele>1718</ele>
        <time>2013-06-22T04:46:56Z</time>
      </trkpt>
      <trkpt lat="42.96377" lon="-0.76203">
        <ele>1718</ele>
        <time>2013-06-22T04:46:58Z</time>
      </trkpt>
      <trkpt lat="42.96377" lon="-0.76201">
        <ele>1718</ele>
        <time>2013-06-22T04:47:00Z</time>
      </trkpt>
      <trkpt lat="42.96377" lon="-0.76199">
        <ele>1718</ele>
        <time>2013-06-22T04:47:02Z</time>
      </trkpt>
      <trkpt lat="42.96378" lon="-0.76196">
        <ele>1718</ele>
        <time>2013-06-22T04:47:04Z</time>
      </trkpt>
      <trkpt lat="42.96378" lon="-0.76195">
        <ele>1718</ele>
        <time>2013-06-22T04:47:05Z</time>
      </trkpt>
      <trkpt lat="42.96378" lon="-0.76192">
        <ele>1718</ele>
        <time>2013-06-22T04:47:07Z</time>
      </trkpt>
      <trkpt lat="42.96378" lon="-0.7619">
        <ele>1718</ele>
        <time>2013-06-22T04:47:09Z</time>
      </trkpt>
      <trkpt lat="42.96378" lon="-0.76187">
        <ele>1718</ele>
        <time>2013-06-22T04:47:11Z</time>
      </trkpt>
      <trkpt lat="42.96378" lon="-0.76185">
        <ele>1718</ele>
        <time>2013-06-22T04:47:13Z</time>
      </trkpt>
      <trkpt lat="42.96378" lon="-0.76183">
        <ele>1718</ele>
        <time>2013-06-22T04:47:14Z</time>
      </trkpt>
      <trkpt lat="42.96378" lon="-0.76181">
        <ele>1718</ele>
        <time>2013-06-22T04:47:16Z</time>
      </trkpt>
      <trkpt lat="42.96378" lon="-0.76179">
        <ele>1718</ele>
        <time>2013-06-22T04:47:17Z</time>
      </trkpt>
      <trkpt lat="42.96378" lon="-0.76177">
        <ele>1718</ele>
        <time>2013-06-22T04:47:19Z</time>
      </trkpt>
      <trkpt lat="42.96378" lon="-0.76175">
        <ele>1718</ele>
        <time>2013-06-22T04:47:20Z</time>
      </trkpt>
      <trkpt lat="42.96378" lon="-0.76173">
        <ele>1718</ele>
        <time>2013-06-22T04:47:22Z</time>
      </trkpt>
      <trkpt lat="42.96378" lon="-0.76171">
        <ele>1718</ele>
        <time>2013-06-22T04:47:24Z</time>
      </trkpt>
      <trkpt lat="42.96378" lon="-0.76168">
        <ele>1718</ele>
        <time>2013-06-22T04:47:26Z</time>
      </trkpt>
      <trkpt lat="42.96378" lon="-0.76167">
        <ele>1718</ele>
        <time>2013-06-22T04:47:27Z</time>
      </trkpt>
      <trkpt lat="42.96378" lon="-0.76164">
        <ele>1718</ele>
        <time>2013-06-22T04:47:29Z</time>
      </trkpt>
      <trkpt lat="42.96378" lon="-0.76162">
        <ele>1718</ele>
        <time>2013-06-22T04:47:31Z</time>
      </trkpt>
      <trkpt lat="42.96378" lon="-0.7616">
        <ele>1718</ele>
        <time>2013-06-22T04:47:32Z</time>
      </trkpt>
      <trkpt lat="42.96378" lon="-0.76158">
        <ele>1718</ele>
        <time>2013-06-22T04:47:34Z</time>
      </trkpt>
      <trkpt lat="42.96378" lon="-0.76156">
        <ele>1718</ele>
        <time>2013-06-22T04:47:36Z</time>
      </trkpt>
      <trkpt lat="42.96378" lon="-0.76153">
        <ele>1718</ele>
        <time>2013-06-22T04:47:38Z</time>
      </trkpt>
      <trkpt lat="42.96378" lon="-0.7615">
        <ele>1718</ele>
        <time>2013-06-22T04:47:40Z</time>
      </trkpt>
      <trkpt lat="42.96378" lon="-0.76148">
        <ele>1718</ele>
        <time>2013-06-22T04:47:42Z</time>
      </trkpt>
      <trkpt lat="42.96378" lon="-0.76146">
        <ele>1718</ele>
        <time>2013-06-22T04:47:44Z</time>
      </trkpt>
      <trkpt lat="42.96377" lon="-0.76143">
        <ele>1718</ele>
        <time>2013-06-22T04:47:46Z</time>
      </trkpt>
      <trkpt lat="42.96377" lon="-0.76141">
        <ele>1718</ele>
        <time>2013-06-22T04:47:48Z</time>
      </trkpt>
      <trkpt lat="42.96376" lon="-0.76139">
        <ele>1718</ele>
        <time>2013-06-22T04:47:50Z</time>
      </trkpt>
      <trkpt lat="42.96376" lon="-0.76136">
        <ele>1718</ele>
        <time>2013-06-22T04:47:52Z</time>
      </trkpt>
      <trkpt lat="42.96376" lon="-0.76134">
        <ele>1718</ele>
        <time>2013-06-22T04:47:54Z</time>
      </trkpt>
      <trkpt lat="42.96375" lon="-0.76131">
        <ele>1718</ele>
        <time>2013-06-22T04:47:56Z</time>
      </trkpt>
      <trkpt lat="42.96375" lon="-0.76129">
        <ele>1718</ele>
        <time>2013-06-22T04:47:58Z</time>
      </trkpt>
      <trkpt lat="42.96374" lon="-0.76126">
        <ele>1718</ele>
        <time>2013-06-22T04:48:00Z</time>
      </trkpt>
      <trkpt lat="42.96374" lon="-0.76124">
        <ele>1718</ele>
        <time>2013-06-22T04:48:02Z</time>
      </trkpt>
      <trkpt lat="42.96373" lon="-0.76122">
        <ele>1718</ele>
        <time>2013-06-22T04:48:04Z</time>
      </trkpt>
      <trkpt lat="42.96372" lon="-0.76119">
        <ele>1718</ele>
        <time>2013-06-22T04:48:06Z</time>
      </trkpt>
      <trkpt lat="42.96372" lon="-0.76117">
        <ele>1718</ele>
        <time>2013-06-22T04:48:08Z</time>
      </trkpt>
      <trkpt lat="42.96371" lon="-0.76114">
        <ele>1718</ele>
        <time>2013-06-22T04:48:10Z</time>
      </trkpt>
      <trkpt lat="42.96371" lon="-0.76113">
        <ele>1718</ele>
        <time>2013-06-22T04:48:11Z</time>
      </trkpt>
      <trkpt lat="42.96371" lon="-0.76111">
        <ele>1718</ele>
        <time>2013-06-22T04:48:13Z</time>
      </trkpt>
      <trkpt lat="42.9637" lon="-0.76108">
        <ele>1718</ele>
        <time>2013-06-22T04:48:15Z</time>
      </trkpt>
      <trkpt lat="42.9637" lon="-0.76107">
        <ele>1718</ele>
        <time>2013-06-22T04:48:17Z</time>
      </trkpt>
      <trkpt lat="42.96369" lon="-0.76104">
        <ele>1718</ele>
        <time>2013-06-22T04:48:21Z</time>
      </trkpt>
      <trkpt lat="42.96368" lon="-0.76102">
        <ele>1718</ele>
        <time>2013-06-22T04:48:23Z</time>
      </trkpt>
      <trkpt lat="42.96368" lon="-0.76099">
        <ele>1718</ele>
        <time>2013-06-22T04:48:25Z</time>
      </trkpt>
      <trkpt lat="42.96368" lon="-0.76097">
        <ele>1718</ele>
        <time>2013-06-22T04:48:27Z</time>
      </trkpt>
      <trkpt lat="42.96367" lon="-0.76095">
        <ele>1718</ele>
        <time>2013-06-22T04:48:29Z</time>
      </trkpt>
      <trkpt lat="42.96367" lon="-0.76092">
        <ele>1718</ele>
        <time>2013-06-22T04:48:31Z</time>
      </trkpt>
      <trkpt lat="42.96366" lon="-0.7609">
        <ele>1718</ele>
        <time>2013-06-22T04:48:33Z</time>
      </trkpt>
      <trkpt lat="42.96366" lon="-0.76088">
        <ele>1718</ele>
        <time>2013-06-22T04:48:35Z</time>
      </trkpt>
      <trkpt lat="42.96365" lon="-0.76086">
        <ele>1718</ele>
        <time>2013-06-22T04:48:37Z</time>
      </trkpt>
      <trkpt lat="42.96365" lon="-0.76083">
        <ele>1718</ele>
        <time>2013-06-22T04:48:39Z</time>
      </trkpt>
      <trkpt lat="42.96365" lon="-0.76081">
        <ele>1718</ele>
        <time>2013-06-22T04:48:41Z</time>
      </trkpt>
      <trkpt lat="42.96364" lon="-0.76079">
        <ele>1718</ele>
        <time>2013-06-22T04:48:43Z</time>
      </trkpt>
      <trkpt lat="42.96364" lon="-0.76077">
        <ele>1718</ele>
        <time>2013-06-22T04:48:44Z</time>
      </trkpt>
      <trkpt lat="42.96363" lon="-0.76075">
        <ele>1718</ele>
        <time>2013-06-22T04:48:46Z</time>
      </trkpt>
      <trkpt lat="42.96363" lon="-0.76073">
        <ele>1718</ele>
        <time>2013-06-22T04:48:48Z</time>
      </trkpt>
      <trkpt lat="42.96363" lon="-0.76072">
        <ele>1718</ele>
        <time>2013-06-22T04:48:49Z</time>
      </trkpt>
      <trkpt lat="42.96363" lon="-0.76069">
        <ele>1718</ele>
        <time>2013-06-22T04:48:51Z</time>
      </trkpt>
      <trkpt lat="42.96362" lon="-0.76067">
        <ele>1718</ele>
        <time>2013-06-22T04:48:53Z</time>
      </trkpt>
      <trkpt lat="42.96362" lon="-0.76066">
        <ele>1718</ele>
        <time>2013-06-22T04:48:54Z</time>
      </trkpt>
      <trkpt lat="42.96362" lon="-0.76064">
        <ele>1718</ele>
        <time>2013-06-22T04:48:56Z</time>
      </trkpt>
      <trkpt lat="42.96361" lon="-0.76061">
        <ele>1718</ele>
        <time>2013-06-22T04:48:58Z</time>
      </trkpt>
      <trkpt lat="42.96361" lon="-0.76059">
        <ele>1718</ele>
        <time>2013-06-22T04:49:00Z</time>
      </trkpt>
      <trkpt lat="42.96361" lon="-0.76056">
        <ele>1718</ele>
        <time>2013-06-22T04:49:02Z</time>
      </trkpt>
      <trkpt lat="42.9636" lon="-0.76054">
        <ele>1718</ele>
        <time>2013-06-22T04:49:04Z</time>
      </trkpt>
      <trkpt lat="42.9636" lon="-0.76052">
        <ele>1718</ele>
        <time>2013-06-22T04:49:06Z</time>
      </trkpt>
      <trkpt lat="42.9636" lon="-0.76051">
        <ele>1718</ele>
        <time>2013-06-22T04:49:07Z</time>
      </trkpt>
      <trkpt lat="42.9636" lon="-0.76048">
        <ele>1718</ele>
        <time>2013-06-22T04:49:09Z</time>
      </trkpt>
      <trkpt lat="42.9636" lon="-0.76046">
        <ele>1718</ele>
        <time>2013-06-22T04:49:11Z</time>
      </trkpt>
      <trkpt lat="42.96359" lon="-0.76044">
        <ele>1718</ele>
        <time>2013-06-22T04:49:13Z</time>
      </trkpt>
      <trkpt lat="42.96359" lon="-0.76042">
        <ele>1718</ele>
        <time>2013-06-22T04:49:15Z</time>
      </trkpt>
      <trkpt lat="42.96359" lon="-0.76039">
        <ele>1718</ele>
        <time>2013-06-22T04:49:17Z</time>
      </trkpt>
      <trkpt lat="42.96359" lon="-0.76037">
        <ele>1719</ele>
        <time>2013-06-22T04:49:19Z</time>
      </trkpt>
      <trkpt lat="42.96358" lon="-0.76034">
        <ele>1719</ele>
        <time>2013-06-22T04:49:21Z</time>
      </trkpt>
      <trkpt lat="42.96358" lon="-0.76032">
        <ele>1719</ele>
        <time>2013-06-22T04:49:23Z</time>
      </trkpt>
      <trkpt lat="42.96358" lon="-0.7603">
        <ele>1719</ele>
        <time>2013-06-22T04:49:25Z</time>
      </trkpt>
      <trkpt lat="42.96358" lon="-0.76028">
        <ele>1719</ele>
        <time>2013-06-22T04:49:27Z</time>
      </trkpt>
      <trkpt lat="42.96358" lon="-0.76025">
        <ele>1719</ele>
        <time>2013-06-22T04:49:29Z</time>
      </trkpt>
      <trkpt lat="42.96357" lon="-0.76023">
        <ele>1720</ele>
        <time>2013-06-22T04:49:31Z</time>
      </trkpt>
      <trkpt lat="42.96357" lon="-0.76021">
        <ele>1720</ele>
        <time>2013-06-22T04:49:33Z</time>
      </trkpt>
      <trkpt lat="42.96357" lon="-0.76019">
        <ele>1720</ele>
        <time>2013-06-22T04:49:35Z</time>
      </trkpt>
      <trkpt lat="42.96357" lon="-0.76016">
        <ele>1720</ele>
        <time>2013-06-22T04:49:37Z</time>
      </trkpt>
      <trkpt lat="42.96357" lon="-0.76014">
        <ele>1720</ele>
        <time>2013-06-22T04:49:39Z</time>
      </trkpt>
      <trkpt lat="42.96356" lon="-0.76012">
        <ele>1720</ele>
        <time>2013-06-22T04:49:41Z</time>
      </trkpt>
      <trkpt lat="42.96356" lon="-0.76009">
        <ele>1720</ele>
        <time>2013-06-22T04:49:43Z</time>
      </trkpt>
      <trkpt lat="42.96356" lon="-0.76007">
        <ele>1720</ele>
        <time>2013-06-22T04:49:45Z</time>
      </trkpt>
      <trkpt lat="42.96356" lon="-0.76005">
        <ele>1721</ele>
        <time>2013-06-22T04:49:47Z</time>
      </trkpt>
      <trkpt lat="42.96355" lon="-0.76002">
        <ele>1721</ele>
        <time>2013-06-22T04:49:49Z</time>
      </trkpt>
      <trkpt lat="42.96355" lon="-0.76">
        <ele>1721</ele>
        <time>2013-06-22T04:49:51Z</time>
      </trkpt>
      <trkpt lat="42.96355" lon="-0.75998">
        <ele>1721</ele>
        <time>2013-06-22T04:49:53Z</time>
      </trkpt>
      <trkpt lat="42.96355" lon="-0.75995">
        <ele>1721</ele>
        <time>2013-06-22T04:49:55Z</time>
      </trkpt>
      <trkpt lat="42.96354" lon="-0.75993">
        <ele>1721</ele>
        <time>2013-06-22T04:49:57Z</time>
      </trkpt>
      <trkpt lat="42.96354" lon="-0.7599">
        <ele>1722</ele>
        <time>2013-06-22T04:49:59Z</time>
      </trkpt>
      <trkpt lat="42.96354" lon="-0.75988">
        <ele>1722</ele>
        <time>2013-06-22T04:50:01Z</time>
      </trkpt>
      <trkpt lat="42.96353" lon="-0.75986">
        <ele>1722</ele>
        <time>2013-06-22T04:50:03Z</time>
      </trkpt>
      <trkpt lat="42.96353" lon="-0.75984">
        <ele>1722</ele>
        <time>2013-06-22T04:50:05Z</time>
      </trkpt>
      <trkpt lat="42.96353" lon="-0.75981">
        <ele>1722</ele>
        <time>2013-06-22T04:50:07Z</time>
      </trkpt>
      <trkpt lat="42.96353" lon="-0.7598">
        <ele>1723</ele>
        <time>2013-06-22T04:50:08Z</time>
      </trkpt>
      <trkpt lat="42.96352" lon="-0.75978">
        <ele>1723</ele>
        <time>2013-06-22T04:50:10Z</time>
      </trkpt>
      <trkpt lat="42.96352" lon="-0.75976">
        <ele>1723</ele>
        <time>2013-06-22T04:50:12Z</time>
      </trkpt>
      <trkpt lat="42.96352" lon="-0.75973">
        <ele>1723</ele>
        <time>2013-06-22T04:50:14Z</time>
      </trkpt>
      <trkpt lat="42.96352" lon="-0.75972">
        <ele>1724</ele>
        <time>2013-06-22T04:50:16Z</time>
      </trkpt>
      <trkpt lat="42.96351" lon="-0.7597">
        <ele>1724</ele>
        <time>2013-06-22T04:50:24Z</time>
      </trkpt>
      <trkpt lat="42.96351" lon="-0.75968">
        <ele>1724</ele>
        <time>2013-06-22T04:50:26Z</time>
      </trkpt>
      <trkpt lat="42.96351" lon="-0.75967">
        <ele>1724</ele>
        <time>2013-06-22T04:50:28Z</time>
      </trkpt>
      <trkpt lat="42.96351" lon="-0.75964">
        <ele>1724</ele>
        <time>2013-06-22T04:50:30Z</time>
      </trkpt>
      <trkpt lat="42.96351" lon="-0.75963">
        <ele>1724</ele>
        <time>2013-06-22T04:50:32Z</time>
      </trkpt>
      <trkpt lat="42.9635" lon="-0.7596">
        <ele>1724</ele>
        <time>2013-06-22T04:50:34Z</time>
      </trkpt>
      <trkpt lat="42.9635" lon="-0.75959">
        <ele>1725</ele>
        <time>2013-06-22T04:50:36Z</time>
      </trkpt>
      <trkpt lat="42.9635" lon="-0.75956">
        <ele>1725</ele>
        <time>2013-06-22T04:50:38Z</time>
      </trkpt>
      <trkpt lat="42.9635" lon="-0.75954">
        <ele>1725</ele>
        <time>2013-06-22T04:50:40Z</time>
      </trkpt>
      <trkpt lat="42.9635" lon="-0.75952">
        <ele>1726</ele>
        <time>2013-06-22T04:50:42Z</time>
      </trkpt>
      <trkpt lat="42.96349" lon="-0.7595">
        <ele>1726</ele>
        <time>2013-06-22T04:50:44Z</time>
      </trkpt>
      <trkpt lat="42.96349" lon="-0.75948">
        <ele>1726</ele>
        <time>2013-06-22T04:50:46Z</time>
      </trkpt>
      <trkpt lat="42.96349" lon="-0.75946">
        <ele>1726</ele>
        <time>2013-06-22T04:50:48Z</time>
      </trkpt>
      <trkpt lat="42.96349" lon="-0.75943">
        <ele>1727</ele>
        <time>2013-06-22T04:50:50Z</time>
      </trkpt>
      <trkpt lat="42.96348" lon="-0.75942">
        <ele>1727</ele>
        <time>2013-06-22T04:50:51Z</time>
      </trkpt>
      <trkpt lat="42.96348" lon="-0.7594">
        <ele>1727</ele>
        <time>2013-06-22T04:50:53Z</time>
      </trkpt>
      <trkpt lat="42.96348" lon="-0.75938">
        <ele>1727</ele>
        <time>2013-06-22T04:50:55Z</time>
      </trkpt>
      <trkpt lat="42.96347" lon="-0.75936">
        <ele>1728</ele>
        <time>2013-06-22T04:50:57Z</time>
      </trkpt>
      <trkpt lat="42.96347" lon="-0.75934">
        <ele>1728</ele>
        <time>2013-06-22T04:50:59Z</time>
      </trkpt>
      <trkpt lat="42.96347" lon="-0.75932">
        <ele>1728</ele>
        <time>2013-06-22T04:51:01Z</time>
      </trkpt>
      <trkpt lat="42.96347" lon="-0.75929">
        <ele>1728</ele>
        <time>2013-06-22T04:51:03Z</time>
      </trkpt>
      <trkpt lat="42.96347" lon="-0.75927">
        <ele>1728</ele>
        <time>2013-06-22T04:51:05Z</time>
      </trkpt>
      <trkpt lat="42.96347" lon="-0.75925">
        <ele>1728</ele>
        <time>2013-06-22T04:51:07Z</time>
      </trkpt>
      <trkpt lat="42.96347" lon="-0.75923">
        <ele>1729</ele>
        <time>2013-06-22T04:51:09Z</time>
      </trkpt>
      <trkpt lat="42.96347" lon="-0.75921">
        <ele>1729</ele>
        <time>2013-06-22T04:51:11Z</time>
      </trkpt>
      <trkpt lat="42.96347" lon="-0.75919">
        <ele>1729</ele>
        <time>2013-06-22T04:51:13Z</time>
      </trkpt>
      <trkpt lat="42.96347" lon="-0.75917">
        <ele>1730</ele>
        <time>2013-06-22T04:51:15Z</time>
      </trkpt>
      <trkpt lat="42.96346" lon="-0.75915">
        <ele>1730</ele>
        <time>2013-06-22T04:51:17Z</time>
      </trkpt>
      <trkpt lat="42.96346" lon="-0.75913">
        <ele>1730</ele>
        <time>2013-06-22T04:51:19Z</time>
      </trkpt>
      <trkpt lat="42.96346" lon="-0.75911">
        <ele>1730</ele>
        <time>2013-06-22T04:51:21Z</time>
      </trkpt>
      <trkpt lat="42.96346" lon="-0.75908">
        <ele>1730</ele>
        <time>2013-06-22T04:51:23Z</time>
      </trkpt>
      <trkpt lat="42.96346" lon="-0.75906">
        <ele>1731</ele>
        <time>2013-06-22T04:51:25Z</time>
      </trkpt>
      <trkpt lat="42.96346" lon="-0.75905">
        <ele>1731</ele>
        <time>2013-06-22T04:51:27Z</time>
      </trkpt>
      <trkpt lat="42.96345" lon="-0.75902">
        <ele>1731</ele>
        <time>2013-06-22T04:51:29Z</time>
      </trkpt>
      <trkpt lat="42.96345" lon="-0.759">
        <ele>1731</ele>
        <time>2013-06-22T04:51:31Z</time>
      </trkpt>
      <trkpt lat="42.96344" lon="-0.75898">
        <ele>1732</ele>
        <time>2013-06-22T04:51:33Z</time>
      </trkpt>
      <trkpt lat="42.96344" lon="-0.75896">
        <ele>1732</ele>
        <time>2013-06-22T04:51:35Z</time>
      </trkpt>
      <trkpt lat="42.96344" lon="-0.75894">
        <ele>1732</ele>
        <time>2013-06-22T04:51:37Z</time>
      </trkpt>
      <trkpt lat="42.96344" lon="-0.75893">
        <ele>1733</ele>
        <time>2013-06-22T04:51:39Z</time>
      </trkpt>
      <trkpt lat="42.96344" lon="-0.75891">
        <ele>1733</ele>
        <time>2013-06-22T04:51:41Z</time>
      </trkpt>
      <trkpt lat="42.96344" lon="-0.75889">
        <ele>1733</ele>
        <time>2013-06-22T04:51:43Z</time>
      </trkpt>
      <trkpt lat="42.96343" lon="-0.75887">
        <ele>1734</ele>
        <time>2013-06-22T04:51:45Z</time>
      </trkpt>
      <trkpt lat="42.96343" lon="-0.75886">
        <ele>1734</ele>
        <time>2013-06-22T04:51:47Z</time>
      </trkpt>
      <trkpt lat="42.96342" lon="-0.75884">
        <ele>1734</ele>
        <time>2013-06-22T04:51:49Z</time>
      </trkpt>
      <trkpt lat="42.96342" lon="-0.75882">
        <ele>1735</ele>
        <time>2013-06-22T04:51:51Z</time>
      </trkpt>
      <trkpt lat="42.96341" lon="-0.7588">
        <ele>1735</ele>
        <time>2013-06-22T04:51:53Z</time>
      </trkpt>
      <trkpt lat="42.96341" lon="-0.75878">
        <ele>1735</ele>
        <time>2013-06-22T04:51:56Z</time>
      </trkpt>
      <trkpt lat="42.9634" lon="-0.75877">
        <ele>1736</ele>
        <time>2013-06-22T04:51:59Z</time>
      </trkpt>
      <trkpt lat="42.9634" lon="-0.75878">
        <ele>1736</ele>
        <time>2013-06-22T04:52:49Z</time>
      </trkpt>
      <trkpt lat="42.9634" lon="-0.75877">
        <ele>1736</ele>
        <time>2013-06-22T04:54:00Z</time>
      </trkpt>
      <trkpt lat="42.96339" lon="-0.75876">
        <ele>1736</ele>
        <time>2013-06-22T04:55:31Z</time>
      </trkpt>
      <trkpt lat="42.96338" lon="-0.75877">
        <ele>1736</ele>
        <time>2013-06-22T04:56:32Z</time>
      </trkpt>
      <trkpt lat="42.96336" lon="-0.75875">
        <ele>1736</ele>
        <time>2013-06-22T04:57:51Z</time>
      </trkpt>
      <trkpt lat="42.96336" lon="-0.75873">
        <ele>1736</ele>
        <time>2013-06-22T04:57:54Z</time>
      </trkpt>
      <trkpt lat="42.96335" lon="-0.75872">
        <ele>1736</ele>
        <time>2013-06-22T04:57:56Z</time>
      </trkpt>
      <trkpt lat="42.96335" lon="-0.7587">
        <ele>1736</ele>
        <time>2013-06-22T04:57:58Z</time>
      </trkpt>
      <trkpt lat="42.96334" lon="-0.75868">
        <ele>1736</ele>
        <time>2013-06-22T04:58:00Z</time>
      </trkpt>
      <trkpt lat="42.96334" lon="-0.75866">
        <ele>1736</ele>
        <time>2013-06-22T04:58:02Z</time>
      </trkpt>
      <trkpt lat="42.96333" lon="-0.75864">
        <ele>1736</ele>
        <time>2013-06-22T04:58:04Z</time>
      </trkpt>
      <trkpt lat="42.96333" lon="-0.75862">
        <ele>1736</ele>
        <time>2013-06-22T04:58:05Z</time>
      </trkpt>
      <trkpt lat="42.96333" lon="-0.7586">
        <ele>1737</ele>
        <time>2013-06-22T04:58:08Z</time>
      </trkpt>
      <trkpt lat="42.96332" lon="-0.75858">
        <ele>1737</ele>
        <time>2013-06-22T04:58:10Z</time>
      </trkpt>
      <trkpt lat="42.96331" lon="-0.75856">
        <ele>1737</ele>
        <time>2013-06-22T04:58:12Z</time>
      </trkpt>
      <trkpt lat="42.96331" lon="-0.75854">
        <ele>1737</ele>
        <time>2013-06-22T04:58:13Z</time>
      </trkpt>
      <trkpt lat="42.96331" lon="-0.75852">
        <ele>1737</ele>
        <time>2013-06-22T04:58:15Z</time>
      </trkpt>
      <trkpt lat="42.96331" lon="-0.7585">
        <ele>1737</ele>
        <time>2013-06-22T04:58:16Z</time>
      </trkpt>
      <trkpt lat="42.96331" lon="-0.75848">
        <ele>1737</ele>
        <time>2013-06-22T04:58:19Z</time>
      </trkpt>
      <trkpt lat="42.96331" lon="-0.75846">
        <ele>1737</ele>
        <time>2013-06-22T04:58:20Z</time>
      </trkpt>
      <trkpt lat="42.96331" lon="-0.75844">
        <ele>1738</ele>
        <time>2013-06-22T04:58:23Z</time>
      </trkpt>
      <trkpt lat="42.9633" lon="-0.75842">
        <ele>1738</ele>
        <time>2013-06-22T04:58:24Z</time>
      </trkpt>
      <trkpt lat="42.9633" lon="-0.7584">
        <ele>1738</ele>
        <time>2013-06-22T04:58:25Z</time>
      </trkpt>
      <trkpt lat="42.9633" lon="-0.75839">
        <ele>1738</ele>
        <time>2013-06-22T04:58:27Z</time>
      </trkpt>
      <trkpt lat="42.96329" lon="-0.75837">
        <ele>1738</ele>
        <time>2013-06-22T04:58:28Z</time>
      </trkpt>
      <trkpt lat="42.96329" lon="-0.75835">
        <ele>1738</ele>
        <time>2013-06-22T04:58:30Z</time>
      </trkpt>
      <trkpt lat="42.96329" lon="-0.75833">
        <ele>1738</ele>
        <time>2013-06-22T04:58:31Z</time>
      </trkpt>
      <trkpt lat="42.96329" lon="-0.75831">
        <ele>1738</ele>
        <time>2013-06-22T04:58:33Z</time>
      </trkpt>
      <trkpt lat="42.96329" lon="-0.75828">
        <ele>1739</ele>
        <time>2013-06-22T04:58:36Z</time>
      </trkpt>
      <trkpt lat="42.96329" lon="-0.75827">
        <ele>1739</ele>
        <time>2013-06-22T04:58:37Z</time>
      </trkpt>
      <trkpt lat="42.96329" lon="-0.75824">
        <ele>1739</ele>
        <time>2013-06-22T04:58:39Z</time>
      </trkpt>
      <trkpt lat="42.96328" lon="-0.75822">
        <ele>1740</ele>
        <time>2013-06-22T04:58:42Z</time>
      </trkpt>
      <trkpt lat="42.96328" lon="-0.7582">
        <ele>1740</ele>
        <time>2013-06-22T04:58:43Z</time>
      </trkpt>
      <trkpt lat="42.96328" lon="-0.75818">
        <ele>1740</ele>
        <time>2013-06-22T04:58:45Z</time>
      </trkpt>
      <trkpt lat="42.96328" lon="-0.75816">
        <ele>1740</ele>
        <time>2013-06-22T04:58:48Z</time>
      </trkpt>
      <trkpt lat="42.96327" lon="-0.75814">
        <ele>1741</ele>
        <time>2013-06-22T04:58:49Z</time>
      </trkpt>
      <trkpt lat="42.96327" lon="-0.75812">
        <ele>1741</ele>
        <time>2013-06-22T04:58:52Z</time>
      </trkpt>
      <trkpt lat="42.96327" lon="-0.7581">
        <ele>1741</ele>
        <time>2013-06-22T04:58:54Z</time>
      </trkpt>
      <trkpt lat="42.96326" lon="-0.75807">
        <ele>1741</ele>
        <time>2013-06-22T04:58:56Z</time>
      </trkpt>
      <trkpt lat="42.96326" lon="-0.75805">
        <ele>1742</ele>
        <time>2013-06-22T04:58:57Z</time>
      </trkpt>
      <trkpt lat="42.96325" lon="-0.75803">
        <ele>1742</ele>
        <time>2013-06-22T04:59:00Z</time>
      </trkpt>
      <trkpt lat="42.96325" lon="-0.75801">
        <ele>1742</ele>
        <time>2013-06-22T04:59:01Z</time>
      </trkpt>
      <trkpt lat="42.96325" lon="-0.758">
        <ele>1743</ele>
        <time>2013-06-22T04:59:03Z</time>
      </trkpt>
      <trkpt lat="42.96324" lon="-0.75798">
        <ele>1743</ele>
        <time>2013-06-22T04:59:06Z</time>
      </trkpt>
      <trkpt lat="42.96324" lon="-0.75796">
        <ele>1743</ele>
        <time>2013-06-22T04:59:07Z</time>
      </trkpt>
      <trkpt lat="42.96324" lon="-0.75794">
        <ele>1743</ele>
        <time>2013-06-22T04:59:09Z</time>
      </trkpt>
      <trkpt lat="42.96324" lon="-0.75792">
        <ele>1744</ele>
        <time>2013-06-22T04:59:12Z</time>
      </trkpt>
      <trkpt lat="42.96323" lon="-0.7579">
        <ele>1744</ele>
        <time>2013-06-22T04:59:14Z</time>
      </trkpt>
      <trkpt lat="42.96323" lon="-0.75788">
        <ele>1744</ele>
        <time>2013-06-22T04:59:15Z</time>
      </trkpt>
      <trkpt lat="42.96323" lon="-0.75787">
        <ele>1744</ele>
        <time>2013-06-22T04:59:18Z</time>
      </trkpt>
      <trkpt lat="42.96323" lon="-0.75785">
        <ele>1744</ele>
        <time>2013-06-22T04:59:20Z</time>
      </trkpt>
      <trkpt lat="42.96323" lon="-0.75783">
        <ele>1745</ele>
        <time>2013-06-22T04:59:22Z</time>
      </trkpt>
      <trkpt lat="42.96323" lon="-0.75782">
        <ele>1745</ele>
        <time>2013-06-22T04:59:24Z</time>
      </trkpt>
      <trkpt lat="42.96323" lon="-0.7578">
        <ele>1745</ele>
        <time>2013-06-22T04:59:25Z</time>
      </trkpt>
      <trkpt lat="42.96323" lon="-0.75778">
        <ele>1745</ele>
        <time>2013-06-22T04:59:28Z</time>
      </trkpt>
      <trkpt lat="42.96323" lon="-0.75776">
        <ele>1746</ele>
        <time>2013-06-22T04:59:30Z</time>
      </trkpt>
      <trkpt lat="42.96323" lon="-0.75774">
        <ele>1746</ele>
        <time>2013-06-22T04:59:32Z</time>
      </trkpt>
      <trkpt lat="42.96323" lon="-0.75773">
        <ele>1746</ele>
        <time>2013-06-22T04:59:34Z</time>
      </trkpt>
      <trkpt lat="42.96323" lon="-0.75771">
        <ele>1747</ele>
        <time>2013-06-22T04:59:36Z</time>
      </trkpt>
      <trkpt lat="42.96324" lon="-0.75769">
        <ele>1747</ele>
        <time>2013-06-22T04:59:37Z</time>
      </trkpt>
      <trkpt lat="42.96324" lon="-0.75767">
        <ele>1747</ele>
        <time>2013-06-22T04:59:40Z</time>
      </trkpt>
      <trkpt lat="42.96324" lon="-0.75766">
        <ele>1747</ele>
        <time>2013-06-22T04:59:42Z</time>
      </trkpt>
      <trkpt lat="42.96324" lon="-0.75764">
        <ele>1748</ele>
        <time>2013-06-22T04:59:44Z</time>
      </trkpt>
      <trkpt lat="42.96324" lon="-0.75762">
        <ele>1748</ele>
        <time>2013-06-22T04:59:45Z</time>
      </trkpt>
      <trkpt lat="42.96325" lon="-0.7576">
        <ele>1748</ele>
        <time>2013-06-22T04:59:48Z</time>
      </trkpt>
      <trkpt lat="42.96325" lon="-0.75759">
        <ele>1748</ele>
        <time>2013-06-22T04:59:49Z</time>
      </trkpt>
      <trkpt lat="42.96325" lon="-0.75757">
        <ele>1748</ele>
        <time>2013-06-22T04:59:52Z</time>
      </trkpt>
      <trkpt lat="42.96325" lon="-0.75755">
        <ele>1748</ele>
        <time>2013-06-22T04:59:54Z</time>
      </trkpt>
      <trkpt lat="42.96325" lon="-0.75753">
        <ele>1749</ele>
        <time>2013-06-22T04:59:56Z</time>
      </trkpt>
      <trkpt lat="42.96326" lon="-0.75752">
        <ele>1749</ele>
        <time>2013-06-22T04:59:59Z</time>
      </trkpt>
      <trkpt lat="42.96326" lon="-0.7575">
        <ele>1750</ele>
        <time>2013-06-22T05:00:01Z</time>
      </trkpt>
      <trkpt lat="42.96326" lon="-0.75748">
        <ele>1750</ele>
        <time>2013-06-22T05:00:03Z</time>
      </trkpt>
      <trkpt lat="42.96327" lon="-0.75746">
        <ele>1751</ele>
        <time>2013-06-22T05:00:07Z</time>
      </trkpt>
      <trkpt lat="42.96328" lon="-0.75744">
        <ele>1751</ele>
        <time>2013-06-22T05:00:09Z</time>
      </trkpt>
      <trkpt lat="42.96328" lon="-0.75743">
        <ele>1751</ele>
        <time>2013-06-22T05:00:13Z</time>
      </trkpt>
      <trkpt lat="42.96329" lon="-0.75741">
        <ele>1752</ele>
        <time>2013-06-22T05:00:15Z</time>
      </trkpt>
      <trkpt lat="42.96329" lon="-0.75739">
        <ele>1752</ele>
        <time>2013-06-22T05:00:19Z</time>
      </trkpt>
      <trkpt lat="42.9633" lon="-0.75737">
        <ele>1753</ele>
        <time>2013-06-22T05:00:21Z</time>
      </trkpt>
      <trkpt lat="42.9633" lon="-0.75735">
        <ele>1754</ele>
        <time>2013-06-22T05:00:25Z</time>
      </trkpt>
      <trkpt lat="42.96331" lon="-0.75733">
        <ele>1754</ele>
        <time>2013-06-22T05:00:27Z</time>
      </trkpt>
      <trkpt lat="42.96331" lon="-0.75731">
        <ele>1755</ele>
        <time>2013-06-22T05:00:32Z</time>
      </trkpt>
      <trkpt lat="42.96332" lon="-0.7573">
        <ele>1755</ele>
        <time>2013-06-22T05:00:33Z</time>
      </trkpt>
      <trkpt lat="42.96332" lon="-0.75728">
        <ele>1755</ele>
        <time>2013-06-22T05:00:35Z</time>
      </trkpt>
      <trkpt lat="42.96332" lon="-0.75726">
        <ele>1755</ele>
        <time>2013-06-22T05:00:39Z</time>
      </trkpt>
      <trkpt lat="42.96333" lon="-0.75725">
        <ele>1755</ele>
        <time>2013-06-22T05:00:41Z</time>
      </trkpt>
      <trkpt lat="42.96334" lon="-0.75723">
        <ele>1756</ele>
        <time>2013-06-22T05:00:46Z</time>
      </trkpt>
      <trkpt lat="42.96335" lon="-0.75722">
        <ele>1757</ele>
        <time>2013-06-22T05:00:48Z</time>
      </trkpt>
      <trkpt lat="42.96336" lon="-0.7572">
        <ele>1757</ele>
        <time>2013-06-22T05:00:51Z</time>
      </trkpt>
      <trkpt lat="42.96337" lon="-0.75718">
        <ele>1757</ele>
        <time>2013-06-22T05:00:54Z</time>
      </trkpt>
      <trkpt lat="42.96336" lon="-0.75717">
        <ele>1758</ele>
        <time>2013-06-22T05:01:08Z</time>
      </trkpt>
      <trkpt lat="42.96334" lon="-0.75716">
        <ele>1758</ele>
        <time>2013-06-22T05:01:13Z</time>
      </trkpt>
      <trkpt lat="42.96333" lon="-0.75716">
        <ele>1758</ele>
        <time>2013-06-22T05:01:16Z</time>
      </trkpt>
      <trkpt lat="42.96332" lon="-0.75716">
        <ele>1758</ele>
        <time>2013-06-22T05:01:21Z</time>
      </trkpt>
      <trkpt lat="42.96333" lon="-0.75714">
        <ele>1760</ele>
        <time>2013-06-22T05:01:37Z</time>
      </trkpt>
      <trkpt lat="42.96334" lon="-0.75713">
        <ele>1761</ele>
        <time>2013-06-22T05:01:41Z</time>
      </trkpt>
      <trkpt lat="42.96335" lon="-0.75712">
        <ele>1761</ele>
        <time>2013-06-22T05:01:49Z</time>
      </trkpt>
      <trkpt lat="42.96336" lon="-0.7571">
        <ele>1762</ele>
        <time>2013-06-22T05:01:52Z</time>
      </trkpt>
      <trkpt lat="42.96337" lon="-0.75709">
        <ele>1762</ele>
        <time>2013-06-22T05:01:56Z</time>
      </trkpt>
      <trkpt lat="42.96339" lon="-0.75708">
        <ele>1762</ele>
        <time>2013-06-22T05:02:00Z</time>
      </trkpt>
      <trkpt lat="42.9634" lon="-0.75707">
        <ele>1762</ele>
        <time>2013-06-22T05:02:11Z</time>
      </trkpt>
      <trkpt lat="42.96341" lon="-0.75706">
        <ele>1762</ele>
        <time>2013-06-22T05:02:14Z</time>
      </trkpt>
      <trkpt lat="42.9634" lon="-0.75704">
        <ele>1762</ele>
        <time>2013-06-22T05:02:28Z</time>
      </trkpt>
      <trkpt lat="42.96339" lon="-0.75703">
        <ele>1762</ele>
        <time>2013-06-22T05:02:33Z</time>
      </trkpt>
      <trkpt lat="42.96338" lon="-0.75702">
        <ele>1762</ele>
        <time>2013-06-22T05:02:36Z</time>
      </trkpt>
      <trkpt lat="42.96337" lon="-0.75701">
        <ele>1762</ele>
        <time>2013-06-22T05:02:38Z</time>
      </trkpt>
      <trkpt lat="42.96339" lon="-0.757">
        <ele>1765</ele>
        <time>2013-06-22T05:02:49Z</time>
      </trkpt>
      <trkpt lat="42.9634" lon="-0.75699">
        <ele>1766</ele>
        <time>2013-06-22T05:02:53Z</time>
      </trkpt>
      <trkpt lat="42.96341" lon="-0.75697">
        <ele>1766</ele>
        <time>2013-06-22T05:02:56Z</time>
      </trkpt>
      <trkpt lat="42.96341" lon="-0.75695">
        <ele>1766</ele>
        <time>2013-06-22T05:02:59Z</time>
      </trkpt>
      <trkpt lat="42.96339" lon="-0.75694">
        <ele>1766</ele>
        <time>2013-06-22T05:03:03Z</time>
      </trkpt>
      <trkpt lat="42.96338" lon="-0.75693">
        <ele>1766</ele>
        <time>2013-06-22T05:03:06Z</time>
      </trkpt>
      <trkpt lat="42.96338" lon="-0.75691">
        <ele>1766</ele>
        <time>2013-06-22T05:03:09Z</time>
      </trkpt>
      <trkpt lat="42.96339" lon="-0.75689">
        <ele>1768</ele>
        <time>2013-06-22T05:03:13Z</time>
      </trkpt>
      <trkpt lat="42.96339" lon="-0.75688">
        <ele>1768</ele>
        <time>2013-06-22T05:03:15Z</time>
      </trkpt>
      <trkpt lat="42.9634" lon="-0.75686">
        <ele>1769</ele>
        <time>2013-06-22T05:03:17Z</time>
      </trkpt>
      <trkpt lat="42.9634" lon="-0.75685">
        <ele>1770</ele>
        <time>2013-06-22T05:03:21Z</time>
      </trkpt>
      <trkpt lat="42.96339" lon="-0.75683">
        <ele>1771</ele>
        <time>2013-06-22T05:03:24Z</time>
      </trkpt>
      <trkpt lat="42.96339" lon="-0.75682">
        <ele>1771</ele>
        <time>2013-06-22T05:03:27Z</time>
      </trkpt>
      <trkpt lat="42.96339" lon="-0.7568">
        <ele>1772</ele>
        <time>2013-06-22T05:03:28Z</time>
      </trkpt>
      <trkpt lat="42.96339" lon="-0.75678">
        <ele>1773</ele>
        <time>2013-06-22T05:03:31Z</time>
      </trkpt>
      <trkpt lat="42.96338" lon="-0.75677">
        <ele>1773</ele>
        <time>2013-06-22T05:03:34Z</time>
      </trkpt>
      <trkpt lat="42.96338" lon="-0.75675">
        <ele>1774</ele>
        <time>2013-06-22T05:03:35Z</time>
      </trkpt>
      <trkpt lat="42.96338" lon="-0.75673">
        <ele>1774</ele>
        <time>2013-06-22T05:03:37Z</time>
      </trkpt>
      <trkpt lat="42.96338" lon="-0.75671">
        <ele>1774</ele>
        <time>2013-06-22T05:03:40Z</time>
      </trkpt>
      <trkpt lat="42.96338" lon="-0.75669">
        <ele>1775</ele>
        <time>2013-06-22T05:03:41Z</time>
      </trkpt>
      <trkpt lat="42.96338" lon="-0.75668">
        <ele>1775</ele>
        <time>2013-06-22T05:03:43Z</time>
      </trkpt>
      <trkpt lat="42.96337" lon="-0.75666">
        <ele>1775</ele>
        <time>2013-06-22T05:03:46Z</time>
      </trkpt>
      <trkpt lat="42.96337" lon="-0.75664">
        <ele>1776</ele>
        <time>2013-06-22T05:03:47Z</time>
      </trkpt>
      <trkpt lat="42.96337" lon="-0.75662">
        <ele>1776</ele>
        <time>2013-06-22T05:03:49Z</time>
      </trkpt>
      <trkpt lat="42.96337" lon="-0.75661">
        <ele>1776</ele>
        <time>2013-06-22T05:03:52Z</time>
      </trkpt>
      <trkpt lat="42.96337" lon="-0.75659">
        <ele>1776</ele>
        <time>2013-06-22T05:03:53Z</time>
      </trkpt>
      <trkpt lat="42.96337" lon="-0.75657">
        <ele>1776</ele>
        <time>2013-06-22T05:03:55Z</time>
      </trkpt>
      <trkpt lat="42.96336" lon="-0.75656">
        <ele>1776</ele>
        <time>2013-06-22T05:03:58Z</time>
      </trkpt>
      <trkpt lat="42.96336" lon="-0.75653">
        <ele>1777</ele>
        <time>2013-06-22T05:03:59Z</time>
      </trkpt>
      <trkpt lat="42.96336" lon="-0.75652">
        <ele>1777</ele>
        <time>2013-06-22T05:04:01Z</time>
      </trkpt>
      <trkpt lat="42.96336" lon="-0.7565">
        <ele>1777</ele>
        <time>2013-06-22T05:04:04Z</time>
      </trkpt>
      <trkpt lat="42.96336" lon="-0.75649">
        <ele>1778</ele>
        <time>2013-06-22T05:04:05Z</time>
      </trkpt>
      <trkpt lat="42.96337" lon="-0.75647">
        <ele>1778</ele>
        <time>2013-06-22T05:04:07Z</time>
      </trkpt>
      <trkpt lat="42.96337" lon="-0.75645">
        <ele>1778</ele>
        <time>2013-06-22T05:04:10Z</time>
      </trkpt>
      <trkpt lat="42.96338" lon="-0.75643">
        <ele>1778</ele>
        <time>2013-06-22T05:04:12Z</time>
      </trkpt>
      <trkpt lat="42.96338" lon="-0.75641">
        <ele>1778</ele>
        <time>2013-06-22T05:04:16Z</time>
      </trkpt>
      <trkpt lat="42.96339" lon="-0.7564">
        <ele>1779</ele>
        <time>2013-06-22T05:04:17Z</time>
      </trkpt>
      <trkpt lat="42.96339" lon="-0.75638">
        <ele>1779</ele>
        <time>2013-06-22T05:04:19Z</time>
      </trkpt>
      <trkpt lat="42.96339" lon="-0.75637">
        <ele>1779</ele>
        <time>2013-06-22T05:04:22Z</time>
      </trkpt>
      <trkpt lat="42.96339" lon="-0.75635">
        <ele>1780</ele>
        <time>2013-06-22T05:04:23Z</time>
      </trkpt>
      <trkpt lat="42.96338" lon="-0.75633">
        <ele>1780</ele>
        <time>2013-06-22T05:04:25Z</time>
      </trkpt>
      <trkpt lat="42.96338" lon="-0.75631">
        <ele>1782</ele>
        <time>2013-06-22T05:04:39Z</time>
      </trkpt>
      <trkpt lat="42.96338" lon="-0.75629">
        <ele>1782</ele>
        <time>2013-06-22T05:04:40Z</time>
      </trkpt>
      <trkpt lat="42.96338" lon="-0.75627">
        <ele>1782</ele>
        <time>2013-06-22T05:04:42Z</time>
      </trkpt>
      <trkpt lat="42.96337" lon="-0.75625">
        <ele>1782</ele>
        <time>2013-06-22T05:04:45Z</time>
      </trkpt>
      <trkpt lat="42.96337" lon="-0.75623">
        <ele>1782</ele>
        <time>2013-06-22T05:04:46Z</time>
      </trkpt>
      <trkpt lat="42.96337" lon="-0.75621">
        <ele>1782</ele>
        <time>2013-06-22T05:04:48Z</time>
      </trkpt>
      <trkpt lat="42.96337" lon="-0.7562">
        <ele>1783</ele>
        <time>2013-06-22T05:04:51Z</time>
      </trkpt>
      <trkpt lat="42.96337" lon="-0.75618">
        <ele>1783</ele>
        <time>2013-06-22T05:04:52Z</time>
      </trkpt>
      <trkpt lat="42.96338" lon="-0.75616">
        <ele>1783</ele>
        <time>2013-06-22T05:04:54Z</time>
      </trkpt>
      <trkpt lat="42.96338" lon="-0.75615">
        <ele>1784</ele>
        <time>2013-06-22T05:04:57Z</time>
      </trkpt>
      <trkpt lat="42.96338" lon="-0.75612">
        <ele>1784</ele>
        <time>2013-06-22T05:04:58Z</time>
      </trkpt>
      <trkpt lat="42.96338" lon="-0.75611">
        <ele>1785</ele>
        <time>2013-06-22T05:05:00Z</time>
      </trkpt>
      <trkpt lat="42.96338" lon="-0.75608">
        <ele>1785</ele>
        <time>2013-06-22T05:05:03Z</time>
      </trkpt>
      <trkpt lat="42.96339" lon="-0.75607">
        <ele>1785</ele>
        <time>2013-06-22T05:05:04Z</time>
      </trkpt>
      <trkpt lat="42.96339" lon="-0.75605">
        <ele>1786</ele>
        <time>2013-06-22T05:05:06Z</time>
      </trkpt>
      <trkpt lat="42.96339" lon="-0.75603">
        <ele>1786</ele>
        <time>2013-06-22T05:05:09Z</time>
      </trkpt>
      <trkpt lat="42.96339" lon="-0.75601">
        <ele>1786</ele>
        <time>2013-06-22T05:05:10Z</time>
      </trkpt>
      <trkpt lat="42.96339" lon="-0.75599">
        <ele>1787</ele>
        <time>2013-06-22T05:05:12Z</time>
      </trkpt>
      <trkpt lat="42.96339" lon="-0.75598">
        <ele>1787</ele>
        <time>2013-06-22T05:05:15Z</time>
      </trkpt>
      <trkpt lat="42.9634" lon="-0.75595">
        <ele>1788</ele>
        <time>2013-06-22T05:05:16Z</time>
      </trkpt>
      <trkpt lat="42.9634" lon="-0.75593">
        <ele>1788</ele>
        <time>2013-06-22T05:05:19Z</time>
      </trkpt>
      <trkpt lat="42.9634" lon="-0.75591">
        <ele>1789</ele>
        <time>2013-06-22T05:05:21Z</time>
      </trkpt>
      <trkpt lat="42.96341" lon="-0.7559">
        <ele>1789</ele>
        <time>2013-06-22T05:05:23Z</time>
      </trkpt>
      <trkpt lat="42.96341" lon="-0.75588">
        <ele>1789</ele>
        <time>2013-06-22T05:05:24Z</time>
      </trkpt>
      <trkpt lat="42.96341" lon="-0.75586">
        <ele>1789</ele>
        <time>2013-06-22T05:05:27Z</time>
      </trkpt>
      <trkpt lat="42.96341" lon="-0.75585">
        <ele>1790</ele>
        <time>2013-06-22T05:05:28Z</time>
      </trkpt>
      <trkpt lat="42.96342" lon="-0.75583">
        <ele>1790</ele>
        <time>2013-06-22T05:05:30Z</time>
      </trkpt>
      <trkpt lat="42.96342" lon="-0.75582">
        <ele>1790</ele>
        <time>2013-06-22T05:05:34Z</time>
      </trkpt>
      <trkpt lat="42.96343" lon="-0.7558">
        <ele>1791</ele>
        <time>2013-06-22T05:05:36Z</time>
      </trkpt>
      <trkpt lat="42.96343" lon="-0.75578">
        <ele>1791</ele>
        <time>2013-06-22T05:05:40Z</time>
      </trkpt>
      <trkpt lat="42.96344" lon="-0.75576">
        <ele>1791</ele>
        <time>2013-06-22T05:05:42Z</time>
      </trkpt>
      <trkpt lat="42.96344" lon="-0.75574">
        <ele>1792</ele>
        <time>2013-06-22T05:05:46Z</time>
      </trkpt>
      <trkpt lat="42.96344" lon="-0.75573">
        <ele>1792</ele>
        <time>2013-06-22T05:05:47Z</time>
      </trkpt>
      <trkpt lat="42.96345" lon="-0.75571">
        <ele>1792</ele>
        <time>2013-06-22T05:05:49Z</time>
      </trkpt>
      <trkpt lat="42.96346" lon="-0.75569">
        <ele>1793</ele>
        <time>2013-06-22T05:05:53Z</time>
      </trkpt>
      <trkpt lat="42.96346" lon="-0.75568">
        <ele>1794</ele>
        <time>2013-06-22T05:05:55Z</time>
      </trkpt>
      <trkpt lat="42.96347" lon="-0.75566">
        <ele>1794</ele>
        <time>2013-06-22T05:05:59Z</time>
      </trkpt>
      <trkpt lat="42.96347" lon="-0.75564">
        <ele>1795</ele>
        <time>2013-06-22T05:06:01Z</time>
      </trkpt>
      <trkpt lat="42.96348" lon="-0.75562">
        <ele>1796</ele>
        <time>2013-06-22T05:06:04Z</time>
      </trkpt>
      <trkpt lat="42.96348" lon="-0.75561">
        <ele>1796</ele>
        <time>2013-06-22T05:06:06Z</time>
      </trkpt>
      <trkpt lat="42.96348" lon="-0.75559">
        <ele>1796</ele>
        <time>2013-06-22T05:06:08Z</time>
      </trkpt>
      <trkpt lat="42.96349" lon="-0.75557">
        <ele>1797</ele>
        <time>2013-06-22T05:06:13Z</time>
      </trkpt>
      <trkpt lat="42.96349" lon="-0.75556">
        <ele>1797</ele>
        <time>2013-06-22T05:06:14Z</time>
      </trkpt>
      <trkpt lat="42.96349" lon="-0.75554">
        <ele>1798</ele>
        <time>2013-06-22T05:06:16Z</time>
      </trkpt>
      <trkpt lat="42.96349" lon="-0.75553">
        <ele>1799</ele>
        <time>2013-06-22T05:06:20Z</time>
      </trkpt>
      <trkpt lat="42.96349" lon="-0.75551">
        <ele>1800</ele>
        <time>2013-06-22T05:06:21Z</time>
      </trkpt>
      <trkpt lat="42.9635" lon="-0.7555">
        <ele>1800</ele>
        <time>2013-06-22T05:06:25Z</time>
      </trkpt>
      <trkpt lat="42.9635" lon="-0.75548">
        <ele>1801</ele>
        <time>2013-06-22T05:06:28Z</time>
      </trkpt>
      <trkpt lat="42.9635" lon="-0.75546">
        <ele>1801</ele>
        <time>2013-06-22T05:06:33Z</time>
      </trkpt>
      <trkpt lat="42.96351" lon="-0.75545">
        <ele>1801</ele>
        <time>2013-06-22T05:06:35Z</time>
      </trkpt>
      <trkpt lat="42.96351" lon="-0.75543">
        <ele>1801</ele>
        <time>2013-06-22T05:06:38Z</time>
      </trkpt>
      <trkpt lat="42.96352" lon="-0.75541">
        <ele>1801</ele>
        <time>2013-06-22T05:06:40Z</time>
      </trkpt>
      <trkpt lat="42.96352" lon="-0.75539">
        <ele>1802</ele>
        <time>2013-06-22T05:06:43Z</time>
      </trkpt>
      <trkpt lat="42.96352" lon="-0.75537">
        <ele>1802</ele>
        <time>2013-06-22T05:06:44Z</time>
      </trkpt>
      <trkpt lat="42.96352" lon="-0.75535">
        <ele>1802</ele>
        <time>2013-06-22T05:06:48Z</time>
      </trkpt>
      <trkpt lat="42.96352" lon="-0.75533">
        <ele>1802</ele>
        <time>2013-06-22T05:06:49Z</time>
      </trkpt>
      <trkpt lat="42.96352" lon="-0.75531">
        <ele>1802</ele>
        <time>2013-06-22T05:06:51Z</time>
      </trkpt>
      <trkpt lat="42.96352" lon="-0.75529">
        <ele>1802</ele>
        <time>2013-06-22T05:06:53Z</time>
      </trkpt>
      <trkpt lat="42.96352" lon="-0.75528">
        <ele>1802</ele>
        <time>2013-06-22T05:06:55Z</time>
      </trkpt>
      <trkpt lat="42.96352" lon="-0.75526">
        <ele>1802</ele>
        <time>2013-06-22T05:06:57Z</time>
      </trkpt>
      <trkpt lat="42.96352" lon="-0.75524">
        <ele>1802</ele>
        <time>2013-06-22T05:07:00Z</time>
      </trkpt>
      <trkpt lat="42.96353" lon="-0.75523">
        <ele>1802</ele>
        <time>2013-06-22T05:07:01Z</time>
      </trkpt>
      <trkpt lat="42.96353" lon="-0.75521">
        <ele>1802</ele>
        <time>2013-06-22T05:07:03Z</time>
      </trkpt>
      <trkpt lat="42.96352" lon="-0.75519">
        <ele>1802</ele>
        <time>2013-06-22T05:07:06Z</time>
      </trkpt>
      <trkpt lat="42.96352" lon="-0.75518">
        <ele>1802</ele>
        <time>2013-06-22T05:07:07Z</time>
      </trkpt>
      <trkpt lat="42.96352" lon="-0.75516">
        <ele>1802</ele>
        <time>2013-06-22T05:07:09Z</time>
      </trkpt>
      <trkpt lat="42.96352" lon="-0.75514">
        <ele>1802</ele>
        <time>2013-06-22T05:07:13Z</time>
      </trkpt>
      <trkpt lat="42.96352" lon="-0.75513">
        <ele>1803</ele>
        <time>2013-06-22T05:07:15Z</time>
      </trkpt>
      <trkpt lat="42.9635" lon="-0.75511">
        <ele>1803</ele>
        <time>2013-06-22T05:07:19Z</time>
      </trkpt>
      <trkpt lat="42.96348" lon="-0.75509">
        <ele>1803</ele>
        <time>2013-06-22T05:07:22Z</time>
      </trkpt>
      <trkpt lat="42.96347" lon="-0.75508">
        <ele>1803</ele>
        <time>2013-06-22T05:07:24Z</time>
      </trkpt>
      <trkpt lat="42.96346" lon="-0.75507">
        <ele>1803</ele>
        <time>2013-06-22T05:07:28Z</time>
      </trkpt>
      <trkpt lat="42.96344" lon="-0.75506">
        <ele>1803</ele>
        <time>2013-06-22T05:07:32Z</time>
      </trkpt>
      <trkpt lat="42.96343" lon="-0.75505">
        <ele>1803</ele>
        <time>2013-06-22T05:07:33Z</time>
      </trkpt>
      <trkpt lat="42.96341" lon="-0.75505">
        <ele>1803</ele>
        <time>2013-06-22T05:07:36Z</time>
      </trkpt>
      <trkpt lat="42.9634" lon="-0.75504">
        <ele>1803</ele>
        <time>2013-06-22T05:07:38Z</time>
      </trkpt>
      <trkpt lat="42.96339" lon="-0.75504">
        <ele>1803</ele>
        <time>2013-06-22T05:07:41Z</time>
      </trkpt>
      <trkpt lat="42.96338" lon="-0.75503">
        <ele>1804</ele>
        <time>2013-06-22T05:07:43Z</time>
      </trkpt>
      <trkpt lat="42.96337" lon="-0.75503">
        <ele>1804</ele>
        <time>2013-06-22T05:07:45Z</time>
      </trkpt>
      <trkpt lat="42.96336" lon="-0.75503">
        <ele>1804</ele>
        <time>2013-06-22T05:07:49Z</time>
      </trkpt>
      <trkpt lat="42.96336" lon="-0.75502">
        <ele>1806</ele>
        <time>2013-06-22T05:07:59Z</time>
      </trkpt>
      <trkpt lat="42.96337" lon="-0.755">
        <ele>1806</ele>
        <time>2013-06-22T05:08:02Z</time>
      </trkpt>
      <trkpt lat="42.96338" lon="-0.75498">
        <ele>1806</ele>
        <time>2013-06-22T05:08:05Z</time>
      </trkpt>
      <trkpt lat="42.96339" lon="-0.75497">
        <ele>1807</ele>
        <time>2013-06-22T05:08:08Z</time>
      </trkpt>
      <trkpt lat="42.9634" lon="-0.75494">
        <ele>1807</ele>
        <time>2013-06-22T05:08:12Z</time>
      </trkpt>
      <trkpt lat="42.96341" lon="-0.75493">
        <ele>1807</ele>
        <time>2013-06-22T05:08:14Z</time>
      </trkpt>
      <trkpt lat="42.96343" lon="-0.75491">
        <ele>1808</ele>
        <time>2013-06-22T05:08:17Z</time>
      </trkpt>
      <trkpt lat="42.96344" lon="-0.7549">
        <ele>1809</ele>
        <time>2013-06-22T05:08:20Z</time>
      </trkpt>
      <trkpt lat="42.96343" lon="-0.75488">
        <ele>1809</ele>
        <time>2013-06-22T05:08:23Z</time>
      </trkpt>
      <trkpt lat="42.96342" lon="-0.75487">
        <ele>1810</ele>
        <time>2013-06-22T05:08:26Z</time>
      </trkpt>
      <trkpt lat="42.96341" lon="-0.75486">
        <ele>1810</ele>
        <time>2013-06-22T05:08:28Z</time>
      </trkpt>
      <trkpt lat="42.9634" lon="-0.75485">
        <ele>1811</ele>
        <time>2013-06-22T05:08:31Z</time>
      </trkpt>
      <trkpt lat="42.96341" lon="-0.75482">
        <ele>1811</ele>
        <time>2013-06-22T05:08:34Z</time>
      </trkpt>
      <trkpt lat="42.96342" lon="-0.75481">
        <ele>1812</ele>
        <time>2013-06-22T05:08:37Z</time>
      </trkpt>
      <trkpt lat="42.96343" lon="-0.75479">
        <ele>1812</ele>
        <time>2013-06-22T05:08:40Z</time>
      </trkpt>
      <trkpt lat="42.96344" lon="-0.75478">
        <ele>1812</ele>
        <time>2013-06-22T05:08:43Z</time>
      </trkpt>
      <trkpt lat="42.96344" lon="-0.75476">
        <ele>1813</ele>
        <time>2013-06-22T05:08:46Z</time>
      </trkpt>
      <trkpt lat="42.96342" lon="-0.75476">
        <ele>1813</ele>
        <time>2013-06-22T05:08:48Z</time>
      </trkpt>
      <trkpt lat="42.96341" lon="-0.75475">
        <ele>1814</ele>
        <time>2013-06-22T05:08:50Z</time>
      </trkpt>
      <trkpt lat="42.9634" lon="-0.75475">
        <ele>1814</ele>
        <time>2013-06-22T05:08:52Z</time>
      </trkpt>
      <trkpt lat="42.96338" lon="-0.75475">
        <ele>1814</ele>
        <time>2013-06-22T05:08:55Z</time>
      </trkpt>
      <trkpt lat="42.96337" lon="-0.75474">
        <ele>1814</ele>
        <time>2013-06-22T05:08:57Z</time>
      </trkpt>
      <trkpt lat="42.96336" lon="-0.75474">
        <ele>1814</ele>
        <time>2013-06-22T05:08:59Z</time>
      </trkpt>
      <trkpt lat="42.96334" lon="-0.75474">
        <ele>1815</ele>
        <time>2013-06-22T05:09:01Z</time>
      </trkpt>
      <trkpt lat="42.96333" lon="-0.75474">
        <ele>1815</ele>
        <time>2013-06-22T05:09:03Z</time>
      </trkpt>
      <trkpt lat="42.96331" lon="-0.75474">
        <ele>1815</ele>
        <time>2013-06-22T05:09:05Z</time>
      </trkpt>
      <trkpt lat="42.9633" lon="-0.75474">
        <ele>1815</ele>
        <time>2013-06-22T05:09:07Z</time>
      </trkpt>
      <trkpt lat="42.96329" lon="-0.75474">
        <ele>1815</ele>
        <time>2013-06-22T05:09:09Z</time>
      </trkpt>
      <trkpt lat="42.96328" lon="-0.75474">
        <ele>1815</ele>
        <time>2013-06-22T05:09:11Z</time>
      </trkpt>
      <trkpt lat="42.96326" lon="-0.75474">
        <ele>1815</ele>
        <time>2013-06-22T05:09:13Z</time>
      </trkpt>
      <trkpt lat="42.96325" lon="-0.75473">
        <ele>1816</ele>
        <time>2013-06-22T05:09:15Z</time>
      </trkpt>
      <trkpt lat="42.96324" lon="-0.75472">
        <ele>1816</ele>
        <time>2013-06-22T05:09:17Z</time>
      </trkpt>
      <trkpt lat="42.96325" lon="-0.7547">
        <ele>1816</ele>
        <time>2013-06-22T05:09:19Z</time>
      </trkpt>
      <trkpt lat="42.96326" lon="-0.75468">
        <ele>1816</ele>
        <time>2013-06-22T05:09:22Z</time>
      </trkpt>
      <trkpt lat="42.96327" lon="-0.75466">
        <ele>1817</ele>
        <time>2013-06-22T05:09:24Z</time>
      </trkpt>
      <trkpt lat="42.96327" lon="-0.75465">
        <ele>1817</ele>
        <time>2013-06-22T05:09:26Z</time>
      </trkpt>
      <trkpt lat="42.96328" lon="-0.75463">
        <ele>1817</ele>
        <time>2013-06-22T05:09:28Z</time>
      </trkpt>
      <trkpt lat="42.96329" lon="-0.75462">
        <ele>1818</ele>
        <time>2013-06-22T05:09:30Z</time>
      </trkpt>
      <trkpt lat="42.96329" lon="-0.7546">
        <ele>1818</ele>
        <time>2013-06-22T05:09:32Z</time>
      </trkpt>
      <trkpt lat="42.9633" lon="-0.75459">
        <ele>1818</ele>
        <time>2013-06-22T05:09:34Z</time>
      </trkpt>
      <trkpt lat="42.96331" lon="-0.75457">
        <ele>1818</ele>
        <time>2013-06-22T05:09:37Z</time>
      </trkpt>
      <trkpt lat="42.96332" lon="-0.75455">
        <ele>1819</ele>
        <time>2013-06-22T05:09:54Z</time>
      </trkpt>
      <trkpt lat="42.96333" lon="-0.75454">
        <ele>1819</ele>
        <time>2013-06-22T05:09:56Z</time>
      </trkpt>
      <trkpt lat="42.96333" lon="-0.75452">
        <ele>1819</ele>
        <time>2013-06-22T05:09:58Z</time>
      </trkpt>
      <trkpt lat="42.96334" lon="-0.7545">
        <ele>1819</ele>
        <time>2013-06-22T05:10:00Z</time>
      </trkpt>
      <trkpt lat="42.96335" lon="-0.75449">
        <ele>1819</ele>
        <time>2013-06-22T05:10:02Z</time>
      </trkpt>
      <trkpt lat="42.96336" lon="-0.75447">
        <ele>1819</ele>
        <time>2013-06-22T05:10:04Z</time>
      </trkpt>
      <trkpt lat="42.96337" lon="-0.75445">
        <ele>1820</ele>
        <time>2013-06-22T05:10:06Z</time>
      </trkpt>
      <trkpt lat="42.96338" lon="-0.75444">
        <ele>1820</ele>
        <time>2013-06-22T05:10:08Z</time>
      </trkpt>
      <trkpt lat="42.96339" lon="-0.75442">
        <ele>1820</ele>
        <time>2013-06-22T05:10:10Z</time>
      </trkpt>
      <trkpt lat="42.9634" lon="-0.75441">
        <ele>1820</ele>
        <time>2013-06-22T05:10:13Z</time>
      </trkpt>
      <trkpt lat="42.96341" lon="-0.75439">
        <ele>1820</ele>
        <time>2013-06-22T05:10:14Z</time>
      </trkpt>
      <trkpt lat="42.96341" lon="-0.75438">
        <ele>1820</ele>
        <time>2013-06-22T05:10:16Z</time>
      </trkpt>
      <trkpt lat="42.96342" lon="-0.75436">
        <ele>1821</ele>
        <time>2013-06-22T05:10:18Z</time>
      </trkpt>
      <trkpt lat="42.96343" lon="-0.75434">
        <ele>1821</ele>
        <time>2013-06-22T05:10:21Z</time>
      </trkpt>
      <trkpt lat="42.96344" lon="-0.75433">
        <ele>1821</ele>
        <time>2013-06-22T05:10:23Z</time>
      </trkpt>
      <trkpt lat="42.96346" lon="-0.75431">
        <ele>1822</ele>
        <time>2013-06-22T05:10:26Z</time>
      </trkpt>
      <trkpt lat="42.96347" lon="-0.7543">
        <ele>1822</ele>
        <time>2013-06-22T05:10:29Z</time>
      </trkpt>
      <trkpt lat="42.96348" lon="-0.75428">
        <ele>1822</ele>
        <time>2013-06-22T05:10:31Z</time>
      </trkpt>
      <trkpt lat="42.96349" lon="-0.75427">
        <ele>1823</ele>
        <time>2013-06-22T05:10:34Z</time>
      </trkpt>
      <trkpt lat="42.9635" lon="-0.75425">
        <ele>1823</ele>
        <time>2013-06-22T05:10:37Z</time>
      </trkpt>
      <trkpt lat="42.96352" lon="-0.75424">
        <ele>1823</ele>
        <time>2013-06-22T05:10:39Z</time>
      </trkpt>
      <trkpt lat="42.96353" lon="-0.75423">
        <ele>1824</ele>
        <time>2013-06-22T05:10:41Z</time>
      </trkpt>
      <trkpt lat="42.96354" lon="-0.75421">
        <ele>1824</ele>
        <time>2013-06-22T05:10:43Z</time>
      </trkpt>
      <trkpt lat="42.96356" lon="-0.75419">
        <ele>1824</ele>
        <time>2013-06-22T05:10:46Z</time>
      </trkpt>
      <trkpt lat="42.96357" lon="-0.75418">
        <ele>1825</ele>
        <time>2013-06-22T05:10:48Z</time>
      </trkpt>
      <trkpt lat="42.96358" lon="-0.75416">
        <ele>1825</ele>
        <time>2013-06-22T05:10:50Z</time>
      </trkpt>
      <trkpt lat="42.96359" lon="-0.75414">
        <ele>1825</ele>
        <time>2013-06-22T05:10:52Z</time>
      </trkpt>
      <trkpt lat="42.9636" lon="-0.75413">
        <ele>1825</ele>
        <time>2013-06-22T05:10:54Z</time>
      </trkpt>
      <trkpt lat="42.9636" lon="-0.75411">
        <ele>1826</ele>
        <time>2013-06-22T05:10:56Z</time>
      </trkpt>
      <trkpt lat="42.96362" lon="-0.75409">
        <ele>1826</ele>
        <time>2013-06-22T05:10:59Z</time>
      </trkpt>
      <trkpt lat="42.96363" lon="-0.75408">
        <ele>1826</ele>
        <time>2013-06-22T05:11:01Z</time>
      </trkpt>
      <trkpt lat="42.96364" lon="-0.75406">
        <ele>1826</ele>
        <time>2013-06-22T05:11:03Z</time>
      </trkpt>
      <trkpt lat="42.96366" lon="-0.75405">
        <ele>1826</ele>
        <time>2013-06-22T05:11:06Z</time>
      </trkpt>
      <trkpt lat="42.96367" lon="-0.75403">
        <ele>1826</ele>
        <time>2013-06-22T05:11:09Z</time>
      </trkpt>
      <trkpt lat="42.96368" lon="-0.75402">
        <ele>1827</ele>
        <time>2013-06-22T05:11:14Z</time>
      </trkpt>
      <trkpt lat="42.96369" lon="-0.75401">
        <ele>1827</ele>
        <time>2013-06-22T05:11:16Z</time>
      </trkpt>
      <trkpt lat="42.9637" lon="-0.75399">
        <ele>1827</ele>
        <time>2013-06-22T05:11:18Z</time>
      </trkpt>
      <trkpt lat="42.96372" lon="-0.75397">
        <ele>1828</ele>
        <time>2013-06-22T05:11:21Z</time>
      </trkpt>
      <trkpt lat="42.96372" lon="-0.75395">
        <ele>1828</ele>
        <time>2013-06-22T05:11:23Z</time>
      </trkpt>
      <trkpt lat="42.96373" lon="-0.75393">
        <ele>1828</ele>
        <time>2013-06-22T05:11:25Z</time>
      </trkpt>
      <trkpt lat="42.96373" lon="-0.75391">
        <ele>1828</ele>
        <time>2013-06-22T05:11:27Z</time>
      </trkpt>
      <trkpt lat="42.96374" lon="-0.75389">
        <ele>1829</ele>
        <time>2013-06-22T05:11:29Z</time>
      </trkpt>
      <trkpt lat="42.96375" lon="-0.75387">
        <ele>1829</ele>
        <time>2013-06-22T05:11:31Z</time>
      </trkpt>
      <trkpt lat="42.96376" lon="-0.75385">
        <ele>1829</ele>
        <time>2013-06-22T05:11:33Z</time>
      </trkpt>
      <trkpt lat="42.96376" lon="-0.75383">
        <ele>1829</ele>
        <time>2013-06-22T05:11:35Z</time>
      </trkpt>
      <trkpt lat="42.96377" lon="-0.75381">
        <ele>1829</ele>
        <time>2013-06-22T05:11:37Z</time>
      </trkpt>
      <trkpt lat="42.96377" lon="-0.75379">
        <ele>1829</ele>
        <time>2013-06-22T05:11:39Z</time>
      </trkpt>
      <trkpt lat="42.96378" lon="-0.75377">
        <ele>1829</ele>
        <time>2013-06-22T05:11:41Z</time>
      </trkpt>
      <trkpt lat="42.96379" lon="-0.75376">
        <ele>1829</ele>
        <time>2013-06-22T05:11:43Z</time>
      </trkpt>
      <trkpt lat="42.96379" lon="-0.75374">
        <ele>1829</ele>
        <time>2013-06-22T05:11:45Z</time>
      </trkpt>
      <trkpt lat="42.9638" lon="-0.75372">
        <ele>1829</ele>
        <time>2013-06-22T05:11:47Z</time>
      </trkpt>
      <trkpt lat="42.96381" lon="-0.7537">
        <ele>1829</ele>
        <time>2013-06-22T05:11:49Z</time>
      </trkpt>
      <trkpt lat="42.96381" lon="-0.75368">
        <ele>1829</ele>
        <time>2013-06-22T05:11:51Z</time>
      </trkpt>
      <trkpt lat="42.96382" lon="-0.75367">
        <ele>1829</ele>
        <time>2013-06-22T05:11:53Z</time>
      </trkpt>
      <trkpt lat="42.96383" lon="-0.75365">
        <ele>1829</ele>
        <time>2013-06-22T05:11:55Z</time>
      </trkpt>
      <trkpt lat="42.96383" lon="-0.75364">
        <ele>1830</ele>
        <time>2013-06-22T05:11:57Z</time>
      </trkpt>
      <trkpt lat="42.96384" lon="-0.75362">
        <ele>1830</ele>
        <time>2013-06-22T05:12:00Z</time>
      </trkpt>
      <trkpt lat="42.96385" lon="-0.7536">
        <ele>1831</ele>
        <time>2013-06-22T05:12:03Z</time>
      </trkpt>
      <trkpt lat="42.96386" lon="-0.75358">
        <ele>1831</ele>
        <time>2013-06-22T05:12:05Z</time>
      </trkpt>
      <trkpt lat="42.96386" lon="-0.75357">
        <ele>1831</ele>
        <time>2013-06-22T05:12:08Z</time>
      </trkpt>
      <trkpt lat="42.96387" lon="-0.75354">
        <ele>1832</ele>
        <time>2013-06-22T05:12:11Z</time>
      </trkpt>
      <trkpt lat="42.96388" lon="-0.75353">
        <ele>1832</ele>
        <time>2013-06-22T05:12:14Z</time>
      </trkpt>
      <trkpt lat="42.96389" lon="-0.75351">
        <ele>1832</ele>
        <time>2013-06-22T05:12:17Z</time>
      </trkpt>
      <trkpt lat="42.9639" lon="-0.75349">
        <ele>1833</ele>
        <time>2013-06-22T05:12:20Z</time>
      </trkpt>
      <trkpt lat="42.96391" lon="-0.75347">
        <ele>1833</ele>
        <time>2013-06-22T05:12:23Z</time>
      </trkpt>
      <trkpt lat="42.96392" lon="-0.75345">
        <ele>1834</ele>
        <time>2013-06-22T05:12:26Z</time>
      </trkpt>
      <trkpt lat="42.96393" lon="-0.75343">
        <ele>1834</ele>
        <time>2013-06-22T05:12:29Z</time>
      </trkpt>
      <trkpt lat="42.96394" lon="-0.75341">
        <ele>1834</ele>
        <time>2013-06-22T05:12:32Z</time>
      </trkpt>
      <trkpt lat="42.96396" lon="-0.75339">
        <ele>1835</ele>
        <time>2013-06-22T05:12:35Z</time>
      </trkpt>
      <trkpt lat="42.96397" lon="-0.75337">
        <ele>1835</ele>
        <time>2013-06-22T05:12:38Z</time>
      </trkpt>
      <trkpt lat="42.96398" lon="-0.75336">
        <ele>1836</ele>
        <time>2013-06-22T05:12:41Z</time>
      </trkpt>
      <trkpt lat="42.96399" lon="-0.75335">
        <ele>1837</ele>
        <time>2013-06-22T05:12:44Z</time>
      </trkpt>
      <trkpt lat="42.964" lon="-0.75334">
        <ele>1837</ele>
        <time>2013-06-22T05:12:46Z</time>
      </trkpt>
      <trkpt lat="42.96402" lon="-0.75333">
        <ele>1837</ele>
        <time>2013-06-22T05:12:48Z</time>
      </trkpt>
      <trkpt lat="42.96403" lon="-0.75332">
        <ele>1838</ele>
        <time>2013-06-22T05:12:50Z</time>
      </trkpt>
      <trkpt lat="42.96405" lon="-0.75332">
        <ele>1838</ele>
        <time>2013-06-22T05:12:52Z</time>
      </trkpt>
      <trkpt lat="42.96406" lon="-0.75331">
        <ele>1838</ele>
        <time>2013-06-22T05:12:54Z</time>
      </trkpt>
      <trkpt lat="42.96407" lon="-0.75331">
        <ele>1838</ele>
        <time>2013-06-22T05:12:56Z</time>
      </trkpt>
      <trkpt lat="42.96408" lon="-0.7533">
        <ele>1839</ele>
        <time>2013-06-22T05:12:58Z</time>
      </trkpt>
      <trkpt lat="42.9641" lon="-0.75329">
        <ele>1839</ele>
        <time>2013-06-22T05:13:00Z</time>
      </trkpt>
      <trkpt lat="42.96411" lon="-0.75328">
        <ele>1839</ele>
        <time>2013-06-22T05:13:02Z</time>
      </trkpt>
      <trkpt lat="42.96412" lon="-0.75327">
        <ele>1840</ele>
        <time>2013-06-22T05:13:04Z</time>
      </trkpt>
      <trkpt lat="42.96413" lon="-0.75326">
        <ele>1840</ele>
        <time>2013-06-22T05:13:06Z</time>
      </trkpt>
      <trkpt lat="42.96415" lon="-0.75325">
        <ele>1840</ele>
        <time>2013-06-22T05:13:09Z</time>
      </trkpt>
      <trkpt lat="42.96416" lon="-0.75324">
        <ele>1840</ele>
        <time>2013-06-22T05:13:12Z</time>
      </trkpt>
      <trkpt lat="42.96417" lon="-0.75323">
        <ele>1840</ele>
        <time>2013-06-22T05:13:14Z</time>
      </trkpt>
      <trkpt lat="42.96418" lon="-0.75322">
        <ele>1841</ele>
        <time>2013-06-22T05:13:16Z</time>
      </trkpt>
      <trkpt lat="42.9642" lon="-0.75321">
        <ele>1841</ele>
        <time>2013-06-22T05:13:19Z</time>
      </trkpt>
      <trkpt lat="42.96421" lon="-0.75319">
        <ele>1841</ele>
        <time>2013-06-22T05:13:22Z</time>
      </trkpt>
      <trkpt lat="42.96423" lon="-0.75318">
        <ele>1842</ele>
        <time>2013-06-22T05:13:24Z</time>
      </trkpt>
      <trkpt lat="42.96424" lon="-0.75317">
        <ele>1842</ele>
        <time>2013-06-22T05:13:27Z</time>
      </trkpt>
      <trkpt lat="42.96424" lon="-0.75315">
        <ele>1843</ele>
        <time>2013-06-22T05:13:30Z</time>
      </trkpt>
      <trkpt lat="42.96423" lon="-0.75313">
        <ele>1844</ele>
        <time>2013-06-22T05:13:33Z</time>
      </trkpt>
      <trkpt lat="42.96422" lon="-0.75311">
        <ele>1844</ele>
        <time>2013-06-22T05:13:35Z</time>
      </trkpt>
      <trkpt lat="42.96421" lon="-0.7531">
        <ele>1844</ele>
        <time>2013-06-22T05:13:37Z</time>
      </trkpt>
      <trkpt lat="42.9642" lon="-0.75308">
        <ele>1844</ele>
        <time>2013-06-22T05:13:40Z</time>
      </trkpt>
      <trkpt lat="42.96418" lon="-0.75307">
        <ele>1844</ele>
        <time>2013-06-22T05:13:42Z</time>
      </trkpt>
      <trkpt lat="42.96416" lon="-0.75306">
        <ele>1844</ele>
        <time>2013-06-22T05:13:44Z</time>
      </trkpt>
      <trkpt lat="42.96415" lon="-0.75306">
        <ele>1844</ele>
        <time>2013-06-22T05:13:46Z</time>
      </trkpt>
      <trkpt lat="42.96414" lon="-0.75306">
        <ele>1845</ele>
        <time>2013-06-22T05:13:48Z</time>
      </trkpt>
      <trkpt lat="42.96413" lon="-0.75305">
        <ele>1845</ele>
        <time>2013-06-22T05:13:50Z</time>
      </trkpt>
      <trkpt lat="42.96412" lon="-0.75305">
        <ele>1846</ele>
        <time>2013-06-22T05:13:52Z</time>
      </trkpt>
      <trkpt lat="42.9641" lon="-0.75305">
        <ele>1846</ele>
        <time>2013-06-22T05:13:54Z</time>
      </trkpt>
      <trkpt lat="42.96409" lon="-0.75304">
        <ele>1846</ele>
        <time>2013-06-22T05:13:56Z</time>
      </trkpt>
      <trkpt lat="42.96407" lon="-0.75304">
        <ele>1846</ele>
        <time>2013-06-22T05:13:58Z</time>
      </trkpt>
      <trkpt lat="42.96406" lon="-0.75303">
        <ele>1846</ele>
        <time>2013-06-22T05:14:00Z</time>
      </trkpt>
      <trkpt lat="42.96405" lon="-0.75302">
        <ele>1846</ele>
        <time>2013-06-22T05:14:02Z</time>
      </trkpt>
      <trkpt lat="42.96405" lon="-0.753">
        <ele>1847</ele>
        <time>2013-06-22T05:14:04Z</time>
      </trkpt>
      <trkpt lat="42.96405" lon="-0.75299">
        <ele>1847</ele>
        <time>2013-06-22T05:14:06Z</time>
      </trkpt>
      <trkpt lat="42.96406" lon="-0.75297">
        <ele>1847</ele>
        <time>2013-06-22T05:14:08Z</time>
      </trkpt>
      <trkpt lat="42.96407" lon="-0.75295">
        <ele>1848</ele>
        <time>2013-06-22T05:14:11Z</time>
      </trkpt>
      <trkpt lat="42.96409" lon="-0.75293">
        <ele>1849</ele>
        <time>2013-06-22T05:14:14Z</time>
      </trkpt>
      <trkpt lat="42.9641" lon="-0.75291">
        <ele>1849</ele>
        <time>2013-06-22T05:14:17Z</time>
      </trkpt>
      <trkpt lat="42.96411" lon="-0.7529">
        <ele>1849</ele>
        <time>2013-06-22T05:14:19Z</time>
      </trkpt>
      <trkpt lat="42.96413" lon="-0.75288">
        <ele>1850</ele>
        <time>2013-06-22T05:14:22Z</time>
      </trkpt>
      <trkpt lat="42.96413" lon="-0.75287">
        <ele>1850</ele>
        <time>2013-06-22T05:14:24Z</time>
      </trkpt>
      <trkpt lat="42.96414" lon="-0.75285">
        <ele>1851</ele>
        <time>2013-06-22T05:14:28Z</time>
      </trkpt>
      <trkpt lat="42.96413" lon="-0.75284">
        <ele>1852</ele>
        <time>2013-06-22T05:14:42Z</time>
      </trkpt>
      <trkpt lat="42.96413" lon="-0.75282">
        <ele>1852</ele>
        <time>2013-06-22T05:14:50Z</time>
      </trkpt>
      <trkpt lat="42.96412" lon="-0.75282">
        <ele>1852</ele>
        <time>2013-06-22T05:14:55Z</time>
      </trkpt>
      <trkpt lat="42.9641" lon="-0.75281">
        <ele>1852</ele>
        <time>2013-06-22T05:14:57Z</time>
      </trkpt>
      <trkpt lat="42.96409" lon="-0.7528">
        <ele>1852</ele>
        <time>2013-06-22T05:14:59Z</time>
      </trkpt>
      <trkpt lat="42.96408" lon="-0.75279">
        <ele>1852</ele>
        <time>2013-06-22T05:15:02Z</time>
      </trkpt>
      <trkpt lat="42.96406" lon="-0.75279">
        <ele>1852</ele>
        <time>2013-06-22T05:15:04Z</time>
      </trkpt>
      <trkpt lat="42.96405" lon="-0.75278">
        <ele>1852</ele>
        <time>2013-06-22T05:15:06Z</time>
      </trkpt>
      <trkpt lat="42.96404" lon="-0.75277">
        <ele>1852</ele>
        <time>2013-06-22T05:15:08Z</time>
      </trkpt>
      <trkpt lat="42.96402" lon="-0.75277">
        <ele>1852</ele>
        <time>2013-06-22T05:15:10Z</time>
      </trkpt>
      <trkpt lat="42.964" lon="-0.75276">
        <ele>1852</ele>
        <time>2013-06-22T05:15:12Z</time>
      </trkpt>
      <trkpt lat="42.96399" lon="-0.75275">
        <ele>1853</ele>
        <time>2013-06-22T05:15:14Z</time>
      </trkpt>
      <trkpt lat="42.96397" lon="-0.75274">
        <ele>1853</ele>
        <time>2013-06-22T05:15:16Z</time>
      </trkpt>
      <trkpt lat="42.96396" lon="-0.75273">
        <ele>1854</ele>
        <time>2013-06-22T05:15:18Z</time>
      </trkpt>
      <trkpt lat="42.96395" lon="-0.75272">
        <ele>1854</ele>
        <time>2013-06-22T05:15:20Z</time>
      </trkpt>
      <trkpt lat="42.96393" lon="-0.75271">
        <ele>1854</ele>
        <time>2013-06-22T05:15:22Z</time>
      </trkpt>
      <trkpt lat="42.96392" lon="-0.7527">
        <ele>1855</ele>
        <time>2013-06-22T05:15:24Z</time>
      </trkpt>
      <trkpt lat="42.96391" lon="-0.7527">
        <ele>1855</ele>
        <time>2013-06-22T05:15:26Z</time>
      </trkpt>
      <trkpt lat="42.96389" lon="-0.7527">
        <ele>1855</ele>
        <time>2013-06-22T05:15:28Z</time>
      </trkpt>
      <trkpt lat="42.96388" lon="-0.75269">
        <ele>1856</ele>
        <time>2013-06-22T05:15:31Z</time>
      </trkpt>
      <trkpt lat="42.96389" lon="-0.75268">
        <ele>1856</ele>
        <time>2013-06-22T05:15:33Z</time>
      </trkpt>
      <trkpt lat="42.96389" lon="-0.75266">
        <ele>1856</ele>
        <time>2013-06-22T05:15:35Z</time>
      </trkpt>
      <trkpt lat="42.9639" lon="-0.75264">
        <ele>1857</ele>
        <time>2013-06-22T05:15:37Z</time>
      </trkpt>
      <trkpt lat="42.96391" lon="-0.75263">
        <ele>1857</ele>
        <time>2013-06-22T05:15:39Z</time>
      </trkpt>
      <trkpt lat="42.96392" lon="-0.75261">
        <ele>1858</ele>
        <time>2013-06-22T05:15:41Z</time>
      </trkpt>
      <trkpt lat="42.96392" lon="-0.75259">
        <ele>1858</ele>
        <time>2013-06-22T05:15:43Z</time>
      </trkpt>
      <trkpt lat="42.96393" lon="-0.75257">
        <ele>1859</ele>
        <time>2013-06-22T05:15:45Z</time>
      </trkpt>
      <trkpt lat="42.96394" lon="-0.75256">
        <ele>1859</ele>
        <time>2013-06-22T05:15:47Z</time>
      </trkpt>
      <trkpt lat="42.96394" lon="-0.75254">
        <ele>1859</ele>
        <time>2013-06-22T05:15:49Z</time>
      </trkpt>
      <trkpt lat="42.96395" lon="-0.75253">
        <ele>1859</ele>
        <time>2013-06-22T05:15:51Z</time>
      </trkpt>
      <trkpt lat="42.96397" lon="-0.75251">
        <ele>1860</ele>
        <time>2013-06-22T05:15:54Z</time>
      </trkpt>
      <trkpt lat="42.96398" lon="-0.75249">
        <ele>1861</ele>
        <time>2013-06-22T05:15:57Z</time>
      </trkpt>
      <trkpt lat="42.96399" lon="-0.75247">
        <ele>1862</ele>
        <time>2013-06-22T05:16:00Z</time>
      </trkpt>
      <trkpt lat="42.96401" lon="-0.75245">
        <ele>1862</ele>
        <time>2013-06-22T05:16:03Z</time>
      </trkpt>
      <trkpt lat="42.96401" lon="-0.75243">
        <ele>1863</ele>
        <time>2013-06-22T05:16:06Z</time>
      </trkpt>
      <trkpt lat="42.964" lon="-0.75242">
        <ele>1863</ele>
        <time>2013-06-22T05:16:08Z</time>
      </trkpt>
      <trkpt lat="42.964" lon="-0.7524">
        <ele>1863</ele>
        <time>2013-06-22T05:16:10Z</time>
      </trkpt>
      <trkpt lat="42.96399" lon="-0.75239">
        <ele>1863</ele>
        <time>2013-06-22T05:16:12Z</time>
      </trkpt>
      <trkpt lat="42.96398" lon="-0.75237">
        <ele>1863</ele>
        <time>2013-06-22T05:16:14Z</time>
      </trkpt>
      <trkpt lat="42.96397" lon="-0.75235">
        <ele>1863</ele>
        <time>2013-06-22T05:16:16Z</time>
      </trkpt>
      <trkpt lat="42.96395" lon="-0.75234">
        <ele>1863</ele>
        <time>2013-06-22T05:16:19Z</time>
      </trkpt>
      <trkpt lat="42.96394" lon="-0.75233">
        <ele>1863</ele>
        <time>2013-06-22T05:16:20Z</time>
      </trkpt>
      <trkpt lat="42.96393" lon="-0.75232">
        <ele>1864</ele>
        <time>2013-06-22T05:16:23Z</time>
      </trkpt>
      <trkpt lat="42.96392" lon="-0.75231">
        <ele>1864</ele>
        <time>2013-06-22T05:16:25Z</time>
      </trkpt>
      <trkpt lat="42.96391" lon="-0.7523">
        <ele>1865</ele>
        <time>2013-06-22T05:16:28Z</time>
      </trkpt>
      <trkpt lat="42.96392" lon="-0.75227">
        <ele>1865</ele>
        <time>2013-06-22T05:16:30Z</time>
      </trkpt>
      <trkpt lat="42.96392" lon="-0.75226">
        <ele>1866</ele>
        <time>2013-06-22T05:16:32Z</time>
      </trkpt>
      <trkpt lat="42.96393" lon="-0.75224">
        <ele>1866</ele>
        <time>2013-06-22T05:16:34Z</time>
      </trkpt>
      <trkpt lat="42.96394" lon="-0.75222">
        <ele>1866</ele>
        <time>2013-06-22T05:16:36Z</time>
      </trkpt>
      <trkpt lat="42.96394" lon="-0.7522">
        <ele>1866</ele>
        <time>2013-06-22T05:16:38Z</time>
      </trkpt>
      <trkpt lat="42.96395" lon="-0.75218">
        <ele>1867</ele>
        <time>2013-06-22T05:16:40Z</time>
      </trkpt>
      <trkpt lat="42.96396" lon="-0.75217">
        <ele>1867</ele>
        <time>2013-06-22T05:16:42Z</time>
      </trkpt>
      <trkpt lat="42.96396" lon="-0.75215">
        <ele>1867</ele>
        <time>2013-06-22T05:16:44Z</time>
      </trkpt>
      <trkpt lat="42.96395" lon="-0.75213">
        <ele>1868</ele>
        <time>2013-06-22T05:16:47Z</time>
      </trkpt>
      <trkpt lat="42.96393" lon="-0.75213">
        <ele>1868</ele>
        <time>2013-06-22T05:16:49Z</time>
      </trkpt>
      <trkpt lat="42.96392" lon="-0.75212">
        <ele>1868</ele>
        <time>2013-06-22T05:16:51Z</time>
      </trkpt>
      <trkpt lat="42.96391" lon="-0.75212">
        <ele>1868</ele>
        <time>2013-06-22T05:17:05Z</time>
      </trkpt>
      <trkpt lat="42.96389" lon="-0.7521">
        <ele>1868</ele>
        <time>2013-06-22T05:17:07Z</time>
      </trkpt>
      <trkpt lat="42.96389" lon="-0.75208">
        <ele>1868</ele>
        <time>2013-06-22T05:17:09Z</time>
      </trkpt>
      <trkpt lat="42.96389" lon="-0.75206">
        <ele>1868</ele>
        <time>2013-06-22T05:17:11Z</time>
      </trkpt>
      <trkpt lat="42.96389" lon="-0.75204">
        <ele>1868</ele>
        <time>2013-06-22T05:17:13Z</time>
      </trkpt>
      <trkpt lat="42.96389" lon="-0.75202">
        <ele>1868</ele>
        <time>2013-06-22T05:17:15Z</time>
      </trkpt>
      <trkpt lat="42.96389" lon="-0.752">
        <ele>1868</ele>
        <time>2013-06-22T05:17:17Z</time>
      </trkpt>
      <trkpt lat="42.96389" lon="-0.75198">
        <ele>1868</ele>
        <time>2013-06-22T05:17:19Z</time>
      </trkpt>
      <trkpt lat="42.96388" lon="-0.75197">
        <ele>1868</ele>
        <time>2013-06-22T05:17:21Z</time>
      </trkpt>
      <trkpt lat="42.96387" lon="-0.75196">
        <ele>1868</ele>
        <time>2013-06-22T05:17:23Z</time>
      </trkpt>
      <trkpt lat="42.96386" lon="-0.75196">
        <ele>1869</ele>
        <time>2013-06-22T05:17:25Z</time>
      </trkpt>
      <trkpt lat="42.96384" lon="-0.75196">
        <ele>1869</ele>
        <time>2013-06-22T05:17:27Z</time>
      </trkpt>
      <trkpt lat="42.96383" lon="-0.75196">
        <ele>1869</ele>
        <time>2013-06-22T05:17:29Z</time>
      </trkpt>
      <trkpt lat="42.96381" lon="-0.75196">
        <ele>1870</ele>
        <time>2013-06-22T05:17:31Z</time>
      </trkpt>
      <trkpt lat="42.96379" lon="-0.75197">
        <ele>1870</ele>
        <time>2013-06-22T05:17:34Z</time>
      </trkpt>
      <trkpt lat="42.96378" lon="-0.75199">
        <ele>1870</ele>
        <time>2013-06-22T05:17:36Z</time>
      </trkpt>
      <trkpt lat="42.96377" lon="-0.752">
        <ele>1871</ele>
        <time>2013-06-22T05:17:52Z</time>
      </trkpt>
      <trkpt lat="42.96376" lon="-0.75201">
        <ele>1871</ele>
        <time>2013-06-22T05:17:57Z</time>
      </trkpt>
      <trkpt lat="42.96375" lon="-0.75202">
        <ele>1871</ele>
        <time>2013-06-22T05:18:00Z</time>
      </trkpt>
      <trkpt lat="42.96373" lon="-0.75204">
        <ele>1872</ele>
        <time>2013-06-22T05:18:01Z</time>
      </trkpt>
      <trkpt lat="42.96371" lon="-0.75204">
        <ele>1872</ele>
        <time>2013-06-22T05:18:03Z</time>
      </trkpt>
      <trkpt lat="42.9637" lon="-0.75204">
        <ele>1872</ele>
        <time>2013-06-22T05:18:05Z</time>
      </trkpt>
      <trkpt lat="42.96369" lon="-0.75201">
        <ele>1873</ele>
        <time>2013-06-22T05:18:07Z</time>
      </trkpt>
      <trkpt lat="42.96369" lon="-0.752">
        <ele>1873</ele>
        <time>2013-06-22T05:18:08Z</time>
      </trkpt>
      <trkpt lat="42.96369" lon="-0.75197">
        <ele>1873</ele>
        <time>2013-06-22T05:18:10Z</time>
      </trkpt>
      <trkpt lat="42.9637" lon="-0.75195">
        <ele>1873</ele>
        <time>2013-06-22T05:18:12Z</time>
      </trkpt>
      <trkpt lat="42.9637" lon="-0.75193">
        <ele>1873</ele>
        <time>2013-06-22T05:18:14Z</time>
      </trkpt>
      <trkpt lat="42.9637" lon="-0.7519">
        <ele>1874</ele>
        <time>2013-06-22T05:18:16Z</time>
      </trkpt>
      <trkpt lat="42.96371" lon="-0.75188">
        <ele>1874</ele>
        <time>2013-06-22T05:18:18Z</time>
      </trkpt>
      <trkpt lat="42.96372" lon="-0.75186">
        <ele>1874</ele>
        <time>2013-06-22T05:18:20Z</time>
      </trkpt>
      <trkpt lat="42.96373" lon="-0.75184">
        <ele>1874</ele>
        <time>2013-06-22T05:18:22Z</time>
      </trkpt>
      <trkpt lat="42.96373" lon="-0.75182">
        <ele>1874</ele>
        <time>2013-06-22T05:18:24Z</time>
      </trkpt>
      <trkpt lat="42.96374" lon="-0.7518">
        <ele>1874</ele>
        <time>2013-06-22T05:18:26Z</time>
      </trkpt>
      <trkpt lat="42.96374" lon="-0.75178">
        <ele>1875</ele>
        <time>2013-06-22T05:18:28Z</time>
      </trkpt>
      <trkpt lat="42.96374" lon="-0.75176">
        <ele>1875</ele>
        <time>2013-06-22T05:18:30Z</time>
      </trkpt>
      <trkpt lat="42.96374" lon="-0.75174">
        <ele>1875</ele>
        <time>2013-06-22T05:18:32Z</time>
      </trkpt>
      <trkpt lat="42.96373" lon="-0.75173">
        <ele>1876</ele>
        <time>2013-06-22T05:18:34Z</time>
      </trkpt>
      <trkpt lat="42.96371" lon="-0.75173">
        <ele>1876</ele>
        <time>2013-06-22T05:18:36Z</time>
      </trkpt>
      <trkpt lat="42.9637" lon="-0.75173">
        <ele>1876</ele>
        <time>2013-06-22T05:18:38Z</time>
      </trkpt>
      <trkpt lat="42.96368" lon="-0.75173">
        <ele>1876</ele>
        <time>2013-06-22T05:18:40Z</time>
      </trkpt>
      <trkpt lat="42.96367" lon="-0.75174">
        <ele>1876</ele>
        <time>2013-06-22T05:18:42Z</time>
      </trkpt>
      <trkpt lat="42.96366" lon="-0.75175">
        <ele>1876</ele>
        <time>2013-06-22T05:18:44Z</time>
      </trkpt>
      <trkpt lat="42.96365" lon="-0.75175">
        <ele>1876</ele>
        <time>2013-06-22T05:18:46Z</time>
      </trkpt>
      <trkpt lat="42.96363" lon="-0.75176">
        <ele>1877</ele>
        <time>2013-06-22T05:18:48Z</time>
      </trkpt>
      <trkpt lat="42.96362" lon="-0.75176">
        <ele>1877</ele>
        <time>2013-06-22T05:18:50Z</time>
      </trkpt>
      <trkpt lat="42.96361" lon="-0.75176">
        <ele>1877</ele>
        <time>2013-06-22T05:18:52Z</time>
      </trkpt>
      <trkpt lat="42.96361" lon="-0.75174">
        <ele>1878</ele>
        <time>2013-06-22T05:18:54Z</time>
      </trkpt>
      <trkpt lat="42.96361" lon="-0.75173">
        <ele>1879</ele>
        <time>2013-06-22T05:18:56Z</time>
      </trkpt>
      <trkpt lat="42.96361" lon="-0.75171">
        <ele>1879</ele>
        <time>2013-06-22T05:18:58Z</time>
      </trkpt>
      <trkpt lat="42.96361" lon="-0.75169">
        <ele>1880</ele>
        <time>2013-06-22T05:19:00Z</time>
      </trkpt>
      <trkpt lat="42.96361" lon="-0.75167">
        <ele>1880</ele>
        <time>2013-06-22T05:19:02Z</time>
      </trkpt>
      <trkpt lat="42.96361" lon="-0.75165">
        <ele>1881</ele>
        <time>2013-06-22T05:19:04Z</time>
      </trkpt>
      <trkpt lat="42.9636" lon="-0.75163">
        <ele>1882</ele>
        <time>2013-06-22T05:19:07Z</time>
      </trkpt>
      <trkpt lat="42.9636" lon="-0.75161">
        <ele>1883</ele>
        <time>2013-06-22T05:19:18Z</time>
      </trkpt>
      <trkpt lat="42.9636" lon="-0.7516">
        <ele>1883</ele>
        <time>2013-06-22T05:19:20Z</time>
      </trkpt>
      <trkpt lat="42.96361" lon="-0.75158">
        <ele>1885</ele>
        <time>2013-06-22T05:19:41Z</time>
      </trkpt>
      <trkpt lat="42.9636" lon="-0.75157">
        <ele>1885</ele>
        <time>2013-06-22T05:19:54Z</time>
      </trkpt>
      <trkpt lat="42.9636" lon="-0.75159">
        <ele>1885</ele>
        <time>2013-06-22T05:20:21Z</time>
      </trkpt>
      <trkpt lat="42.96361" lon="-0.75159">
        <ele>1885</ele>
        <time>2013-06-22T05:20:31Z</time>
      </trkpt>
      <trkpt lat="42.9636" lon="-0.75158">
        <ele>1885</ele>
        <time>2013-06-22T05:20:42Z</time>
      </trkpt>
      <trkpt lat="42.96359" lon="-0.75157">
        <ele>1885</ele>
        <time>2013-06-22T05:20:44Z</time>
      </trkpt>
      <trkpt lat="42.9636" lon="-0.75159">
        <ele>1886</ele>
        <time>2013-06-22T05:21:04Z</time>
      </trkpt>
      <trkpt lat="42.96359" lon="-0.75157">
        <ele>1887</ele>
        <time>2013-06-22T05:21:28Z</time>
      </trkpt>
      <trkpt lat="42.9636" lon="-0.75159">
        <ele>1888</ele>
        <time>2013-06-22T05:21:56Z</time>
      </trkpt>
      <trkpt lat="42.96358" lon="-0.75158">
        <ele>1888</ele>
        <time>2013-06-22T05:22:07Z</time>
      </trkpt>
      <trkpt lat="42.96359" lon="-0.75158">
        <ele>1888</ele>
        <time>2013-06-22T05:22:13Z</time>
      </trkpt>
      <trkpt lat="42.9636" lon="-0.75157">
        <ele>1888</ele>
        <time>2013-06-22T05:23:28Z</time>
      </trkpt>
      <trkpt lat="42.96362" lon="-0.75158">
        <ele>1888</ele>
        <time>2013-06-22T05:24:25Z</time>
      </trkpt>
      <trkpt lat="42.96361" lon="-0.75157">
        <ele>1887</ele>
        <time>2013-06-22T05:24:38Z</time>
      </trkpt>
      <trkpt lat="42.96359" lon="-0.75157">
        <ele>1887</ele>
        <time>2013-06-22T05:24:50Z</time>
      </trkpt>
      <trkpt lat="42.9636" lon="-0.75158">
        <ele>1887</ele>
        <time>2013-06-22T05:25:12Z</time>
      </trkpt>
      <trkpt lat="42.96361" lon="-0.75157">
        <ele>1887</ele>
        <time>2013-06-22T05:25:15Z</time>
      </trkpt>
      <trkpt lat="42.96361" lon="-0.75155">
        <ele>1887</ele>
        <time>2013-06-22T05:25:17Z</time>
      </trkpt>
      <trkpt lat="42.96361" lon="-0.75154">
        <ele>1887</ele>
        <time>2013-06-22T05:25:19Z</time>
      </trkpt>
      <trkpt lat="42.96362" lon="-0.75152">
        <ele>1887</ele>
        <time>2013-06-22T05:25:21Z</time>
      </trkpt>
      <trkpt lat="42.96362" lon="-0.7515">
        <ele>1887</ele>
        <time>2013-06-22T05:25:23Z</time>
      </trkpt>
      <trkpt lat="42.96362" lon="-0.75148">
        <ele>1887</ele>
        <time>2013-06-22T05:25:25Z</time>
      </trkpt>
      <trkpt lat="42.96362" lon="-0.75147">
        <ele>1887</ele>
        <time>2013-06-22T05:25:27Z</time>
      </trkpt>
      <trkpt lat="42.96362" lon="-0.75145">
        <ele>1887</ele>
        <time>2013-06-22T05:25:30Z</time>
      </trkpt>
      <trkpt lat="42.96363" lon="-0.75143">
        <ele>1887</ele>
        <time>2013-06-22T05:25:42Z</time>
      </trkpt>
      <trkpt lat="42.96363" lon="-0.75141">
        <ele>1887</ele>
        <time>2013-06-22T05:25:45Z</time>
      </trkpt>
      <trkpt lat="42.96363" lon="-0.75139">
        <ele>1887</ele>
        <time>2013-06-22T05:25:47Z</time>
      </trkpt>
      <trkpt lat="42.96364" lon="-0.75138">
        <ele>1887</ele>
        <time>2013-06-22T05:25:49Z</time>
      </trkpt>
      <trkpt lat="42.96364" lon="-0.75136">
        <ele>1887</ele>
        <time>2013-06-22T05:25:51Z</time>
      </trkpt>
      <trkpt lat="42.96364" lon="-0.75135">
        <ele>1887</ele>
        <time>2013-06-22T05:25:53Z</time>
      </trkpt>
      <trkpt lat="42.96364" lon="-0.75133">
        <ele>1887</ele>
        <time>2013-06-22T05:25:55Z</time>
      </trkpt>
      <trkpt lat="42.96364" lon="-0.75131">
        <ele>1887</ele>
        <time>2013-06-22T05:25:58Z</time>
      </trkpt>
      <trkpt lat="42.96365" lon="-0.75129">
        <ele>1887</ele>
        <time>2013-06-22T05:26:01Z</time>
      </trkpt>
      <trkpt lat="42.96365" lon="-0.75127">
        <ele>1888</ele>
        <time>2013-06-22T05:26:03Z</time>
      </trkpt>
      <trkpt lat="42.96365" lon="-0.75126">
        <ele>1888</ele>
        <time>2013-06-22T05:26:05Z</time>
      </trkpt>
      <trkpt lat="42.96365" lon="-0.75124">
        <ele>1888</ele>
        <time>2013-06-22T05:26:07Z</time>
      </trkpt>
      <trkpt lat="42.96365" lon="-0.75123">
        <ele>1889</ele>
        <time>2013-06-22T05:26:09Z</time>
      </trkpt>
      <trkpt lat="42.96365" lon="-0.75121">
        <ele>1889</ele>
        <time>2013-06-22T05:26:11Z</time>
      </trkpt>
      <trkpt lat="42.96365" lon="-0.7512">
        <ele>1889</ele>
        <time>2013-06-22T05:26:13Z</time>
      </trkpt>
      <trkpt lat="42.96365" lon="-0.75118">
        <ele>1890</ele>
        <time>2013-06-22T05:26:15Z</time>
      </trkpt>
      <trkpt lat="42.96365" lon="-0.75116">
        <ele>1890</ele>
        <time>2013-06-22T05:26:17Z</time>
      </trkpt>
      <trkpt lat="42.96365" lon="-0.75115">
        <ele>1890</ele>
        <time>2013-06-22T05:26:19Z</time>
      </trkpt>
      <trkpt lat="42.96364" lon="-0.75114">
        <ele>1892</ele>
        <time>2013-06-22T05:26:25Z</time>
      </trkpt>
      <trkpt lat="42.96363" lon="-0.75114">
        <ele>1892</ele>
        <time>2013-06-22T05:26:27Z</time>
      </trkpt>
      <trkpt lat="42.96361" lon="-0.75115">
        <ele>1892</ele>
        <time>2013-06-22T05:26:30Z</time>
      </trkpt>
      <trkpt lat="42.9636" lon="-0.75116">
        <ele>1893</ele>
        <time>2013-06-22T05:26:33Z</time>
      </trkpt>
      <trkpt lat="42.96358" lon="-0.75116">
        <ele>1893</ele>
        <time>2013-06-22T05:26:37Z</time>
      </trkpt>
      <trkpt lat="42.96357" lon="-0.75117">
        <ele>1893</ele>
        <time>2013-06-22T05:26:40Z</time>
      </trkpt>
      <trkpt lat="42.96356" lon="-0.75118">
        <ele>1893</ele>
        <time>2013-06-22T05:26:43Z</time>
      </trkpt>
      <trkpt lat="42.96355" lon="-0.75119">
        <ele>1893</ele>
        <time>2013-06-22T05:26:46Z</time>
      </trkpt>
      <trkpt lat="42.96353" lon="-0.7512">
        <ele>1893</ele>
        <time>2013-06-22T05:26:49Z</time>
      </trkpt>
      <trkpt lat="42.96352" lon="-0.75121">
        <ele>1894</ele>
        <time>2013-06-22T05:26:52Z</time>
      </trkpt>
      <trkpt lat="42.9635" lon="-0.75122">
        <ele>1894</ele>
        <time>2013-06-22T05:26:55Z</time>
      </trkpt>
      <trkpt lat="42.96349" lon="-0.75124">
        <ele>1894</ele>
        <time>2013-06-22T05:26:58Z</time>
      </trkpt>
      <trkpt lat="42.96348" lon="-0.75125">
        <ele>1894</ele>
        <time>2013-06-22T05:27:01Z</time>
      </trkpt>
      <trkpt lat="42.96346" lon="-0.75126">
        <ele>1895</ele>
        <time>2013-06-22T05:27:04Z</time>
      </trkpt>
      <trkpt lat="42.96345" lon="-0.75127">
        <ele>1895</ele>
        <time>2013-06-22T05:27:07Z</time>
      </trkpt>
      <trkpt lat="42.96345" lon="-0.75125">
        <ele>1897</ele>
        <time>2013-06-22T05:27:18Z</time>
      </trkpt>
      <trkpt lat="42.96345" lon="-0.75124">
        <ele>1898</ele>
        <time>2013-06-22T05:27:19Z</time>
      </trkpt>
      <trkpt lat="42.96346" lon="-0.75122">
        <ele>1898</ele>
        <time>2013-06-22T05:27:21Z</time>
      </trkpt>
      <trkpt lat="42.96346" lon="-0.75121">
        <ele>1898</ele>
        <time>2013-06-22T05:27:23Z</time>
      </trkpt>
      <trkpt lat="42.96346" lon="-0.75119">
        <ele>1899</ele>
        <time>2013-06-22T05:27:25Z</time>
      </trkpt>
      <trkpt lat="42.96346" lon="-0.75118">
        <ele>1899</ele>
        <time>2013-06-22T05:27:27Z</time>
      </trkpt>
      <trkpt lat="42.96346" lon="-0.75116">
        <ele>1899</ele>
        <time>2013-06-22T05:27:30Z</time>
      </trkpt>
      <trkpt lat="42.96347" lon="-0.75115">
        <ele>1899</ele>
        <time>2013-06-22T05:27:31Z</time>
      </trkpt>
      <trkpt lat="42.96347" lon="-0.75113">
        <ele>1900</ele>
        <time>2013-06-22T05:27:33Z</time>
      </trkpt>
      <trkpt lat="42.96347" lon="-0.75111">
        <ele>1900</ele>
        <time>2013-06-22T05:27:35Z</time>
      </trkpt>
      <trkpt lat="42.96347" lon="-0.75109">
        <ele>1900</ele>
        <time>2013-06-22T05:27:37Z</time>
      </trkpt>
      <trkpt lat="42.96347" lon="-0.75108">
        <ele>1901</ele>
        <time>2013-06-22T05:27:39Z</time>
      </trkpt>
      <trkpt lat="42.96347" lon="-0.75106">
        <ele>1901</ele>
        <time>2013-06-22T05:27:41Z</time>
      </trkpt>
      <trkpt lat="42.96348" lon="-0.75105">
        <ele>1901</ele>
        <time>2013-06-22T05:27:43Z</time>
      </trkpt>
      <trkpt lat="42.96346" lon="-0.75106">
        <ele>1903</ele>
        <time>2013-06-22T05:27:58Z</time>
      </trkpt>
      <trkpt lat="42.96345" lon="-0.75108">
        <ele>1903</ele>
        <time>2013-06-22T05:28:01Z</time>
      </trkpt>
      <trkpt lat="42.96343" lon="-0.75109">
        <ele>1903</ele>
        <time>2013-06-22T05:28:04Z</time>
      </trkpt>
      <trkpt lat="42.96342" lon="-0.75111">
        <ele>1903</ele>
        <time>2013-06-22T05:28:07Z</time>
      </trkpt>
      <trkpt lat="42.96341" lon="-0.75112">
        <ele>1903</ele>
        <time>2013-06-22T05:28:11Z</time>
      </trkpt>
      <trkpt lat="42.96339" lon="-0.75114">
        <ele>1904</ele>
        <time>2013-06-22T05:28:13Z</time>
      </trkpt>
      <trkpt lat="42.96338" lon="-0.75116">
        <ele>1904</ele>
        <time>2013-06-22T05:28:16Z</time>
      </trkpt>
      <trkpt lat="42.96337" lon="-0.75117">
        <ele>1905</ele>
        <time>2013-06-22T05:28:19Z</time>
      </trkpt>
      <trkpt lat="42.96336" lon="-0.75119">
        <ele>1905</ele>
        <time>2013-06-22T05:28:23Z</time>
      </trkpt>
      <trkpt lat="42.96335" lon="-0.75117">
        <ele>1907</ele>
        <time>2013-06-22T05:28:44Z</time>
      </trkpt>
      <trkpt lat="42.96335" lon="-0.75115">
        <ele>1907</ele>
        <time>2013-06-22T05:28:46Z</time>
      </trkpt>
      <trkpt lat="42.96335" lon="-0.75113">
        <ele>1908</ele>
        <time>2013-06-22T05:28:48Z</time>
      </trkpt>
      <trkpt lat="42.96336" lon="-0.75111">
        <ele>1908</ele>
        <time>2013-06-22T05:28:51Z</time>
      </trkpt>
      <trkpt lat="42.96336" lon="-0.75109">
        <ele>1908</ele>
        <time>2013-06-22T05:28:52Z</time>
      </trkpt>
      <trkpt lat="42.96336" lon="-0.75108">
        <ele>1908</ele>
        <time>2013-06-22T05:28:53Z</time>
      </trkpt>
      <trkpt lat="42.96335" lon="-0.75106">
        <ele>1909</ele>
        <time>2013-06-22T05:28:55Z</time>
      </trkpt>
      <trkpt lat="42.96335" lon="-0.75103">
        <ele>1909</ele>
        <time>2013-06-22T05:28:57Z</time>
      </trkpt>
      <trkpt lat="42.96336" lon="-0.75102">
        <ele>1909</ele>
        <time>2013-06-22T05:28:59Z</time>
      </trkpt>
      <trkpt lat="42.96336" lon="-0.751">
        <ele>1910</ele>
        <time>2013-06-22T05:29:01Z</time>
      </trkpt>
      <trkpt lat="42.96336" lon="-0.75098">
        <ele>1910</ele>
        <time>2013-06-22T05:29:03Z</time>
      </trkpt>
      <trkpt lat="42.96336" lon="-0.75096">
        <ele>1910</ele>
        <time>2013-06-22T05:29:05Z</time>
      </trkpt>
      <trkpt lat="42.96336" lon="-0.75094">
        <ele>1910</ele>
        <time>2013-06-22T05:29:07Z</time>
      </trkpt>
      <trkpt lat="42.96336" lon="-0.75092">
        <ele>1910</ele>
        <time>2013-06-22T05:29:09Z</time>
      </trkpt>
      <trkpt lat="42.96336" lon="-0.7509">
        <ele>1911</ele>
        <time>2013-06-22T05:29:11Z</time>
      </trkpt>
      <trkpt lat="42.96336" lon="-0.75088">
        <ele>1911</ele>
        <time>2013-06-22T05:29:13Z</time>
      </trkpt>
      <trkpt lat="42.96336" lon="-0.75086">
        <ele>1911</ele>
        <time>2013-06-22T05:29:15Z</time>
      </trkpt>
      <trkpt lat="42.96336" lon="-0.75084">
        <ele>1911</ele>
        <time>2013-06-22T05:29:17Z</time>
      </trkpt>
      <trkpt lat="42.96336" lon="-0.75082">
        <ele>1911</ele>
        <time>2013-06-22T05:29:19Z</time>
      </trkpt>
      <trkpt lat="42.96336" lon="-0.7508">
        <ele>1912</ele>
        <time>2013-06-22T05:29:21Z</time>
      </trkpt>
      <trkpt lat="42.96336" lon="-0.75078">
        <ele>1912</ele>
        <time>2013-06-22T05:29:23Z</time>
      </trkpt>
      <trkpt lat="42.96336" lon="-0.75075">
        <ele>1912</ele>
        <time>2013-06-22T05:29:25Z</time>
      </trkpt>
      <trkpt lat="42.96335" lon="-0.75074">
        <ele>1912</ele>
        <time>2013-06-22T05:29:27Z</time>
      </trkpt>
      <trkpt lat="42.96334" lon="-0.75074">
        <ele>1912</ele>
        <time>2013-06-22T05:29:30Z</time>
      </trkpt>
      <trkpt lat="42.96333" lon="-0.75075">
        <ele>1912</ele>
        <time>2013-06-22T05:29:33Z</time>
      </trkpt>
      <trkpt lat="42.96332" lon="-0.75076">
        <ele>1913</ele>
        <time>2013-06-22T05:29:39Z</time>
      </trkpt>
      <trkpt lat="42.96331" lon="-0.75077">
        <ele>1913</ele>
        <time>2013-06-22T05:29:41Z</time>
      </trkpt>
      <trkpt lat="42.9633" lon="-0.75079">
        <ele>1913</ele>
        <time>2013-06-22T05:29:43Z</time>
      </trkpt>
      <trkpt lat="42.96328" lon="-0.75081">
        <ele>1914</ele>
        <time>2013-06-22T05:29:46Z</time>
      </trkpt>
      <trkpt lat="42.96327" lon="-0.75082">
        <ele>1914</ele>
        <time>2013-06-22T05:29:48Z</time>
      </trkpt>
      <trkpt lat="42.96326" lon="-0.75084">
        <ele>1915</ele>
        <time>2013-06-22T05:29:50Z</time>
      </trkpt>
      <trkpt lat="42.96326" lon="-0.75086">
        <ele>1916</ele>
        <time>2013-06-22T05:29:53Z</time>
      </trkpt>
      <trkpt lat="42.96326" lon="-0.75084">
        <ele>1918</ele>
        <time>2013-06-22T05:30:02Z</time>
      </trkpt>
      <trkpt lat="42.96326" lon="-0.75082">
        <ele>1918</ele>
        <time>2013-06-22T05:30:09Z</time>
      </trkpt>
      <trkpt lat="42.96325" lon="-0.7508">
        <ele>1918</ele>
        <time>2013-06-22T05:30:11Z</time>
      </trkpt>
      <trkpt lat="42.96325" lon="-0.75077">
        <ele>1918</ele>
        <time>2013-06-22T05:30:13Z</time>
      </trkpt>
      <trkpt lat="42.96325" lon="-0.75075">
        <ele>1918</ele>
        <time>2013-06-22T05:30:15Z</time>
      </trkpt>
      <trkpt lat="42.96325" lon="-0.75073">
        <ele>1918</ele>
        <time>2013-06-22T05:30:17Z</time>
      </trkpt>
      <trkpt lat="42.96325" lon="-0.75071">
        <ele>1918</ele>
        <time>2013-06-22T05:30:19Z</time>
      </trkpt>
      <trkpt lat="42.96325" lon="-0.75069">
        <ele>1918</ele>
        <time>2013-06-22T05:30:21Z</time>
      </trkpt>
      <trkpt lat="42.96324" lon="-0.75067">
        <ele>1918</ele>
        <time>2013-06-22T05:30:23Z</time>
      </trkpt>
      <trkpt lat="42.96324" lon="-0.75065">
        <ele>1918</ele>
        <time>2013-06-22T05:30:25Z</time>
      </trkpt>
      <trkpt lat="42.96324" lon="-0.75063">
        <ele>1918</ele>
        <time>2013-06-22T05:30:27Z</time>
      </trkpt>
      <trkpt lat="42.96323" lon="-0.75061">
        <ele>1919</ele>
        <time>2013-06-22T05:30:29Z</time>
      </trkpt>
      <trkpt lat="42.96323" lon="-0.75059">
        <ele>1919</ele>
        <time>2013-06-22T05:30:31Z</time>
      </trkpt>
      <trkpt lat="42.96323" lon="-0.75056">
        <ele>1919</ele>
        <time>2013-06-22T05:30:33Z</time>
      </trkpt>
      <trkpt lat="42.96323" lon="-0.75055">
        <ele>1919</ele>
        <time>2013-06-22T05:30:35Z</time>
      </trkpt>
      <trkpt lat="42.96323" lon="-0.75053">
        <ele>1920</ele>
        <time>2013-06-22T05:30:37Z</time>
      </trkpt>
      <trkpt lat="42.96323" lon="-0.75051">
        <ele>1920</ele>
        <time>2013-06-22T05:30:39Z</time>
      </trkpt>
      <trkpt lat="42.96323" lon="-0.75049">
        <ele>1920</ele>
        <time>2013-06-22T05:30:41Z</time>
      </trkpt>
      <trkpt lat="42.96323" lon="-0.75047">
        <ele>1920</ele>
        <time>2013-06-22T05:30:43Z</time>
      </trkpt>
      <trkpt lat="42.96323" lon="-0.75045">
        <ele>1921</ele>
        <time>2013-06-22T05:30:45Z</time>
      </trkpt>
      <trkpt lat="42.96323" lon="-0.75042">
        <ele>1921</ele>
        <time>2013-06-22T05:30:47Z</time>
      </trkpt>
      <trkpt lat="42.96323" lon="-0.7504">
        <ele>1921</ele>
        <time>2013-06-22T05:30:49Z</time>
      </trkpt>
      <trkpt lat="42.96323" lon="-0.75039">
        <ele>1922</ele>
        <time>2013-06-22T05:30:51Z</time>
      </trkpt>
      <trkpt lat="42.96322" lon="-0.75039">
        <ele>1922</ele>
        <time>2013-06-22T05:30:55Z</time>
      </trkpt>
      <trkpt lat="42.96321" lon="-0.7504">
        <ele>1922</ele>
        <time>2013-06-22T05:30:57Z</time>
      </trkpt>
      <trkpt lat="42.9632" lon="-0.75042">
        <ele>1923</ele>
        <time>2013-06-22T05:31:00Z</time>
      </trkpt>
      <trkpt lat="42.96318" lon="-0.75042">
        <ele>1923</ele>
        <time>2013-06-22T05:31:10Z</time>
      </trkpt>
      <trkpt lat="42.96317" lon="-0.75043">
        <ele>1923</ele>
        <time>2013-06-22T05:31:12Z</time>
      </trkpt>
      <trkpt lat="42.96316" lon="-0.75045">
        <ele>1923</ele>
        <time>2013-06-22T05:31:14Z</time>
      </trkpt>
      <trkpt lat="42.96315" lon="-0.75046">
        <ele>1923</ele>
        <time>2013-06-22T05:31:16Z</time>
      </trkpt>
      <trkpt lat="42.96313" lon="-0.75048">
        <ele>1924</ele>
        <time>2013-06-22T05:31:19Z</time>
      </trkpt>
      <trkpt lat="42.96312" lon="-0.75049">
        <ele>1924</ele>
        <time>2013-06-22T05:31:21Z</time>
      </trkpt>
      <trkpt lat="42.96311" lon="-0.75047">
        <ele>1924</ele>
        <time>2013-06-22T05:31:25Z</time>
      </trkpt>
      <trkpt lat="42.96312" lon="-0.75045">
        <ele>1924</ele>
        <time>2013-06-22T05:31:27Z</time>
      </trkpt>
      <trkpt lat="42.96311" lon="-0.75042">
        <ele>1925</ele>
        <time>2013-06-22T05:31:29Z</time>
      </trkpt>
      <trkpt lat="42.96311" lon="-0.7504">
        <ele>1925</ele>
        <time>2013-06-22T05:31:31Z</time>
      </trkpt>
      <trkpt lat="42.96311" lon="-0.75038">
        <ele>1925</ele>
        <time>2013-06-22T05:31:33Z</time>
      </trkpt>
      <trkpt lat="42.9631" lon="-0.75036">
        <ele>1926</ele>
        <time>2013-06-22T05:31:35Z</time>
      </trkpt>
      <trkpt lat="42.9631" lon="-0.75033">
        <ele>1926</ele>
        <time>2013-06-22T05:31:37Z</time>
      </trkpt>
      <trkpt lat="42.96309" lon="-0.75032">
        <ele>1927</ele>
        <time>2013-06-22T05:31:39Z</time>
      </trkpt>
      <trkpt lat="42.96309" lon="-0.75029">
        <ele>1927</ele>
        <time>2013-06-22T05:31:41Z</time>
      </trkpt>
      <trkpt lat="42.96307" lon="-0.75027">
        <ele>1927</ele>
        <time>2013-06-22T05:31:43Z</time>
      </trkpt>
      <trkpt lat="42.96307" lon="-0.75025">
        <ele>1928</ele>
        <time>2013-06-22T05:31:45Z</time>
      </trkpt>
      <trkpt lat="42.96306" lon="-0.75024">
        <ele>1928</ele>
        <time>2013-06-22T05:31:47Z</time>
      </trkpt>
      <trkpt lat="42.96305" lon="-0.75022">
        <ele>1928</ele>
        <time>2013-06-22T05:31:49Z</time>
      </trkpt>
      <trkpt lat="42.96304" lon="-0.7502">
        <ele>1929</ele>
        <time>2013-06-22T05:31:51Z</time>
      </trkpt>
      <trkpt lat="42.96303" lon="-0.75018">
        <ele>1929</ele>
        <time>2013-06-22T05:31:53Z</time>
      </trkpt>
      <trkpt lat="42.96302" lon="-0.75017">
        <ele>1929</ele>
        <time>2013-06-22T05:31:55Z</time>
      </trkpt>
      <trkpt lat="42.96302" lon="-0.75015">
        <ele>1930</ele>
        <time>2013-06-22T05:32:11Z</time>
      </trkpt>
      <trkpt lat="42.96301" lon="-0.75013">
        <ele>1930</ele>
        <time>2013-06-22T05:32:13Z</time>
      </trkpt>
      <trkpt lat="42.96299" lon="-0.75011">
        <ele>1930</ele>
        <time>2013-06-22T05:32:15Z</time>
      </trkpt>
      <trkpt lat="42.96298" lon="-0.7501">
        <ele>1930</ele>
        <time>2013-06-22T05:32:17Z</time>
      </trkpt>
      <trkpt lat="42.96297" lon="-0.75007">
        <ele>1930</ele>
        <time>2013-06-22T05:32:19Z</time>
      </trkpt>
      <trkpt lat="42.96296" lon="-0.75005">
        <ele>1930</ele>
        <time>2013-06-22T05:32:21Z</time>
      </trkpt>
      <trkpt lat="42.96295" lon="-0.75004">
        <ele>1931</ele>
        <time>2013-06-22T05:32:23Z</time>
      </trkpt>
      <trkpt lat="42.96294" lon="-0.75002">
        <ele>1931</ele>
        <time>2013-06-22T05:32:25Z</time>
      </trkpt>
      <trkpt lat="42.96293" lon="-0.75">
        <ele>1931</ele>
        <time>2013-06-22T05:32:27Z</time>
      </trkpt>
      <trkpt lat="42.96292" lon="-0.74998">
        <ele>1931</ele>
        <time>2013-06-22T05:32:29Z</time>
      </trkpt>
      <trkpt lat="42.9629" lon="-0.74996">
        <ele>1931</ele>
        <time>2013-06-22T05:32:31Z</time>
      </trkpt>
      <trkpt lat="42.96289" lon="-0.74994">
        <ele>1931</ele>
        <time>2013-06-22T05:32:33Z</time>
      </trkpt>
      <trkpt lat="42.96288" lon="-0.74992">
        <ele>1932</ele>
        <time>2013-06-22T05:32:35Z</time>
      </trkpt>
      <trkpt lat="42.96287" lon="-0.7499">
        <ele>1932</ele>
        <time>2013-06-22T05:32:37Z</time>
      </trkpt>
      <trkpt lat="42.96286" lon="-0.74988">
        <ele>1932</ele>
        <time>2013-06-22T05:32:41Z</time>
      </trkpt>
      <trkpt lat="42.96285" lon="-0.74986">
        <ele>1932</ele>
        <time>2013-06-22T05:32:54Z</time>
      </trkpt>
      <trkpt lat="42.96284" lon="-0.74984">
        <ele>1932</ele>
        <time>2013-06-22T05:32:56Z</time>
      </trkpt>
      <trkpt lat="42.96283" lon="-0.74982">
        <ele>1932</ele>
        <time>2013-06-22T05:32:57Z</time>
      </trkpt>
      <trkpt lat="42.96283" lon="-0.74981">
        <ele>1932</ele>
        <time>2013-06-22T05:32:58Z</time>
      </trkpt>
      <trkpt lat="42.96282" lon="-0.74979">
        <ele>1932</ele>
        <time>2013-06-22T05:33:00Z</time>
      </trkpt>
      <trkpt lat="42.96281" lon="-0.74977">
        <ele>1933</ele>
        <time>2013-06-22T05:33:02Z</time>
      </trkpt>
      <trkpt lat="42.9628" lon="-0.74975">
        <ele>1933</ele>
        <time>2013-06-22T05:33:04Z</time>
      </trkpt>
      <trkpt lat="42.9628" lon="-0.74972">
        <ele>1933</ele>
        <time>2013-06-22T05:33:06Z</time>
      </trkpt>
      <trkpt lat="42.9628" lon="-0.7497">
        <ele>1933</ele>
        <time>2013-06-22T05:33:08Z</time>
      </trkpt>
      <trkpt lat="42.96279" lon="-0.74967">
        <ele>1933</ele>
        <time>2013-06-22T05:33:10Z</time>
      </trkpt>
      <trkpt lat="42.96278" lon="-0.74965">
        <ele>1933</ele>
        <time>2013-06-22T05:33:12Z</time>
      </trkpt>
      <trkpt lat="42.96278" lon="-0.74963">
        <ele>1933</ele>
        <time>2013-06-22T05:33:13Z</time>
      </trkpt>
      <trkpt lat="42.96277" lon="-0.74961">
        <ele>1933</ele>
        <time>2013-06-22T05:33:15Z</time>
      </trkpt>
      <trkpt lat="42.96276" lon="-0.74959">
        <ele>1933</ele>
        <time>2013-06-22T05:33:17Z</time>
      </trkpt>
      <trkpt lat="42.96275" lon="-0.74957">
        <ele>1933</ele>
        <time>2013-06-22T05:33:19Z</time>
      </trkpt>
      <trkpt lat="42.96275" lon="-0.74955">
        <ele>1934</ele>
        <time>2013-06-22T05:33:20Z</time>
      </trkpt>
      <trkpt lat="42.96274" lon="-0.74953">
        <ele>1934</ele>
        <time>2013-06-22T05:33:22Z</time>
      </trkpt>
      <trkpt lat="42.96273" lon="-0.74951">
        <ele>1934</ele>
        <time>2013-06-22T05:33:24Z</time>
      </trkpt>
      <trkpt lat="42.96273" lon="-0.74949">
        <ele>1934</ele>
        <time>2013-06-22T05:33:26Z</time>
      </trkpt>
      <trkpt lat="42.96272" lon="-0.74946">
        <ele>1934</ele>
        <time>2013-06-22T05:33:28Z</time>
      </trkpt>
      <trkpt lat="42.96271" lon="-0.74944">
        <ele>1934</ele>
        <time>2013-06-22T05:33:30Z</time>
      </trkpt>
      <trkpt lat="42.9627" lon="-0.74942">
        <ele>1934</ele>
        <time>2013-06-22T05:33:32Z</time>
      </trkpt>
      <trkpt lat="42.96269" lon="-0.7494">
        <ele>1934</ele>
        <time>2013-06-22T05:33:34Z</time>
      </trkpt>
      <trkpt lat="42.96269" lon="-0.74938">
        <ele>1934</ele>
        <time>2013-06-22T05:33:36Z</time>
      </trkpt>
      <trkpt lat="42.96268" lon="-0.74936">
        <ele>1934</ele>
        <time>2013-06-22T05:33:38Z</time>
      </trkpt>
      <trkpt lat="42.96267" lon="-0.74934">
        <ele>1934</ele>
        <time>2013-06-22T05:33:40Z</time>
      </trkpt>
      <trkpt lat="42.96267" lon="-0.74932">
        <ele>1935</ele>
        <time>2013-06-22T05:33:42Z</time>
      </trkpt>
      <trkpt lat="42.96266" lon="-0.74929">
        <ele>1935</ele>
        <time>2013-06-22T05:33:44Z</time>
      </trkpt>
      <trkpt lat="42.96265" lon="-0.74927">
        <ele>1935</ele>
        <time>2013-06-22T05:33:46Z</time>
      </trkpt>
      <trkpt lat="42.96265" lon="-0.74925">
        <ele>1935</ele>
        <time>2013-06-22T05:33:48Z</time>
      </trkpt>
      <trkpt lat="42.96264" lon="-0.74923">
        <ele>1936</ele>
        <time>2013-06-22T05:33:50Z</time>
      </trkpt>
      <trkpt lat="42.96264" lon="-0.74921">
        <ele>1936</ele>
        <time>2013-06-22T05:33:52Z</time>
      </trkpt>
      <trkpt lat="42.96263" lon="-0.74919">
        <ele>1936</ele>
        <time>2013-06-22T05:33:54Z</time>
      </trkpt>
      <trkpt lat="42.96262" lon="-0.74916">
        <ele>1936</ele>
        <time>2013-06-22T05:33:56Z</time>
      </trkpt>
      <trkpt lat="42.96262" lon="-0.74914">
        <ele>1936</ele>
        <time>2013-06-22T05:33:58Z</time>
      </trkpt>
      <trkpt lat="42.96261" lon="-0.74912">
        <ele>1936</ele>
        <time>2013-06-22T05:34:00Z</time>
      </trkpt>
      <trkpt lat="42.9626" lon="-0.7491">
        <ele>1936</ele>
        <time>2013-06-22T05:34:02Z</time>
      </trkpt>
      <trkpt lat="42.9626" lon="-0.74908">
        <ele>1936</ele>
        <time>2013-06-22T05:34:03Z</time>
      </trkpt>
      <trkpt lat="42.9626" lon="-0.74906">
        <ele>1936</ele>
        <time>2013-06-22T05:34:05Z</time>
      </trkpt>
      <trkpt lat="42.96259" lon="-0.74904">
        <ele>1936</ele>
        <time>2013-06-22T05:34:07Z</time>
      </trkpt>
      <trkpt lat="42.96258" lon="-0.74901">
        <ele>1936</ele>
        <time>2013-06-22T05:34:09Z</time>
      </trkpt>
      <trkpt lat="42.96258" lon="-0.749">
        <ele>1936</ele>
        <time>2013-06-22T05:34:10Z</time>
      </trkpt>
      <trkpt lat="42.96257" lon="-0.74897">
        <ele>1936</ele>
        <time>2013-06-22T05:34:12Z</time>
      </trkpt>
      <trkpt lat="42.96256" lon="-0.74896">
        <ele>1936</ele>
        <time>2013-06-22T05:34:14Z</time>
      </trkpt>
      <trkpt lat="42.96255" lon="-0.74893">
        <ele>1936</ele>
        <time>2013-06-22T05:34:18Z</time>
      </trkpt>
      <trkpt lat="42.96255" lon="-0.74891">
        <ele>1936</ele>
        <time>2013-06-22T05:34:20Z</time>
      </trkpt>
      <trkpt lat="42.96254" lon="-0.74888">
        <ele>1936</ele>
        <time>2013-06-22T05:34:22Z</time>
      </trkpt>
      <trkpt lat="42.96254" lon="-0.74885">
        <ele>1936</ele>
        <time>2013-06-22T05:34:24Z</time>
      </trkpt>
      <trkpt lat="42.96253" lon="-0.74883">
        <ele>1936</ele>
        <time>2013-06-22T05:34:26Z</time>
      </trkpt>
      <trkpt lat="42.96253" lon="-0.74881">
        <ele>1936</ele>
        <time>2013-06-22T05:34:28Z</time>
      </trkpt>
      <trkpt lat="42.96253" lon="-0.74879">
        <ele>1936</ele>
        <time>2013-06-22T05:34:30Z</time>
      </trkpt>
      <trkpt lat="42.96252" lon="-0.74877">
        <ele>1937</ele>
        <time>2013-06-22T05:34:32Z</time>
      </trkpt>
      <trkpt lat="42.96252" lon="-0.74875">
        <ele>1937</ele>
        <time>2013-06-22T05:34:34Z</time>
      </trkpt>
      <trkpt lat="42.96252" lon="-0.74872">
        <ele>1937</ele>
        <time>2013-06-22T05:34:36Z</time>
      </trkpt>
      <trkpt lat="42.96251" lon="-0.74871">
        <ele>1937</ele>
        <time>2013-06-22T05:34:38Z</time>
      </trkpt>
      <trkpt lat="42.96251" lon="-0.74869">
        <ele>1937</ele>
        <time>2013-06-22T05:34:40Z</time>
      </trkpt>
      <trkpt lat="42.96251" lon="-0.74866">
        <ele>1937</ele>
        <time>2013-06-22T05:34:42Z</time>
      </trkpt>
      <trkpt lat="42.9625" lon="-0.74864">
        <ele>1938</ele>
        <time>2013-06-22T05:34:44Z</time>
      </trkpt>
      <trkpt lat="42.9625" lon="-0.74862">
        <ele>1938</ele>
        <time>2013-06-22T05:34:46Z</time>
      </trkpt>
      <trkpt lat="42.9625" lon="-0.7486">
        <ele>1938</ele>
        <time>2013-06-22T05:34:48Z</time>
      </trkpt>
      <trkpt lat="42.96251" lon="-0.74858">
        <ele>1938</ele>
        <time>2013-06-22T05:34:50Z</time>
      </trkpt>
      <trkpt lat="42.96251" lon="-0.74857">
        <ele>1938</ele>
        <time>2013-06-22T05:34:52Z</time>
      </trkpt>
      <trkpt lat="42.96251" lon="-0.74854">
        <ele>1938</ele>
        <time>2013-06-22T05:34:54Z</time>
      </trkpt>
      <trkpt lat="42.96251" lon="-0.74853">
        <ele>1938</ele>
        <time>2013-06-22T05:34:56Z</time>
      </trkpt>
      <trkpt lat="42.96251" lon="-0.74851">
        <ele>1938</ele>
        <time>2013-06-22T05:34:58Z</time>
      </trkpt>
      <trkpt lat="42.96251" lon="-0.74849">
        <ele>1938</ele>
        <time>2013-06-22T05:35:00Z</time>
      </trkpt>
      <trkpt lat="42.96251" lon="-0.74847">
        <ele>1938</ele>
        <time>2013-06-22T05:35:02Z</time>
      </trkpt>
      <trkpt lat="42.96251" lon="-0.74845">
        <ele>1938</ele>
        <time>2013-06-22T05:35:04Z</time>
      </trkpt>
      <trkpt lat="42.96251" lon="-0.74843">
        <ele>1938</ele>
        <time>2013-06-22T05:35:06Z</time>
      </trkpt>
      <trkpt lat="42.96251" lon="-0.74841">
        <ele>1938</ele>
        <time>2013-06-22T05:35:08Z</time>
      </trkpt>
      <trkpt lat="42.96251" lon="-0.74839">
        <ele>1938</ele>
        <time>2013-06-22T05:35:10Z</time>
      </trkpt>
      <trkpt lat="42.9625" lon="-0.74837">
        <ele>1938</ele>
        <time>2013-06-22T05:35:12Z</time>
      </trkpt>
      <trkpt lat="42.9625" lon="-0.74835">
        <ele>1938</ele>
        <time>2013-06-22T05:35:14Z</time>
      </trkpt>
      <trkpt lat="42.9625" lon="-0.74834">
        <ele>1938</ele>
        <time>2013-06-22T05:35:16Z</time>
      </trkpt>
      <trkpt lat="42.96251" lon="-0.74832">
        <ele>1938</ele>
        <time>2013-06-22T05:35:18Z</time>
      </trkpt>
      <trkpt lat="42.96251" lon="-0.7483">
        <ele>1938</ele>
        <time>2013-06-22T05:35:20Z</time>
      </trkpt>
      <trkpt lat="42.96251" lon="-0.74828">
        <ele>1938</ele>
        <time>2013-06-22T05:35:22Z</time>
      </trkpt>
      <trkpt lat="42.96251" lon="-0.74826">
        <ele>1938</ele>
        <time>2013-06-22T05:35:24Z</time>
      </trkpt>
      <trkpt lat="42.96251" lon="-0.74825">
        <ele>1938</ele>
        <time>2013-06-22T05:35:26Z</time>
      </trkpt>
      <trkpt lat="42.96251" lon="-0.74823">
        <ele>1938</ele>
        <time>2013-06-22T05:35:29Z</time>
      </trkpt>
      <trkpt lat="42.96251" lon="-0.74821">
        <ele>1938</ele>
        <time>2013-06-22T05:35:31Z</time>
      </trkpt>
      <trkpt lat="42.96251" lon="-0.74819">
        <ele>1938</ele>
        <time>2013-06-22T05:35:33Z</time>
      </trkpt>
      <trkpt lat="42.96251" lon="-0.74818">
        <ele>1938</ele>
        <time>2013-06-22T05:35:35Z</time>
      </trkpt>
      <trkpt lat="42.96251" lon="-0.74816">
        <ele>1938</ele>
        <time>2013-06-22T05:35:37Z</time>
      </trkpt>
      <trkpt lat="42.96251" lon="-0.74814">
        <ele>1938</ele>
        <time>2013-06-22T05:35:39Z</time>
      </trkpt>
      <trkpt lat="42.96251" lon="-0.74813">
        <ele>1938</ele>
        <time>2013-06-22T05:35:41Z</time>
      </trkpt>
      <trkpt lat="42.96251" lon="-0.74811">
        <ele>1938</ele>
        <time>2013-06-22T05:35:43Z</time>
      </trkpt>
      <trkpt lat="42.96251" lon="-0.74809">
        <ele>1938</ele>
        <time>2013-06-22T05:35:45Z</time>
      </trkpt>
      <trkpt lat="42.96252" lon="-0.74807">
        <ele>1938</ele>
        <time>2013-06-22T05:35:48Z</time>
      </trkpt>
      <trkpt lat="42.96252" lon="-0.74806">
        <ele>1938</ele>
        <time>2013-06-22T05:35:52Z</time>
      </trkpt>
      <trkpt lat="42.96253" lon="-0.74804">
        <ele>1938</ele>
        <time>2013-06-22T05:35:58Z</time>
      </trkpt>
      <trkpt lat="42.96253" lon="-0.74802">
        <ele>1938</ele>
        <time>2013-06-22T05:36:01Z</time>
      </trkpt>
      <trkpt lat="42.96253" lon="-0.748">
        <ele>1938</ele>
        <time>2013-06-22T05:36:04Z</time>
      </trkpt>
      <trkpt lat="42.96253" lon="-0.74799">
        <ele>1938</ele>
        <time>2013-06-22T05:36:06Z</time>
      </trkpt>
      <trkpt lat="42.96254" lon="-0.74796">
        <ele>1938</ele>
        <time>2013-06-22T05:36:08Z</time>
      </trkpt>
      <trkpt lat="42.96254" lon="-0.74795">
        <ele>1938</ele>
        <time>2013-06-22T05:36:10Z</time>
      </trkpt>
      <trkpt lat="42.96254" lon="-0.74793">
        <ele>1937</ele>
        <time>2013-06-22T05:36:12Z</time>
      </trkpt>
      <trkpt lat="42.96253" lon="-0.74792">
        <ele>1937</ele>
        <time>2013-06-22T05:36:14Z</time>
      </trkpt>
      <trkpt lat="42.96252" lon="-0.7479">
        <ele>1937</ele>
        <time>2013-06-22T05:36:16Z</time>
      </trkpt>
      <trkpt lat="42.96251" lon="-0.74788">
        <ele>1937</ele>
        <time>2013-06-22T05:36:19Z</time>
      </trkpt>
      <trkpt lat="42.96251" lon="-0.74786">
        <ele>1937</ele>
        <time>2013-06-22T05:36:26Z</time>
      </trkpt>
      <trkpt lat="42.9625" lon="-0.74784">
        <ele>1937</ele>
        <time>2013-06-22T05:36:28Z</time>
      </trkpt>
      <trkpt lat="42.96248" lon="-0.74782">
        <ele>1937</ele>
        <time>2013-06-22T05:36:31Z</time>
      </trkpt>
      <trkpt lat="42.96247" lon="-0.74781">
        <ele>1937</ele>
        <time>2013-06-22T05:36:34Z</time>
      </trkpt>
      <trkpt lat="42.96246" lon="-0.74779">
        <ele>1937</ele>
        <time>2013-06-22T05:36:40Z</time>
      </trkpt>
      <trkpt lat="42.96244" lon="-0.74778">
        <ele>1937</ele>
        <time>2013-06-22T05:36:43Z</time>
      </trkpt>
      <trkpt lat="42.96243" lon="-0.74775">
        <ele>1937</ele>
        <time>2013-06-22T05:36:46Z</time>
      </trkpt>
      <trkpt lat="42.96242" lon="-0.74773">
        <ele>1937</ele>
        <time>2013-06-22T05:36:49Z</time>
      </trkpt>
      <trkpt lat="42.96241" lon="-0.74771">
        <ele>1937</ele>
        <time>2013-06-22T05:36:52Z</time>
      </trkpt>
      <trkpt lat="42.9624" lon="-0.7477">
        <ele>1937</ele>
        <time>2013-06-22T05:36:54Z</time>
      </trkpt>
      <trkpt lat="42.96239" lon="-0.74768">
        <ele>1937</ele>
        <time>2013-06-22T05:36:57Z</time>
      </trkpt>
      <trkpt lat="42.96238" lon="-0.74765">
        <ele>1937</ele>
        <time>2013-06-22T05:37:00Z</time>
      </trkpt>
      <trkpt lat="42.96236" lon="-0.74764">
        <ele>1937</ele>
        <time>2013-06-22T05:37:03Z</time>
      </trkpt>
      <trkpt lat="42.96235" lon="-0.74762">
        <ele>1937</ele>
        <time>2013-06-22T05:37:05Z</time>
      </trkpt>
      <trkpt lat="42.96234" lon="-0.74761">
        <ele>1937</ele>
        <time>2013-06-22T05:37:07Z</time>
      </trkpt>
      <trkpt lat="42.96233" lon="-0.74761">
        <ele>1937</ele>
        <time>2013-06-22T05:37:09Z</time>
      </trkpt>
      <trkpt lat="42.96231" lon="-0.7476">
        <ele>1937</ele>
        <time>2013-06-22T05:37:11Z</time>
      </trkpt>
      <trkpt lat="42.9623" lon="-0.74759">
        <ele>1937</ele>
        <time>2013-06-22T05:37:13Z</time>
      </trkpt>
      <trkpt lat="42.96229" lon="-0.74758">
        <ele>1937</ele>
        <time>2013-06-22T05:37:16Z</time>
      </trkpt>
      <trkpt lat="42.96227" lon="-0.74758">
        <ele>1937</ele>
        <time>2013-06-22T05:37:19Z</time>
      </trkpt>
      <trkpt lat="42.96226" lon="-0.74757">
        <ele>1937</ele>
        <time>2013-06-22T05:37:21Z</time>
      </trkpt>
      <trkpt lat="42.96225" lon="-0.74756">
        <ele>1937</ele>
        <time>2013-06-22T05:37:23Z</time>
      </trkpt>
      <trkpt lat="42.96223" lon="-0.74755">
        <ele>1937</ele>
        <time>2013-06-22T05:37:25Z</time>
      </trkpt>
      <trkpt lat="42.96222" lon="-0.74754">
        <ele>1937</ele>
        <time>2013-06-22T05:37:27Z</time>
      </trkpt>
      <trkpt lat="42.9622" lon="-0.74753">
        <ele>1938</ele>
        <time>2013-06-22T05:37:29Z</time>
      </trkpt>
      <trkpt lat="42.96219" lon="-0.74752">
        <ele>1938</ele>
        <time>2013-06-22T05:37:31Z</time>
      </trkpt>
      <trkpt lat="42.96218" lon="-0.74751">
        <ele>1938</ele>
        <time>2013-06-22T05:37:36Z</time>
      </trkpt>
      <trkpt lat="42.96217" lon="-0.7475">
        <ele>1938</ele>
        <time>2013-06-22T05:37:41Z</time>
      </trkpt>
      <trkpt lat="42.96215" lon="-0.74749">
        <ele>1938</ele>
        <time>2013-06-22T05:37:43Z</time>
      </trkpt>
      <trkpt lat="42.96214" lon="-0.74748">
        <ele>1938</ele>
        <time>2013-06-22T05:37:45Z</time>
      </trkpt>
      <trkpt lat="42.96212" lon="-0.74747">
        <ele>1938</ele>
        <time>2013-06-22T05:37:47Z</time>
      </trkpt>
      <trkpt lat="42.96211" lon="-0.74746">
        <ele>1938</ele>
        <time>2013-06-22T05:37:49Z</time>
      </trkpt>
      <trkpt lat="42.96209" lon="-0.74744">
        <ele>1938</ele>
        <time>2013-06-22T05:37:51Z</time>
      </trkpt>
      <trkpt lat="42.96208" lon="-0.74743">
        <ele>1938</ele>
        <time>2013-06-22T05:37:53Z</time>
      </trkpt>
      <trkpt lat="42.96206" lon="-0.74742">
        <ele>1938</ele>
        <time>2013-06-22T05:37:55Z</time>
      </trkpt>
      <trkpt lat="42.96205" lon="-0.74741">
        <ele>1938</ele>
        <time>2013-06-22T05:37:57Z</time>
      </trkpt>
      <trkpt lat="42.96203" lon="-0.7474">
        <ele>1938</ele>
        <time>2013-06-22T05:37:59Z</time>
      </trkpt>
      <trkpt lat="42.96202" lon="-0.74739">
        <ele>1939</ele>
        <time>2013-06-22T05:38:01Z</time>
      </trkpt>
      <trkpt lat="42.96201" lon="-0.74738">
        <ele>1939</ele>
        <time>2013-06-22T05:38:03Z</time>
      </trkpt>
      <trkpt lat="42.96199" lon="-0.74738">
        <ele>1939</ele>
        <time>2013-06-22T05:38:06Z</time>
      </trkpt>
      <trkpt lat="42.96199" lon="-0.74736">
        <ele>1940</ele>
        <time>2013-06-22T05:39:48Z</time>
      </trkpt>
      <trkpt lat="42.96198" lon="-0.74735">
        <ele>1940</ele>
        <time>2013-06-22T05:39:52Z</time>
      </trkpt>
      <trkpt lat="42.96197" lon="-0.74733">
        <ele>1940</ele>
        <time>2013-06-22T05:39:55Z</time>
      </trkpt>
      <trkpt lat="42.96196" lon="-0.74733">
        <ele>1940</ele>
        <time>2013-06-22T05:40:12Z</time>
      </trkpt>
      <trkpt lat="42.96194" lon="-0.74732">
        <ele>1940</ele>
        <time>2013-06-22T05:40:14Z</time>
      </trkpt>
      <trkpt lat="42.96193" lon="-0.74731">
        <ele>1940</ele>
        <time>2013-06-22T05:40:16Z</time>
      </trkpt>
      <trkpt lat="42.96192" lon="-0.74731">
        <ele>1940</ele>
        <time>2013-06-22T05:40:18Z</time>
      </trkpt>
      <trkpt lat="42.9619" lon="-0.7473">
        <ele>1940</ele>
        <time>2013-06-22T05:40:20Z</time>
      </trkpt>
      <trkpt lat="42.96189" lon="-0.74729">
        <ele>1940</ele>
        <time>2013-06-22T05:40:22Z</time>
      </trkpt>
      <trkpt lat="42.96187" lon="-0.74728">
        <ele>1940</ele>
        <time>2013-06-22T05:40:24Z</time>
      </trkpt>
      <trkpt lat="42.96186" lon="-0.74727">
        <ele>1940</ele>
        <time>2013-06-22T05:40:26Z</time>
      </trkpt>
      <trkpt lat="42.96184" lon="-0.74727">
        <ele>1940</ele>
        <time>2013-06-22T05:40:28Z</time>
      </trkpt>
      <trkpt lat="42.96183" lon="-0.74726">
        <ele>1941</ele>
        <time>2013-06-22T05:40:30Z</time>
      </trkpt>
      <trkpt lat="42.96181" lon="-0.74724">
        <ele>1941</ele>
        <time>2013-06-22T05:40:32Z</time>
      </trkpt>
      <trkpt lat="42.9618" lon="-0.74723">
        <ele>1941</ele>
        <time>2013-06-22T05:40:34Z</time>
      </trkpt>
      <trkpt lat="42.96179" lon="-0.74722">
        <ele>1941</ele>
        <time>2013-06-22T05:40:37Z</time>
      </trkpt>
      <trkpt lat="42.96177" lon="-0.7472">
        <ele>1941</ele>
        <time>2013-06-22T05:40:40Z</time>
      </trkpt>
      <trkpt lat="42.96176" lon="-0.74719">
        <ele>1941</ele>
        <time>2013-06-22T05:40:42Z</time>
      </trkpt>
      <trkpt lat="42.96175" lon="-0.74717">
        <ele>1941</ele>
        <time>2013-06-22T05:40:44Z</time>
      </trkpt>
      <trkpt lat="42.96173" lon="-0.74716">
        <ele>1941</ele>
        <time>2013-06-22T05:40:46Z</time>
      </trkpt>
      <trkpt lat="42.96172" lon="-0.74714">
        <ele>1941</ele>
        <time>2013-06-22T05:40:48Z</time>
      </trkpt>
      <trkpt lat="42.9617" lon="-0.74713">
        <ele>1941</ele>
        <time>2013-06-22T05:40:50Z</time>
      </trkpt>
      <trkpt lat="42.96169" lon="-0.74711">
        <ele>1941</ele>
        <time>2013-06-22T05:40:52Z</time>
      </trkpt>
      <trkpt lat="42.96168" lon="-0.7471">
        <ele>1941</ele>
        <time>2013-06-22T05:40:54Z</time>
      </trkpt>
      <trkpt lat="42.96166" lon="-0.74709">
        <ele>1941</ele>
        <time>2013-06-22T05:40:56Z</time>
      </trkpt>
      <trkpt lat="42.96165" lon="-0.74708">
        <ele>1941</ele>
        <time>2013-06-22T05:40:58Z</time>
      </trkpt>
      <trkpt lat="42.96163" lon="-0.74706">
        <ele>1941</ele>
        <time>2013-06-22T05:41:00Z</time>
      </trkpt>
      <trkpt lat="42.96162" lon="-0.74705">
        <ele>1941</ele>
        <time>2013-06-22T05:41:02Z</time>
      </trkpt>
      <trkpt lat="42.9616" lon="-0.74703">
        <ele>1941</ele>
        <time>2013-06-22T05:41:04Z</time>
      </trkpt>
      <trkpt lat="42.96158" lon="-0.74702">
        <ele>1941</ele>
        <time>2013-06-22T05:41:06Z</time>
      </trkpt>
      <trkpt lat="42.96157" lon="-0.74701">
        <ele>1941</ele>
        <time>2013-06-22T05:41:08Z</time>
      </trkpt>
      <trkpt lat="42.96158" lon="-0.74701">
        <ele>1941</ele>
        <time>2013-06-22T05:41:30Z</time>
      </trkpt>
      <trkpt lat="42.96159" lon="-0.74702">
        <ele>1941</ele>
        <time>2013-06-22T05:41:43Z</time>
      </trkpt>
      <trkpt lat="42.9616" lon="-0.74704">
        <ele>1941</ele>
        <time>2013-06-22T05:41:46Z</time>
      </trkpt>
      <trkpt lat="42.96159" lon="-0.74704">
        <ele>1941</ele>
        <time>2013-06-22T05:42:07Z</time>
      </trkpt>
      <trkpt lat="42.96158" lon="-0.74703">
        <ele>1941</ele>
        <time>2013-06-22T05:42:28Z</time>
      </trkpt>
      <trkpt lat="42.96156" lon="-0.74702">
        <ele>1941</ele>
        <time>2013-06-22T05:42:30Z</time>
      </trkpt>
      <trkpt lat="42.96155" lon="-0.74702">
        <ele>1941</ele>
        <time>2013-06-22T05:42:32Z</time>
      </trkpt>
      <trkpt lat="42.96153" lon="-0.74702">
        <ele>1941</ele>
        <time>2013-06-22T05:42:34Z</time>
      </trkpt>
      <trkpt lat="42.96152" lon="-0.74702">
        <ele>1941</ele>
        <time>2013-06-22T05:42:36Z</time>
      </trkpt>
      <trkpt lat="42.9615" lon="-0.74702">
        <ele>1941</ele>
        <time>2013-06-22T05:42:38Z</time>
      </trkpt>
      <trkpt lat="42.96149" lon="-0.74702">
        <ele>1941</ele>
        <time>2013-06-22T05:42:40Z</time>
      </trkpt>
      <trkpt lat="42.96147" lon="-0.74702">
        <ele>1941</ele>
        <time>2013-06-22T05:42:42Z</time>
      </trkpt>
      <trkpt lat="42.96146" lon="-0.74702">
        <ele>1941</ele>
        <time>2013-06-22T05:42:44Z</time>
      </trkpt>
      <trkpt lat="42.96144" lon="-0.74701">
        <ele>1941</ele>
        <time>2013-06-22T05:42:46Z</time>
      </trkpt>
      <trkpt lat="42.96142" lon="-0.74701">
        <ele>1941</ele>
        <time>2013-06-22T05:42:48Z</time>
      </trkpt>
      <trkpt lat="42.96141" lon="-0.747">
        <ele>1941</ele>
        <time>2013-06-22T05:42:49Z</time>
      </trkpt>
      <trkpt lat="42.9614" lon="-0.747">
        <ele>1941</ele>
        <time>2013-06-22T05:42:50Z</time>
      </trkpt>
      <trkpt lat="42.96138" lon="-0.747">
        <ele>1941</ele>
        <time>2013-06-22T05:42:51Z</time>
      </trkpt>
      <trkpt lat="42.96137" lon="-0.74699">
        <ele>1941</ele>
        <time>2013-06-22T05:42:52Z</time>
      </trkpt>
      <trkpt lat="42.96135" lon="-0.74698">
        <ele>1940</ele>
        <time>2013-06-22T05:42:54Z</time>
      </trkpt>
      <trkpt lat="42.96133" lon="-0.74698">
        <ele>1940</ele>
        <time>2013-06-22T05:42:56Z</time>
      </trkpt>
      <trkpt lat="42.96132" lon="-0.74697">
        <ele>1939</ele>
        <time>2013-06-22T05:42:58Z</time>
      </trkpt>
      <trkpt lat="42.9613" lon="-0.74697">
        <ele>1939</ele>
        <time>2013-06-22T05:43:00Z</time>
      </trkpt>
      <trkpt lat="42.96128" lon="-0.74696">
        <ele>1939</ele>
        <time>2013-06-22T05:43:02Z</time>
      </trkpt>
      <trkpt lat="42.96127" lon="-0.74696">
        <ele>1938</ele>
        <time>2013-06-22T05:43:03Z</time>
      </trkpt>
      <trkpt lat="42.96125" lon="-0.74696">
        <ele>1938</ele>
        <time>2013-06-22T05:43:04Z</time>
      </trkpt>
      <trkpt lat="42.96123" lon="-0.74696">
        <ele>1938</ele>
        <time>2013-06-22T05:43:06Z</time>
      </trkpt>
      <trkpt lat="42.96122" lon="-0.74696">
        <ele>1938</ele>
        <time>2013-06-22T05:43:07Z</time>
      </trkpt>
      <trkpt lat="42.96121" lon="-0.74696">
        <ele>1938</ele>
        <time>2013-06-22T05:43:08Z</time>
      </trkpt>
      <trkpt lat="42.96119" lon="-0.74696">
        <ele>1938</ele>
        <time>2013-06-22T05:43:10Z</time>
      </trkpt>
      <trkpt lat="42.96117" lon="-0.74696">
        <ele>1937</ele>
        <time>2013-06-22T05:43:12Z</time>
      </trkpt>
      <trkpt lat="42.96115" lon="-0.74696">
        <ele>1937</ele>
        <time>2013-06-22T05:43:14Z</time>
      </trkpt>
      <trkpt lat="42.96114" lon="-0.74696">
        <ele>1937</ele>
        <time>2013-06-22T05:43:15Z</time>
      </trkpt>
      <trkpt lat="42.96112" lon="-0.74695">
        <ele>1937</ele>
        <time>2013-06-22T05:43:17Z</time>
      </trkpt>
      <trkpt lat="42.9611" lon="-0.74694">
        <ele>1937</ele>
        <time>2013-06-22T05:43:19Z</time>
      </trkpt>
      <trkpt lat="42.96109" lon="-0.74693">
        <ele>1937</ele>
        <time>2013-06-22T05:43:20Z</time>
      </trkpt>
      <trkpt lat="42.96107" lon="-0.74692">
        <ele>1936</ele>
        <time>2013-06-22T05:43:22Z</time>
      </trkpt>
      <trkpt lat="42.96105" lon="-0.74691">
        <ele>1936</ele>
        <time>2013-06-22T05:43:24Z</time>
      </trkpt>
      <trkpt lat="42.96103" lon="-0.7469">
        <ele>1936</ele>
        <time>2013-06-22T05:43:26Z</time>
      </trkpt>
      <trkpt lat="42.96102" lon="-0.74689">
        <ele>1936</ele>
        <time>2013-06-22T05:43:31Z</time>
      </trkpt>
      <trkpt lat="42.96101" lon="-0.74689">
        <ele>1936</ele>
        <time>2013-06-22T05:43:44Z</time>
      </trkpt>
      <trkpt lat="42.96102" lon="-0.74689">
        <ele>1936</ele>
        <time>2013-06-22T05:44:03Z</time>
      </trkpt>
      <trkpt lat="42.96103" lon="-0.74691">
        <ele>1936</ele>
        <time>2013-06-22T05:44:11Z</time>
      </trkpt>
      <trkpt lat="42.96104" lon="-0.74691">
        <ele>1934</ele>
        <time>2013-06-22T05:44:19Z</time>
      </trkpt>
      <trkpt lat="42.96105" lon="-0.74692">
        <ele>1931</ele>
        <time>2013-06-22T05:44:24Z</time>
      </trkpt>
      <trkpt lat="42.96106" lon="-0.74692">
        <ele>1930</ele>
        <time>2013-06-22T05:44:26Z</time>
      </trkpt>
      <trkpt lat="42.96108" lon="-0.74693">
        <ele>1928</ele>
        <time>2013-06-22T05:44:34Z</time>
      </trkpt>
      <trkpt lat="42.96109" lon="-0.74693">
        <ele>1928</ele>
        <time>2013-06-22T05:44:37Z</time>
      </trkpt>
      <trkpt lat="42.96107" lon="-0.74691">
        <ele>1925</ele>
        <time>2013-06-22T05:44:57Z</time>
      </trkpt>
      <trkpt lat="42.96106" lon="-0.74691">
        <ele>1925</ele>
        <time>2013-06-22T05:45:01Z</time>
      </trkpt>
      <trkpt lat="42.96105" lon="-0.7469">
        <ele>1925</ele>
        <time>2013-06-22T05:45:04Z</time>
      </trkpt>
      <trkpt lat="42.96104" lon="-0.7469">
        <ele>1925</ele>
        <time>2013-06-22T05:45:06Z</time>
      </trkpt>
      <trkpt lat="42.96102" lon="-0.74689">
        <ele>1926</ele>
        <time>2013-06-22T05:45:08Z</time>
      </trkpt>
      <trkpt lat="42.961" lon="-0.74687">
        <ele>1926</ele>
        <time>2013-06-22T05:45:10Z</time>
      </trkpt>
      <trkpt lat="42.96098" lon="-0.74686">
        <ele>1927</ele>
        <time>2013-06-22T05:45:12Z</time>
      </trkpt>
      <trkpt lat="42.96096" lon="-0.74684">
        <ele>1927</ele>
        <time>2013-06-22T05:45:14Z</time>
      </trkpt>
      <trkpt lat="42.96095" lon="-0.74682">
        <ele>1927</ele>
        <time>2013-06-22T05:45:16Z</time>
      </trkpt>
      <trkpt lat="42.96093" lon="-0.7468">
        <ele>1928</ele>
        <time>2013-06-22T05:45:18Z</time>
      </trkpt>
      <trkpt lat="42.96091" lon="-0.74678">
        <ele>1928</ele>
        <time>2013-06-22T05:45:20Z</time>
      </trkpt>
      <trkpt lat="42.96089" lon="-0.74677">
        <ele>1928</ele>
        <time>2013-06-22T05:45:22Z</time>
      </trkpt>
      <trkpt lat="42.96087" lon="-0.74674">
        <ele>1928</ele>
        <time>2013-06-22T05:45:24Z</time>
      </trkpt>
      <trkpt lat="42.96086" lon="-0.74672">
        <ele>1928</ele>
        <time>2013-06-22T05:45:26Z</time>
      </trkpt>
      <trkpt lat="42.96084" lon="-0.74671">
        <ele>1929</ele>
        <time>2013-06-22T05:45:28Z</time>
      </trkpt>
      <trkpt lat="42.96082" lon="-0.74669">
        <ele>1929</ele>
        <time>2013-06-22T05:45:30Z</time>
      </trkpt>
      <trkpt lat="42.96081" lon="-0.74668">
        <ele>1929</ele>
        <time>2013-06-22T05:45:32Z</time>
      </trkpt>
      <trkpt lat="42.96079" lon="-0.74666">
        <ele>1930</ele>
        <time>2013-06-22T05:45:34Z</time>
      </trkpt>
      <trkpt lat="42.96078" lon="-0.74664">
        <ele>1930</ele>
        <time>2013-06-22T05:45:36Z</time>
      </trkpt>
      <trkpt lat="42.96077" lon="-0.74663">
        <ele>1931</ele>
        <time>2013-06-22T05:45:38Z</time>
      </trkpt>
      <trkpt lat="42.96075" lon="-0.74662">
        <ele>1931</ele>
        <time>2013-06-22T05:45:40Z</time>
      </trkpt>
      <trkpt lat="42.96074" lon="-0.7466">
        <ele>1932</ele>
        <time>2013-06-22T05:45:42Z</time>
      </trkpt>
      <trkpt lat="42.96073" lon="-0.74659">
        <ele>1932</ele>
        <time>2013-06-22T05:45:44Z</time>
      </trkpt>
      <trkpt lat="42.96072" lon="-0.74657">
        <ele>1932</ele>
        <time>2013-06-22T05:45:46Z</time>
      </trkpt>
      <trkpt lat="42.9607" lon="-0.74655">
        <ele>1933</ele>
        <time>2013-06-22T05:45:48Z</time>
      </trkpt>
      <trkpt lat="42.96069" lon="-0.74654">
        <ele>1933</ele>
        <time>2013-06-22T05:45:52Z</time>
      </trkpt>
      <trkpt lat="42.96067" lon="-0.74652">
        <ele>1933</ele>
        <time>2013-06-22T05:45:59Z</time>
      </trkpt>
      <trkpt lat="42.96066" lon="-0.74651">
        <ele>1933</ele>
        <time>2013-06-22T05:46:01Z</time>
      </trkpt>
      <trkpt lat="42.96064" lon="-0.74649">
        <ele>1933</ele>
        <time>2013-06-22T05:46:03Z</time>
      </trkpt>
      <trkpt lat="42.96063" lon="-0.74648">
        <ele>1934</ele>
        <time>2013-06-22T05:46:05Z</time>
      </trkpt>
      <trkpt lat="42.96061" lon="-0.74646">
        <ele>1934</ele>
        <time>2013-06-22T05:46:07Z</time>
      </trkpt>
      <trkpt lat="42.96059" lon="-0.74644">
        <ele>1934</ele>
        <time>2013-06-22T05:46:09Z</time>
      </trkpt>
      <trkpt lat="42.96058" lon="-0.74642">
        <ele>1934</ele>
        <time>2013-06-22T05:46:11Z</time>
      </trkpt>
      <trkpt lat="42.96056" lon="-0.7464">
        <ele>1934</ele>
        <time>2013-06-22T05:46:13Z</time>
      </trkpt>
      <trkpt lat="42.96054" lon="-0.74638">
        <ele>1934</ele>
        <time>2013-06-22T05:46:15Z</time>
      </trkpt>
      <trkpt lat="42.96052" lon="-0.74637">
        <ele>1934</ele>
        <time>2013-06-22T05:46:17Z</time>
      </trkpt>
      <trkpt lat="42.96051" lon="-0.74634">
        <ele>1934</ele>
        <time>2013-06-22T05:46:19Z</time>
      </trkpt>
      <trkpt lat="42.96049" lon="-0.74633">
        <ele>1934</ele>
        <time>2013-06-22T05:46:21Z</time>
      </trkpt>
      <trkpt lat="42.96048" lon="-0.7463">
        <ele>1934</ele>
        <time>2013-06-22T05:46:23Z</time>
      </trkpt>
      <trkpt lat="42.96046" lon="-0.74629">
        <ele>1934</ele>
        <time>2013-06-22T05:46:25Z</time>
      </trkpt>
      <trkpt lat="42.96045" lon="-0.74627">
        <ele>1934</ele>
        <time>2013-06-22T05:46:27Z</time>
      </trkpt>
      <trkpt lat="42.96043" lon="-0.74625">
        <ele>1934</ele>
        <time>2013-06-22T05:46:29Z</time>
      </trkpt>
      <trkpt lat="42.96042" lon="-0.74623">
        <ele>1934</ele>
        <time>2013-06-22T05:46:31Z</time>
      </trkpt>
      <trkpt lat="42.9604" lon="-0.74621">
        <ele>1934</ele>
        <time>2013-06-22T05:46:33Z</time>
      </trkpt>
      <trkpt lat="42.96039" lon="-0.74618">
        <ele>1934</ele>
        <time>2013-06-22T05:46:35Z</time>
      </trkpt>
      <trkpt lat="42.96038" lon="-0.74616">
        <ele>1934</ele>
        <time>2013-06-22T05:46:37Z</time>
      </trkpt>
      <trkpt lat="42.96037" lon="-0.74615">
        <ele>1934</ele>
        <time>2013-06-22T05:46:38Z</time>
      </trkpt>
      <trkpt lat="42.96035" lon="-0.74613">
        <ele>1934</ele>
        <time>2013-06-22T05:46:40Z</time>
      </trkpt>
      <trkpt lat="42.96034" lon="-0.74611">
        <ele>1934</ele>
        <time>2013-06-22T05:46:42Z</time>
      </trkpt>
      <trkpt lat="42.96033" lon="-0.74608">
        <ele>1934</ele>
        <time>2013-06-22T05:46:44Z</time>
      </trkpt>
      <trkpt lat="42.96032" lon="-0.74606">
        <ele>1934</ele>
        <time>2013-06-22T05:46:46Z</time>
      </trkpt>
      <trkpt lat="42.96031" lon="-0.74604">
        <ele>1934</ele>
        <time>2013-06-22T05:46:48Z</time>
      </trkpt>
      <trkpt lat="42.9603" lon="-0.74602">
        <ele>1934</ele>
        <time>2013-06-22T05:46:50Z</time>
      </trkpt>
      <trkpt lat="42.96028" lon="-0.74599">
        <ele>1934</ele>
        <time>2013-06-22T05:46:52Z</time>
      </trkpt>
      <trkpt lat="42.96027" lon="-0.74597">
        <ele>1934</ele>
        <time>2013-06-22T05:46:54Z</time>
      </trkpt>
      <trkpt lat="42.96026" lon="-0.74595">
        <ele>1934</ele>
        <time>2013-06-22T05:46:56Z</time>
      </trkpt>
      <trkpt lat="42.96025" lon="-0.74593">
        <ele>1934</ele>
        <time>2013-06-22T05:46:58Z</time>
      </trkpt>
      <trkpt lat="42.96025" lon="-0.74591">
        <ele>1934</ele>
        <time>2013-06-22T05:47:00Z</time>
      </trkpt>
      <trkpt lat="42.96024" lon="-0.74589">
        <ele>1934</ele>
        <time>2013-06-22T05:47:02Z</time>
      </trkpt>
      <trkpt lat="42.96023" lon="-0.74587">
        <ele>1934</ele>
        <time>2013-06-22T05:47:04Z</time>
      </trkpt>
      <trkpt lat="42.96022" lon="-0.74585">
        <ele>1934</ele>
        <time>2013-06-22T05:47:06Z</time>
      </trkpt>
      <trkpt lat="42.96021" lon="-0.74583">
        <ele>1935</ele>
        <time>2013-06-22T05:47:08Z</time>
      </trkpt>
      <trkpt lat="42.9602" lon="-0.74581">
        <ele>1935</ele>
        <time>2013-06-22T05:47:10Z</time>
      </trkpt>
      <trkpt lat="42.96019" lon="-0.74579">
        <ele>1935</ele>
        <time>2013-06-22T05:47:12Z</time>
      </trkpt>
      <trkpt lat="42.96018" lon="-0.74577">
        <ele>1935</ele>
        <time>2013-06-22T05:47:14Z</time>
      </trkpt>
      <trkpt lat="42.96017" lon="-0.74575">
        <ele>1935</ele>
        <time>2013-06-22T05:47:16Z</time>
      </trkpt>
      <trkpt lat="42.96016" lon="-0.74573">
        <ele>1935</ele>
        <time>2013-06-22T05:47:18Z</time>
      </trkpt>
      <trkpt lat="42.96015" lon="-0.74571">
        <ele>1935</ele>
        <time>2013-06-22T05:47:20Z</time>
      </trkpt>
      <trkpt lat="42.96014" lon="-0.74568">
        <ele>1935</ele>
        <time>2013-06-22T05:47:22Z</time>
      </trkpt>
      <trkpt lat="42.96013" lon="-0.74567">
        <ele>1935</ele>
        <time>2013-06-22T05:47:24Z</time>
      </trkpt>
      <trkpt lat="42.96012" lon="-0.74564">
        <ele>1935</ele>
        <time>2013-06-22T05:47:26Z</time>
      </trkpt>
      <trkpt lat="42.96011" lon="-0.74563">
        <ele>1935</ele>
        <time>2013-06-22T05:47:28Z</time>
      </trkpt>
      <trkpt lat="42.9601" lon="-0.74561">
        <ele>1935</ele>
        <time>2013-06-22T05:47:30Z</time>
      </trkpt>
      <trkpt lat="42.96009" lon="-0.74559">
        <ele>1936</ele>
        <time>2013-06-22T05:47:32Z</time>
      </trkpt>
      <trkpt lat="42.96008" lon="-0.74556">
        <ele>1936</ele>
        <time>2013-06-22T05:47:34Z</time>
      </trkpt>
      <trkpt lat="42.96007" lon="-0.74555">
        <ele>1936</ele>
        <time>2013-06-22T05:47:36Z</time>
      </trkpt>
      <trkpt lat="42.96006" lon="-0.74553">
        <ele>1936</ele>
        <time>2013-06-22T05:47:38Z</time>
      </trkpt>
      <trkpt lat="42.96005" lon="-0.74551">
        <ele>1936</ele>
        <time>2013-06-22T05:47:40Z</time>
      </trkpt>
      <trkpt lat="42.96004" lon="-0.74549">
        <ele>1936</ele>
        <time>2013-06-22T05:47:42Z</time>
      </trkpt>
      <trkpt lat="42.96003" lon="-0.74547">
        <ele>1936</ele>
        <time>2013-06-22T05:47:43Z</time>
      </trkpt>
      <trkpt lat="42.96002" lon="-0.74545">
        <ele>1936</ele>
        <time>2013-06-22T05:47:45Z</time>
      </trkpt>
      <trkpt lat="42.96001" lon="-0.74542">
        <ele>1936</ele>
        <time>2013-06-22T05:47:47Z</time>
      </trkpt>
      <trkpt lat="42.96001" lon="-0.74541">
        <ele>1936</ele>
        <time>2013-06-22T05:47:48Z</time>
      </trkpt>
      <trkpt lat="42.96" lon="-0.74538">
        <ele>1936</ele>
        <time>2013-06-22T05:47:50Z</time>
      </trkpt>
      <trkpt lat="42.96" lon="-0.74536">
        <ele>1936</ele>
        <time>2013-06-22T05:47:52Z</time>
      </trkpt>
      <trkpt lat="42.96" lon="-0.74535">
        <ele>1936</ele>
        <time>2013-06-22T05:47:53Z</time>
      </trkpt>
      <trkpt lat="42.95999" lon="-0.74532">
        <ele>1936</ele>
        <time>2013-06-22T05:47:55Z</time>
      </trkpt>
      <trkpt lat="42.95998" lon="-0.7453">
        <ele>1936</ele>
        <time>2013-06-22T05:47:57Z</time>
      </trkpt>
      <trkpt lat="42.95998" lon="-0.74528">
        <ele>1936</ele>
        <time>2013-06-22T05:47:58Z</time>
      </trkpt>
      <trkpt lat="42.95997" lon="-0.74526">
        <ele>1936</ele>
        <time>2013-06-22T05:48:00Z</time>
      </trkpt>
      <trkpt lat="42.95997" lon="-0.74523">
        <ele>1936</ele>
        <time>2013-06-22T05:48:02Z</time>
      </trkpt>
      <trkpt lat="42.95996" lon="-0.74521">
        <ele>1936</ele>
        <time>2013-06-22T05:48:03Z</time>
      </trkpt>
      <trkpt lat="42.95996" lon="-0.74519">
        <ele>1936</ele>
        <time>2013-06-22T05:48:05Z</time>
      </trkpt>
      <trkpt lat="42.95995" lon="-0.74516">
        <ele>1936</ele>
        <time>2013-06-22T05:48:07Z</time>
      </trkpt>
      <trkpt lat="42.95995" lon="-0.74514">
        <ele>1936</ele>
        <time>2013-06-22T05:48:09Z</time>
      </trkpt>
      <trkpt lat="42.95994" lon="-0.74511">
        <ele>1936</ele>
        <time>2013-06-22T05:48:11Z</time>
      </trkpt>
      <trkpt lat="42.95994" lon="-0.74509">
        <ele>1936</ele>
        <time>2013-06-22T05:48:13Z</time>
      </trkpt>
      <trkpt lat="42.95994" lon="-0.74507">
        <ele>1936</ele>
        <time>2013-06-22T05:48:15Z</time>
      </trkpt>
      <trkpt lat="42.95993" lon="-0.74505">
        <ele>1936</ele>
        <time>2013-06-22T05:48:17Z</time>
      </trkpt>
      <trkpt lat="42.95993" lon="-0.74503">
        <ele>1936</ele>
        <time>2013-06-22T05:48:19Z</time>
      </trkpt>
      <trkpt lat="42.95993" lon="-0.74501">
        <ele>1936</ele>
        <time>2013-06-22T05:48:21Z</time>
      </trkpt>
      <trkpt lat="42.95992" lon="-0.74498">
        <ele>1936</ele>
        <time>2013-06-22T05:48:23Z</time>
      </trkpt>
      <trkpt lat="42.95992" lon="-0.74497">
        <ele>1936</ele>
        <time>2013-06-22T05:48:25Z</time>
      </trkpt>
      <trkpt lat="42.95992" lon="-0.74494">
        <ele>1936</ele>
        <time>2013-06-22T05:48:27Z</time>
      </trkpt>
      <trkpt lat="42.95991" lon="-0.74493">
        <ele>1936</ele>
        <time>2013-06-22T05:48:29Z</time>
      </trkpt>
      <trkpt lat="42.9599" lon="-0.74491">
        <ele>1936</ele>
        <time>2013-06-22T05:48:31Z</time>
      </trkpt>
      <trkpt lat="42.9599" lon="-0.74489">
        <ele>1936</ele>
        <time>2013-06-22T05:48:33Z</time>
      </trkpt>
      <trkpt lat="42.95989" lon="-0.74487">
        <ele>1936</ele>
        <time>2013-06-22T05:48:35Z</time>
      </trkpt>
      <trkpt lat="42.95989" lon="-0.74485">
        <ele>1936</ele>
        <time>2013-06-22T05:48:37Z</time>
      </trkpt>
      <trkpt lat="42.95988" lon="-0.74484">
        <ele>1937</ele>
        <time>2013-06-22T05:48:39Z</time>
      </trkpt>
      <trkpt lat="42.95987" lon="-0.74481">
        <ele>1937</ele>
        <time>2013-06-22T05:48:41Z</time>
      </trkpt>
      <trkpt lat="42.95987" lon="-0.7448">
        <ele>1937</ele>
        <time>2013-06-22T05:48:43Z</time>
      </trkpt>
      <trkpt lat="42.95986" lon="-0.74478">
        <ele>1938</ele>
        <time>2013-06-22T05:48:45Z</time>
      </trkpt>
      <trkpt lat="42.95985" lon="-0.74476">
        <ele>1938</ele>
        <time>2013-06-22T05:48:47Z</time>
      </trkpt>
      <trkpt lat="42.95984" lon="-0.74475">
        <ele>1938</ele>
        <time>2013-06-22T05:48:49Z</time>
      </trkpt>
      <trkpt lat="42.95982" lon="-0.74474">
        <ele>1938</ele>
        <time>2013-06-22T05:48:51Z</time>
      </trkpt>
      <trkpt lat="42.95981" lon="-0.74473">
        <ele>1938</ele>
        <time>2013-06-22T05:48:53Z</time>
      </trkpt>
      <trkpt lat="42.9598" lon="-0.74471">
        <ele>1938</ele>
        <time>2013-06-22T05:48:55Z</time>
      </trkpt>
      <trkpt lat="42.95979" lon="-0.74469">
        <ele>1938</ele>
        <time>2013-06-22T05:48:57Z</time>
      </trkpt>
      <trkpt lat="42.95978" lon="-0.74466">
        <ele>1938</ele>
        <time>2013-06-22T05:48:59Z</time>
      </trkpt>
      <trkpt lat="42.95977" lon="-0.74464">
        <ele>1938</ele>
        <time>2013-06-22T05:49:01Z</time>
      </trkpt>
      <trkpt lat="42.95977" lon="-0.74461">
        <ele>1938</ele>
        <time>2013-06-22T05:49:03Z</time>
      </trkpt>
      <trkpt lat="42.95976" lon="-0.74459">
        <ele>1938</ele>
        <time>2013-06-22T05:49:05Z</time>
      </trkpt>
      <trkpt lat="42.95976" lon="-0.74456">
        <ele>1938</ele>
        <time>2013-06-22T05:49:07Z</time>
      </trkpt>
      <trkpt lat="42.95976" lon="-0.74454">
        <ele>1938</ele>
        <time>2013-06-22T05:49:09Z</time>
      </trkpt>
      <trkpt lat="42.95975" lon="-0.74452">
        <ele>1938</ele>
        <time>2013-06-22T05:49:11Z</time>
      </trkpt>
      <trkpt lat="42.95975" lon="-0.7445">
        <ele>1938</ele>
        <time>2013-06-22T05:49:13Z</time>
      </trkpt>
      <trkpt lat="42.95974" lon="-0.74448">
        <ele>1938</ele>
        <time>2013-06-22T05:49:15Z</time>
      </trkpt>
      <trkpt lat="42.95974" lon="-0.74446">
        <ele>1938</ele>
        <time>2013-06-22T05:49:17Z</time>
      </trkpt>
      <trkpt lat="42.95972" lon="-0.74444">
        <ele>1938</ele>
        <time>2013-06-22T05:49:19Z</time>
      </trkpt>
      <trkpt lat="42.95971" lon="-0.74444">
        <ele>1938</ele>
        <time>2013-06-22T05:49:20Z</time>
      </trkpt>
      <trkpt lat="42.95969" lon="-0.74443">
        <ele>1938</ele>
        <time>2013-06-22T05:49:21Z</time>
      </trkpt>
      <trkpt lat="42.95968" lon="-0.74442">
        <ele>1938</ele>
        <time>2013-06-22T05:49:22Z</time>
      </trkpt>
      <trkpt lat="42.95966" lon="-0.74442">
        <ele>1938</ele>
        <time>2013-06-22T05:49:24Z</time>
      </trkpt>
      <trkpt lat="42.95964" lon="-0.74442">
        <ele>1938</ele>
        <time>2013-06-22T05:49:26Z</time>
      </trkpt>
      <trkpt lat="42.95962" lon="-0.74442">
        <ele>1938</ele>
        <time>2013-06-22T05:49:28Z</time>
      </trkpt>
      <trkpt lat="42.95961" lon="-0.74443">
        <ele>1938</ele>
        <time>2013-06-22T05:49:30Z</time>
      </trkpt>
      <trkpt lat="42.95959" lon="-0.74443">
        <ele>1938</ele>
        <time>2013-06-22T05:49:31Z</time>
      </trkpt>
      <trkpt lat="42.95958" lon="-0.74443">
        <ele>1938</ele>
        <time>2013-06-22T05:49:33Z</time>
      </trkpt>
      <trkpt lat="42.95956" lon="-0.74444">
        <ele>1938</ele>
        <time>2013-06-22T05:49:35Z</time>
      </trkpt>
      <trkpt lat="42.95954" lon="-0.74444">
        <ele>1938</ele>
        <time>2013-06-22T05:49:37Z</time>
      </trkpt>
      <trkpt lat="42.95952" lon="-0.74444">
        <ele>1938</ele>
        <time>2013-06-22T05:49:39Z</time>
      </trkpt>
      <trkpt lat="42.9595" lon="-0.74445">
        <ele>1938</ele>
        <time>2013-06-22T05:49:41Z</time>
      </trkpt>
      <trkpt lat="42.95948" lon="-0.74445">
        <ele>1938</ele>
        <time>2013-06-22T05:49:43Z</time>
      </trkpt>
      <trkpt lat="42.95947" lon="-0.74446">
        <ele>1939</ele>
        <time>2013-06-22T05:49:45Z</time>
      </trkpt>
      <trkpt lat="42.95945" lon="-0.74446">
        <ele>1939</ele>
        <time>2013-06-22T05:49:47Z</time>
      </trkpt>
      <trkpt lat="42.95943" lon="-0.74447">
        <ele>1939</ele>
        <time>2013-06-22T05:49:49Z</time>
      </trkpt>
      <trkpt lat="42.95942" lon="-0.74447">
        <ele>1940</ele>
        <time>2013-06-22T05:49:51Z</time>
      </trkpt>
      <trkpt lat="42.9594" lon="-0.74447">
        <ele>1940</ele>
        <time>2013-06-22T05:49:53Z</time>
      </trkpt>
      <trkpt lat="42.95939" lon="-0.74446">
        <ele>1941</ele>
        <time>2013-06-22T05:49:55Z</time>
      </trkpt>
      <trkpt lat="42.95938" lon="-0.74446">
        <ele>1941</ele>
        <time>2013-06-22T05:49:57Z</time>
      </trkpt>
      <trkpt lat="42.95936" lon="-0.74445">
        <ele>1942</ele>
        <time>2013-06-22T05:50:00Z</time>
      </trkpt>
      <trkpt lat="42.95935" lon="-0.74443">
        <ele>1942</ele>
        <time>2013-06-22T05:50:02Z</time>
      </trkpt>
      <trkpt lat="42.95935" lon="-0.7444">
        <ele>1942</ele>
        <time>2013-06-22T05:50:04Z</time>
      </trkpt>
      <trkpt lat="42.95935" lon="-0.74438">
        <ele>1943</ele>
        <time>2013-06-22T05:50:06Z</time>
      </trkpt>
      <trkpt lat="42.95934" lon="-0.74436">
        <ele>1943</ele>
        <time>2013-06-22T05:50:08Z</time>
      </trkpt>
      <trkpt lat="42.95934" lon="-0.74435">
        <ele>1943</ele>
        <time>2013-06-22T05:50:09Z</time>
      </trkpt>
      <trkpt lat="42.95934" lon="-0.74432">
        <ele>1943</ele>
        <time>2013-06-22T05:50:11Z</time>
      </trkpt>
      <trkpt lat="42.95933" lon="-0.7443">
        <ele>1944</ele>
        <time>2013-06-22T05:50:13Z</time>
      </trkpt>
      <trkpt lat="42.95933" lon="-0.74428">
        <ele>1944</ele>
        <time>2013-06-22T05:50:15Z</time>
      </trkpt>
      <trkpt lat="42.95932" lon="-0.74426">
        <ele>1944</ele>
        <time>2013-06-22T05:50:17Z</time>
      </trkpt>
      <trkpt lat="42.95932" lon="-0.74423">
        <ele>1944</ele>
        <time>2013-06-22T05:50:19Z</time>
      </trkpt>
      <trkpt lat="42.95931" lon="-0.7442">
        <ele>1944</ele>
        <time>2013-06-22T05:50:21Z</time>
      </trkpt>
      <trkpt lat="42.95931" lon="-0.74418">
        <ele>1944</ele>
        <time>2013-06-22T05:50:23Z</time>
      </trkpt>
      <trkpt lat="42.95931" lon="-0.74415">
        <ele>1944</ele>
        <time>2013-06-22T05:50:25Z</time>
      </trkpt>
      <trkpt lat="42.9593" lon="-0.74413">
        <ele>1944</ele>
        <time>2013-06-22T05:50:27Z</time>
      </trkpt>
      <trkpt lat="42.9593" lon="-0.7441">
        <ele>1945</ele>
        <time>2013-06-22T05:50:29Z</time>
      </trkpt>
      <trkpt lat="42.95929" lon="-0.74408">
        <ele>1945</ele>
        <time>2013-06-22T05:50:31Z</time>
      </trkpt>
      <trkpt lat="42.95929" lon="-0.74407">
        <ele>1945</ele>
        <time>2013-06-22T05:50:32Z</time>
      </trkpt>
      <trkpt lat="42.95929" lon="-0.74404">
        <ele>1945</ele>
        <time>2013-06-22T05:50:34Z</time>
      </trkpt>
      <trkpt lat="42.95928" lon="-0.74402">
        <ele>1945</ele>
        <time>2013-06-22T05:50:36Z</time>
      </trkpt>
      <trkpt lat="42.95928" lon="-0.744">
        <ele>1945</ele>
        <time>2013-06-22T05:50:38Z</time>
      </trkpt>
      <trkpt lat="42.95928" lon="-0.74397">
        <ele>1945</ele>
        <time>2013-06-22T05:50:40Z</time>
      </trkpt>
      <trkpt lat="42.95927" lon="-0.74395">
        <ele>1945</ele>
        <time>2013-06-22T05:50:42Z</time>
      </trkpt>
      <trkpt lat="42.95927" lon="-0.74393">
        <ele>1945</ele>
        <time>2013-06-22T05:50:44Z</time>
      </trkpt>
      <trkpt lat="42.95927" lon="-0.74391">
        <ele>1945</ele>
        <time>2013-06-22T05:50:50Z</time>
      </trkpt>
      <trkpt lat="42.95927" lon="-0.74388">
        <ele>1945</ele>
        <time>2013-06-22T05:50:52Z</time>
      </trkpt>
      <trkpt lat="42.95926" lon="-0.74386">
        <ele>1945</ele>
        <time>2013-06-22T05:50:54Z</time>
      </trkpt>
      <trkpt lat="42.95926" lon="-0.74384">
        <ele>1945</ele>
        <time>2013-06-22T05:50:56Z</time>
      </trkpt>
      <trkpt lat="42.95926" lon="-0.74382">
        <ele>1945</ele>
        <time>2013-06-22T05:50:58Z</time>
      </trkpt>
      <trkpt lat="42.95926" lon="-0.7438">
        <ele>1945</ele>
        <time>2013-06-22T05:51:00Z</time>
      </trkpt>
      <trkpt lat="42.95926" lon="-0.74378">
        <ele>1945</ele>
        <time>2013-06-22T05:51:02Z</time>
      </trkpt>
      <trkpt lat="42.95926" lon="-0.74376">
        <ele>1945</ele>
        <time>2013-06-22T05:51:04Z</time>
      </trkpt>
      <trkpt lat="42.95926" lon="-0.74375">
        <ele>1945</ele>
        <time>2013-06-22T05:51:06Z</time>
      </trkpt>
      <trkpt lat="42.95925" lon="-0.74373">
        <ele>1945</ele>
        <time>2013-06-22T05:51:08Z</time>
      </trkpt>
      <trkpt lat="42.95925" lon="-0.74372">
        <ele>1945</ele>
        <time>2013-06-22T05:51:10Z</time>
      </trkpt>
      <trkpt lat="42.95925" lon="-0.7437">
        <ele>1945</ele>
        <time>2013-06-22T05:51:12Z</time>
      </trkpt>
      <trkpt lat="42.95925" lon="-0.74369">
        <ele>1945</ele>
        <time>2013-06-22T05:51:14Z</time>
      </trkpt>
      <trkpt lat="42.95925" lon="-0.74367">
        <ele>1945</ele>
        <time>2013-06-22T05:51:16Z</time>
      </trkpt>
      <trkpt lat="42.95925" lon="-0.74365">
        <ele>1945</ele>
        <time>2013-06-22T05:51:18Z</time>
      </trkpt>
      <trkpt lat="42.95924" lon="-0.74364">
        <ele>1946</ele>
        <time>2013-06-22T05:51:21Z</time>
      </trkpt>
      <trkpt lat="42.95924" lon="-0.74362">
        <ele>1946</ele>
        <time>2013-06-22T05:51:24Z</time>
      </trkpt>
      <trkpt lat="42.95924" lon="-0.7436">
        <ele>1946</ele>
        <time>2013-06-22T05:51:26Z</time>
      </trkpt>
      <trkpt lat="42.95924" lon="-0.74358">
        <ele>1946</ele>
        <time>2013-06-22T05:51:28Z</time>
      </trkpt>
      <trkpt lat="42.95924" lon="-0.74357">
        <ele>1946</ele>
        <time>2013-06-22T05:51:30Z</time>
      </trkpt>
      <trkpt lat="42.95924" lon="-0.74355">
        <ele>1946</ele>
        <time>2013-06-22T05:51:32Z</time>
      </trkpt>
      <trkpt lat="42.95923" lon="-0.74353">
        <ele>1946</ele>
        <time>2013-06-22T05:51:34Z</time>
      </trkpt>
      <trkpt lat="42.95923" lon="-0.74351">
        <ele>1946</ele>
        <time>2013-06-22T05:51:36Z</time>
      </trkpt>
      <trkpt lat="42.95923" lon="-0.74349">
        <ele>1946</ele>
        <time>2013-06-22T05:51:38Z</time>
      </trkpt>
      <trkpt lat="42.95922" lon="-0.74348">
        <ele>1947</ele>
        <time>2013-06-22T05:51:40Z</time>
      </trkpt>
      <trkpt lat="42.95922" lon="-0.74346">
        <ele>1947</ele>
        <time>2013-06-22T05:51:42Z</time>
      </trkpt>
      <trkpt lat="42.95922" lon="-0.74344">
        <ele>1947</ele>
        <time>2013-06-22T05:51:44Z</time>
      </trkpt>
      <trkpt lat="42.95922" lon="-0.74343">
        <ele>1947</ele>
        <time>2013-06-22T05:51:46Z</time>
      </trkpt>
      <trkpt lat="42.95922" lon="-0.74341">
        <ele>1947</ele>
        <time>2013-06-22T05:51:48Z</time>
      </trkpt>
      <trkpt lat="42.95921" lon="-0.74339">
        <ele>1947</ele>
        <time>2013-06-22T05:51:50Z</time>
      </trkpt>
      <trkpt lat="42.95921" lon="-0.74337">
        <ele>1947</ele>
        <time>2013-06-22T05:51:52Z</time>
      </trkpt>
      <trkpt lat="42.95921" lon="-0.74335">
        <ele>1947</ele>
        <time>2013-06-22T05:51:54Z</time>
      </trkpt>
      <trkpt lat="42.95921" lon="-0.74334">
        <ele>1947</ele>
        <time>2013-06-22T05:51:56Z</time>
      </trkpt>
      <trkpt lat="42.95921" lon="-0.74332">
        <ele>1947</ele>
        <time>2013-06-22T05:51:58Z</time>
      </trkpt>
      <trkpt lat="42.95921" lon="-0.7433">
        <ele>1947</ele>
        <time>2013-06-22T05:52:00Z</time>
      </trkpt>
      <trkpt lat="42.95921" lon="-0.74328">
        <ele>1947</ele>
        <time>2013-06-22T05:52:02Z</time>
      </trkpt>
      <trkpt lat="42.95921" lon="-0.74326">
        <ele>1947</ele>
        <time>2013-06-22T05:52:04Z</time>
      </trkpt>
      <trkpt lat="42.95921" lon="-0.74325">
        <ele>1947</ele>
        <time>2013-06-22T05:52:06Z</time>
      </trkpt>
      <trkpt lat="42.9592" lon="-0.74322">
        <ele>1947</ele>
        <time>2013-06-22T05:52:08Z</time>
      </trkpt>
      <trkpt lat="42.9592" lon="-0.7432">
        <ele>1947</ele>
        <time>2013-06-22T05:52:10Z</time>
      </trkpt>
      <trkpt lat="42.9592" lon="-0.74318">
        <ele>1947</ele>
        <time>2013-06-22T05:52:12Z</time>
      </trkpt>
      <trkpt lat="42.9592" lon="-0.74315">
        <ele>1947</ele>
        <time>2013-06-22T05:52:14Z</time>
      </trkpt>
      <trkpt lat="42.9592" lon="-0.74313">
        <ele>1947</ele>
        <time>2013-06-22T05:52:16Z</time>
      </trkpt>
      <trkpt lat="42.95919" lon="-0.74311">
        <ele>1947</ele>
        <time>2013-06-22T05:52:21Z</time>
      </trkpt>
      <trkpt lat="42.95919" lon="-0.74309">
        <ele>1947</ele>
        <time>2013-06-22T05:52:23Z</time>
      </trkpt>
      <trkpt lat="42.95919" lon="-0.74308">
        <ele>1947</ele>
        <time>2013-06-22T05:52:25Z</time>
      </trkpt>
      <trkpt lat="42.95918" lon="-0.74306">
        <ele>1947</ele>
        <time>2013-06-22T05:52:27Z</time>
      </trkpt>
      <trkpt lat="42.95917" lon="-0.74304">
        <ele>1947</ele>
        <time>2013-06-22T05:52:30Z</time>
      </trkpt>
      <trkpt lat="42.95917" lon="-0.74302">
        <ele>1947</ele>
        <time>2013-06-22T05:52:32Z</time>
      </trkpt>
      <trkpt lat="42.95916" lon="-0.743">
        <ele>1947</ele>
        <time>2013-06-22T05:52:34Z</time>
      </trkpt>
      <trkpt lat="42.95916" lon="-0.74298">
        <ele>1947</ele>
        <time>2013-06-22T05:52:36Z</time>
      </trkpt>
      <trkpt lat="42.95916" lon="-0.74296">
        <ele>1947</ele>
        <time>2013-06-22T05:52:38Z</time>
      </trkpt>
      <trkpt lat="42.95915" lon="-0.74294">
        <ele>1947</ele>
        <time>2013-06-22T05:52:40Z</time>
      </trkpt>
      <trkpt lat="42.95914" lon="-0.74292">
        <ele>1947</ele>
        <time>2013-06-22T05:52:42Z</time>
      </trkpt>
      <trkpt lat="42.95914" lon="-0.7429">
        <ele>1947</ele>
        <time>2013-06-22T05:52:44Z</time>
      </trkpt>
      <trkpt lat="42.95913" lon="-0.74288">
        <ele>1947</ele>
        <time>2013-06-22T05:52:46Z</time>
      </trkpt>
      <trkpt lat="42.95913" lon="-0.74286">
        <ele>1947</ele>
        <time>2013-06-22T05:52:49Z</time>
      </trkpt>
      <trkpt lat="42.95913" lon="-0.74284">
        <ele>1947</ele>
        <time>2013-06-22T05:52:51Z</time>
      </trkpt>
      <trkpt lat="42.95913" lon="-0.74281">
        <ele>1947</ele>
        <time>2013-06-22T05:52:53Z</time>
      </trkpt>
      <trkpt lat="42.95912" lon="-0.74279">
        <ele>1947</ele>
        <time>2013-06-22T05:52:55Z</time>
      </trkpt>
      <trkpt lat="42.95912" lon="-0.74277">
        <ele>1947</ele>
        <time>2013-06-22T05:52:57Z</time>
      </trkpt>
      <trkpt lat="42.95911" lon="-0.74275">
        <ele>1947</ele>
        <time>2013-06-22T05:52:59Z</time>
      </trkpt>
      <trkpt lat="42.95911" lon="-0.74273">
        <ele>1947</ele>
        <time>2013-06-22T05:53:01Z</time>
      </trkpt>
      <trkpt lat="42.95911" lon="-0.74271">
        <ele>1947</ele>
        <time>2013-06-22T05:53:03Z</time>
      </trkpt>
      <trkpt lat="42.95911" lon="-0.74269">
        <ele>1947</ele>
        <time>2013-06-22T05:53:05Z</time>
      </trkpt>
      <trkpt lat="42.95911" lon="-0.74267">
        <ele>1947</ele>
        <time>2013-06-22T05:53:07Z</time>
      </trkpt>
      <trkpt lat="42.95911" lon="-0.74265">
        <ele>1947</ele>
        <time>2013-06-22T05:53:09Z</time>
      </trkpt>
      <trkpt lat="42.9591" lon="-0.74262">
        <ele>1947</ele>
        <time>2013-06-22T05:53:11Z</time>
      </trkpt>
      <trkpt lat="42.9591" lon="-0.7426">
        <ele>1947</ele>
        <time>2013-06-22T05:53:13Z</time>
      </trkpt>
      <trkpt lat="42.9591" lon="-0.74257">
        <ele>1947</ele>
        <time>2013-06-22T05:53:15Z</time>
      </trkpt>
      <trkpt lat="42.9591" lon="-0.74255">
        <ele>1947</ele>
        <time>2013-06-22T05:53:17Z</time>
      </trkpt>
      <trkpt lat="42.95909" lon="-0.74252">
        <ele>1947</ele>
        <time>2013-06-22T05:53:19Z</time>
      </trkpt>
      <trkpt lat="42.95909" lon="-0.74251">
        <ele>1947</ele>
        <time>2013-06-22T05:53:20Z</time>
      </trkpt>
      <trkpt lat="42.95909" lon="-0.74248">
        <ele>1947</ele>
        <time>2013-06-22T05:53:22Z</time>
      </trkpt>
      <trkpt lat="42.95908" lon="-0.74246">
        <ele>1947</ele>
        <time>2013-06-22T05:53:24Z</time>
      </trkpt>
      <trkpt lat="42.95908" lon="-0.74244">
        <ele>1947</ele>
        <time>2013-06-22T05:53:25Z</time>
      </trkpt>
      <trkpt lat="42.95908" lon="-0.74242">
        <ele>1947</ele>
        <time>2013-06-22T05:53:27Z</time>
      </trkpt>
      <trkpt lat="42.95908" lon="-0.74239">
        <ele>1947</ele>
        <time>2013-06-22T05:53:29Z</time>
      </trkpt>
      <trkpt lat="42.95908" lon="-0.74238">
        <ele>1947</ele>
        <time>2013-06-22T05:53:30Z</time>
      </trkpt>
      <trkpt lat="42.95908" lon="-0.74235">
        <ele>1947</ele>
        <time>2013-06-22T05:53:32Z</time>
      </trkpt>
      <trkpt lat="42.95908" lon="-0.74233">
        <ele>1947</ele>
        <time>2013-06-22T05:53:33Z</time>
      </trkpt>
      <trkpt lat="42.95908" lon="-0.7423">
        <ele>1946</ele>
        <time>2013-06-22T05:53:35Z</time>
      </trkpt>
      <trkpt lat="42.95908" lon="-0.74229">
        <ele>1946</ele>
        <time>2013-06-22T05:53:36Z</time>
      </trkpt>
      <trkpt lat="42.95908" lon="-0.74227">
        <ele>1946</ele>
        <time>2013-06-22T05:53:37Z</time>
      </trkpt>
      <trkpt lat="42.95908" lon="-0.74225">
        <ele>1946</ele>
        <time>2013-06-22T05:53:38Z</time>
      </trkpt>
      <trkpt lat="42.95908" lon="-0.74224">
        <ele>1946</ele>
        <time>2013-06-22T05:53:39Z</time>
      </trkpt>
      <trkpt lat="42.95908" lon="-0.74222">
        <ele>1946</ele>
        <time>2013-06-22T05:53:40Z</time>
      </trkpt>
      <trkpt lat="42.95908" lon="-0.7422">
        <ele>1946</ele>
        <time>2013-06-22T05:53:42Z</time>
      </trkpt>
      <trkpt lat="42.95907" lon="-0.7422">
        <ele>1945</ele>
        <time>2013-06-22T05:54:05Z</time>
      </trkpt>
      <trkpt lat="42.95908" lon="-0.7422">
        <ele>1945</ele>
        <time>2013-06-22T05:54:12Z</time>
      </trkpt>
      <trkpt lat="42.9591" lon="-0.74219">
        <ele>1942</ele>
        <time>2013-06-22T05:54:18Z</time>
      </trkpt>
      <trkpt lat="42.95908" lon="-0.7422">
        <ele>1941</ele>
        <time>2013-06-22T05:54:51Z</time>
      </trkpt>
      <trkpt lat="42.95907" lon="-0.74221">
        <ele>1941</ele>
        <time>2013-06-22T05:55:06Z</time>
      </trkpt>
      <trkpt lat="42.95907" lon="-0.74223">
        <ele>1941</ele>
        <time>2013-06-22T05:55:24Z</time>
      </trkpt>
      <trkpt lat="42.95906" lon="-0.74221">
        <ele>1941</ele>
        <time>2013-06-22T05:56:03Z</time>
      </trkpt>
      <trkpt lat="42.95905" lon="-0.74222">
        <ele>1941</ele>
        <time>2013-06-22T05:56:13Z</time>
      </trkpt>
      <trkpt lat="42.95906" lon="-0.74221">
        <ele>1941</ele>
        <time>2013-06-22T05:56:26Z</time>
      </trkpt>
      <trkpt lat="42.95908" lon="-0.74221">
        <ele>1941</ele>
        <time>2013-06-22T05:56:48Z</time>
      </trkpt>
      <trkpt lat="42.95907" lon="-0.74219">
        <ele>1941</ele>
        <time>2013-06-22T05:57:13Z</time>
      </trkpt>
      <trkpt lat="42.95908" lon="-0.74216">
        <ele>1941</ele>
        <time>2013-06-22T05:57:15Z</time>
      </trkpt>
      <trkpt lat="42.95908" lon="-0.74214">
        <ele>1941</ele>
        <time>2013-06-22T05:57:17Z</time>
      </trkpt>
      <trkpt lat="42.95908" lon="-0.74212">
        <ele>1941</ele>
        <time>2013-06-22T05:57:18Z</time>
      </trkpt>
      <trkpt lat="42.95907" lon="-0.7421">
        <ele>1941</ele>
        <time>2013-06-22T05:57:20Z</time>
      </trkpt>
      <trkpt lat="42.95907" lon="-0.74209">
        <ele>1941</ele>
        <time>2013-06-22T05:57:21Z</time>
      </trkpt>
      <trkpt lat="42.95906" lon="-0.74207">
        <ele>1941</ele>
        <time>2013-06-22T05:57:23Z</time>
      </trkpt>
      <trkpt lat="42.95906" lon="-0.74204">
        <ele>1941</ele>
        <time>2013-06-22T05:57:25Z</time>
      </trkpt>
      <trkpt lat="42.95905" lon="-0.74203">
        <ele>1941</ele>
        <time>2013-06-22T05:57:27Z</time>
      </trkpt>
      <trkpt lat="42.95904" lon="-0.742">
        <ele>1941</ele>
        <time>2013-06-22T05:57:29Z</time>
      </trkpt>
      <trkpt lat="42.95903" lon="-0.74198">
        <ele>1941</ele>
        <time>2013-06-22T05:57:31Z</time>
      </trkpt>
      <trkpt lat="42.95902" lon="-0.74197">
        <ele>1941</ele>
        <time>2013-06-22T05:57:33Z</time>
      </trkpt>
      <trkpt lat="42.95901" lon="-0.74194">
        <ele>1941</ele>
        <time>2013-06-22T05:57:35Z</time>
      </trkpt>
      <trkpt lat="42.959" lon="-0.74193">
        <ele>1941</ele>
        <time>2013-06-22T05:57:37Z</time>
      </trkpt>
      <trkpt lat="42.95898" lon="-0.7419">
        <ele>1941</ele>
        <time>2013-06-22T05:57:39Z</time>
      </trkpt>
      <trkpt lat="42.95897" lon="-0.74188">
        <ele>1941</ele>
        <time>2013-06-22T05:57:41Z</time>
      </trkpt>
      <trkpt lat="42.95896" lon="-0.74186">
        <ele>1941</ele>
        <time>2013-06-22T05:57:43Z</time>
      </trkpt>
      <trkpt lat="42.95895" lon="-0.74184">
        <ele>1941</ele>
        <time>2013-06-22T05:57:45Z</time>
      </trkpt>
      <trkpt lat="42.95893" lon="-0.74182">
        <ele>1941</ele>
        <time>2013-06-22T05:57:47Z</time>
      </trkpt>
      <trkpt lat="42.95892" lon="-0.74179">
        <ele>1941</ele>
        <time>2013-06-22T05:57:49Z</time>
      </trkpt>
      <trkpt lat="42.95891" lon="-0.74176">
        <ele>1941</ele>
        <time>2013-06-22T05:57:51Z</time>
      </trkpt>
      <trkpt lat="42.9589" lon="-0.74174">
        <ele>1941</ele>
        <time>2013-06-22T05:57:53Z</time>
      </trkpt>
      <trkpt lat="42.95889" lon="-0.74171">
        <ele>1941</ele>
        <time>2013-06-22T05:57:55Z</time>
      </trkpt>
      <trkpt lat="42.95889" lon="-0.74169">
        <ele>1941</ele>
        <time>2013-06-22T05:57:57Z</time>
      </trkpt>
      <trkpt lat="42.95889" lon="-0.74167">
        <ele>1941</ele>
        <time>2013-06-22T05:57:59Z</time>
      </trkpt>
      <trkpt lat="42.95888" lon="-0.74164">
        <ele>1941</ele>
        <time>2013-06-22T05:58:01Z</time>
      </trkpt>
      <trkpt lat="42.95888" lon="-0.74163">
        <ele>1941</ele>
        <time>2013-06-22T05:58:05Z</time>
      </trkpt>
      <trkpt lat="42.95887" lon="-0.74161">
        <ele>1941</ele>
        <time>2013-06-22T05:58:12Z</time>
      </trkpt>
      <trkpt lat="42.95887" lon="-0.74159">
        <ele>1941</ele>
        <time>2013-06-22T05:58:14Z</time>
      </trkpt>
      <trkpt lat="42.95885" lon="-0.74158">
        <ele>1941</ele>
        <time>2013-06-22T05:58:16Z</time>
      </trkpt>
      <trkpt lat="42.95884" lon="-0.74156">
        <ele>1941</ele>
        <time>2013-06-22T05:58:18Z</time>
      </trkpt>
      <trkpt lat="42.95883" lon="-0.74155">
        <ele>1941</ele>
        <time>2013-06-22T05:58:20Z</time>
      </trkpt>
      <trkpt lat="42.95882" lon="-0.74153">
        <ele>1941</ele>
        <time>2013-06-22T05:58:22Z</time>
      </trkpt>
      <trkpt lat="42.95881" lon="-0.74152">
        <ele>1941</ele>
        <time>2013-06-22T05:58:24Z</time>
      </trkpt>
      <trkpt lat="42.95879" lon="-0.7415">
        <ele>1941</ele>
        <time>2013-06-22T05:58:26Z</time>
      </trkpt>
      <trkpt lat="42.95878" lon="-0.74148">
        <ele>1941</ele>
        <time>2013-06-22T05:58:28Z</time>
      </trkpt>
      <trkpt lat="42.95877" lon="-0.74147">
        <ele>1942</ele>
        <time>2013-06-22T05:58:30Z</time>
      </trkpt>
      <trkpt lat="42.95876" lon="-0.74145">
        <ele>1942</ele>
        <time>2013-06-22T05:58:32Z</time>
      </trkpt>
      <trkpt lat="42.95876" lon="-0.74143">
        <ele>1943</ele>
        <time>2013-06-22T05:58:34Z</time>
      </trkpt>
      <trkpt lat="42.95874" lon="-0.74142">
        <ele>1943</ele>
        <time>2013-06-22T05:58:36Z</time>
      </trkpt>
      <trkpt lat="42.95874" lon="-0.74141">
        <ele>1943</ele>
        <time>2013-06-22T05:58:38Z</time>
      </trkpt>
      <trkpt lat="42.95873" lon="-0.74139">
        <ele>1944</ele>
        <time>2013-06-22T05:58:40Z</time>
      </trkpt>
      <trkpt lat="42.95872" lon="-0.74138">
        <ele>1944</ele>
        <time>2013-06-22T05:58:42Z</time>
      </trkpt>
      <trkpt lat="42.95871" lon="-0.74136">
        <ele>1945</ele>
        <time>2013-06-22T05:58:44Z</time>
      </trkpt>
      <trkpt lat="42.95871" lon="-0.74134">
        <ele>1945</ele>
        <time>2013-06-22T05:58:46Z</time>
      </trkpt>
      <trkpt lat="42.95869" lon="-0.74133">
        <ele>1945</ele>
        <time>2013-06-22T05:58:48Z</time>
      </trkpt>
      <trkpt lat="42.95869" lon="-0.74131">
        <ele>1945</ele>
        <time>2013-06-22T05:58:50Z</time>
      </trkpt>
      <trkpt lat="42.95868" lon="-0.7413">
        <ele>1946</ele>
        <time>2013-06-22T05:58:52Z</time>
      </trkpt>
      <trkpt lat="42.95867" lon="-0.74128">
        <ele>1946</ele>
        <time>2013-06-22T05:58:54Z</time>
      </trkpt>
      <trkpt lat="42.95866" lon="-0.74126">
        <ele>1947</ele>
        <time>2013-06-22T05:58:56Z</time>
      </trkpt>
      <trkpt lat="42.95866" lon="-0.74124">
        <ele>1947</ele>
        <time>2013-06-22T05:58:58Z</time>
      </trkpt>
      <trkpt lat="42.95865" lon="-0.74123">
        <ele>1947</ele>
        <time>2013-06-22T05:59:00Z</time>
      </trkpt>
      <trkpt lat="42.95864" lon="-0.74121">
        <ele>1948</ele>
        <time>2013-06-22T05:59:02Z</time>
      </trkpt>
      <trkpt lat="42.95863" lon="-0.7412">
        <ele>1948</ele>
        <time>2013-06-22T05:59:04Z</time>
      </trkpt>
      <trkpt lat="42.95862" lon="-0.74118">
        <ele>1948</ele>
        <time>2013-06-22T05:59:06Z</time>
      </trkpt>
      <trkpt lat="42.95861" lon="-0.74116">
        <ele>1949</ele>
        <time>2013-06-22T05:59:11Z</time>
      </trkpt>
      <trkpt lat="42.95861" lon="-0.74115">
        <ele>1949</ele>
        <time>2013-06-22T05:59:14Z</time>
      </trkpt>
      <trkpt lat="42.95861" lon="-0.74112">
        <ele>1949</ele>
        <time>2013-06-22T05:59:16Z</time>
      </trkpt>
      <trkpt lat="42.9586" lon="-0.7411">
        <ele>1949</ele>
        <time>2013-06-22T05:59:18Z</time>
      </trkpt>
      <trkpt lat="42.9586" lon="-0.74109">
        <ele>1949</ele>
        <time>2013-06-22T05:59:19Z</time>
      </trkpt>
      <trkpt lat="42.9586" lon="-0.74107">
        <ele>1949</ele>
        <time>2013-06-22T05:59:21Z</time>
      </trkpt>
      <trkpt lat="42.95859" lon="-0.74105">
        <ele>1949</ele>
        <time>2013-06-22T05:59:23Z</time>
      </trkpt>
      <trkpt lat="42.95859" lon="-0.74102">
        <ele>1949</ele>
        <time>2013-06-22T05:59:25Z</time>
      </trkpt>
      <trkpt lat="42.95858" lon="-0.741">
        <ele>1949</ele>
        <time>2013-06-22T05:59:27Z</time>
      </trkpt>
      <trkpt lat="42.95858" lon="-0.74098">
        <ele>1950</ele>
        <time>2013-06-22T05:59:29Z</time>
      </trkpt>
      <trkpt lat="42.95858" lon="-0.74097">
        <ele>1950</ele>
        <time>2013-06-22T05:59:31Z</time>
      </trkpt>
      <trkpt lat="42.95856" lon="-0.74095">
        <ele>1950</ele>
        <time>2013-06-22T05:59:33Z</time>
      </trkpt>
      <trkpt lat="42.95856" lon="-0.74093">
        <ele>1950</ele>
        <time>2013-06-22T05:59:35Z</time>
      </trkpt>
      <trkpt lat="42.95855" lon="-0.7409">
        <ele>1951</ele>
        <time>2013-06-22T05:59:37Z</time>
      </trkpt>
      <trkpt lat="42.95855" lon="-0.74088">
        <ele>1951</ele>
        <time>2013-06-22T05:59:39Z</time>
      </trkpt>
      <trkpt lat="42.95854" lon="-0.74086">
        <ele>1951</ele>
        <time>2013-06-22T05:59:41Z</time>
      </trkpt>
      <trkpt lat="42.95853" lon="-0.74084">
        <ele>1951</ele>
        <time>2013-06-22T05:59:43Z</time>
      </trkpt>
      <trkpt lat="42.95853" lon="-0.74082">
        <ele>1952</ele>
        <time>2013-06-22T05:59:45Z</time>
      </trkpt>
      <trkpt lat="42.95852" lon="-0.7408">
        <ele>1952</ele>
        <time>2013-06-22T05:59:47Z</time>
      </trkpt>
      <trkpt lat="42.95851" lon="-0.74079">
        <ele>1952</ele>
        <time>2013-06-22T05:59:49Z</time>
      </trkpt>
      <trkpt lat="42.9585" lon="-0.74076">
        <ele>1953</ele>
        <time>2013-06-22T05:59:51Z</time>
      </trkpt>
      <trkpt lat="42.95849" lon="-0.74075">
        <ele>1953</ele>
        <time>2013-06-22T05:59:53Z</time>
      </trkpt>
      <trkpt lat="42.95848" lon="-0.74073">
        <ele>1953</ele>
        <time>2013-06-22T05:59:55Z</time>
      </trkpt>
      <trkpt lat="42.95847" lon="-0.74072">
        <ele>1953</ele>
        <time>2013-06-22T05:59:57Z</time>
      </trkpt>
      <trkpt lat="42.95846" lon="-0.7407">
        <ele>1953</ele>
        <time>2013-06-22T05:59:59Z</time>
      </trkpt>
      <trkpt lat="42.95845" lon="-0.74068">
        <ele>1953</ele>
        <time>2013-06-22T06:00:01Z</time>
      </trkpt>
      <trkpt lat="42.95844" lon="-0.74066">
        <ele>1953</ele>
        <time>2013-06-22T06:00:03Z</time>
      </trkpt>
      <trkpt lat="42.95842" lon="-0.74065">
        <ele>1953</ele>
        <time>2013-06-22T06:00:05Z</time>
      </trkpt>
      <trkpt lat="42.95841" lon="-0.74064">
        <ele>1953</ele>
        <time>2013-06-22T06:00:07Z</time>
      </trkpt>
      <trkpt lat="42.95839" lon="-0.74064">
        <ele>1953</ele>
        <time>2013-06-22T06:00:09Z</time>
      </trkpt>
      <trkpt lat="42.95838" lon="-0.74063">
        <ele>1953</ele>
        <time>2013-06-22T06:00:11Z</time>
      </trkpt>
      <trkpt lat="42.95836" lon="-0.74063">
        <ele>1954</ele>
        <time>2013-06-22T06:00:13Z</time>
      </trkpt>
      <trkpt lat="42.95834" lon="-0.74063">
        <ele>1954</ele>
        <time>2013-06-22T06:00:15Z</time>
      </trkpt>
      <trkpt lat="42.95833" lon="-0.74063">
        <ele>1955</ele>
        <time>2013-06-22T06:00:17Z</time>
      </trkpt>
      <trkpt lat="42.95831" lon="-0.74062">
        <ele>1955</ele>
        <time>2013-06-22T06:00:19Z</time>
      </trkpt>
      <trkpt lat="42.9583" lon="-0.74062">
        <ele>1956</ele>
        <time>2013-06-22T06:00:21Z</time>
      </trkpt>
      <trkpt lat="42.95828" lon="-0.74062">
        <ele>1956</ele>
        <time>2013-06-22T06:00:23Z</time>
      </trkpt>
      <trkpt lat="42.95827" lon="-0.74061">
        <ele>1956</ele>
        <time>2013-06-22T06:00:25Z</time>
      </trkpt>
      <trkpt lat="42.95826" lon="-0.7406">
        <ele>1957</ele>
        <time>2013-06-22T06:00:27Z</time>
      </trkpt>
      <trkpt lat="42.95824" lon="-0.74058">
        <ele>1957</ele>
        <time>2013-06-22T06:00:30Z</time>
      </trkpt>
      <trkpt lat="42.95823" lon="-0.74056">
        <ele>1957</ele>
        <time>2013-06-22T06:00:33Z</time>
      </trkpt>
      <trkpt lat="42.95823" lon="-0.74055">
        <ele>1958</ele>
        <time>2013-06-22T06:00:35Z</time>
      </trkpt>
      <trkpt lat="42.95822" lon="-0.74053">
        <ele>1958</ele>
        <time>2013-06-22T06:00:37Z</time>
      </trkpt>
      <trkpt lat="42.95821" lon="-0.74052">
        <ele>1958</ele>
        <time>2013-06-22T06:00:39Z</time>
      </trkpt>
      <trkpt lat="42.9582" lon="-0.7405">
        <ele>1958</ele>
        <time>2013-06-22T06:00:41Z</time>
      </trkpt>
      <trkpt lat="42.95819" lon="-0.74049">
        <ele>1959</ele>
        <time>2013-06-22T06:00:43Z</time>
      </trkpt>
      <trkpt lat="42.95818" lon="-0.74047">
        <ele>1959</ele>
        <time>2013-06-22T06:00:45Z</time>
      </trkpt>
      <trkpt lat="42.95817" lon="-0.74046">
        <ele>1959</ele>
        <time>2013-06-22T06:00:47Z</time>
      </trkpt>
      <trkpt lat="42.95816" lon="-0.74044">
        <ele>1960</ele>
        <time>2013-06-22T06:00:50Z</time>
      </trkpt>
      <trkpt lat="42.95815" lon="-0.74042">
        <ele>1960</ele>
        <time>2013-06-22T06:00:52Z</time>
      </trkpt>
      <trkpt lat="42.95814" lon="-0.74041">
        <ele>1960</ele>
        <time>2013-06-22T06:00:54Z</time>
      </trkpt>
      <trkpt lat="42.95813" lon="-0.74039">
        <ele>1960</ele>
        <time>2013-06-22T06:00:56Z</time>
      </trkpt>
      <trkpt lat="42.95812" lon="-0.74037">
        <ele>1960</ele>
        <time>2013-06-22T06:00:58Z</time>
      </trkpt>
      <trkpt lat="42.95811" lon="-0.74036">
        <ele>1961</ele>
        <time>2013-06-22T06:01:00Z</time>
      </trkpt>
      <trkpt lat="42.95811" lon="-0.74034">
        <ele>1961</ele>
        <time>2013-06-22T06:01:02Z</time>
      </trkpt>
      <trkpt lat="42.9581" lon="-0.74032">
        <ele>1961</ele>
        <time>2013-06-22T06:01:04Z</time>
      </trkpt>
      <trkpt lat="42.95809" lon="-0.74031">
        <ele>1961</ele>
        <time>2013-06-22T06:01:06Z</time>
      </trkpt>
      <trkpt lat="42.95808" lon="-0.74029">
        <ele>1961</ele>
        <time>2013-06-22T06:01:08Z</time>
      </trkpt>
      <trkpt lat="42.95807" lon="-0.74028">
        <ele>1962</ele>
        <time>2013-06-22T06:01:10Z</time>
      </trkpt>
      <trkpt lat="42.95805" lon="-0.74026">
        <ele>1962</ele>
        <time>2013-06-22T06:01:12Z</time>
      </trkpt>
      <trkpt lat="42.95804" lon="-0.74025">
        <ele>1962</ele>
        <time>2013-06-22T06:01:14Z</time>
      </trkpt>
      <trkpt lat="42.95803" lon="-0.74023">
        <ele>1962</ele>
        <time>2013-06-22T06:01:17Z</time>
      </trkpt>
      <trkpt lat="42.95802" lon="-0.74022">
        <ele>1963</ele>
        <time>2013-06-22T06:01:19Z</time>
      </trkpt>
      <trkpt lat="42.958" lon="-0.7402">
        <ele>1963</ele>
        <time>2013-06-22T06:01:21Z</time>
      </trkpt>
      <trkpt lat="42.95799" lon="-0.74019">
        <ele>1963</ele>
        <time>2013-06-22T06:01:24Z</time>
      </trkpt>
      <trkpt lat="42.95797" lon="-0.74017">
        <ele>1963</ele>
        <time>2013-06-22T06:01:26Z</time>
      </trkpt>
      <trkpt lat="42.95796" lon="-0.74016">
        <ele>1964</ele>
        <time>2013-06-22T06:01:28Z</time>
      </trkpt>
      <trkpt lat="42.95794" lon="-0.74015">
        <ele>1964</ele>
        <time>2013-06-22T06:01:30Z</time>
      </trkpt>
      <trkpt lat="42.95793" lon="-0.74014">
        <ele>1964</ele>
        <time>2013-06-22T06:01:32Z</time>
      </trkpt>
      <trkpt lat="42.95791" lon="-0.74014">
        <ele>1964</ele>
        <time>2013-06-22T06:01:34Z</time>
      </trkpt>
      <trkpt lat="42.95789" lon="-0.74013">
        <ele>1965</ele>
        <time>2013-06-22T06:01:36Z</time>
      </trkpt>
      <trkpt lat="42.95788" lon="-0.74012">
        <ele>1965</ele>
        <time>2013-06-22T06:01:38Z</time>
      </trkpt>
      <trkpt lat="42.95786" lon="-0.74011">
        <ele>1965</ele>
        <time>2013-06-22T06:01:40Z</time>
      </trkpt>
      <trkpt lat="42.95784" lon="-0.7401">
        <ele>1965</ele>
        <time>2013-06-22T06:01:42Z</time>
      </trkpt>
      <trkpt lat="42.95782" lon="-0.7401">
        <ele>1965</ele>
        <time>2013-06-22T06:01:44Z</time>
      </trkpt>
      <trkpt lat="42.95781" lon="-0.74009">
        <ele>1965</ele>
        <time>2013-06-22T06:01:46Z</time>
      </trkpt>
      <trkpt lat="42.9578" lon="-0.74007">
        <ele>1965</ele>
        <time>2013-06-22T06:01:48Z</time>
      </trkpt>
      <trkpt lat="42.95778" lon="-0.74007">
        <ele>1966</ele>
        <time>2013-06-22T06:01:50Z</time>
      </trkpt>
      <trkpt lat="42.95777" lon="-0.74006">
        <ele>1966</ele>
        <time>2013-06-22T06:01:52Z</time>
      </trkpt>
      <trkpt lat="42.95776" lon="-0.74005">
        <ele>1966</ele>
        <time>2013-06-22T06:01:54Z</time>
      </trkpt>
      <trkpt lat="42.95774" lon="-0.74004">
        <ele>1967</ele>
        <time>2013-06-22T06:01:57Z</time>
      </trkpt>
      <trkpt lat="42.95773" lon="-0.74003">
        <ele>1967</ele>
        <time>2013-06-22T06:01:59Z</time>
      </trkpt>
      <trkpt lat="42.95771" lon="-0.74003">
        <ele>1967</ele>
        <time>2013-06-22T06:02:02Z</time>
      </trkpt>
      <trkpt lat="42.9577" lon="-0.74002">
        <ele>1968</ele>
        <time>2013-06-22T06:02:04Z</time>
      </trkpt>
      <trkpt lat="42.95769" lon="-0.74001">
        <ele>1968</ele>
        <time>2013-06-22T06:02:06Z</time>
      </trkpt>
      <trkpt lat="42.95767" lon="-0.74001">
        <ele>1968</ele>
        <time>2013-06-22T06:02:08Z</time>
      </trkpt>
      <trkpt lat="42.95766" lon="-0.74">
        <ele>1969</ele>
        <time>2013-06-22T06:02:10Z</time>
      </trkpt>
      <trkpt lat="42.95765" lon="-0.73998">
        <ele>1969</ele>
        <time>2013-06-22T06:02:13Z</time>
      </trkpt>
      <trkpt lat="42.95764" lon="-0.73997">
        <ele>1969</ele>
        <time>2013-06-22T06:02:15Z</time>
      </trkpt>
      <trkpt lat="42.95763" lon="-0.73996">
        <ele>1970</ele>
        <time>2013-06-22T06:02:17Z</time>
      </trkpt>
      <trkpt lat="42.95761" lon="-0.73994">
        <ele>1970</ele>
        <time>2013-06-22T06:02:19Z</time>
      </trkpt>
      <trkpt lat="42.9576" lon="-0.73993">
        <ele>1970</ele>
        <time>2013-06-22T06:02:21Z</time>
      </trkpt>
      <trkpt lat="42.9576" lon="-0.73992">
        <ele>1971</ele>
        <time>2013-06-22T06:02:23Z</time>
      </trkpt>
      <trkpt lat="42.95758" lon="-0.7399">
        <ele>1971</ele>
        <time>2013-06-22T06:02:26Z</time>
      </trkpt>
      <trkpt lat="42.95757" lon="-0.73988">
        <ele>1971</ele>
        <time>2013-06-22T06:02:28Z</time>
      </trkpt>
      <trkpt lat="42.95756" lon="-0.73987">
        <ele>1971</ele>
        <time>2013-06-22T06:02:30Z</time>
      </trkpt>
      <trkpt lat="42.95755" lon="-0.73986">
        <ele>1971</ele>
        <time>2013-06-22T06:02:32Z</time>
      </trkpt>
      <trkpt lat="42.95754" lon="-0.73985">
        <ele>1971</ele>
        <time>2013-06-22T06:02:34Z</time>
      </trkpt>
      <trkpt lat="42.95752" lon="-0.73984">
        <ele>1971</ele>
        <time>2013-06-22T06:02:36Z</time>
      </trkpt>
      <trkpt lat="42.95751" lon="-0.73983">
        <ele>1972</ele>
        <time>2013-06-22T06:02:39Z</time>
      </trkpt>
      <trkpt lat="42.9575" lon="-0.73982">
        <ele>1973</ele>
        <time>2013-06-22T06:02:41Z</time>
      </trkpt>
      <trkpt lat="42.95749" lon="-0.73981">
        <ele>1973</ele>
        <time>2013-06-22T06:02:43Z</time>
      </trkpt>
      <trkpt lat="42.95747" lon="-0.7398">
        <ele>1973</ele>
        <time>2013-06-22T06:02:45Z</time>
      </trkpt>
      <trkpt lat="42.95746" lon="-0.73978">
        <ele>1974</ele>
        <time>2013-06-22T06:02:48Z</time>
      </trkpt>
      <trkpt lat="42.95746" lon="-0.73976">
        <ele>1974</ele>
        <time>2013-06-22T06:02:50Z</time>
      </trkpt>
      <trkpt lat="42.95746" lon="-0.73974">
        <ele>1974</ele>
        <time>2013-06-22T06:02:52Z</time>
      </trkpt>
      <trkpt lat="42.95747" lon="-0.73972">
        <ele>1974</ele>
        <time>2013-06-22T06:02:54Z</time>
      </trkpt>
      <trkpt lat="42.95747" lon="-0.7397">
        <ele>1975</ele>
        <time>2013-06-22T06:02:56Z</time>
      </trkpt>
      <trkpt lat="42.95747" lon="-0.73967">
        <ele>1975</ele>
        <time>2013-06-22T06:02:58Z</time>
      </trkpt>
      <trkpt lat="42.95747" lon="-0.73966">
        <ele>1975</ele>
        <time>2013-06-22T06:03:00Z</time>
      </trkpt>
      <trkpt lat="42.95746" lon="-0.73964">
        <ele>1975</ele>
        <time>2013-06-22T06:03:02Z</time>
      </trkpt>
      <trkpt lat="42.95746" lon="-0.73962">
        <ele>1975</ele>
        <time>2013-06-22T06:03:04Z</time>
      </trkpt>
      <trkpt lat="42.95745" lon="-0.7396">
        <ele>1975</ele>
        <time>2013-06-22T06:03:06Z</time>
      </trkpt>
      <trkpt lat="42.95744" lon="-0.73958">
        <ele>1975</ele>
        <time>2013-06-22T06:03:08Z</time>
      </trkpt>
      <trkpt lat="42.95744" lon="-0.73957">
        <ele>1976</ele>
        <time>2013-06-22T06:03:10Z</time>
      </trkpt>
      <trkpt lat="42.95743" lon="-0.73955">
        <ele>1976</ele>
        <time>2013-06-22T06:03:12Z</time>
      </trkpt>
      <trkpt lat="42.95742" lon="-0.73953">
        <ele>1977</ele>
        <time>2013-06-22T06:03:14Z</time>
      </trkpt>
      <trkpt lat="42.95741" lon="-0.73951">
        <ele>1977</ele>
        <time>2013-06-22T06:03:16Z</time>
      </trkpt>
      <trkpt lat="42.95741" lon="-0.73949">
        <ele>1977</ele>
        <time>2013-06-22T06:03:18Z</time>
      </trkpt>
      <trkpt lat="42.9574" lon="-0.73948">
        <ele>1977</ele>
        <time>2013-06-22T06:03:20Z</time>
      </trkpt>
      <trkpt lat="42.95739" lon="-0.73946">
        <ele>1978</ele>
        <time>2013-06-22T06:03:22Z</time>
      </trkpt>
      <trkpt lat="42.95739" lon="-0.73944">
        <ele>1978</ele>
        <time>2013-06-22T06:03:24Z</time>
      </trkpt>
      <trkpt lat="42.95738" lon="-0.73942">
        <ele>1978</ele>
        <time>2013-06-22T06:03:26Z</time>
      </trkpt>
      <trkpt lat="42.95737" lon="-0.7394">
        <ele>1978</ele>
        <time>2013-06-22T06:03:28Z</time>
      </trkpt>
      <trkpt lat="42.95736" lon="-0.73938">
        <ele>1979</ele>
        <time>2013-06-22T06:03:31Z</time>
      </trkpt>
      <trkpt lat="42.95736" lon="-0.73937">
        <ele>1979</ele>
        <time>2013-06-22T06:03:33Z</time>
      </trkpt>
      <trkpt lat="42.95735" lon="-0.73935">
        <ele>1980</ele>
        <time>2013-06-22T06:03:35Z</time>
      </trkpt>
      <trkpt lat="42.95734" lon="-0.73934">
        <ele>1980</ele>
        <time>2013-06-22T06:03:37Z</time>
      </trkpt>
      <trkpt lat="42.95734" lon="-0.73932">
        <ele>1980</ele>
        <time>2013-06-22T06:03:39Z</time>
      </trkpt>
      <trkpt lat="42.95733" lon="-0.73931">
        <ele>1981</ele>
        <time>2013-06-22T06:03:41Z</time>
      </trkpt>
      <trkpt lat="42.95731" lon="-0.73929">
        <ele>1981</ele>
        <time>2013-06-22T06:03:43Z</time>
      </trkpt>
      <trkpt lat="42.95731" lon="-0.73927">
        <ele>1981</ele>
        <time>2013-06-22T06:03:45Z</time>
      </trkpt>
      <trkpt lat="42.9573" lon="-0.73925">
        <ele>1981</ele>
        <time>2013-06-22T06:03:47Z</time>
      </trkpt>
      <trkpt lat="42.95729" lon="-0.73923">
        <ele>1982</ele>
        <time>2013-06-22T06:03:49Z</time>
      </trkpt>
      <trkpt lat="42.95728" lon="-0.73922">
        <ele>1982</ele>
        <time>2013-06-22T06:03:51Z</time>
      </trkpt>
      <trkpt lat="42.95728" lon="-0.73919">
        <ele>1982</ele>
        <time>2013-06-22T06:03:53Z</time>
      </trkpt>
      <trkpt lat="42.95727" lon="-0.73918">
        <ele>1982</ele>
        <time>2013-06-22T06:03:55Z</time>
      </trkpt>
      <trkpt lat="42.95726" lon="-0.73915">
        <ele>1982</ele>
        <time>2013-06-22T06:03:57Z</time>
      </trkpt>
      <trkpt lat="42.95726" lon="-0.73913">
        <ele>1982</ele>
        <time>2013-06-22T06:03:59Z</time>
      </trkpt>
      <trkpt lat="42.95726" lon="-0.7391">
        <ele>1982</ele>
        <time>2013-06-22T06:04:01Z</time>
      </trkpt>
      <trkpt lat="42.95725" lon="-0.73909">
        <ele>1982</ele>
        <time>2013-06-22T06:04:02Z</time>
      </trkpt>
      <trkpt lat="42.95725" lon="-0.73907">
        <ele>1982</ele>
        <time>2013-06-22T06:04:03Z</time>
      </trkpt>
      <trkpt lat="42.95725" lon="-0.73904">
        <ele>1982</ele>
        <time>2013-06-22T06:04:04Z</time>
      </trkpt>
      <trkpt lat="42.95724" lon="-0.73901">
        <ele>1982</ele>
        <time>2013-06-22T06:04:05Z</time>
      </trkpt>
      <trkpt lat="42.95724" lon="-0.73899">
        <ele>1982</ele>
        <time>2013-06-22T06:04:06Z</time>
      </trkpt>
      <trkpt lat="42.95724" lon="-0.73897">
        <ele>1982</ele>
        <time>2013-06-22T06:04:07Z</time>
      </trkpt>
      <trkpt lat="42.95724" lon="-0.73895">
        <ele>1982</ele>
        <time>2013-06-22T06:04:09Z</time>
      </trkpt>
      <trkpt lat="42.95723" lon="-0.73894">
        <ele>1982</ele>
        <time>2013-06-22T06:04:10Z</time>
      </trkpt>
      <trkpt lat="42.95723" lon="-0.73891">
        <ele>1982</ele>
        <time>2013-06-22T06:04:12Z</time>
      </trkpt>
      <trkpt lat="42.95723" lon="-0.7389">
        <ele>1982</ele>
        <time>2013-06-22T06:04:13Z</time>
      </trkpt>
      <trkpt lat="42.95722" lon="-0.73887">
        <ele>1982</ele>
        <time>2013-06-22T06:04:15Z</time>
      </trkpt>
      <trkpt lat="42.95721" lon="-0.73885">
        <ele>1982</ele>
        <time>2013-06-22T06:04:17Z</time>
      </trkpt>
      <trkpt lat="42.95721" lon="-0.73884">
        <ele>1982</ele>
        <time>2013-06-22T06:04:19Z</time>
      </trkpt>
      <trkpt lat="42.95719" lon="-0.73883">
        <ele>1982</ele>
        <time>2013-06-22T06:04:21Z</time>
      </trkpt>
      <trkpt lat="42.95717" lon="-0.73885">
        <ele>1982</ele>
        <time>2013-06-22T06:04:23Z</time>
      </trkpt>
      <trkpt lat="42.95716" lon="-0.73886">
        <ele>1982</ele>
        <time>2013-06-22T06:04:24Z</time>
      </trkpt>
      <trkpt lat="42.95714" lon="-0.73887">
        <ele>1982</ele>
        <time>2013-06-22T06:04:26Z</time>
      </trkpt>
      <trkpt lat="42.95713" lon="-0.73888">
        <ele>1982</ele>
        <time>2013-06-22T06:04:28Z</time>
      </trkpt>
      <trkpt lat="42.95711" lon="-0.73889">
        <ele>1982</ele>
        <time>2013-06-22T06:04:30Z</time>
      </trkpt>
      <trkpt lat="42.9571" lon="-0.7389">
        <ele>1982</ele>
        <time>2013-06-22T06:04:32Z</time>
      </trkpt>
      <trkpt lat="42.95708" lon="-0.73891">
        <ele>1982</ele>
        <time>2013-06-22T06:04:34Z</time>
      </trkpt>
      <trkpt lat="42.95707" lon="-0.73892">
        <ele>1982</ele>
        <time>2013-06-22T06:04:35Z</time>
      </trkpt>
      <trkpt lat="42.95705" lon="-0.73892">
        <ele>1982</ele>
        <time>2013-06-22T06:04:36Z</time>
      </trkpt>
      <trkpt lat="42.95703" lon="-0.73893">
        <ele>1982</ele>
        <time>2013-06-22T06:04:37Z</time>
      </trkpt>
      <trkpt lat="42.95702" lon="-0.73894">
        <ele>1982</ele>
        <time>2013-06-22T06:04:38Z</time>
      </trkpt>
      <trkpt lat="42.957" lon="-0.73895">
        <ele>1982</ele>
        <time>2013-06-22T06:04:39Z</time>
      </trkpt>
      <trkpt lat="42.95699" lon="-0.73896">
        <ele>1982</ele>
        <time>2013-06-22T06:04:40Z</time>
      </trkpt>
      <trkpt lat="42.95697" lon="-0.73897">
        <ele>1981</ele>
        <time>2013-06-22T06:04:42Z</time>
      </trkpt>
      <trkpt lat="42.95696" lon="-0.73898">
        <ele>1980</ele>
        <time>2013-06-22T06:04:44Z</time>
      </trkpt>
      <trkpt lat="42.95694" lon="-0.739">
        <ele>1980</ele>
        <time>2013-06-22T06:04:46Z</time>
      </trkpt>
      <trkpt lat="42.95692" lon="-0.73901">
        <ele>1980</ele>
        <time>2013-06-22T06:04:48Z</time>
      </trkpt>
      <trkpt lat="42.9569" lon="-0.73902">
        <ele>1980</ele>
        <time>2013-06-22T06:04:50Z</time>
      </trkpt>
      <trkpt lat="42.95688" lon="-0.73904">
        <ele>1980</ele>
        <time>2013-06-22T06:04:52Z</time>
      </trkpt>
      <trkpt lat="42.95687" lon="-0.73905">
        <ele>1980</ele>
        <time>2013-06-22T06:04:54Z</time>
      </trkpt>
      <trkpt lat="42.95685" lon="-0.73906">
        <ele>1980</ele>
        <time>2013-06-22T06:04:56Z</time>
      </trkpt>
      <trkpt lat="42.95683" lon="-0.73908">
        <ele>1980</ele>
        <time>2013-06-22T06:04:58Z</time>
      </trkpt>
      <trkpt lat="42.95682" lon="-0.73909">
        <ele>1980</ele>
        <time>2013-06-22T06:05:00Z</time>
      </trkpt>
      <trkpt lat="42.95681" lon="-0.73909">
        <ele>1980</ele>
        <time>2013-06-22T06:05:01Z</time>
      </trkpt>
      <trkpt lat="42.9568" lon="-0.73907">
        <ele>1980</ele>
        <time>2013-06-22T06:05:03Z</time>
      </trkpt>
      <trkpt lat="42.95679" lon="-0.73905">
        <ele>1980</ele>
        <time>2013-06-22T06:05:05Z</time>
      </trkpt>
      <trkpt lat="42.95678" lon="-0.73904">
        <ele>1980</ele>
        <time>2013-06-22T06:05:07Z</time>
      </trkpt>
      <trkpt lat="42.95678" lon="-0.73902">
        <ele>1980</ele>
        <time>2013-06-22T06:05:09Z</time>
      </trkpt>
      <trkpt lat="42.95677" lon="-0.739">
        <ele>1980</ele>
        <time>2013-06-22T06:05:11Z</time>
      </trkpt>
      <trkpt lat="42.95676" lon="-0.73898">
        <ele>1980</ele>
        <time>2013-06-22T06:05:13Z</time>
      </trkpt>
      <trkpt lat="42.95675" lon="-0.73896">
        <ele>1980</ele>
        <time>2013-06-22T06:05:15Z</time>
      </trkpt>
      <trkpt lat="42.95675" lon="-0.73894">
        <ele>1980</ele>
        <time>2013-06-22T06:05:17Z</time>
      </trkpt>
      <trkpt lat="42.95674" lon="-0.73893">
        <ele>1980</ele>
        <time>2013-06-22T06:05:19Z</time>
      </trkpt>
      <trkpt lat="42.95673" lon="-0.73891">
        <ele>1980</ele>
        <time>2013-06-22T06:05:21Z</time>
      </trkpt>
      <trkpt lat="42.95673" lon="-0.73889">
        <ele>1980</ele>
        <time>2013-06-22T06:05:23Z</time>
      </trkpt>
      <trkpt lat="42.95672" lon="-0.73888">
        <ele>1980</ele>
        <time>2013-06-22T06:05:25Z</time>
      </trkpt>
      <trkpt lat="42.95671" lon="-0.73886">
        <ele>1980</ele>
        <time>2013-06-22T06:05:27Z</time>
      </trkpt>
      <trkpt lat="42.9567" lon="-0.73885">
        <ele>1980</ele>
        <time>2013-06-22T06:05:29Z</time>
      </trkpt>
      <trkpt lat="42.95669" lon="-0.73883">
        <ele>1981</ele>
        <time>2013-06-22T06:05:32Z</time>
      </trkpt>
      <trkpt lat="42.95668" lon="-0.73882">
        <ele>1981</ele>
        <time>2013-06-22T06:05:34Z</time>
      </trkpt>
      <trkpt lat="42.95668" lon="-0.7388">
        <ele>1981</ele>
        <time>2013-06-22T06:05:36Z</time>
      </trkpt>
      <trkpt lat="42.95667" lon="-0.73878">
        <ele>1981</ele>
        <time>2013-06-22T06:05:38Z</time>
      </trkpt>
      <trkpt lat="42.95666" lon="-0.73877">
        <ele>1981</ele>
        <time>2013-06-22T06:05:40Z</time>
      </trkpt>
      <trkpt lat="42.95665" lon="-0.73875">
        <ele>1981</ele>
        <time>2013-06-22T06:05:42Z</time>
      </trkpt>
      <trkpt lat="42.95664" lon="-0.73874">
        <ele>1981</ele>
        <time>2013-06-22T06:05:44Z</time>
      </trkpt>
      <trkpt lat="42.95664" lon="-0.73872">
        <ele>1982</ele>
        <time>2013-06-22T06:05:46Z</time>
      </trkpt>
      <trkpt lat="42.95663" lon="-0.7387">
        <ele>1982</ele>
        <time>2013-06-22T06:05:48Z</time>
      </trkpt>
      <trkpt lat="42.95662" lon="-0.73868">
        <ele>1982</ele>
        <time>2013-06-22T06:05:50Z</time>
      </trkpt>
      <trkpt lat="42.95661" lon="-0.73867">
        <ele>1982</ele>
        <time>2013-06-22T06:05:52Z</time>
      </trkpt>
      <trkpt lat="42.95661" lon="-0.73865">
        <ele>1982</ele>
        <time>2013-06-22T06:05:54Z</time>
      </trkpt>
      <trkpt lat="42.9566" lon="-0.73863">
        <ele>1983</ele>
        <time>2013-06-22T06:05:56Z</time>
      </trkpt>
      <trkpt lat="42.95659" lon="-0.73861">
        <ele>1983</ele>
        <time>2013-06-22T06:05:58Z</time>
      </trkpt>
      <trkpt lat="42.95658" lon="-0.7386">
        <ele>1983</ele>
        <time>2013-06-22T06:06:00Z</time>
      </trkpt>
      <trkpt lat="42.95657" lon="-0.73857">
        <ele>1984</ele>
        <time>2013-06-22T06:06:02Z</time>
      </trkpt>
      <trkpt lat="42.95657" lon="-0.73856">
        <ele>1984</ele>
        <time>2013-06-22T06:06:04Z</time>
      </trkpt>
      <trkpt lat="42.95656" lon="-0.73854">
        <ele>1984</ele>
        <time>2013-06-22T06:06:06Z</time>
      </trkpt>
      <trkpt lat="42.95654" lon="-0.73852">
        <ele>1984</ele>
        <time>2013-06-22T06:06:09Z</time>
      </trkpt>
      <trkpt lat="42.95653" lon="-0.73853">
        <ele>1985</ele>
        <time>2013-06-22T06:06:11Z</time>
      </trkpt>
      <trkpt lat="42.95652" lon="-0.73854">
        <ele>1985</ele>
        <time>2013-06-22T06:06:13Z</time>
      </trkpt>
      <trkpt lat="42.95651" lon="-0.73855">
        <ele>1986</ele>
        <time>2013-06-22T06:06:15Z</time>
      </trkpt>
      <trkpt lat="42.95649" lon="-0.73857">
        <ele>1986</ele>
        <time>2013-06-22T06:06:18Z</time>
      </trkpt>
      <trkpt lat="42.95648" lon="-0.73857">
        <ele>1986</ele>
        <time>2013-06-22T06:06:20Z</time>
      </trkpt>
      <trkpt lat="42.95647" lon="-0.73857">
        <ele>1987</ele>
        <time>2013-06-22T06:06:22Z</time>
      </trkpt>
      <trkpt lat="42.95646" lon="-0.73856">
        <ele>1987</ele>
        <time>2013-06-22T06:06:24Z</time>
      </trkpt>
      <trkpt lat="42.95644" lon="-0.73855">
        <ele>1987</ele>
        <time>2013-06-22T06:06:26Z</time>
      </trkpt>
      <trkpt lat="42.95643" lon="-0.73854">
        <ele>1987</ele>
        <time>2013-06-22T06:06:28Z</time>
      </trkpt>
      <trkpt lat="42.95641" lon="-0.73854">
        <ele>1988</ele>
        <time>2013-06-22T06:06:30Z</time>
      </trkpt>
      <trkpt lat="42.9564" lon="-0.73853">
        <ele>1988</ele>
        <time>2013-06-22T06:06:32Z</time>
      </trkpt>
      <trkpt lat="42.95638" lon="-0.73853">
        <ele>1988</ele>
        <time>2013-06-22T06:06:34Z</time>
      </trkpt>
      <trkpt lat="42.95637" lon="-0.73853">
        <ele>1989</ele>
        <time>2013-06-22T06:06:36Z</time>
      </trkpt>
      <trkpt lat="42.95635" lon="-0.73852">
        <ele>1989</ele>
        <time>2013-06-22T06:06:38Z</time>
      </trkpt>
      <trkpt lat="42.95634" lon="-0.73852">
        <ele>1990</ele>
        <time>2013-06-22T06:06:42Z</time>
      </trkpt>
      <trkpt lat="42.95632" lon="-0.73851">
        <ele>1990</ele>
        <time>2013-06-22T06:06:45Z</time>
      </trkpt>
      <trkpt lat="42.95631" lon="-0.73849">
        <ele>1990</ele>
        <time>2013-06-22T06:06:47Z</time>
      </trkpt>
      <trkpt lat="42.95629" lon="-0.73848">
        <ele>1990</ele>
        <time>2013-06-22T06:06:49Z</time>
      </trkpt>
      <trkpt lat="42.95628" lon="-0.73846">
        <ele>1990</ele>
        <time>2013-06-22T06:06:51Z</time>
      </trkpt>
      <trkpt lat="42.95627" lon="-0.73844">
        <ele>1990</ele>
        <time>2013-06-22T06:06:53Z</time>
      </trkpt>
      <trkpt lat="42.95627" lon="-0.73842">
        <ele>1990</ele>
        <time>2013-06-22T06:06:55Z</time>
      </trkpt>
      <trkpt lat="42.95626" lon="-0.7384">
        <ele>1990</ele>
        <time>2013-06-22T06:06:57Z</time>
      </trkpt>
      <trkpt lat="42.95625" lon="-0.73838">
        <ele>1990</ele>
        <time>2013-06-22T06:06:59Z</time>
      </trkpt>
      <trkpt lat="42.95625" lon="-0.73836">
        <ele>1990</ele>
        <time>2013-06-22T06:07:00Z</time>
      </trkpt>
      <trkpt lat="42.95624" lon="-0.73834">
        <ele>1990</ele>
        <time>2013-06-22T06:07:02Z</time>
      </trkpt>
      <trkpt lat="42.95623" lon="-0.73832">
        <ele>1990</ele>
        <time>2013-06-22T06:07:04Z</time>
      </trkpt>
      <trkpt lat="42.95622" lon="-0.73829">
        <ele>1990</ele>
        <time>2013-06-22T06:07:06Z</time>
      </trkpt>
      <trkpt lat="42.95621" lon="-0.73827">
        <ele>1990</ele>
        <time>2013-06-22T06:07:08Z</time>
      </trkpt>
      <trkpt lat="42.9562" lon="-0.73825">
        <ele>1990</ele>
        <time>2013-06-22T06:07:10Z</time>
      </trkpt>
      <trkpt lat="42.95618" lon="-0.73824">
        <ele>1990</ele>
        <time>2013-06-22T06:07:12Z</time>
      </trkpt>
      <trkpt lat="42.95617" lon="-0.73822">
        <ele>1990</ele>
        <time>2013-06-22T06:07:14Z</time>
      </trkpt>
      <trkpt lat="42.95615" lon="-0.73821">
        <ele>1990</ele>
        <time>2013-06-22T06:07:16Z</time>
      </trkpt>
      <trkpt lat="42.95614" lon="-0.73819">
        <ele>1990</ele>
        <time>2013-06-22T06:07:18Z</time>
      </trkpt>
      <trkpt lat="42.95612" lon="-0.73817">
        <ele>1991</ele>
        <time>2013-06-22T06:07:20Z</time>
      </trkpt>
      <trkpt lat="42.95611" lon="-0.73815">
        <ele>1991</ele>
        <time>2013-06-22T06:07:22Z</time>
      </trkpt>
      <trkpt lat="42.95609" lon="-0.73814">
        <ele>1991</ele>
        <time>2013-06-22T06:07:24Z</time>
      </trkpt>
      <trkpt lat="42.95608" lon="-0.73813">
        <ele>1992</ele>
        <time>2013-06-22T06:07:26Z</time>
      </trkpt>
      <trkpt lat="42.95606" lon="-0.73812">
        <ele>1992</ele>
        <time>2013-06-22T06:07:28Z</time>
      </trkpt>
      <trkpt lat="42.95605" lon="-0.7381">
        <ele>1992</ele>
        <time>2013-06-22T06:07:30Z</time>
      </trkpt>
      <trkpt lat="42.95603" lon="-0.73808">
        <ele>1992</ele>
        <time>2013-06-22T06:07:32Z</time>
      </trkpt>
      <trkpt lat="42.95602" lon="-0.73808">
        <ele>1992</ele>
        <time>2013-06-22T06:07:34Z</time>
      </trkpt>
      <trkpt lat="42.95601" lon="-0.73806">
        <ele>1992</ele>
        <time>2013-06-22T06:07:36Z</time>
      </trkpt>
      <trkpt lat="42.95599" lon="-0.73805">
        <ele>1992</ele>
        <time>2013-06-22T06:07:38Z</time>
      </trkpt>
      <trkpt lat="42.95597" lon="-0.73804">
        <ele>1992</ele>
        <time>2013-06-22T06:07:40Z</time>
      </trkpt>
      <trkpt lat="42.95596" lon="-0.73803">
        <ele>1992</ele>
        <time>2013-06-22T06:07:42Z</time>
      </trkpt>
      <trkpt lat="42.95594" lon="-0.73802">
        <ele>1992</ele>
        <time>2013-06-22T06:07:44Z</time>
      </trkpt>
      <trkpt lat="42.95593" lon="-0.738">
        <ele>1992</ele>
        <time>2013-06-22T06:07:46Z</time>
      </trkpt>
      <trkpt lat="42.95591" lon="-0.73799">
        <ele>1992</ele>
        <time>2013-06-22T06:07:48Z</time>
      </trkpt>
      <trkpt lat="42.9559" lon="-0.73796">
        <ele>1992</ele>
        <time>2013-06-22T06:07:50Z</time>
      </trkpt>
      <trkpt lat="42.95589" lon="-0.73794">
        <ele>1992</ele>
        <time>2013-06-22T06:07:52Z</time>
      </trkpt>
      <trkpt lat="42.95589" lon="-0.73792">
        <ele>1992</ele>
        <time>2013-06-22T06:07:54Z</time>
      </trkpt>
      <trkpt lat="42.95588" lon="-0.7379">
        <ele>1993</ele>
        <time>2013-06-22T06:07:56Z</time>
      </trkpt>
      <trkpt lat="42.95588" lon="-0.73787">
        <ele>1993</ele>
        <time>2013-06-22T06:07:58Z</time>
      </trkpt>
      <trkpt lat="42.95587" lon="-0.73785">
        <ele>1993</ele>
        <time>2013-06-22T06:08:00Z</time>
      </trkpt>
      <trkpt lat="42.95586" lon="-0.73783">
        <ele>1993</ele>
        <time>2013-06-22T06:08:02Z</time>
      </trkpt>
      <trkpt lat="42.95585" lon="-0.73782">
        <ele>1994</ele>
        <time>2013-06-22T06:08:04Z</time>
      </trkpt>
      <trkpt lat="42.95584" lon="-0.73779">
        <ele>1994</ele>
        <time>2013-06-22T06:08:06Z</time>
      </trkpt>
      <trkpt lat="42.95584" lon="-0.73777">
        <ele>1994</ele>
        <time>2013-06-22T06:08:08Z</time>
      </trkpt>
      <trkpt lat="42.95583" lon="-0.73775">
        <ele>1994</ele>
        <time>2013-06-22T06:08:10Z</time>
      </trkpt>
      <trkpt lat="42.95582" lon="-0.73773">
        <ele>1995</ele>
        <time>2013-06-22T06:08:12Z</time>
      </trkpt>
      <trkpt lat="42.95581" lon="-0.73771">
        <ele>1995</ele>
        <time>2013-06-22T06:08:14Z</time>
      </trkpt>
      <trkpt lat="42.95581" lon="-0.73769">
        <ele>1995</ele>
        <time>2013-06-22T06:08:16Z</time>
      </trkpt>
      <trkpt lat="42.9558" lon="-0.73767">
        <ele>1995</ele>
        <time>2013-06-22T06:08:18Z</time>
      </trkpt>
      <trkpt lat="42.95579" lon="-0.73765">
        <ele>1995</ele>
        <time>2013-06-22T06:08:20Z</time>
      </trkpt>
      <trkpt lat="42.95578" lon="-0.73763">
        <ele>1995</ele>
        <time>2013-06-22T06:08:22Z</time>
      </trkpt>
      <trkpt lat="42.95578" lon="-0.73761">
        <ele>1995</ele>
        <time>2013-06-22T06:08:24Z</time>
      </trkpt>
      <trkpt lat="42.95577" lon="-0.73759">
        <ele>1995</ele>
        <time>2013-06-22T06:08:26Z</time>
      </trkpt>
      <trkpt lat="42.95576" lon="-0.73757">
        <ele>1996</ele>
        <time>2013-06-22T06:08:28Z</time>
      </trkpt>
      <trkpt lat="42.95576" lon="-0.73755">
        <ele>1996</ele>
        <time>2013-06-22T06:08:30Z</time>
      </trkpt>
      <trkpt lat="42.95575" lon="-0.73753">
        <ele>1997</ele>
        <time>2013-06-22T06:08:32Z</time>
      </trkpt>
      <trkpt lat="42.95574" lon="-0.73751">
        <ele>1997</ele>
        <time>2013-06-22T06:08:34Z</time>
      </trkpt>
      <trkpt lat="42.95573" lon="-0.7375">
        <ele>1998</ele>
        <time>2013-06-22T06:08:37Z</time>
      </trkpt>
      <trkpt lat="42.95571" lon="-0.73748">
        <ele>1998</ele>
        <time>2013-06-22T06:08:39Z</time>
      </trkpt>
      <trkpt lat="42.9557" lon="-0.73747">
        <ele>1998</ele>
        <time>2013-06-22T06:08:41Z</time>
      </trkpt>
      <trkpt lat="42.95569" lon="-0.73745">
        <ele>1998</ele>
        <time>2013-06-22T06:08:43Z</time>
      </trkpt>
      <trkpt lat="42.95568" lon="-0.73743">
        <ele>1998</ele>
        <time>2013-06-22T06:08:45Z</time>
      </trkpt>
      <trkpt lat="42.95568" lon="-0.7374">
        <ele>1999</ele>
        <time>2013-06-22T06:08:47Z</time>
      </trkpt>
      <trkpt lat="42.95568" lon="-0.73738">
        <ele>1999</ele>
        <time>2013-06-22T06:08:49Z</time>
      </trkpt>
      <trkpt lat="42.95569" lon="-0.73736">
        <ele>1999</ele>
        <time>2013-06-22T06:08:51Z</time>
      </trkpt>
      <trkpt lat="42.95569" lon="-0.73734">
        <ele>2000</ele>
        <time>2013-06-22T06:08:53Z</time>
      </trkpt>
      <trkpt lat="42.9557" lon="-0.73732">
        <ele>2000</ele>
        <time>2013-06-22T06:08:55Z</time>
      </trkpt>
      <trkpt lat="42.9557" lon="-0.7373">
        <ele>2000</ele>
        <time>2013-06-22T06:08:57Z</time>
      </trkpt>
      <trkpt lat="42.9557" lon="-0.73728">
        <ele>2001</ele>
        <time>2013-06-22T06:08:59Z</time>
      </trkpt>
      <trkpt lat="42.9557" lon="-0.73726">
        <ele>2001</ele>
        <time>2013-06-22T06:09:01Z</time>
      </trkpt>
      <trkpt lat="42.95569" lon="-0.73724">
        <ele>2001</ele>
        <time>2013-06-22T06:09:03Z</time>
      </trkpt>
      <trkpt lat="42.95569" lon="-0.73722">
        <ele>2001</ele>
        <time>2013-06-22T06:09:05Z</time>
      </trkpt>
      <trkpt lat="42.95569" lon="-0.73721">
        <ele>2002</ele>
        <time>2013-06-22T06:09:06Z</time>
      </trkpt>
      <trkpt lat="42.95569" lon="-0.73719">
        <ele>2002</ele>
        <time>2013-06-22T06:09:08Z</time>
      </trkpt>
      <trkpt lat="42.95568" lon="-0.73717">
        <ele>2002</ele>
        <time>2013-06-22T06:09:10Z</time>
      </trkpt>
      <trkpt lat="42.95568" lon="-0.73715">
        <ele>2003</ele>
        <time>2013-06-22T06:09:12Z</time>
      </trkpt>
      <trkpt lat="42.95568" lon="-0.73712">
        <ele>2003</ele>
        <time>2013-06-22T06:09:14Z</time>
      </trkpt>
      <trkpt lat="42.95567" lon="-0.7371">
        <ele>2003</ele>
        <time>2013-06-22T06:09:16Z</time>
      </trkpt>
      <trkpt lat="42.95567" lon="-0.73707">
        <ele>2003</ele>
        <time>2013-06-22T06:09:18Z</time>
      </trkpt>
      <trkpt lat="42.95567" lon="-0.73705">
        <ele>2004</ele>
        <time>2013-06-22T06:09:20Z</time>
      </trkpt>
      <trkpt lat="42.95567" lon="-0.73703">
        <ele>2004</ele>
        <time>2013-06-22T06:09:22Z</time>
      </trkpt>
      <trkpt lat="42.95567" lon="-0.73701">
        <ele>2004</ele>
        <time>2013-06-22T06:09:24Z</time>
      </trkpt>
      <trkpt lat="42.95567" lon="-0.73699">
        <ele>2004</ele>
        <time>2013-06-22T06:09:26Z</time>
      </trkpt>
      <trkpt lat="42.95566" lon="-0.73697">
        <ele>2004</ele>
        <time>2013-06-22T06:09:28Z</time>
      </trkpt>
      <trkpt lat="42.95566" lon="-0.73694">
        <ele>2004</ele>
        <time>2013-06-22T06:09:30Z</time>
      </trkpt>
      <trkpt lat="42.95565" lon="-0.73692">
        <ele>2005</ele>
        <time>2013-06-22T06:09:32Z</time>
      </trkpt>
      <trkpt lat="42.95565" lon="-0.7369">
        <ele>2005</ele>
        <time>2013-06-22T06:09:34Z</time>
      </trkpt>
      <trkpt lat="42.95565" lon="-0.73688">
        <ele>2006</ele>
        <time>2013-06-22T06:09:36Z</time>
      </trkpt>
      <trkpt lat="42.95565" lon="-0.73685">
        <ele>2006</ele>
        <time>2013-06-22T06:09:38Z</time>
      </trkpt>
      <trkpt lat="42.95565" lon="-0.73683">
        <ele>2006</ele>
        <time>2013-06-22T06:09:40Z</time>
      </trkpt>
      <trkpt lat="42.95565" lon="-0.73681">
        <ele>2007</ele>
        <time>2013-06-22T06:09:42Z</time>
      </trkpt>
      <trkpt lat="42.95565" lon="-0.73679">
        <ele>2007</ele>
        <time>2013-06-22T06:09:44Z</time>
      </trkpt>
      <trkpt lat="42.95565" lon="-0.73677">
        <ele>2007</ele>
        <time>2013-06-22T06:09:46Z</time>
      </trkpt>
      <trkpt lat="42.95565" lon="-0.73675">
        <ele>2007</ele>
        <time>2013-06-22T06:09:48Z</time>
      </trkpt>
      <trkpt lat="42.95565" lon="-0.73672">
        <ele>2008</ele>
        <time>2013-06-22T06:09:50Z</time>
      </trkpt>
      <trkpt lat="42.95566" lon="-0.73671">
        <ele>2008</ele>
        <time>2013-06-22T06:09:52Z</time>
      </trkpt>
      <trkpt lat="42.95566" lon="-0.73669">
        <ele>2009</ele>
        <time>2013-06-22T06:09:54Z</time>
      </trkpt>
      <trkpt lat="42.95567" lon="-0.73667">
        <ele>2009</ele>
        <time>2013-06-22T06:09:56Z</time>
      </trkpt>
      <trkpt lat="42.95568" lon="-0.73665">
        <ele>2009</ele>
        <time>2013-06-22T06:09:58Z</time>
      </trkpt>
      <trkpt lat="42.95568" lon="-0.73664">
        <ele>2009</ele>
        <time>2013-06-22T06:10:00Z</time>
      </trkpt>
      <trkpt lat="42.95569" lon="-0.73662">
        <ele>2010</ele>
        <time>2013-06-22T06:10:02Z</time>
      </trkpt>
      <trkpt lat="42.9557" lon="-0.7366">
        <ele>2010</ele>
        <time>2013-06-22T06:10:05Z</time>
      </trkpt>
      <trkpt lat="42.9557" lon="-0.73659">
        <ele>2010</ele>
        <time>2013-06-22T06:10:07Z</time>
      </trkpt>
      <trkpt lat="42.9557" lon="-0.73657">
        <ele>2011</ele>
        <time>2013-06-22T06:10:09Z</time>
      </trkpt>
      <trkpt lat="42.95571" lon="-0.73655">
        <ele>2011</ele>
        <time>2013-06-22T06:10:11Z</time>
      </trkpt>
      <trkpt lat="42.95571" lon="-0.73654">
        <ele>2011</ele>
        <time>2013-06-22T06:10:13Z</time>
      </trkpt>
      <trkpt lat="42.95571" lon="-0.73652">
        <ele>2012</ele>
        <time>2013-06-22T06:10:16Z</time>
      </trkpt>
      <trkpt lat="42.9557" lon="-0.7365">
        <ele>2012</ele>
        <time>2013-06-22T06:10:18Z</time>
      </trkpt>
      <trkpt lat="42.9557" lon="-0.73648">
        <ele>2013</ele>
        <time>2013-06-22T06:10:20Z</time>
      </trkpt>
      <trkpt lat="42.95569" lon="-0.73646">
        <ele>2013</ele>
        <time>2013-06-22T06:10:22Z</time>
      </trkpt>
      <trkpt lat="42.95568" lon="-0.73645">
        <ele>2014</ele>
        <time>2013-06-22T06:10:24Z</time>
      </trkpt>
      <trkpt lat="42.95567" lon="-0.73643">
        <ele>2014</ele>
        <time>2013-06-22T06:10:26Z</time>
      </trkpt>
      <trkpt lat="42.95567" lon="-0.73642">
        <ele>2014</ele>
        <time>2013-06-22T06:10:28Z</time>
      </trkpt>
      <trkpt lat="42.95567" lon="-0.7364">
        <ele>2014</ele>
        <time>2013-06-22T06:10:30Z</time>
      </trkpt>
      <trkpt lat="42.95566" lon="-0.73638">
        <ele>2014</ele>
        <time>2013-06-22T06:10:32Z</time>
      </trkpt>
      <trkpt lat="42.95566" lon="-0.73636">
        <ele>2015</ele>
        <time>2013-06-22T06:10:34Z</time>
      </trkpt>
      <trkpt lat="42.95565" lon="-0.73634">
        <ele>2015</ele>
        <time>2013-06-22T06:10:36Z</time>
      </trkpt>
      <trkpt lat="42.95565" lon="-0.73633">
        <ele>2016</ele>
        <time>2013-06-22T06:10:38Z</time>
      </trkpt>
      <trkpt lat="42.95565" lon="-0.73631">
        <ele>2016</ele>
        <time>2013-06-22T06:10:40Z</time>
      </trkpt>
      <trkpt lat="42.95564" lon="-0.73629">
        <ele>2016</ele>
        <time>2013-06-22T06:10:42Z</time>
      </trkpt>
      <trkpt lat="42.95563" lon="-0.73627">
        <ele>2016</ele>
        <time>2013-06-22T06:10:44Z</time>
      </trkpt>
      <trkpt lat="42.95562" lon="-0.73625">
        <ele>2016</ele>
        <time>2013-06-22T06:10:46Z</time>
      </trkpt>
      <trkpt lat="42.95562" lon="-0.73623">
        <ele>2017</ele>
        <time>2013-06-22T06:10:48Z</time>
      </trkpt>
      <trkpt lat="42.95561" lon="-0.73621">
        <ele>2017</ele>
        <time>2013-06-22T06:10:50Z</time>
      </trkpt>
      <trkpt lat="42.95561" lon="-0.73619">
        <ele>2017</ele>
        <time>2013-06-22T06:10:51Z</time>
      </trkpt>
      <trkpt lat="42.9556" lon="-0.73617">
        <ele>2017</ele>
        <time>2013-06-22T06:10:53Z</time>
      </trkpt>
      <trkpt lat="42.9556" lon="-0.73615">
        <ele>2018</ele>
        <time>2013-06-22T06:10:55Z</time>
      </trkpt>
      <trkpt lat="42.95559" lon="-0.73613">
        <ele>2018</ele>
        <time>2013-06-22T06:10:57Z</time>
      </trkpt>
      <trkpt lat="42.95558" lon="-0.73611">
        <ele>2018</ele>
        <time>2013-06-22T06:10:59Z</time>
      </trkpt>
      <trkpt lat="42.95557" lon="-0.73608">
        <ele>2018</ele>
        <time>2013-06-22T06:11:01Z</time>
      </trkpt>
      <trkpt lat="42.95557" lon="-0.73607">
        <ele>2018</ele>
        <time>2013-06-22T06:11:02Z</time>
      </trkpt>
      <trkpt lat="42.95557" lon="-0.73604">
        <ele>2018</ele>
        <time>2013-06-22T06:11:04Z</time>
      </trkpt>
      <trkpt lat="42.95556" lon="-0.73603">
        <ele>2018</ele>
        <time>2013-06-22T06:11:05Z</time>
      </trkpt>
      <trkpt lat="42.95556" lon="-0.736">
        <ele>2018</ele>
        <time>2013-06-22T06:11:07Z</time>
      </trkpt>
      <trkpt lat="42.95556" lon="-0.73598">
        <ele>2018</ele>
        <time>2013-06-22T06:11:09Z</time>
      </trkpt>
      <trkpt lat="42.95556" lon="-0.73596">
        <ele>2018</ele>
        <time>2013-06-22T06:11:10Z</time>
      </trkpt>
      <trkpt lat="42.95556" lon="-0.73595">
        <ele>2018</ele>
        <time>2013-06-22T06:11:11Z</time>
      </trkpt>
      <trkpt lat="42.95556" lon="-0.73593">
        <ele>2018</ele>
        <time>2013-06-22T06:11:13Z</time>
      </trkpt>
      <trkpt lat="42.95556" lon="-0.7359">
        <ele>2018</ele>
        <time>2013-06-22T06:11:15Z</time>
      </trkpt>
      <trkpt lat="42.95556" lon="-0.73588">
        <ele>2018</ele>
        <time>2013-06-22T06:11:17Z</time>
      </trkpt>
      <trkpt lat="42.95556" lon="-0.73586">
        <ele>2018</ele>
        <time>2013-06-22T06:11:19Z</time>
      </trkpt>
      <trkpt lat="42.95556" lon="-0.73584">
        <ele>2018</ele>
        <time>2013-06-22T06:11:21Z</time>
      </trkpt>
      <trkpt lat="42.95556" lon="-0.73581">
        <ele>2019</ele>
        <time>2013-06-22T06:11:23Z</time>
      </trkpt>
      <trkpt lat="42.95556" lon="-0.73579">
        <ele>2019</ele>
        <time>2013-06-22T06:11:25Z</time>
      </trkpt>
      <trkpt lat="42.95556" lon="-0.73577">
        <ele>2019</ele>
        <time>2013-06-22T06:11:27Z</time>
      </trkpt>
      <trkpt lat="42.95557" lon="-0.73575">
        <ele>2019</ele>
        <time>2013-06-22T06:11:29Z</time>
      </trkpt>
      <trkpt lat="42.95557" lon="-0.73572">
        <ele>2020</ele>
        <time>2013-06-22T06:11:31Z</time>
      </trkpt>
      <trkpt lat="42.95558" lon="-0.7357">
        <ele>2020</ele>
        <time>2013-06-22T06:11:33Z</time>
      </trkpt>
      <trkpt lat="42.95558" lon="-0.73568">
        <ele>2020</ele>
        <time>2013-06-22T06:11:35Z</time>
      </trkpt>
      <trkpt lat="42.95559" lon="-0.73566">
        <ele>2020</ele>
        <time>2013-06-22T06:11:37Z</time>
      </trkpt>
      <trkpt lat="42.9556" lon="-0.73564">
        <ele>2020</ele>
        <time>2013-06-22T06:11:39Z</time>
      </trkpt>
      <trkpt lat="42.95562" lon="-0.73562">
        <ele>2020</ele>
        <time>2013-06-22T06:11:41Z</time>
      </trkpt>
      <trkpt lat="42.95563" lon="-0.7356">
        <ele>2020</ele>
        <time>2013-06-22T06:11:44Z</time>
      </trkpt>
      <trkpt lat="42.95563" lon="-0.73558">
        <ele>2020</ele>
        <time>2013-06-22T06:11:46Z</time>
      </trkpt>
      <trkpt lat="42.95564" lon="-0.73557">
        <ele>2020</ele>
        <time>2013-06-22T06:11:53Z</time>
      </trkpt>
      <trkpt lat="42.95566" lon="-0.73555">
        <ele>2020</ele>
        <time>2013-06-22T06:11:56Z</time>
      </trkpt>
      <trkpt lat="42.95567" lon="-0.73553">
        <ele>2020</ele>
        <time>2013-06-22T06:11:58Z</time>
      </trkpt>
      <trkpt lat="42.95568" lon="-0.73551">
        <ele>2020</ele>
        <time>2013-06-22T06:12:00Z</time>
      </trkpt>
      <trkpt lat="42.95569" lon="-0.73549">
        <ele>2021</ele>
        <time>2013-06-22T06:12:02Z</time>
      </trkpt>
      <trkpt lat="42.95569" lon="-0.73547">
        <ele>2021</ele>
        <time>2013-06-22T06:12:03Z</time>
      </trkpt>
      <trkpt lat="42.9557" lon="-0.73545">
        <ele>2021</ele>
        <time>2013-06-22T06:12:05Z</time>
      </trkpt>
      <trkpt lat="42.95571" lon="-0.73543">
        <ele>2021</ele>
        <time>2013-06-22T06:12:07Z</time>
      </trkpt>
      <trkpt lat="42.95571" lon="-0.73541">
        <ele>2021</ele>
        <time>2013-06-22T06:12:09Z</time>
      </trkpt>
      <trkpt lat="42.95571" lon="-0.7354">
        <ele>2021</ele>
        <time>2013-06-22T06:12:11Z</time>
      </trkpt>
      <trkpt lat="42.95572" lon="-0.73537">
        <ele>2022</ele>
        <time>2013-06-22T06:12:13Z</time>
      </trkpt>
      <trkpt lat="42.95572" lon="-0.73536">
        <ele>2022</ele>
        <time>2013-06-22T06:12:15Z</time>
      </trkpt>
      <trkpt lat="42.95572" lon="-0.73534">
        <ele>2022</ele>
        <time>2013-06-22T06:12:17Z</time>
      </trkpt>
      <trkpt lat="42.95572" lon="-0.73532">
        <ele>2023</ele>
        <time>2013-06-22T06:12:19Z</time>
      </trkpt>
      <trkpt lat="42.95572" lon="-0.7353">
        <ele>2023</ele>
        <time>2013-06-22T06:12:22Z</time>
      </trkpt>
      <trkpt lat="42.95572" lon="-0.73528">
        <ele>2023</ele>
        <time>2013-06-22T06:12:23Z</time>
      </trkpt>
      <trkpt lat="42.95572" lon="-0.73526">
        <ele>2024</ele>
        <time>2013-06-22T06:12:25Z</time>
      </trkpt>
      <trkpt lat="42.95572" lon="-0.73525">
        <ele>2025</ele>
        <time>2013-06-22T06:12:27Z</time>
      </trkpt>
      <trkpt lat="42.95571" lon="-0.73523">
        <ele>2025</ele>
        <time>2013-06-22T06:12:29Z</time>
      </trkpt>
      <trkpt lat="42.95571" lon="-0.73522">
        <ele>2026</ele>
        <time>2013-06-22T06:12:31Z</time>
      </trkpt>
      <trkpt lat="42.95571" lon="-0.73519">
        <ele>2026</ele>
        <time>2013-06-22T06:12:33Z</time>
      </trkpt>
      <trkpt lat="42.95571" lon="-0.73517">
        <ele>2027</ele>
        <time>2013-06-22T06:12:35Z</time>
      </trkpt>
      <trkpt lat="42.95571" lon="-0.73515">
        <ele>2027</ele>
        <time>2013-06-22T06:12:37Z</time>
      </trkpt>
      <trkpt lat="42.9557" lon="-0.73513">
        <ele>2028</ele>
        <time>2013-06-22T06:12:39Z</time>
      </trkpt>
      <trkpt lat="42.9557" lon="-0.73511">
        <ele>2028</ele>
        <time>2013-06-22T06:12:41Z</time>
      </trkpt>
      <trkpt lat="42.95569" lon="-0.7351">
        <ele>2028</ele>
        <time>2013-06-22T06:12:52Z</time>
      </trkpt>
      <trkpt lat="42.95567" lon="-0.7351">
        <ele>2028</ele>
        <time>2013-06-22T06:12:55Z</time>
      </trkpt>
      <trkpt lat="42.95566" lon="-0.73511">
        <ele>2028</ele>
        <time>2013-06-22T06:12:57Z</time>
      </trkpt>
      <trkpt lat="42.95565" lon="-0.73511">
        <ele>2028</ele>
        <time>2013-06-22T06:12:59Z</time>
      </trkpt>
      <trkpt lat="42.95563" lon="-0.73511">
        <ele>2028</ele>
        <time>2013-06-22T06:13:01Z</time>
      </trkpt>
      <trkpt lat="42.95561" lon="-0.73511">
        <ele>2028</ele>
        <time>2013-06-22T06:13:03Z</time>
      </trkpt>
      <trkpt lat="42.9556" lon="-0.7351">
        <ele>2028</ele>
        <time>2013-06-22T06:13:05Z</time>
      </trkpt>
      <trkpt lat="42.95559" lon="-0.7351">
        <ele>2028</ele>
        <time>2013-06-22T06:13:07Z</time>
      </trkpt>
      <trkpt lat="42.95557" lon="-0.7351">
        <ele>2028</ele>
        <time>2013-06-22T06:13:09Z</time>
      </trkpt>
      <trkpt lat="42.95556" lon="-0.73509">
        <ele>2028</ele>
        <time>2013-06-22T06:13:12Z</time>
      </trkpt>
      <trkpt lat="42.95555" lon="-0.73507">
        <ele>2028</ele>
        <time>2013-06-22T06:13:15Z</time>
      </trkpt>
      <trkpt lat="42.95554" lon="-0.73506">
        <ele>2028</ele>
        <time>2013-06-22T06:13:17Z</time>
      </trkpt>
      <trkpt lat="42.95552" lon="-0.73505">
        <ele>2028</ele>
        <time>2013-06-22T06:13:19Z</time>
      </trkpt>
      <trkpt lat="42.95551" lon="-0.73503">
        <ele>2029</ele>
        <time>2013-06-22T06:13:22Z</time>
      </trkpt>
      <trkpt lat="42.9555" lon="-0.73502">
        <ele>2029</ele>
        <time>2013-06-22T06:13:25Z</time>
      </trkpt>
      <trkpt lat="42.95549" lon="-0.735">
        <ele>2030</ele>
        <time>2013-06-22T06:13:28Z</time>
      </trkpt>
      <trkpt lat="42.95548" lon="-0.73498">
        <ele>2030</ele>
        <time>2013-06-22T06:13:31Z</time>
      </trkpt>
      <trkpt lat="42.95547" lon="-0.73497">
        <ele>2031</ele>
        <time>2013-06-22T06:13:36Z</time>
      </trkpt>
      <trkpt lat="42.95546" lon="-0.73496">
        <ele>2031</ele>
        <time>2013-06-22T06:13:41Z</time>
      </trkpt>
      <trkpt lat="42.95544" lon="-0.73494">
        <ele>2031</ele>
        <time>2013-06-22T06:13:44Z</time>
      </trkpt>
      <trkpt lat="42.95544" lon="-0.73491">
        <ele>2031</ele>
        <time>2013-06-22T06:13:46Z</time>
      </trkpt>
      <trkpt lat="42.95543" lon="-0.73489">
        <ele>2031</ele>
        <time>2013-06-22T06:13:49Z</time>
      </trkpt>
      <trkpt lat="42.95543" lon="-0.73488">
        <ele>2032</ele>
        <time>2013-06-22T06:13:51Z</time>
      </trkpt>
      <trkpt lat="42.95542" lon="-0.73486">
        <ele>2032</ele>
        <time>2013-06-22T06:13:53Z</time>
      </trkpt>
      <trkpt lat="42.95542" lon="-0.73484">
        <ele>2032</ele>
        <time>2013-06-22T06:13:55Z</time>
      </trkpt>
      <trkpt lat="42.95542" lon="-0.73482">
        <ele>2033</ele>
        <time>2013-06-22T06:13:58Z</time>
      </trkpt>
      <trkpt lat="42.95543" lon="-0.7348">
        <ele>2033</ele>
        <time>2013-06-22T06:14:00Z</time>
      </trkpt>
      <trkpt lat="42.95543" lon="-0.73478">
        <ele>2034</ele>
        <time>2013-06-22T06:14:02Z</time>
      </trkpt>
      <trkpt lat="42.95543" lon="-0.73476">
        <ele>2034</ele>
        <time>2013-06-22T06:14:04Z</time>
      </trkpt>
      <trkpt lat="42.95544" lon="-0.73474">
        <ele>2035</ele>
        <time>2013-06-22T06:14:06Z</time>
      </trkpt>
      <trkpt lat="42.95544" lon="-0.73472">
        <ele>2035</ele>
        <time>2013-06-22T06:14:08Z</time>
      </trkpt>
      <trkpt lat="42.95545" lon="-0.7347">
        <ele>2035</ele>
        <time>2013-06-22T06:14:10Z</time>
      </trkpt>
      <trkpt lat="42.95545" lon="-0.73469">
        <ele>2035</ele>
        <time>2013-06-22T06:14:22Z</time>
      </trkpt>
      <trkpt lat="42.95546" lon="-0.73467">
        <ele>2035</ele>
        <time>2013-06-22T06:14:24Z</time>
      </trkpt>
      <trkpt lat="42.95548" lon="-0.73466">
        <ele>2035</ele>
        <time>2013-06-22T06:14:26Z</time>
      </trkpt>
      <trkpt lat="42.95549" lon="-0.73465">
        <ele>2035</ele>
        <time>2013-06-22T06:14:28Z</time>
      </trkpt>
      <trkpt lat="42.9555" lon="-0.73463">
        <ele>2035</ele>
        <time>2013-06-22T06:14:30Z</time>
      </trkpt>
      <trkpt lat="42.95551" lon="-0.73462">
        <ele>2035</ele>
        <time>2013-06-22T06:14:32Z</time>
      </trkpt>
      <trkpt lat="42.95553" lon="-0.73461">
        <ele>2035</ele>
        <time>2013-06-22T06:14:34Z</time>
      </trkpt>
      <trkpt lat="42.95554" lon="-0.7346">
        <ele>2035</ele>
        <time>2013-06-22T06:14:36Z</time>
      </trkpt>
      <trkpt lat="42.95556" lon="-0.73459">
        <ele>2035</ele>
        <time>2013-06-22T06:14:38Z</time>
      </trkpt>
      <trkpt lat="42.95557" lon="-0.73457">
        <ele>2035</ele>
        <time>2013-06-22T06:14:40Z</time>
      </trkpt>
      <trkpt lat="42.95558" lon="-0.73456">
        <ele>2035</ele>
        <time>2013-06-22T06:14:42Z</time>
      </trkpt>
      <trkpt lat="42.95559" lon="-0.73454">
        <ele>2035</ele>
        <time>2013-06-22T06:14:44Z</time>
      </trkpt>
      <trkpt lat="42.9556" lon="-0.73452">
        <ele>2035</ele>
        <time>2013-06-22T06:14:46Z</time>
      </trkpt>
      <trkpt lat="42.95561" lon="-0.7345">
        <ele>2035</ele>
        <time>2013-06-22T06:14:48Z</time>
      </trkpt>
      <trkpt lat="42.95561" lon="-0.73448">
        <ele>2035</ele>
        <time>2013-06-22T06:14:50Z</time>
      </trkpt>
      <trkpt lat="42.95561" lon="-0.73446">
        <ele>2035</ele>
        <time>2013-06-22T06:14:52Z</time>
      </trkpt>
      <trkpt lat="42.95561" lon="-0.73443">
        <ele>2035</ele>
        <time>2013-06-22T06:14:54Z</time>
      </trkpt>
      <trkpt lat="42.9556" lon="-0.73441">
        <ele>2035</ele>
        <time>2013-06-22T06:14:56Z</time>
      </trkpt>
      <trkpt lat="42.9556" lon="-0.73439">
        <ele>2035</ele>
        <time>2013-06-22T06:14:58Z</time>
      </trkpt>
      <trkpt lat="42.9556" lon="-0.73437">
        <ele>2035</ele>
        <time>2013-06-22T06:15:00Z</time>
      </trkpt>
      <trkpt lat="42.9556" lon="-0.73435">
        <ele>2035</ele>
        <time>2013-06-22T06:15:02Z</time>
      </trkpt>
      <trkpt lat="42.95559" lon="-0.73433">
        <ele>2035</ele>
        <time>2013-06-22T06:15:04Z</time>
      </trkpt>
      <trkpt lat="42.95559" lon="-0.73431">
        <ele>2035</ele>
        <time>2013-06-22T06:15:06Z</time>
      </trkpt>
      <trkpt lat="42.95559" lon="-0.73429">
        <ele>2035</ele>
        <time>2013-06-22T06:15:08Z</time>
      </trkpt>
      <trkpt lat="42.95559" lon="-0.73427">
        <ele>2035</ele>
        <time>2013-06-22T06:15:10Z</time>
      </trkpt>
      <trkpt lat="42.95559" lon="-0.73425">
        <ele>2035</ele>
        <time>2013-06-22T06:15:12Z</time>
      </trkpt>
      <trkpt lat="42.95559" lon="-0.73422">
        <ele>2035</ele>
        <time>2013-06-22T06:15:14Z</time>
      </trkpt>
      <trkpt lat="42.95559" lon="-0.7342">
        <ele>2035</ele>
        <time>2013-06-22T06:15:16Z</time>
      </trkpt>
      <trkpt lat="42.95559" lon="-0.73417">
        <ele>2035</ele>
        <time>2013-06-22T06:15:18Z</time>
      </trkpt>
      <trkpt lat="42.95559" lon="-0.73415">
        <ele>2035</ele>
        <time>2013-06-22T06:15:20Z</time>
      </trkpt>
      <trkpt lat="42.95559" lon="-0.73413">
        <ele>2035</ele>
        <time>2013-06-22T06:15:22Z</time>
      </trkpt>
      <trkpt lat="42.95559" lon="-0.73411">
        <ele>2035</ele>
        <time>2013-06-22T06:15:24Z</time>
      </trkpt>
      <trkpt lat="42.95559" lon="-0.73409">
        <ele>2035</ele>
        <time>2013-06-22T06:15:28Z</time>
      </trkpt>
      <trkpt lat="42.9556" lon="-0.7341">
        <ele>2035</ele>
        <time>2013-06-22T06:15:30Z</time>
      </trkpt>
      <trkpt lat="42.95562" lon="-0.73412">
        <ele>2035</ele>
        <time>2013-06-22T06:15:32Z</time>
      </trkpt>
      <trkpt lat="42.95563" lon="-0.73413">
        <ele>2035</ele>
        <time>2013-06-22T06:15:34Z</time>
      </trkpt>
      <trkpt lat="42.95565" lon="-0.73413">
        <ele>2034</ele>
        <time>2013-06-22T06:15:35Z</time>
      </trkpt>
      <trkpt lat="42.95566" lon="-0.73412">
        <ele>2034</ele>
        <time>2013-06-22T06:15:37Z</time>
      </trkpt>
      <trkpt lat="42.95567" lon="-0.7341">
        <ele>2033</ele>
        <time>2013-06-22T06:15:38Z</time>
      </trkpt>
      <trkpt lat="42.95567" lon="-0.73409">
        <ele>2033</ele>
        <time>2013-06-22T06:15:40Z</time>
      </trkpt>
      <trkpt lat="42.95567" lon="-0.73407">
        <ele>2033</ele>
        <time>2013-06-22T06:15:42Z</time>
      </trkpt>
      <trkpt lat="42.95565" lon="-0.73405">
        <ele>2033</ele>
        <time>2013-06-22T06:15:44Z</time>
      </trkpt>
      <trkpt lat="42.95564" lon="-0.73404">
        <ele>2033</ele>
        <time>2013-06-22T06:15:46Z</time>
      </trkpt>
      <trkpt lat="42.95563" lon="-0.73402">
        <ele>2033</ele>
        <time>2013-06-22T06:15:48Z</time>
      </trkpt>
      <trkpt lat="42.95562" lon="-0.734">
        <ele>2033</ele>
        <time>2013-06-22T06:15:50Z</time>
      </trkpt>
      <trkpt lat="42.95562" lon="-0.73398">
        <ele>2033</ele>
        <time>2013-06-22T06:15:52Z</time>
      </trkpt>
      <trkpt lat="42.95561" lon="-0.73396">
        <ele>2033</ele>
        <time>2013-06-22T06:15:54Z</time>
      </trkpt>
      <trkpt lat="42.9556" lon="-0.73394">
        <ele>2033</ele>
        <time>2013-06-22T06:15:56Z</time>
      </trkpt>
      <trkpt lat="42.95559" lon="-0.73391">
        <ele>2033</ele>
        <time>2013-06-22T06:15:58Z</time>
      </trkpt>
      <trkpt lat="42.95559" lon="-0.73389">
        <ele>2033</ele>
        <time>2013-06-22T06:16:00Z</time>
      </trkpt>
      <trkpt lat="42.95559" lon="-0.73386">
        <ele>2033</ele>
        <time>2013-06-22T06:16:02Z</time>
      </trkpt>
      <trkpt lat="42.95558" lon="-0.73384">
        <ele>2033</ele>
        <time>2013-06-22T06:16:04Z</time>
      </trkpt>
      <trkpt lat="42.95558" lon="-0.73382">
        <ele>2033</ele>
        <time>2013-06-22T06:16:05Z</time>
      </trkpt>
      <trkpt lat="42.95558" lon="-0.7338">
        <ele>2033</ele>
        <time>2013-06-22T06:16:07Z</time>
      </trkpt>
      <trkpt lat="42.95557" lon="-0.73378">
        <ele>2033</ele>
        <time>2013-06-22T06:16:09Z</time>
      </trkpt>
      <trkpt lat="42.95557" lon="-0.73375">
        <ele>2033</ele>
        <time>2013-06-22T06:16:11Z</time>
      </trkpt>
      <trkpt lat="42.95555" lon="-0.73373">
        <ele>2033</ele>
        <time>2013-06-22T06:16:36Z</time>
      </trkpt>
      <trkpt lat="42.95554" lon="-0.73371">
        <ele>2033</ele>
        <time>2013-06-22T06:16:38Z</time>
      </trkpt>
      <trkpt lat="42.95553" lon="-0.73369">
        <ele>2033</ele>
        <time>2013-06-22T06:16:40Z</time>
      </trkpt>
      <trkpt lat="42.95553" lon="-0.73366">
        <ele>2033</ele>
        <time>2013-06-22T06:16:42Z</time>
      </trkpt>
      <trkpt lat="42.95552" lon="-0.73364">
        <ele>2033</ele>
        <time>2013-06-22T06:16:44Z</time>
      </trkpt>
      <trkpt lat="42.95551" lon="-0.73361">
        <ele>2033</ele>
        <time>2013-06-22T06:16:46Z</time>
      </trkpt>
      <trkpt lat="42.9555" lon="-0.73359">
        <ele>2033</ele>
        <time>2013-06-22T06:16:48Z</time>
      </trkpt>
      <trkpt lat="42.95549" lon="-0.73356">
        <ele>2033</ele>
        <time>2013-06-22T06:16:50Z</time>
      </trkpt>
      <trkpt lat="42.95549" lon="-0.73354">
        <ele>2033</ele>
        <time>2013-06-22T06:16:51Z</time>
      </trkpt>
      <trkpt lat="42.95547" lon="-0.73352">
        <ele>2033</ele>
        <time>2013-06-22T06:16:53Z</time>
      </trkpt>
      <trkpt lat="42.95546" lon="-0.73349">
        <ele>2033</ele>
        <time>2013-06-22T06:16:55Z</time>
      </trkpt>
      <trkpt lat="42.95546" lon="-0.73347">
        <ele>2033</ele>
        <time>2013-06-22T06:16:57Z</time>
      </trkpt>
      <trkpt lat="42.95544" lon="-0.73344">
        <ele>2033</ele>
        <time>2013-06-22T06:16:59Z</time>
      </trkpt>
      <trkpt lat="42.95544" lon="-0.73343">
        <ele>2033</ele>
        <time>2013-06-22T06:17:01Z</time>
      </trkpt>
      <trkpt lat="42.95543" lon="-0.7334">
        <ele>2033</ele>
        <time>2013-06-22T06:17:03Z</time>
      </trkpt>
      <trkpt lat="42.95542" lon="-0.73339">
        <ele>2033</ele>
        <time>2013-06-22T06:17:05Z</time>
      </trkpt>
      <trkpt lat="42.95541" lon="-0.73336">
        <ele>2033</ele>
        <time>2013-06-22T06:17:07Z</time>
      </trkpt>
      <trkpt lat="42.9554" lon="-0.73335">
        <ele>2033</ele>
        <time>2013-06-22T06:17:09Z</time>
      </trkpt>
      <trkpt lat="42.95539" lon="-0.73333">
        <ele>2033</ele>
        <time>2013-06-22T06:17:11Z</time>
      </trkpt>
      <trkpt lat="42.95538" lon="-0.73331">
        <ele>2033</ele>
        <time>2013-06-22T06:17:13Z</time>
      </trkpt>
      <trkpt lat="42.95536" lon="-0.73329">
        <ele>2033</ele>
        <time>2013-06-22T06:17:15Z</time>
      </trkpt>
      <trkpt lat="42.95535" lon="-0.73327">
        <ele>2033</ele>
        <time>2013-06-22T06:17:17Z</time>
      </trkpt>
      <trkpt lat="42.95534" lon="-0.73325">
        <ele>2033</ele>
        <time>2013-06-22T06:17:19Z</time>
      </trkpt>
      <trkpt lat="42.95533" lon="-0.73324">
        <ele>2033</ele>
        <time>2013-06-22T06:17:21Z</time>
      </trkpt>
      <trkpt lat="42.95532" lon="-0.73322">
        <ele>2033</ele>
        <time>2013-06-22T06:17:23Z</time>
      </trkpt>
      <trkpt lat="42.95531" lon="-0.73321">
        <ele>2033</ele>
        <time>2013-06-22T06:17:25Z</time>
      </trkpt>
      <trkpt lat="42.9553" lon="-0.73319">
        <ele>2033</ele>
        <time>2013-06-22T06:17:27Z</time>
      </trkpt>
      <trkpt lat="42.95529" lon="-0.73317">
        <ele>2033</ele>
        <time>2013-06-22T06:17:29Z</time>
      </trkpt>
      <trkpt lat="42.95528" lon="-0.73315">
        <ele>2033</ele>
        <time>2013-06-22T06:17:31Z</time>
      </trkpt>
      <trkpt lat="42.95527" lon="-0.73313">
        <ele>2033</ele>
        <time>2013-06-22T06:17:33Z</time>
      </trkpt>
      <trkpt lat="42.95525" lon="-0.73311">
        <ele>2034</ele>
        <time>2013-06-22T06:17:35Z</time>
      </trkpt>
      <trkpt lat="42.95525" lon="-0.7331">
        <ele>2034</ele>
        <time>2013-06-22T06:17:37Z</time>
      </trkpt>
      <trkpt lat="42.95523" lon="-0.73308">
        <ele>2035</ele>
        <time>2013-06-22T06:17:39Z</time>
      </trkpt>
      <trkpt lat="42.95522" lon="-0.73306">
        <ele>2035</ele>
        <time>2013-06-22T06:17:41Z</time>
      </trkpt>
      <trkpt lat="42.95521" lon="-0.73304">
        <ele>2035</ele>
        <time>2013-06-22T06:17:43Z</time>
      </trkpt>
      <trkpt lat="42.9552" lon="-0.73303">
        <ele>2036</ele>
        <time>2013-06-22T06:17:45Z</time>
      </trkpt>
      <trkpt lat="42.95519" lon="-0.73301">
        <ele>2036</ele>
        <time>2013-06-22T06:17:47Z</time>
      </trkpt>
      <trkpt lat="42.95518" lon="-0.73299">
        <ele>2036</ele>
        <time>2013-06-22T06:17:49Z</time>
      </trkpt>
      <trkpt lat="42.95517" lon="-0.73297">
        <ele>2036</ele>
        <time>2013-06-22T06:17:51Z</time>
      </trkpt>
      <trkpt lat="42.95516" lon="-0.73295">
        <ele>2037</ele>
        <time>2013-06-22T06:17:53Z</time>
      </trkpt>
      <trkpt lat="42.95515" lon="-0.73293">
        <ele>2037</ele>
        <time>2013-06-22T06:17:55Z</time>
      </trkpt>
      <trkpt lat="42.95514" lon="-0.73291">
        <ele>2037</ele>
        <time>2013-06-22T06:17:57Z</time>
      </trkpt>
      <trkpt lat="42.95512" lon="-0.7329">
        <ele>2037</ele>
        <time>2013-06-22T06:17:59Z</time>
      </trkpt>
      <trkpt lat="42.95511" lon="-0.73288">
        <ele>2037</ele>
        <time>2013-06-22T06:18:01Z</time>
      </trkpt>
      <trkpt lat="42.9551" lon="-0.73286">
        <ele>2037</ele>
        <time>2013-06-22T06:18:03Z</time>
      </trkpt>
      <trkpt lat="42.95509" lon="-0.73285">
        <ele>2037</ele>
        <time>2013-06-22T06:18:05Z</time>
      </trkpt>
      <trkpt lat="42.95508" lon="-0.73283">
        <ele>2037</ele>
        <time>2013-06-22T06:18:07Z</time>
      </trkpt>
      <trkpt lat="42.95507" lon="-0.73282">
        <ele>2037</ele>
        <time>2013-06-22T06:18:09Z</time>
      </trkpt>
      <trkpt lat="42.95505" lon="-0.7328">
        <ele>2037</ele>
        <time>2013-06-22T06:18:11Z</time>
      </trkpt>
      <trkpt lat="42.95504" lon="-0.73278">
        <ele>2037</ele>
        <time>2013-06-22T06:18:13Z</time>
      </trkpt>
      <trkpt lat="42.95502" lon="-0.73277">
        <ele>2037</ele>
        <time>2013-06-22T06:18:15Z</time>
      </trkpt>
      <trkpt lat="42.95501" lon="-0.73275">
        <ele>2037</ele>
        <time>2013-06-22T06:18:17Z</time>
      </trkpt>
      <trkpt lat="42.95499" lon="-0.73273">
        <ele>2038</ele>
        <time>2013-06-22T06:18:19Z</time>
      </trkpt>
      <trkpt lat="42.95498" lon="-0.73272">
        <ele>2038</ele>
        <time>2013-06-22T06:18:21Z</time>
      </trkpt>
      <trkpt lat="42.95496" lon="-0.7327">
        <ele>2038</ele>
        <time>2013-06-22T06:18:23Z</time>
      </trkpt>
      <trkpt lat="42.95495" lon="-0.73269">
        <ele>2038</ele>
        <time>2013-06-22T06:18:25Z</time>
      </trkpt>
      <trkpt lat="42.95494" lon="-0.73267">
        <ele>2038</ele>
        <time>2013-06-22T06:18:27Z</time>
      </trkpt>
      <trkpt lat="42.95492" lon="-0.73265">
        <ele>2038</ele>
        <time>2013-06-22T06:18:29Z</time>
      </trkpt>
      <trkpt lat="42.95491" lon="-0.73264">
        <ele>2038</ele>
        <time>2013-06-22T06:18:31Z</time>
      </trkpt>
      <trkpt lat="42.9549" lon="-0.73262">
        <ele>2038</ele>
        <time>2013-06-22T06:18:33Z</time>
      </trkpt>
      <trkpt lat="42.95488" lon="-0.7326">
        <ele>2038</ele>
        <time>2013-06-22T06:18:35Z</time>
      </trkpt>
      <trkpt lat="42.95487" lon="-0.73258">
        <ele>2038</ele>
        <time>2013-06-22T06:18:37Z</time>
      </trkpt>
      <trkpt lat="42.95486" lon="-0.73257">
        <ele>2038</ele>
        <time>2013-06-22T06:18:39Z</time>
      </trkpt>
      <trkpt lat="42.95485" lon="-0.73255">
        <ele>2038</ele>
        <time>2013-06-22T06:18:41Z</time>
      </trkpt>
      <trkpt lat="42.95484" lon="-0.73253">
        <ele>2038</ele>
        <time>2013-06-22T06:18:43Z</time>
      </trkpt>
      <trkpt lat="42.95483" lon="-0.73251">
        <ele>2039</ele>
        <time>2013-06-22T06:18:45Z</time>
      </trkpt>
      <trkpt lat="42.95482" lon="-0.7325">
        <ele>2039</ele>
        <time>2013-06-22T06:18:47Z</time>
      </trkpt>
      <trkpt lat="42.95481" lon="-0.73248">
        <ele>2039</ele>
        <time>2013-06-22T06:18:49Z</time>
      </trkpt>
      <trkpt lat="42.9548" lon="-0.73246">
        <ele>2040</ele>
        <time>2013-06-22T06:18:51Z</time>
      </trkpt>
      <trkpt lat="42.95479" lon="-0.73245">
        <ele>2040</ele>
        <time>2013-06-22T06:18:53Z</time>
      </trkpt>
      <trkpt lat="42.95478" lon="-0.73243">
        <ele>2040</ele>
        <time>2013-06-22T06:18:55Z</time>
      </trkpt>
      <trkpt lat="42.95478" lon="-0.73242">
        <ele>2040</ele>
        <time>2013-06-22T06:18:57Z</time>
      </trkpt>
      <trkpt lat="42.95477" lon="-0.7324">
        <ele>2040</ele>
        <time>2013-06-22T06:18:59Z</time>
      </trkpt>
      <trkpt lat="42.95476" lon="-0.73239">
        <ele>2041</ele>
        <time>2013-06-22T06:19:01Z</time>
      </trkpt>
      <trkpt lat="42.95475" lon="-0.73237">
        <ele>2041</ele>
        <time>2013-06-22T06:19:03Z</time>
      </trkpt>
      <trkpt lat="42.95473" lon="-0.73235">
        <ele>2041</ele>
        <time>2013-06-22T06:19:06Z</time>
      </trkpt>
      <trkpt lat="42.95473" lon="-0.73234">
        <ele>2042</ele>
        <time>2013-06-22T06:19:08Z</time>
      </trkpt>
      <trkpt lat="42.95472" lon="-0.73232">
        <ele>2043</ele>
        <time>2013-06-22T06:19:37Z</time>
      </trkpt>
      <trkpt lat="42.95471" lon="-0.7323">
        <ele>2043</ele>
        <time>2013-06-22T06:19:39Z</time>
      </trkpt>
      <trkpt lat="42.9547" lon="-0.73228">
        <ele>2043</ele>
        <time>2013-06-22T06:19:41Z</time>
      </trkpt>
      <trkpt lat="42.9547" lon="-0.73226">
        <ele>2044</ele>
        <time>2013-06-22T06:19:50Z</time>
      </trkpt>
      <trkpt lat="42.95469" lon="-0.73224">
        <ele>2044</ele>
        <time>2013-06-22T06:19:52Z</time>
      </trkpt>
      <trkpt lat="42.95469" lon="-0.73222">
        <ele>2044</ele>
        <time>2013-06-22T06:19:54Z</time>
      </trkpt>
      <trkpt lat="42.95468" lon="-0.7322">
        <ele>2044</ele>
        <time>2013-06-22T06:19:56Z</time>
      </trkpt>
      <trkpt lat="42.95467" lon="-0.73218">
        <ele>2044</ele>
        <time>2013-06-22T06:19:58Z</time>
      </trkpt>
      <trkpt lat="42.95467" lon="-0.73216">
        <ele>2044</ele>
        <time>2013-06-22T06:20:00Z</time>
      </trkpt>
      <trkpt lat="42.95466" lon="-0.73215">
        <ele>2044</ele>
        <time>2013-06-22T06:20:02Z</time>
      </trkpt>
      <trkpt lat="42.95465" lon="-0.73213">
        <ele>2044</ele>
        <time>2013-06-22T06:20:04Z</time>
      </trkpt>
      <trkpt lat="42.95464" lon="-0.73211">
        <ele>2044</ele>
        <time>2013-06-22T06:20:06Z</time>
      </trkpt>
      <trkpt lat="42.95464" lon="-0.73209">
        <ele>2045</ele>
        <time>2013-06-22T06:20:12Z</time>
      </trkpt>
      <trkpt lat="42.95463" lon="-0.73207">
        <ele>2045</ele>
        <time>2013-06-22T06:20:15Z</time>
      </trkpt>
      <trkpt lat="42.95463" lon="-0.73205">
        <ele>2045</ele>
        <time>2013-06-22T06:20:17Z</time>
      </trkpt>
      <trkpt lat="42.95462" lon="-0.73204">
        <ele>2045</ele>
        <time>2013-06-22T06:20:19Z</time>
      </trkpt>
      <trkpt lat="42.95461" lon="-0.73202">
        <ele>2045</ele>
        <time>2013-06-22T06:20:21Z</time>
      </trkpt>
      <trkpt lat="42.9546" lon="-0.732">
        <ele>2045</ele>
        <time>2013-06-22T06:20:23Z</time>
      </trkpt>
      <trkpt lat="42.95459" lon="-0.73199">
        <ele>2045</ele>
        <time>2013-06-22T06:20:25Z</time>
      </trkpt>
      <trkpt lat="42.95459" lon="-0.73197">
        <ele>2045</ele>
        <time>2013-06-22T06:20:27Z</time>
      </trkpt>
      <trkpt lat="42.95457" lon="-0.73195">
        <ele>2045</ele>
        <time>2013-06-22T06:20:29Z</time>
      </trkpt>
      <trkpt lat="42.95457" lon="-0.73194">
        <ele>2046</ele>
        <time>2013-06-22T06:20:31Z</time>
      </trkpt>
      <trkpt lat="42.95456" lon="-0.73192">
        <ele>2046</ele>
        <time>2013-06-22T06:20:33Z</time>
      </trkpt>
      <trkpt lat="42.95454" lon="-0.7319">
        <ele>2047</ele>
        <time>2013-06-22T06:20:36Z</time>
      </trkpt>
      <trkpt lat="42.95454" lon="-0.73189">
        <ele>2047</ele>
        <time>2013-06-22T06:20:38Z</time>
      </trkpt>
      <trkpt lat="42.95453" lon="-0.73187">
        <ele>2047</ele>
        <time>2013-06-22T06:20:40Z</time>
      </trkpt>
      <trkpt lat="42.95452" lon="-0.73185">
        <ele>2048</ele>
        <time>2013-06-22T06:20:42Z</time>
      </trkpt>
      <trkpt lat="42.95452" lon="-0.73183">
        <ele>2048</ele>
        <time>2013-06-22T06:20:44Z</time>
      </trkpt>
      <trkpt lat="42.95451" lon="-0.73181">
        <ele>2048</ele>
        <time>2013-06-22T06:20:46Z</time>
      </trkpt>
      <trkpt lat="42.95451" lon="-0.73179">
        <ele>2048</ele>
        <time>2013-06-22T06:20:48Z</time>
      </trkpt>
      <trkpt lat="42.95449" lon="-0.73178">
        <ele>2049</ele>
        <time>2013-06-22T06:20:51Z</time>
      </trkpt>
      <trkpt lat="42.95448" lon="-0.73179">
        <ele>2049</ele>
        <time>2013-06-22T06:20:53Z</time>
      </trkpt>
      <trkpt lat="42.95446" lon="-0.73181">
        <ele>2049</ele>
        <time>2013-06-22T06:20:55Z</time>
      </trkpt>
      <trkpt lat="42.95445" lon="-0.73181">
        <ele>2049</ele>
        <time>2013-06-22T06:20:57Z</time>
      </trkpt>
      <trkpt lat="42.95444" lon="-0.73179">
        <ele>2050</ele>
        <time>2013-06-22T06:21:00Z</time>
      </trkpt>
      <trkpt lat="42.95444" lon="-0.73178">
        <ele>2051</ele>
        <time>2013-06-22T06:21:02Z</time>
      </trkpt>
      <trkpt lat="42.95443" lon="-0.73176">
        <ele>2051</ele>
        <time>2013-06-22T06:21:05Z</time>
      </trkpt>
      <trkpt lat="42.95442" lon="-0.73174">
        <ele>2052</ele>
        <time>2013-06-22T06:21:07Z</time>
      </trkpt>
      <trkpt lat="42.95442" lon="-0.73173">
        <ele>2052</ele>
        <time>2013-06-22T06:21:09Z</time>
      </trkpt>
      <trkpt lat="42.95441" lon="-0.73171">
        <ele>2052</ele>
        <time>2013-06-22T06:21:11Z</time>
      </trkpt>
      <trkpt lat="42.95441" lon="-0.7317">
        <ele>2053</ele>
        <time>2013-06-22T06:21:13Z</time>
      </trkpt>
      <trkpt lat="42.9544" lon="-0.73168">
        <ele>2053</ele>
        <time>2013-06-22T06:21:15Z</time>
      </trkpt>
      <trkpt lat="42.9544" lon="-0.73167">
        <ele>2053</ele>
        <time>2013-06-22T06:21:17Z</time>
      </trkpt>
      <trkpt lat="42.95439" lon="-0.73165">
        <ele>2054</ele>
        <time>2013-06-22T06:21:19Z</time>
      </trkpt>
      <trkpt lat="42.95439" lon="-0.73164">
        <ele>2054</ele>
        <time>2013-06-22T06:21:21Z</time>
      </trkpt>
      <trkpt lat="42.95438" lon="-0.73162">
        <ele>2054</ele>
        <time>2013-06-22T06:21:23Z</time>
      </trkpt>
      <trkpt lat="42.95438" lon="-0.73161">
        <ele>2054</ele>
        <time>2013-06-22T06:21:25Z</time>
      </trkpt>
      <trkpt lat="42.95438" lon="-0.73159">
        <ele>2055</ele>
        <time>2013-06-22T06:21:27Z</time>
      </trkpt>
      <trkpt lat="42.95436" lon="-0.73158">
        <ele>2055</ele>
        <time>2013-06-22T06:21:30Z</time>
      </trkpt>
      <trkpt lat="42.95435" lon="-0.73159">
        <ele>2056</ele>
        <time>2013-06-22T06:21:33Z</time>
      </trkpt>
      <trkpt lat="42.95434" lon="-0.73161">
        <ele>2056</ele>
        <time>2013-06-22T06:21:36Z</time>
      </trkpt>
      <trkpt lat="42.95433" lon="-0.73162">
        <ele>2056</ele>
        <time>2013-06-22T06:21:38Z</time>
      </trkpt>
      <trkpt lat="42.95431" lon="-0.73163">
        <ele>2056</ele>
        <time>2013-06-22T06:21:40Z</time>
      </trkpt>
      <trkpt lat="42.9543" lon="-0.73164">
        <ele>2056</ele>
        <time>2013-06-22T06:21:43Z</time>
      </trkpt>
      <trkpt lat="42.95428" lon="-0.73165">
        <ele>2057</ele>
        <time>2013-06-22T06:21:59Z</time>
      </trkpt>
      <trkpt lat="42.95427" lon="-0.73163">
        <ele>2057</ele>
        <time>2013-06-22T06:22:02Z</time>
      </trkpt>
      <trkpt lat="42.95427" lon="-0.73161">
        <ele>2057</ele>
        <time>2013-06-22T06:22:04Z</time>
      </trkpt>
      <trkpt lat="42.95427" lon="-0.73159">
        <ele>2057</ele>
        <time>2013-06-22T06:22:06Z</time>
      </trkpt>
      <trkpt lat="42.95427" lon="-0.73156">
        <ele>2057</ele>
        <time>2013-06-22T06:22:08Z</time>
      </trkpt>
      <trkpt lat="42.95427" lon="-0.73154">
        <ele>2058</ele>
        <time>2013-06-22T06:22:10Z</time>
      </trkpt>
      <trkpt lat="42.95427" lon="-0.73152">
        <ele>2058</ele>
        <time>2013-06-22T06:22:12Z</time>
      </trkpt>
      <trkpt lat="42.95427" lon="-0.7315">
        <ele>2058</ele>
        <time>2013-06-22T06:22:14Z</time>
      </trkpt>
      <trkpt lat="42.95426" lon="-0.73148">
        <ele>2058</ele>
        <time>2013-06-22T06:22:16Z</time>
      </trkpt>
      <trkpt lat="42.95426" lon="-0.73146">
        <ele>2059</ele>
        <time>2013-06-22T06:22:18Z</time>
      </trkpt>
      <trkpt lat="42.95426" lon="-0.73144">
        <ele>2059</ele>
        <time>2013-06-22T06:22:19Z</time>
      </trkpt>
      <trkpt lat="42.95426" lon="-0.73142">
        <ele>2059</ele>
        <time>2013-06-22T06:22:21Z</time>
      </trkpt>
      <trkpt lat="42.95426" lon="-0.7314">
        <ele>2059</ele>
        <time>2013-06-22T06:22:23Z</time>
      </trkpt>
      <trkpt lat="42.95426" lon="-0.73138">
        <ele>2060</ele>
        <time>2013-06-22T06:22:25Z</time>
      </trkpt>
      <trkpt lat="42.95426" lon="-0.73136">
        <ele>2060</ele>
        <time>2013-06-22T06:22:27Z</time>
      </trkpt>
      <trkpt lat="42.95426" lon="-0.73134">
        <ele>2060</ele>
        <time>2013-06-22T06:22:29Z</time>
      </trkpt>
      <trkpt lat="42.95426" lon="-0.73132">
        <ele>2060</ele>
        <time>2013-06-22T06:22:31Z</time>
      </trkpt>
      <trkpt lat="42.95425" lon="-0.73132">
        <ele>2061</ele>
        <time>2013-06-22T06:22:33Z</time>
      </trkpt>
      <trkpt lat="42.95423" lon="-0.73131">
        <ele>2061</ele>
        <time>2013-06-22T06:22:35Z</time>
      </trkpt>
      <trkpt lat="42.95422" lon="-0.73131">
        <ele>2062</ele>
        <time>2013-06-22T06:22:37Z</time>
      </trkpt>
      <trkpt lat="42.9542" lon="-0.7313">
        <ele>2062</ele>
        <time>2013-06-22T06:22:39Z</time>
      </trkpt>
      <trkpt lat="42.9542" lon="-0.73128">
        <ele>2062</ele>
        <time>2013-06-22T06:22:41Z</time>
      </trkpt>
      <trkpt lat="42.9542" lon="-0.73126">
        <ele>2062</ele>
        <time>2013-06-22T06:22:43Z</time>
      </trkpt>
      <trkpt lat="42.9542" lon="-0.73124">
        <ele>2063</ele>
        <time>2013-06-22T06:22:45Z</time>
      </trkpt>
      <trkpt lat="42.95419" lon="-0.73123">
        <ele>2063</ele>
        <time>2013-06-22T06:22:47Z</time>
      </trkpt>
      <trkpt lat="42.95419" lon="-0.73121">
        <ele>2063</ele>
        <time>2013-06-22T06:22:49Z</time>
      </trkpt>
      <trkpt lat="42.95417" lon="-0.73121">
        <ele>2065</ele>
        <time>2013-06-22T06:23:01Z</time>
      </trkpt>
      <trkpt lat="42.95417" lon="-0.73119">
        <ele>2066</ele>
        <time>2013-06-22T06:23:10Z</time>
      </trkpt>
      <trkpt lat="42.95415" lon="-0.73118">
        <ele>2067</ele>
        <time>2013-06-22T06:23:13Z</time>
      </trkpt>
      <trkpt lat="42.95414" lon="-0.73116">
        <ele>2067</ele>
        <time>2013-06-22T06:23:15Z</time>
      </trkpt>
      <trkpt lat="42.95413" lon="-0.73115">
        <ele>2067</ele>
        <time>2013-06-22T06:23:17Z</time>
      </trkpt>
      <trkpt lat="42.95412" lon="-0.73114">
        <ele>2067</ele>
        <time>2013-06-22T06:23:19Z</time>
      </trkpt>
      <trkpt lat="42.9541" lon="-0.73112">
        <ele>2068</ele>
        <time>2013-06-22T06:23:21Z</time>
      </trkpt>
      <trkpt lat="42.95409" lon="-0.73111">
        <ele>2068</ele>
        <time>2013-06-22T06:23:23Z</time>
      </trkpt>
      <trkpt lat="42.95407" lon="-0.7311">
        <ele>2068</ele>
        <time>2013-06-22T06:23:25Z</time>
      </trkpt>
      <trkpt lat="42.95406" lon="-0.73109">
        <ele>2068</ele>
        <time>2013-06-22T06:23:27Z</time>
      </trkpt>
      <trkpt lat="42.95404" lon="-0.73108">
        <ele>2068</ele>
        <time>2013-06-22T06:23:29Z</time>
      </trkpt>
      <trkpt lat="42.95403" lon="-0.73106">
        <ele>2069</ele>
        <time>2013-06-22T06:23:31Z</time>
      </trkpt>
      <trkpt lat="42.95402" lon="-0.73105">
        <ele>2069</ele>
        <time>2013-06-22T06:23:33Z</time>
      </trkpt>
      <trkpt lat="42.95401" lon="-0.73103">
        <ele>2069</ele>
        <time>2013-06-22T06:23:35Z</time>
      </trkpt>
      <trkpt lat="42.95399" lon="-0.73102">
        <ele>2069</ele>
        <time>2013-06-22T06:23:37Z</time>
      </trkpt>
      <trkpt lat="42.95398" lon="-0.73102">
        <ele>2069</ele>
        <time>2013-06-22T06:23:39Z</time>
      </trkpt>
      <trkpt lat="42.95396" lon="-0.73102">
        <ele>2070</ele>
        <time>2013-06-22T06:23:41Z</time>
      </trkpt>
      <trkpt lat="42.95394" lon="-0.73102">
        <ele>2070</ele>
        <time>2013-06-22T06:23:43Z</time>
      </trkpt>
      <trkpt lat="42.95393" lon="-0.73102">
        <ele>2070</ele>
        <time>2013-06-22T06:23:45Z</time>
      </trkpt>
      <trkpt lat="42.95391" lon="-0.73102">
        <ele>2070</ele>
        <time>2013-06-22T06:23:47Z</time>
      </trkpt>
      <trkpt lat="42.95389" lon="-0.73101">
        <ele>2071</ele>
        <time>2013-06-22T06:23:49Z</time>
      </trkpt>
      <trkpt lat="42.95387" lon="-0.73101">
        <ele>2071</ele>
        <time>2013-06-22T06:23:51Z</time>
      </trkpt>
      <trkpt lat="42.95385" lon="-0.731">
        <ele>2071</ele>
        <time>2013-06-22T06:23:53Z</time>
      </trkpt>
      <trkpt lat="42.95384" lon="-0.73099">
        <ele>2072</ele>
        <time>2013-06-22T06:23:55Z</time>
      </trkpt>
      <trkpt lat="42.95383" lon="-0.73097">
        <ele>2072</ele>
        <time>2013-06-22T06:23:57Z</time>
      </trkpt>
      <trkpt lat="42.95382" lon="-0.73096">
        <ele>2072</ele>
        <time>2013-06-22T06:23:59Z</time>
      </trkpt>
      <trkpt lat="42.95381" lon="-0.73093">
        <ele>2073</ele>
        <time>2013-06-22T06:24:01Z</time>
      </trkpt>
      <trkpt lat="42.9538" lon="-0.73092">
        <ele>2073</ele>
        <time>2013-06-22T06:24:03Z</time>
      </trkpt>
      <trkpt lat="42.9538" lon="-0.7309">
        <ele>2074</ele>
        <time>2013-06-22T06:24:17Z</time>
      </trkpt>
      <trkpt lat="42.9538" lon="-0.73088">
        <ele>2074</ele>
        <time>2013-06-22T06:24:19Z</time>
      </trkpt>
      <trkpt lat="42.95379" lon="-0.73085">
        <ele>2074</ele>
        <time>2013-06-22T06:24:21Z</time>
      </trkpt>
      <trkpt lat="42.95379" lon="-0.73083">
        <ele>2075</ele>
        <time>2013-06-22T06:24:23Z</time>
      </trkpt>
      <trkpt lat="42.95378" lon="-0.73081">
        <ele>2075</ele>
        <time>2013-06-22T06:24:25Z</time>
      </trkpt>
      <trkpt lat="42.95377" lon="-0.7308">
        <ele>2075</ele>
        <time>2013-06-22T06:24:27Z</time>
      </trkpt>
      <trkpt lat="42.95377" lon="-0.73077">
        <ele>2076</ele>
        <time>2013-06-22T06:24:29Z</time>
      </trkpt>
      <trkpt lat="42.95376" lon="-0.73075">
        <ele>2076</ele>
        <time>2013-06-22T06:24:31Z</time>
      </trkpt>
      <trkpt lat="42.95376" lon="-0.73073">
        <ele>2076</ele>
        <time>2013-06-22T06:24:33Z</time>
      </trkpt>
      <trkpt lat="42.95376" lon="-0.73071">
        <ele>2076</ele>
        <time>2013-06-22T06:24:35Z</time>
      </trkpt>
      <trkpt lat="42.95376" lon="-0.73069">
        <ele>2076</ele>
        <time>2013-06-22T06:24:36Z</time>
      </trkpt>
      <trkpt lat="42.95376" lon="-0.73067">
        <ele>2077</ele>
        <time>2013-06-22T06:24:38Z</time>
      </trkpt>
      <trkpt lat="42.95375" lon="-0.73066">
        <ele>2077</ele>
        <time>2013-06-22T06:24:40Z</time>
      </trkpt>
      <trkpt lat="42.95373" lon="-0.73064">
        <ele>2077</ele>
        <time>2013-06-22T06:24:43Z</time>
      </trkpt>
      <trkpt lat="42.95372" lon="-0.73063">
        <ele>2077</ele>
        <time>2013-06-22T06:24:44Z</time>
      </trkpt>
      <trkpt lat="42.95371" lon="-0.73061">
        <ele>2079</ele>
        <time>2013-06-22T06:24:46Z</time>
      </trkpt>
      <trkpt lat="42.95371" lon="-0.73059">
        <ele>2080</ele>
        <time>2013-06-22T06:24:48Z</time>
      </trkpt>
      <trkpt lat="42.95371" lon="-0.73056">
        <ele>2081</ele>
        <time>2013-06-22T06:24:50Z</time>
      </trkpt>
      <trkpt lat="42.95371" lon="-0.73054">
        <ele>2081</ele>
        <time>2013-06-22T06:24:52Z</time>
      </trkpt>
      <trkpt lat="42.95372" lon="-0.73051">
        <ele>2082</ele>
        <time>2013-06-22T06:24:54Z</time>
      </trkpt>
      <trkpt lat="42.95372" lon="-0.73049">
        <ele>2082</ele>
        <time>2013-06-22T06:24:56Z</time>
      </trkpt>
      <trkpt lat="42.95371" lon="-0.73047">
        <ele>2082</ele>
        <time>2013-06-22T06:24:58Z</time>
      </trkpt>
      <trkpt lat="42.9537" lon="-0.73046">
        <ele>2083</ele>
        <time>2013-06-22T06:25:00Z</time>
      </trkpt>
      <trkpt lat="42.95369" lon="-0.73046">
        <ele>2083</ele>
        <time>2013-06-22T06:25:02Z</time>
      </trkpt>
      <trkpt lat="42.95367" lon="-0.73045">
        <ele>2083</ele>
        <time>2013-06-22T06:25:04Z</time>
      </trkpt>
      <trkpt lat="42.95367" lon="-0.73043">
        <ele>2083</ele>
        <time>2013-06-22T06:25:06Z</time>
      </trkpt>
      <trkpt lat="42.95368" lon="-0.7304">
        <ele>2083</ele>
        <time>2013-06-22T06:25:08Z</time>
      </trkpt>
      <trkpt lat="42.95368" lon="-0.73038">
        <ele>2083</ele>
        <time>2013-06-22T06:25:10Z</time>
      </trkpt>
      <trkpt lat="42.95369" lon="-0.73035">
        <ele>2083</ele>
        <time>2013-06-22T06:25:12Z</time>
      </trkpt>
      <trkpt lat="42.95369" lon="-0.73033">
        <ele>2083</ele>
        <time>2013-06-22T06:25:14Z</time>
      </trkpt>
      <trkpt lat="42.9537" lon="-0.73031">
        <ele>2083</ele>
        <time>2013-06-22T06:25:16Z</time>
      </trkpt>
      <trkpt lat="42.9537" lon="-0.73029">
        <ele>2083</ele>
        <time>2013-06-22T06:25:17Z</time>
      </trkpt>
      <trkpt lat="42.9537" lon="-0.73027">
        <ele>2083</ele>
        <time>2013-06-22T06:25:19Z</time>
      </trkpt>
      <trkpt lat="42.95371" lon="-0.73025">
        <ele>2083</ele>
        <time>2013-06-22T06:25:35Z</time>
      </trkpt>
      <trkpt lat="42.95371" lon="-0.73023">
        <ele>2083</ele>
        <time>2013-06-22T06:25:37Z</time>
      </trkpt>
      <trkpt lat="42.95372" lon="-0.73021">
        <ele>2083</ele>
        <time>2013-06-22T06:25:39Z</time>
      </trkpt>
      <trkpt lat="42.95372" lon="-0.73019">
        <ele>2083</ele>
        <time>2013-06-22T06:25:41Z</time>
      </trkpt>
      <trkpt lat="42.95371" lon="-0.73017">
        <ele>2084</ele>
        <time>2013-06-22T06:25:43Z</time>
      </trkpt>
      <trkpt lat="42.9537" lon="-0.73016">
        <ele>2085</ele>
        <time>2013-06-22T06:25:46Z</time>
      </trkpt>
      <trkpt lat="42.95368" lon="-0.73015">
        <ele>2085</ele>
        <time>2013-06-22T06:25:48Z</time>
      </trkpt>
      <trkpt lat="42.95367" lon="-0.73015">
        <ele>2085</ele>
        <time>2013-06-22T06:25:50Z</time>
      </trkpt>
      <trkpt lat="42.95365" lon="-0.73015">
        <ele>2085</ele>
        <time>2013-06-22T06:25:52Z</time>
      </trkpt>
      <trkpt lat="42.95364" lon="-0.73014">
        <ele>2085</ele>
        <time>2013-06-22T06:25:54Z</time>
      </trkpt>
      <trkpt lat="42.95363" lon="-0.73013">
        <ele>2085</ele>
        <time>2013-06-22T06:25:56Z</time>
      </trkpt>
      <trkpt lat="42.95362" lon="-0.73011">
        <ele>2085</ele>
        <time>2013-06-22T06:25:57Z</time>
      </trkpt>
      <trkpt lat="42.95362" lon="-0.73009">
        <ele>2085</ele>
        <time>2013-06-22T06:25:59Z</time>
      </trkpt>
      <trkpt lat="42.95362" lon="-0.73007">
        <ele>2085</ele>
        <time>2013-06-22T06:26:01Z</time>
      </trkpt>
      <trkpt lat="42.95362" lon="-0.73006">
        <ele>2085</ele>
        <time>2013-06-22T06:26:03Z</time>
      </trkpt>
      <trkpt lat="42.9536" lon="-0.73005">
        <ele>2085</ele>
        <time>2013-06-22T06:26:06Z</time>
      </trkpt>
      <trkpt lat="42.95359" lon="-0.73004">
        <ele>2086</ele>
        <time>2013-06-22T06:26:08Z</time>
      </trkpt>
      <trkpt lat="42.95357" lon="-0.73003">
        <ele>2086</ele>
        <time>2013-06-22T06:26:10Z</time>
      </trkpt>
      <trkpt lat="42.95356" lon="-0.73001">
        <ele>2087</ele>
        <time>2013-06-22T06:26:12Z</time>
      </trkpt>
      <trkpt lat="42.95356" lon="-0.72999">
        <ele>2087</ele>
        <time>2013-06-22T06:26:14Z</time>
      </trkpt>
      <trkpt lat="42.95356" lon="-0.72997">
        <ele>2087</ele>
        <time>2013-06-22T06:26:15Z</time>
      </trkpt>
      <trkpt lat="42.95356" lon="-0.72995">
        <ele>2087</ele>
        <time>2013-06-22T06:26:17Z</time>
      </trkpt>
      <trkpt lat="42.95356" lon="-0.72993">
        <ele>2087</ele>
        <time>2013-06-22T06:26:19Z</time>
      </trkpt>
      <trkpt lat="42.95356" lon="-0.7299">
        <ele>2087</ele>
        <time>2013-06-22T06:26:21Z</time>
      </trkpt>
      <trkpt lat="42.95356" lon="-0.72988">
        <ele>2087</ele>
        <time>2013-06-22T06:26:23Z</time>
      </trkpt>
      <trkpt lat="42.95355" lon="-0.72986">
        <ele>2087</ele>
        <time>2013-06-22T06:26:25Z</time>
      </trkpt>
      <trkpt lat="42.95356" lon="-0.72984">
        <ele>2088</ele>
        <time>2013-06-22T06:26:49Z</time>
      </trkpt>
      <trkpt lat="42.95355" lon="-0.72983">
        <ele>2088</ele>
        <time>2013-06-22T06:26:51Z</time>
      </trkpt>
      <trkpt lat="42.95355" lon="-0.7298">
        <ele>2088</ele>
        <time>2013-06-22T06:26:53Z</time>
      </trkpt>
      <trkpt lat="42.95354" lon="-0.72978">
        <ele>2088</ele>
        <time>2013-06-22T06:26:55Z</time>
      </trkpt>
      <trkpt lat="42.95353" lon="-0.72975">
        <ele>2088</ele>
        <time>2013-06-22T06:26:57Z</time>
      </trkpt>
      <trkpt lat="42.95353" lon="-0.72973">
        <ele>2088</ele>
        <time>2013-06-22T06:26:59Z</time>
      </trkpt>
      <trkpt lat="42.95352" lon="-0.72971">
        <ele>2088</ele>
        <time>2013-06-22T06:27:01Z</time>
      </trkpt>
      <trkpt lat="42.95351" lon="-0.72969">
        <ele>2088</ele>
        <time>2013-06-22T06:27:03Z</time>
      </trkpt>
      <trkpt lat="42.95351" lon="-0.72967">
        <ele>2088</ele>
        <time>2013-06-22T06:27:05Z</time>
      </trkpt>
      <trkpt lat="42.9535" lon="-0.72965">
        <ele>2088</ele>
        <time>2013-06-22T06:27:07Z</time>
      </trkpt>
      <trkpt lat="42.95349" lon="-0.72962">
        <ele>2088</ele>
        <time>2013-06-22T06:27:09Z</time>
      </trkpt>
      <trkpt lat="42.95349" lon="-0.72961">
        <ele>2089</ele>
        <time>2013-06-22T06:27:11Z</time>
      </trkpt>
      <trkpt lat="42.95348" lon="-0.72959">
        <ele>2089</ele>
        <time>2013-06-22T06:27:15Z</time>
      </trkpt>
      <trkpt lat="42.95348" lon="-0.72957">
        <ele>2089</ele>
        <time>2013-06-22T06:27:17Z</time>
      </trkpt>
      <trkpt lat="42.95347" lon="-0.72955">
        <ele>2089</ele>
        <time>2013-06-22T06:27:18Z</time>
      </trkpt>
      <trkpt lat="42.95347" lon="-0.72953">
        <ele>2089</ele>
        <time>2013-06-22T06:27:20Z</time>
      </trkpt>
      <trkpt lat="42.95346" lon="-0.72951">
        <ele>2089</ele>
        <time>2013-06-22T06:27:22Z</time>
      </trkpt>
      <trkpt lat="42.95345" lon="-0.72949">
        <ele>2089</ele>
        <time>2013-06-22T06:27:24Z</time>
      </trkpt>
      <trkpt lat="42.95345" lon="-0.72947">
        <ele>2089</ele>
        <time>2013-06-22T06:27:26Z</time>
      </trkpt>
      <trkpt lat="42.95344" lon="-0.72944">
        <ele>2089</ele>
        <time>2013-06-22T06:27:28Z</time>
      </trkpt>
      <trkpt lat="42.95343" lon="-0.72942">
        <ele>2090</ele>
        <time>2013-06-22T06:27:30Z</time>
      </trkpt>
      <trkpt lat="42.95342" lon="-0.7294">
        <ele>2090</ele>
        <time>2013-06-22T06:27:32Z</time>
      </trkpt>
      <trkpt lat="42.95341" lon="-0.72938">
        <ele>2090</ele>
        <time>2013-06-22T06:27:34Z</time>
      </trkpt>
      <trkpt lat="42.9534" lon="-0.72936">
        <ele>2090</ele>
        <time>2013-06-22T06:27:36Z</time>
      </trkpt>
      <trkpt lat="42.9534" lon="-0.72934">
        <ele>2090</ele>
        <time>2013-06-22T06:27:38Z</time>
      </trkpt>
      <trkpt lat="42.95338" lon="-0.72932">
        <ele>2090</ele>
        <time>2013-06-22T06:27:40Z</time>
      </trkpt>
      <trkpt lat="42.95338" lon="-0.7293">
        <ele>2090</ele>
        <time>2013-06-22T06:27:42Z</time>
      </trkpt>
      <trkpt lat="42.95337" lon="-0.72928">
        <ele>2090</ele>
        <time>2013-06-22T06:27:49Z</time>
      </trkpt>
      <trkpt lat="42.95336" lon="-0.72926">
        <ele>2091</ele>
        <time>2013-06-22T06:27:51Z</time>
      </trkpt>
      <trkpt lat="42.95335" lon="-0.72924">
        <ele>2091</ele>
        <time>2013-06-22T06:27:53Z</time>
      </trkpt>
      <trkpt lat="42.95334" lon="-0.72922">
        <ele>2091</ele>
        <time>2013-06-22T06:27:55Z</time>
      </trkpt>
      <trkpt lat="42.95333" lon="-0.7292">
        <ele>2091</ele>
        <time>2013-06-22T06:28:07Z</time>
      </trkpt>
      <trkpt lat="42.95332" lon="-0.72918">
        <ele>2091</ele>
        <time>2013-06-22T06:28:09Z</time>
      </trkpt>
      <trkpt lat="42.95331" lon="-0.72917">
        <ele>2091</ele>
        <time>2013-06-22T06:28:11Z</time>
      </trkpt>
      <trkpt lat="42.95331" lon="-0.72915">
        <ele>2091</ele>
        <time>2013-06-22T06:28:13Z</time>
      </trkpt>
      <trkpt lat="42.9533" lon="-0.72913">
        <ele>2091</ele>
        <time>2013-06-22T06:28:15Z</time>
      </trkpt>
      <trkpt lat="42.9533" lon="-0.72912">
        <ele>2091</ele>
        <time>2013-06-22T06:28:17Z</time>
      </trkpt>
      <trkpt lat="42.95329" lon="-0.7291">
        <ele>2091</ele>
        <time>2013-06-22T06:28:19Z</time>
      </trkpt>
      <trkpt lat="42.95328" lon="-0.72908">
        <ele>2091</ele>
        <time>2013-06-22T06:28:21Z</time>
      </trkpt>
      <trkpt lat="42.95327" lon="-0.72907">
        <ele>2091</ele>
        <time>2013-06-22T06:28:23Z</time>
      </trkpt>
      <trkpt lat="42.95326" lon="-0.72905">
        <ele>2091</ele>
        <time>2013-06-22T06:28:27Z</time>
      </trkpt>
      <trkpt lat="42.95325" lon="-0.72903">
        <ele>2092</ele>
        <time>2013-06-22T06:28:29Z</time>
      </trkpt>
      <trkpt lat="42.95324" lon="-0.72901">
        <ele>2092</ele>
        <time>2013-06-22T06:28:32Z</time>
      </trkpt>
      <trkpt lat="42.95323" lon="-0.72899">
        <ele>2092</ele>
        <time>2013-06-22T06:28:34Z</time>
      </trkpt>
      <trkpt lat="42.95322" lon="-0.72897">
        <ele>2092</ele>
        <time>2013-06-22T06:28:37Z</time>
      </trkpt>
      <trkpt lat="42.95321" lon="-0.72895">
        <ele>2092</ele>
        <time>2013-06-22T06:28:41Z</time>
      </trkpt>
      <trkpt lat="42.9532" lon="-0.72894">
        <ele>2092</ele>
        <time>2013-06-22T06:28:44Z</time>
      </trkpt>
      <trkpt lat="42.95319" lon="-0.72892">
        <ele>2092</ele>
        <time>2013-06-22T06:28:47Z</time>
      </trkpt>
      <trkpt lat="42.95319" lon="-0.7289">
        <ele>2092</ele>
        <time>2013-06-22T06:28:49Z</time>
      </trkpt>
      <trkpt lat="42.95318" lon="-0.72889">
        <ele>2093</ele>
        <time>2013-06-22T06:28:52Z</time>
      </trkpt>
      <trkpt lat="42.95317" lon="-0.72887">
        <ele>2093</ele>
        <time>2013-06-22T06:28:54Z</time>
      </trkpt>
      <trkpt lat="42.95316" lon="-0.72886">
        <ele>2093</ele>
        <time>2013-06-22T06:28:56Z</time>
      </trkpt>
      <trkpt lat="42.95315" lon="-0.72884">
        <ele>2093</ele>
        <time>2013-06-22T06:28:59Z</time>
      </trkpt>
      <trkpt lat="42.95315" lon="-0.72882">
        <ele>2093</ele>
        <time>2013-06-22T06:29:01Z</time>
      </trkpt>
      <trkpt lat="42.95314" lon="-0.72881">
        <ele>2093</ele>
        <time>2013-06-22T06:29:04Z</time>
      </trkpt>
      <trkpt lat="42.95314" lon="-0.72879">
        <ele>2093</ele>
        <time>2013-06-22T06:29:06Z</time>
      </trkpt>
      <trkpt lat="42.95313" lon="-0.72877">
        <ele>2094</ele>
        <time>2013-06-22T06:29:09Z</time>
      </trkpt>
      <trkpt lat="42.95312" lon="-0.72875">
        <ele>2094</ele>
        <time>2013-06-22T06:29:12Z</time>
      </trkpt>
      <trkpt lat="42.95311" lon="-0.72874">
        <ele>2094</ele>
        <time>2013-06-22T06:29:15Z</time>
      </trkpt>
      <trkpt lat="42.95311" lon="-0.72872">
        <ele>2094</ele>
        <time>2013-06-22T06:29:17Z</time>
      </trkpt>
      <trkpt lat="42.9531" lon="-0.7287">
        <ele>2094</ele>
        <time>2013-06-22T06:29:20Z</time>
      </trkpt>
      <trkpt lat="42.95309" lon="-0.72869">
        <ele>2094</ele>
        <time>2013-06-22T06:29:23Z</time>
      </trkpt>
      <trkpt lat="42.95309" lon="-0.72867">
        <ele>2094</ele>
        <time>2013-06-22T06:29:25Z</time>
      </trkpt>
      <trkpt lat="42.95308" lon="-0.72865">
        <ele>2094</ele>
        <time>2013-06-22T06:29:28Z</time>
      </trkpt>
      <trkpt lat="42.95308" lon="-0.72864">
        <ele>2094</ele>
        <time>2013-06-22T06:29:30Z</time>
      </trkpt>
      <trkpt lat="42.95307" lon="-0.72862">
        <ele>2094</ele>
        <time>2013-06-22T06:29:32Z</time>
      </trkpt>
      <trkpt lat="42.95307" lon="-0.7286">
        <ele>2095</ele>
        <time>2013-06-22T06:29:35Z</time>
      </trkpt>
      <trkpt lat="42.95306" lon="-0.72859">
        <ele>2095</ele>
        <time>2013-06-22T06:29:37Z</time>
      </trkpt>
      <trkpt lat="42.95306" lon="-0.72857">
        <ele>2095</ele>
        <time>2013-06-22T06:29:39Z</time>
      </trkpt>
      <trkpt lat="42.95305" lon="-0.72855">
        <ele>2095</ele>
        <time>2013-06-22T06:29:42Z</time>
      </trkpt>
      <trkpt lat="42.95305" lon="-0.72854">
        <ele>2095</ele>
        <time>2013-06-22T06:29:44Z</time>
      </trkpt>
      <trkpt lat="42.95304" lon="-0.72852">
        <ele>2095</ele>
        <time>2013-06-22T06:29:46Z</time>
      </trkpt>
      <trkpt lat="42.95304" lon="-0.7285">
        <ele>2095</ele>
        <time>2013-06-22T06:29:49Z</time>
      </trkpt>
      <trkpt lat="42.95303" lon="-0.72848">
        <ele>2095</ele>
        <time>2013-06-22T06:29:51Z</time>
      </trkpt>
      <trkpt lat="42.95303" lon="-0.72846">
        <ele>2095</ele>
        <time>2013-06-22T06:29:53Z</time>
      </trkpt>
      <trkpt lat="42.95302" lon="-0.72845">
        <ele>2095</ele>
        <time>2013-06-22T06:29:55Z</time>
      </trkpt>
      <trkpt lat="42.95302" lon="-0.72843">
        <ele>2096</ele>
        <time>2013-06-22T06:29:57Z</time>
      </trkpt>
      <trkpt lat="42.95301" lon="-0.72841">
        <ele>2096</ele>
        <time>2013-06-22T06:29:59Z</time>
      </trkpt>
      <trkpt lat="42.95301" lon="-0.72839">
        <ele>2096</ele>
        <time>2013-06-22T06:30:01Z</time>
      </trkpt>
      <trkpt lat="42.953" lon="-0.72838">
        <ele>2096</ele>
        <time>2013-06-22T06:30:03Z</time>
      </trkpt>
      <trkpt lat="42.953" lon="-0.72836">
        <ele>2096</ele>
        <time>2013-06-22T06:30:05Z</time>
      </trkpt>
      <trkpt lat="42.95299" lon="-0.72835">
        <ele>2096</ele>
        <time>2013-06-22T06:30:07Z</time>
      </trkpt>
      <trkpt lat="42.95299" lon="-0.72833">
        <ele>2096</ele>
        <time>2013-06-22T06:30:09Z</time>
      </trkpt>
      <trkpt lat="42.95298" lon="-0.72831">
        <ele>2096</ele>
        <time>2013-06-22T06:30:11Z</time>
      </trkpt>
      <trkpt lat="42.95298" lon="-0.7283">
        <ele>2097</ele>
        <time>2013-06-22T06:30:13Z</time>
      </trkpt>
      <trkpt lat="42.95297" lon="-0.72828">
        <ele>2097</ele>
        <time>2013-06-22T06:30:15Z</time>
      </trkpt>
      <trkpt lat="42.95296" lon="-0.72826">
        <ele>2097</ele>
        <time>2013-06-22T06:30:17Z</time>
      </trkpt>
      <trkpt lat="42.95296" lon="-0.72824">
        <ele>2097</ele>
        <time>2013-06-22T06:30:19Z</time>
      </trkpt>
      <trkpt lat="42.95295" lon="-0.72823">
        <ele>2097</ele>
        <time>2013-06-22T06:30:21Z</time>
      </trkpt>
      <trkpt lat="42.95295" lon="-0.72821">
        <ele>2097</ele>
        <time>2013-06-22T06:30:23Z</time>
      </trkpt>
      <trkpt lat="42.95294" lon="-0.72819">
        <ele>2097</ele>
        <time>2013-06-22T06:30:25Z</time>
      </trkpt>
      <trkpt lat="42.95294" lon="-0.72818">
        <ele>2097</ele>
        <time>2013-06-22T06:30:27Z</time>
      </trkpt>
      <trkpt lat="42.95293" lon="-0.72816">
        <ele>2097</ele>
        <time>2013-06-22T06:30:29Z</time>
      </trkpt>
      <trkpt lat="42.95293" lon="-0.72814">
        <ele>2098</ele>
        <time>2013-06-22T06:30:31Z</time>
      </trkpt>
      <trkpt lat="42.95292" lon="-0.72812">
        <ele>2098</ele>
        <time>2013-06-22T06:30:33Z</time>
      </trkpt>
      <trkpt lat="42.95291" lon="-0.72811">
        <ele>2098</ele>
        <time>2013-06-22T06:30:35Z</time>
      </trkpt>
      <trkpt lat="42.9529" lon="-0.72809">
        <ele>2098</ele>
        <time>2013-06-22T06:30:37Z</time>
      </trkpt>
      <trkpt lat="42.9529" lon="-0.72808">
        <ele>2098</ele>
        <time>2013-06-22T06:30:39Z</time>
      </trkpt>
      <trkpt lat="42.95289" lon="-0.72806">
        <ele>2098</ele>
        <time>2013-06-22T06:30:41Z</time>
      </trkpt>
      <trkpt lat="42.95289" lon="-0.72805">
        <ele>2099</ele>
        <time>2013-06-22T06:30:43Z</time>
      </trkpt>
      <trkpt lat="42.95288" lon="-0.72803">
        <ele>2099</ele>
        <time>2013-06-22T06:30:46Z</time>
      </trkpt>
      <trkpt lat="42.95287" lon="-0.72801">
        <ele>2099</ele>
        <time>2013-06-22T06:30:49Z</time>
      </trkpt>
      <trkpt lat="42.95287" lon="-0.72799">
        <ele>2099</ele>
        <time>2013-06-22T06:30:51Z</time>
      </trkpt>
      <trkpt lat="42.95287" lon="-0.72798">
        <ele>2099</ele>
        <time>2013-06-22T06:30:54Z</time>
      </trkpt>
      <trkpt lat="42.95286" lon="-0.72796">
        <ele>2100</ele>
        <time>2013-06-22T06:30:56Z</time>
      </trkpt>
      <trkpt lat="42.95285" lon="-0.72794">
        <ele>2100</ele>
        <time>2013-06-22T06:30:59Z</time>
      </trkpt>
      <trkpt lat="42.95285" lon="-0.72792">
        <ele>2100</ele>
        <time>2013-06-22T06:31:02Z</time>
      </trkpt>
      <trkpt lat="42.95284" lon="-0.7279">
        <ele>2100</ele>
        <time>2013-06-22T06:31:04Z</time>
      </trkpt>
      <trkpt lat="42.95283" lon="-0.72789">
        <ele>2100</ele>
        <time>2013-06-22T06:31:06Z</time>
      </trkpt>
      <trkpt lat="42.95282" lon="-0.72787">
        <ele>2100</ele>
        <time>2013-06-22T06:31:08Z</time>
      </trkpt>
      <trkpt lat="42.95282" lon="-0.72786">
        <ele>2100</ele>
        <time>2013-06-22T06:31:10Z</time>
      </trkpt>
      <trkpt lat="42.95281" lon="-0.72784">
        <ele>2100</ele>
        <time>2013-06-22T06:31:13Z</time>
      </trkpt>
      <trkpt lat="42.95281" lon="-0.72782">
        <ele>2100</ele>
        <time>2013-06-22T06:31:16Z</time>
      </trkpt>
      <trkpt lat="42.9528" lon="-0.7278">
        <ele>2101</ele>
        <time>2013-06-22T06:31:18Z</time>
      </trkpt>
      <trkpt lat="42.9528" lon="-0.72779">
        <ele>2101</ele>
        <time>2013-06-22T06:31:20Z</time>
      </trkpt>
      <trkpt lat="42.95279" lon="-0.72777">
        <ele>2102</ele>
        <time>2013-06-22T06:31:22Z</time>
      </trkpt>
      <trkpt lat="42.95278" lon="-0.72775">
        <ele>2102</ele>
        <time>2013-06-22T06:31:24Z</time>
      </trkpt>
      <trkpt lat="42.95278" lon="-0.72774">
        <ele>2102</ele>
        <time>2013-06-22T06:31:26Z</time>
      </trkpt>
      <trkpt lat="42.95278" lon="-0.72772">
        <ele>2102</ele>
        <time>2013-06-22T06:31:28Z</time>
      </trkpt>
      <trkpt lat="42.95277" lon="-0.7277">
        <ele>2103</ele>
        <time>2013-06-22T06:31:30Z</time>
      </trkpt>
      <trkpt lat="42.95277" lon="-0.72769">
        <ele>2103</ele>
        <time>2013-06-22T06:31:32Z</time>
      </trkpt>
      <trkpt lat="42.95276" lon="-0.72767">
        <ele>2104</ele>
        <time>2013-06-22T06:31:34Z</time>
      </trkpt>
      <trkpt lat="42.95275" lon="-0.72765">
        <ele>2104</ele>
        <time>2013-06-22T06:31:36Z</time>
      </trkpt>
      <trkpt lat="42.95275" lon="-0.72764">
        <ele>2104</ele>
        <time>2013-06-22T06:31:38Z</time>
      </trkpt>
      <trkpt lat="42.95274" lon="-0.72762">
        <ele>2104</ele>
        <time>2013-06-22T06:31:41Z</time>
      </trkpt>
      <trkpt lat="42.95274" lon="-0.72761">
        <ele>2104</ele>
        <time>2013-06-22T06:31:43Z</time>
      </trkpt>
      <trkpt lat="42.95274" lon="-0.72759">
        <ele>2104</ele>
        <time>2013-06-22T06:32:19Z</time>
      </trkpt>
      <trkpt lat="42.95273" lon="-0.72757">
        <ele>2104</ele>
        <time>2013-06-22T06:32:21Z</time>
      </trkpt>
      <trkpt lat="42.95273" lon="-0.72755">
        <ele>2104</ele>
        <time>2013-06-22T06:32:23Z</time>
      </trkpt>
      <trkpt lat="42.95272" lon="-0.72754">
        <ele>2104</ele>
        <time>2013-06-22T06:32:25Z</time>
      </trkpt>
      <trkpt lat="42.95271" lon="-0.72751">
        <ele>2104</ele>
        <time>2013-06-22T06:32:27Z</time>
      </trkpt>
      <trkpt lat="42.95271" lon="-0.7275">
        <ele>2104</ele>
        <time>2013-06-22T06:32:29Z</time>
      </trkpt>
      <trkpt lat="42.9527" lon="-0.72748">
        <ele>2105</ele>
        <time>2013-06-22T06:32:31Z</time>
      </trkpt>
      <trkpt lat="42.95269" lon="-0.72746">
        <ele>2105</ele>
        <time>2013-06-22T06:32:33Z</time>
      </trkpt>
      <trkpt lat="42.95269" lon="-0.72744">
        <ele>2105</ele>
        <time>2013-06-22T06:32:36Z</time>
      </trkpt>
      <trkpt lat="42.95268" lon="-0.72742">
        <ele>2105</ele>
        <time>2013-06-22T06:32:38Z</time>
      </trkpt>
      <trkpt lat="42.95267" lon="-0.7274">
        <ele>2106</ele>
        <time>2013-06-22T06:32:40Z</time>
      </trkpt>
      <trkpt lat="42.95266" lon="-0.72739">
        <ele>2106</ele>
        <time>2013-06-22T06:32:42Z</time>
      </trkpt>
      <trkpt lat="42.95266" lon="-0.72737">
        <ele>2106</ele>
        <time>2013-06-22T06:32:44Z</time>
      </trkpt>
      <trkpt lat="42.95265" lon="-0.72736">
        <ele>2106</ele>
        <time>2013-06-22T06:32:46Z</time>
      </trkpt>
      <trkpt lat="42.95264" lon="-0.72734">
        <ele>2106</ele>
        <time>2013-06-22T06:32:48Z</time>
      </trkpt>
      <trkpt lat="42.95264" lon="-0.72732">
        <ele>2107</ele>
        <time>2013-06-22T06:32:50Z</time>
      </trkpt>
      <trkpt lat="42.95263" lon="-0.7273">
        <ele>2107</ele>
        <time>2013-06-22T06:32:52Z</time>
      </trkpt>
      <trkpt lat="42.95262" lon="-0.72729">
        <ele>2107</ele>
        <time>2013-06-22T06:32:54Z</time>
      </trkpt>
      <trkpt lat="42.95261" lon="-0.72727">
        <ele>2108</ele>
        <time>2013-06-22T06:32:56Z</time>
      </trkpt>
      <trkpt lat="42.9526" lon="-0.72724">
        <ele>2108</ele>
        <time>2013-06-22T06:32:58Z</time>
      </trkpt>
      <trkpt lat="42.95259" lon="-0.72723">
        <ele>2108</ele>
        <time>2013-06-22T06:33:00Z</time>
      </trkpt>
      <trkpt lat="42.95259" lon="-0.7272">
        <ele>2108</ele>
        <time>2013-06-22T06:33:02Z</time>
      </trkpt>
      <trkpt lat="42.95258" lon="-0.72718">
        <ele>2108</ele>
        <time>2013-06-22T06:33:04Z</time>
      </trkpt>
      <trkpt lat="42.95258" lon="-0.72716">
        <ele>2109</ele>
        <time>2013-06-22T06:33:06Z</time>
      </trkpt>
      <trkpt lat="42.95257" lon="-0.72715">
        <ele>2109</ele>
        <time>2013-06-22T06:33:08Z</time>
      </trkpt>
      <trkpt lat="42.95256" lon="-0.72713">
        <ele>2109</ele>
        <time>2013-06-22T06:33:10Z</time>
      </trkpt>
      <trkpt lat="42.95256" lon="-0.72711">
        <ele>2109</ele>
        <time>2013-06-22T06:33:21Z</time>
      </trkpt>
      <trkpt lat="42.95255" lon="-0.7271">
        <ele>2109</ele>
        <time>2013-06-22T06:33:24Z</time>
      </trkpt>
      <trkpt lat="42.95254" lon="-0.72708">
        <ele>2109</ele>
        <time>2013-06-22T06:33:27Z</time>
      </trkpt>
      <trkpt lat="42.95253" lon="-0.72706">
        <ele>2109</ele>
        <time>2013-06-22T06:33:30Z</time>
      </trkpt>
      <trkpt lat="42.95251" lon="-0.72705">
        <ele>2109</ele>
        <time>2013-06-22T06:33:33Z</time>
      </trkpt>
      <trkpt lat="42.9525" lon="-0.72704">
        <ele>2109</ele>
        <time>2013-06-22T06:33:36Z</time>
      </trkpt>
      <trkpt lat="42.95249" lon="-0.72703">
        <ele>2109</ele>
        <time>2013-06-22T06:33:39Z</time>
      </trkpt>
      <trkpt lat="42.95248" lon="-0.72702">
        <ele>2109</ele>
        <time>2013-06-22T06:33:42Z</time>
      </trkpt>
      <trkpt lat="42.95246" lon="-0.72701">
        <ele>2110</ele>
        <time>2013-06-22T06:33:47Z</time>
      </trkpt>
      <trkpt lat="42.95246" lon="-0.72699">
        <ele>2110</ele>
        <time>2013-06-22T06:33:51Z</time>
      </trkpt>
      <trkpt lat="42.95246" lon="-0.72697">
        <ele>2110</ele>
        <time>2013-06-22T06:33:53Z</time>
      </trkpt>
      <trkpt lat="42.95246" lon="-0.72695">
        <ele>2110</ele>
        <time>2013-06-22T06:33:54Z</time>
      </trkpt>
      <trkpt lat="42.95245" lon="-0.72693">
        <ele>2110</ele>
        <time>2013-06-22T06:33:55Z</time>
      </trkpt>
      <trkpt lat="42.95245" lon="-0.7269">
        <ele>2110</ele>
        <time>2013-06-22T06:33:56Z</time>
      </trkpt>
      <trkpt lat="42.95245" lon="-0.72687">
        <ele>2110</ele>
        <time>2013-06-22T06:33:57Z</time>
      </trkpt>
      <trkpt lat="42.95244" lon="-0.72686">
        <ele>2110</ele>
        <time>2013-06-22T06:33:58Z</time>
      </trkpt>
      <trkpt lat="42.95243" lon="-0.72684">
        <ele>2110</ele>
        <time>2013-06-22T06:34:00Z</time>
      </trkpt>
      <trkpt lat="42.95242" lon="-0.72682">
        <ele>2110</ele>
        <time>2013-06-22T06:34:02Z</time>
      </trkpt>
      <trkpt lat="42.95242" lon="-0.72681">
        <ele>2110</ele>
        <time>2013-06-22T06:34:03Z</time>
      </trkpt>
      <trkpt lat="42.95243" lon="-0.72678">
        <ele>2110</ele>
        <time>2013-06-22T06:34:05Z</time>
      </trkpt>
      <trkpt lat="42.95243" lon="-0.72676">
        <ele>2110</ele>
        <time>2013-06-22T06:34:07Z</time>
      </trkpt>
      <trkpt lat="42.95244" lon="-0.72675">
        <ele>2110</ele>
        <time>2013-06-22T06:34:08Z</time>
      </trkpt>
      <trkpt lat="42.95244" lon="-0.72672">
        <ele>2110</ele>
        <time>2013-06-22T06:34:10Z</time>
      </trkpt>
      <trkpt lat="42.95244" lon="-0.7267">
        <ele>2110</ele>
        <time>2013-06-22T06:34:12Z</time>
      </trkpt>
      <trkpt lat="42.95244" lon="-0.72668">
        <ele>2110</ele>
        <time>2013-06-22T06:34:14Z</time>
      </trkpt>
      <trkpt lat="42.95244" lon="-0.72666">
        <ele>2110</ele>
        <time>2013-06-22T06:34:15Z</time>
      </trkpt>
      <trkpt lat="42.95243" lon="-0.72664">
        <ele>2110</ele>
        <time>2013-06-22T06:34:17Z</time>
      </trkpt>
      <trkpt lat="42.95242" lon="-0.72664">
        <ele>2110</ele>
        <time>2013-06-22T06:34:19Z</time>
      </trkpt>
      <trkpt lat="42.9524" lon="-0.72664">
        <ele>2110</ele>
        <time>2013-06-22T06:34:21Z</time>
      </trkpt>
      <trkpt lat="42.95239" lon="-0.72664">
        <ele>2110</ele>
        <time>2013-06-22T06:34:23Z</time>
      </trkpt>
      <trkpt lat="42.95237" lon="-0.72664">
        <ele>2110</ele>
        <time>2013-06-22T06:34:25Z</time>
      </trkpt>
      <trkpt lat="42.95235" lon="-0.72663">
        <ele>2110</ele>
        <time>2013-06-22T06:34:27Z</time>
      </trkpt>
      <trkpt lat="42.95234" lon="-0.72662">
        <ele>2110</ele>
        <time>2013-06-22T06:34:29Z</time>
      </trkpt>
      <trkpt lat="42.95233" lon="-0.7266">
        <ele>2110</ele>
        <time>2013-06-22T06:34:31Z</time>
      </trkpt>
      <trkpt lat="42.95232" lon="-0.72658">
        <ele>2110</ele>
        <time>2013-06-22T06:34:33Z</time>
      </trkpt>
      <trkpt lat="42.95232" lon="-0.7266">
        <ele>2111</ele>
        <time>2013-06-22T06:35:05Z</time>
      </trkpt>
      <trkpt lat="42.95231" lon="-0.72658">
        <ele>2112</ele>
        <time>2013-06-22T06:35:11Z</time>
      </trkpt>
      <trkpt lat="42.9523" lon="-0.72656">
        <ele>2113</ele>
        <time>2013-06-22T06:35:19Z</time>
      </trkpt>
      <trkpt lat="42.95229" lon="-0.72654">
        <ele>2113</ele>
        <time>2013-06-22T06:35:21Z</time>
      </trkpt>
      <trkpt lat="42.95228" lon="-0.72652">
        <ele>2113</ele>
        <time>2013-06-22T06:35:23Z</time>
      </trkpt>
      <trkpt lat="42.95228" lon="-0.7265">
        <ele>2113</ele>
        <time>2013-06-22T06:35:25Z</time>
      </trkpt>
      <trkpt lat="42.95227" lon="-0.72648">
        <ele>2113</ele>
        <time>2013-06-22T06:35:27Z</time>
      </trkpt>
      <trkpt lat="42.95226" lon="-0.72646">
        <ele>2113</ele>
        <time>2013-06-22T06:35:29Z</time>
      </trkpt>
      <trkpt lat="42.95225" lon="-0.72644">
        <ele>2113</ele>
        <time>2013-06-22T06:35:31Z</time>
      </trkpt>
      <trkpt lat="42.95224" lon="-0.72642">
        <ele>2113</ele>
        <time>2013-06-22T06:35:33Z</time>
      </trkpt>
      <trkpt lat="42.95224" lon="-0.7264">
        <ele>2113</ele>
        <time>2013-06-22T06:35:35Z</time>
      </trkpt>
      <trkpt lat="42.95223" lon="-0.72638">
        <ele>2113</ele>
        <time>2013-06-22T06:35:37Z</time>
      </trkpt>
      <trkpt lat="42.95222" lon="-0.72637">
        <ele>2113</ele>
        <time>2013-06-22T06:35:38Z</time>
      </trkpt>
      <trkpt lat="42.95222" lon="-0.72634">
        <ele>2113</ele>
        <time>2013-06-22T06:35:40Z</time>
      </trkpt>
      <trkpt lat="42.95221" lon="-0.72633">
        <ele>2114</ele>
        <time>2013-06-22T06:35:41Z</time>
      </trkpt>
      <trkpt lat="42.95221" lon="-0.72631">
        <ele>2114</ele>
        <time>2013-06-22T06:35:42Z</time>
      </trkpt>
      <trkpt lat="42.9522" lon="-0.72629">
        <ele>2114</ele>
        <time>2013-06-22T06:35:44Z</time>
      </trkpt>
      <trkpt lat="42.95219" lon="-0.72627">
        <ele>2115</ele>
        <time>2013-06-22T06:35:46Z</time>
      </trkpt>
      <trkpt lat="42.95218" lon="-0.72624">
        <ele>2115</ele>
        <time>2013-06-22T06:35:48Z</time>
      </trkpt>
      <trkpt lat="42.95217" lon="-0.72622">
        <ele>2115</ele>
        <time>2013-06-22T06:35:50Z</time>
      </trkpt>
      <trkpt lat="42.95216" lon="-0.7262">
        <ele>2115</ele>
        <time>2013-06-22T06:35:52Z</time>
      </trkpt>
      <trkpt lat="42.95216" lon="-0.72618">
        <ele>2115</ele>
        <time>2013-06-22T06:35:53Z</time>
      </trkpt>
      <trkpt lat="42.95214" lon="-0.72616">
        <ele>2115</ele>
        <time>2013-06-22T06:35:55Z</time>
      </trkpt>
      <trkpt lat="42.95214" lon="-0.72614">
        <ele>2115</ele>
        <time>2013-06-22T06:35:56Z</time>
      </trkpt>
      <trkpt lat="42.95213" lon="-0.72612">
        <ele>2115</ele>
        <time>2013-06-22T06:35:58Z</time>
      </trkpt>
      <trkpt lat="42.95212" lon="-0.72609">
        <ele>2115</ele>
        <time>2013-06-22T06:36:00Z</time>
      </trkpt>
      <trkpt lat="42.95212" lon="-0.72608">
        <ele>2116</ele>
        <time>2013-06-22T06:36:01Z</time>
      </trkpt>
      <trkpt lat="42.95211" lon="-0.72605">
        <ele>2116</ele>
        <time>2013-06-22T06:36:03Z</time>
      </trkpt>
      <trkpt lat="42.9521" lon="-0.72602">
        <ele>2116</ele>
        <time>2013-06-22T06:36:05Z</time>
      </trkpt>
      <trkpt lat="42.95209" lon="-0.726">
        <ele>2116</ele>
        <time>2013-06-22T06:36:07Z</time>
      </trkpt>
      <trkpt lat="42.95208" lon="-0.72598">
        <ele>2116</ele>
        <time>2013-06-22T06:36:09Z</time>
      </trkpt>
      <trkpt lat="42.95208" lon="-0.72596">
        <ele>2116</ele>
        <time>2013-06-22T06:36:11Z</time>
      </trkpt>
      <trkpt lat="42.95207" lon="-0.72593">
        <ele>2116</ele>
        <time>2013-06-22T06:36:13Z</time>
      </trkpt>
      <trkpt lat="42.95206" lon="-0.72591">
        <ele>2116</ele>
        <time>2013-06-22T06:36:15Z</time>
      </trkpt>
      <trkpt lat="42.95205" lon="-0.72589">
        <ele>2116</ele>
        <time>2013-06-22T06:36:17Z</time>
      </trkpt>
      <trkpt lat="42.95204" lon="-0.72587">
        <ele>2116</ele>
        <time>2013-06-22T06:36:19Z</time>
      </trkpt>
      <trkpt lat="42.95204" lon="-0.72584">
        <ele>2116</ele>
        <time>2013-06-22T06:36:21Z</time>
      </trkpt>
      <trkpt lat="42.95203" lon="-0.72583">
        <ele>2116</ele>
        <time>2013-06-22T06:36:23Z</time>
      </trkpt>
      <trkpt lat="42.95202" lon="-0.7258">
        <ele>2116</ele>
        <time>2013-06-22T06:36:25Z</time>
      </trkpt>
      <trkpt lat="42.95201" lon="-0.72578">
        <ele>2116</ele>
        <time>2013-06-22T06:36:27Z</time>
      </trkpt>
      <trkpt lat="42.95201" lon="-0.72575">
        <ele>2116</ele>
        <time>2013-06-22T06:36:29Z</time>
      </trkpt>
      <trkpt lat="42.952" lon="-0.72573">
        <ele>2116</ele>
        <time>2013-06-22T06:36:31Z</time>
      </trkpt>
      <trkpt lat="42.95199" lon="-0.72571">
        <ele>2116</ele>
        <time>2013-06-22T06:36:33Z</time>
      </trkpt>
      <trkpt lat="42.95199" lon="-0.7257">
        <ele>2116</ele>
        <time>2013-06-22T06:36:56Z</time>
      </trkpt>
      <trkpt lat="42.95199" lon="-0.72571">
        <ele>2116</ele>
        <time>2013-06-22T06:37:52Z</time>
      </trkpt>
      <trkpt lat="42.95199" lon="-0.7257">
        <ele>2117</ele>
        <time>2013-06-22T06:38:48Z</time>
      </trkpt>
      <trkpt lat="42.95198" lon="-0.7257">
        <ele>2117</ele>
        <time>2013-06-22T06:38:56Z</time>
      </trkpt>
      <trkpt lat="42.95196" lon="-0.72571">
        <ele>2119</ele>
        <time>2013-06-22T06:39:39Z</time>
      </trkpt>
      <trkpt lat="42.95198" lon="-0.72571">
        <ele>2120</ele>
        <time>2013-06-22T06:40:21Z</time>
      </trkpt>
      <trkpt lat="42.95199" lon="-0.7257">
        <ele>2122</ele>
        <time>2013-06-22T06:40:29Z</time>
      </trkpt>
      <trkpt lat="42.95199" lon="-0.72571">
        <ele>2123</ele>
        <time>2013-06-22T06:40:53Z</time>
      </trkpt>
      <trkpt lat="42.952" lon="-0.72571">
        <ele>2123</ele>
        <time>2013-06-22T06:41:13Z</time>
      </trkpt>
      <trkpt lat="42.95201" lon="-0.7257">
        <ele>2123</ele>
        <time>2013-06-22T06:41:16Z</time>
      </trkpt>
      <trkpt lat="42.952" lon="-0.72571">
        <ele>2123</ele>
        <time>2013-06-22T06:41:38Z</time>
      </trkpt>
      <trkpt lat="42.95198" lon="-0.72571">
        <ele>2123</ele>
        <time>2013-06-22T06:41:44Z</time>
      </trkpt>
      <trkpt lat="42.95197" lon="-0.72571">
        <ele>2121</ele>
        <time>2013-06-22T06:41:50Z</time>
      </trkpt>
      <trkpt lat="42.95199" lon="-0.72571">
        <ele>2121</ele>
        <time>2013-06-22T06:41:57Z</time>
      </trkpt>
      <trkpt lat="42.952" lon="-0.72571">
        <ele>2121</ele>
        <time>2013-06-22T06:42:41Z</time>
      </trkpt>
      <trkpt lat="42.952" lon="-0.72569">
        <ele>2121</ele>
        <time>2013-06-22T06:43:05Z</time>
      </trkpt>
      <trkpt lat="42.95199" lon="-0.7257">
        <ele>2119</ele>
        <time>2013-06-22T06:43:29Z</time>
      </trkpt>
      <trkpt lat="42.952" lon="-0.72571">
        <ele>2119</ele>
        <time>2013-06-22T06:43:35Z</time>
      </trkpt>
      <trkpt lat="42.95201" lon="-0.72572">
        <ele>2119</ele>
        <time>2013-06-22T06:43:53Z</time>
      </trkpt>
      <trkpt lat="42.95201" lon="-0.7257">
        <ele>2119</ele>
        <time>2013-06-22T06:45:01Z</time>
      </trkpt>
      <trkpt lat="42.95202" lon="-0.72569">
        <ele>2119</ele>
        <time>2013-06-22T06:45:06Z</time>
      </trkpt>
      <trkpt lat="42.95202" lon="-0.72567">
        <ele>2119</ele>
        <time>2013-06-22T06:45:07Z</time>
      </trkpt>
      <trkpt lat="42.95202" lon="-0.72565">
        <ele>2119</ele>
        <time>2013-06-22T06:45:08Z</time>
      </trkpt>
      <trkpt lat="42.95201" lon="-0.72563">
        <ele>2119</ele>
        <time>2013-06-22T06:45:10Z</time>
      </trkpt>
      <trkpt lat="42.952" lon="-0.72562">
        <ele>2119</ele>
        <time>2013-06-22T06:45:12Z</time>
      </trkpt>
      <trkpt lat="42.95198" lon="-0.7256">
        <ele>2119</ele>
        <time>2013-06-22T06:45:14Z</time>
      </trkpt>
      <trkpt lat="42.95197" lon="-0.72558">
        <ele>2119</ele>
        <time>2013-06-22T06:45:16Z</time>
      </trkpt>
      <trkpt lat="42.95195" lon="-0.72557">
        <ele>2119</ele>
        <time>2013-06-22T06:45:18Z</time>
      </trkpt>
      <trkpt lat="42.95193" lon="-0.72555">
        <ele>2119</ele>
        <time>2013-06-22T06:45:20Z</time>
      </trkpt>
      <trkpt lat="42.95192" lon="-0.72553">
        <ele>2119</ele>
        <time>2013-06-22T06:45:22Z</time>
      </trkpt>
      <trkpt lat="42.9519" lon="-0.72552">
        <ele>2119</ele>
        <time>2013-06-22T06:45:24Z</time>
      </trkpt>
      <trkpt lat="42.95189" lon="-0.7255">
        <ele>2119</ele>
        <time>2013-06-22T06:45:26Z</time>
      </trkpt>
      <trkpt lat="42.95187" lon="-0.72548">
        <ele>2119</ele>
        <time>2013-06-22T06:45:28Z</time>
      </trkpt>
      <trkpt lat="42.95186" lon="-0.72546">
        <ele>2119</ele>
        <time>2013-06-22T06:45:30Z</time>
      </trkpt>
      <trkpt lat="42.95184" lon="-0.72544">
        <ele>2119</ele>
        <time>2013-06-22T06:45:32Z</time>
      </trkpt>
      <trkpt lat="42.95183" lon="-0.72542">
        <ele>2119</ele>
        <time>2013-06-22T06:45:34Z</time>
      </trkpt>
      <trkpt lat="42.95181" lon="-0.72541">
        <ele>2119</ele>
        <time>2013-06-22T06:45:36Z</time>
      </trkpt>
      <trkpt lat="42.9518" lon="-0.72539">
        <ele>2119</ele>
        <time>2013-06-22T06:45:38Z</time>
      </trkpt>
      <trkpt lat="42.95178" lon="-0.72538">
        <ele>2119</ele>
        <time>2013-06-22T06:45:40Z</time>
      </trkpt>
      <trkpt lat="42.95176" lon="-0.72536">
        <ele>2119</ele>
        <time>2013-06-22T06:45:42Z</time>
      </trkpt>
      <trkpt lat="42.95175" lon="-0.72535">
        <ele>2119</ele>
        <time>2013-06-22T06:45:44Z</time>
      </trkpt>
      <trkpt lat="42.95173" lon="-0.72534">
        <ele>2119</ele>
        <time>2013-06-22T06:45:46Z</time>
      </trkpt>
      <trkpt lat="42.95171" lon="-0.72533">
        <ele>2119</ele>
        <time>2013-06-22T06:45:48Z</time>
      </trkpt>
      <trkpt lat="42.9517" lon="-0.72532">
        <ele>2119</ele>
        <time>2013-06-22T06:45:50Z</time>
      </trkpt>
      <trkpt lat="42.95168" lon="-0.7253">
        <ele>2119</ele>
        <time>2013-06-22T06:45:52Z</time>
      </trkpt>
      <trkpt lat="42.95166" lon="-0.72529">
        <ele>2119</ele>
        <time>2013-06-22T06:45:54Z</time>
      </trkpt>
      <trkpt lat="42.95165" lon="-0.72528">
        <ele>2119</ele>
        <time>2013-06-22T06:45:56Z</time>
      </trkpt>
      <trkpt lat="42.95163" lon="-0.72527">
        <ele>2119</ele>
        <time>2013-06-22T06:45:58Z</time>
      </trkpt>
      <trkpt lat="42.95162" lon="-0.72526">
        <ele>2119</ele>
        <time>2013-06-22T06:46:00Z</time>
      </trkpt>
      <trkpt lat="42.9516" lon="-0.72525">
        <ele>2119</ele>
        <time>2013-06-22T06:46:02Z</time>
      </trkpt>
      <trkpt lat="42.95158" lon="-0.72524">
        <ele>2119</ele>
        <time>2013-06-22T06:46:04Z</time>
      </trkpt>
      <trkpt lat="42.95156" lon="-0.72522">
        <ele>2119</ele>
        <time>2013-06-22T06:46:06Z</time>
      </trkpt>
      <trkpt lat="42.95155" lon="-0.72522">
        <ele>2119</ele>
        <time>2013-06-22T06:46:08Z</time>
      </trkpt>
      <trkpt lat="42.95153" lon="-0.72521">
        <ele>2119</ele>
        <time>2013-06-22T06:46:10Z</time>
      </trkpt>
      <trkpt lat="42.95152" lon="-0.72521">
        <ele>2119</ele>
        <time>2013-06-22T06:46:11Z</time>
      </trkpt>
      <trkpt lat="42.95151" lon="-0.72521">
        <ele>2119</ele>
        <time>2013-06-22T06:46:20Z</time>
      </trkpt>
      <trkpt lat="42.9515" lon="-0.72521">
        <ele>2119</ele>
        <time>2013-06-22T06:46:52Z</time>
      </trkpt>
      <trkpt lat="42.95148" lon="-0.72522">
        <ele>2119</ele>
        <time>2013-06-22T06:46:54Z</time>
      </trkpt>
      <trkpt lat="42.95146" lon="-0.72522">
        <ele>2119</ele>
        <time>2013-06-22T06:46:56Z</time>
      </trkpt>
      <trkpt lat="42.95144" lon="-0.72522">
        <ele>2119</ele>
        <time>2013-06-22T06:46:58Z</time>
      </trkpt>
      <trkpt lat="42.95143" lon="-0.72523">
        <ele>2119</ele>
        <time>2013-06-22T06:47:00Z</time>
      </trkpt>
      <trkpt lat="42.95141" lon="-0.72523">
        <ele>2119</ele>
        <time>2013-06-22T06:47:02Z</time>
      </trkpt>
      <trkpt lat="42.95139" lon="-0.72523">
        <ele>2119</ele>
        <time>2013-06-22T06:47:04Z</time>
      </trkpt>
      <trkpt lat="42.95137" lon="-0.72522">
        <ele>2119</ele>
        <time>2013-06-22T06:47:06Z</time>
      </trkpt>
      <trkpt lat="42.95135" lon="-0.72521">
        <ele>2119</ele>
        <time>2013-06-22T06:47:08Z</time>
      </trkpt>
      <trkpt lat="42.95134" lon="-0.72521">
        <ele>2119</ele>
        <time>2013-06-22T06:47:09Z</time>
      </trkpt>
      <trkpt lat="42.95132" lon="-0.7252">
        <ele>2119</ele>
        <time>2013-06-22T06:47:11Z</time>
      </trkpt>
      <trkpt lat="42.95131" lon="-0.7252">
        <ele>2119</ele>
        <time>2013-06-22T06:47:12Z</time>
      </trkpt>
      <trkpt lat="42.95129" lon="-0.7252">
        <ele>2119</ele>
        <time>2013-06-22T06:47:14Z</time>
      </trkpt>
      <trkpt lat="42.95126" lon="-0.7252">
        <ele>2119</ele>
        <time>2013-06-22T06:47:16Z</time>
      </trkpt>
      <trkpt lat="42.95124" lon="-0.7252">
        <ele>2119</ele>
        <time>2013-06-22T06:47:18Z</time>
      </trkpt>
      <trkpt lat="42.95123" lon="-0.7252">
        <ele>2119</ele>
        <time>2013-06-22T06:47:20Z</time>
      </trkpt>
      <trkpt lat="42.95121" lon="-0.72521">
        <ele>2119</ele>
        <time>2013-06-22T06:47:22Z</time>
      </trkpt>
      <trkpt lat="42.95118" lon="-0.72521">
        <ele>2119</ele>
        <time>2013-06-22T06:47:24Z</time>
      </trkpt>
      <trkpt lat="42.95116" lon="-0.72521">
        <ele>2119</ele>
        <time>2013-06-22T06:47:26Z</time>
      </trkpt>
      <trkpt lat="42.95115" lon="-0.72521">
        <ele>2119</ele>
        <time>2013-06-22T06:47:27Z</time>
      </trkpt>
      <trkpt lat="42.95113" lon="-0.72522">
        <ele>2119</ele>
        <time>2013-06-22T06:47:29Z</time>
      </trkpt>
      <trkpt lat="42.95111" lon="-0.72522">
        <ele>2119</ele>
        <time>2013-06-22T06:47:31Z</time>
      </trkpt>
      <trkpt lat="42.95109" lon="-0.72523">
        <ele>2119</ele>
        <time>2013-06-22T06:47:33Z</time>
      </trkpt>
      <trkpt lat="42.95108" lon="-0.72523">
        <ele>2119</ele>
        <time>2013-06-22T06:47:34Z</time>
      </trkpt>
      <trkpt lat="42.95106" lon="-0.72524">
        <ele>2119</ele>
        <time>2013-06-22T06:47:36Z</time>
      </trkpt>
      <trkpt lat="42.95104" lon="-0.72525">
        <ele>2119</ele>
        <time>2013-06-22T06:47:38Z</time>
      </trkpt>
      <trkpt lat="42.95102" lon="-0.72526">
        <ele>2119</ele>
        <time>2013-06-22T06:47:40Z</time>
      </trkpt>
      <trkpt lat="42.951" lon="-0.72527">
        <ele>2119</ele>
        <time>2013-06-22T06:47:42Z</time>
      </trkpt>
      <trkpt lat="42.95098" lon="-0.72527">
        <ele>2119</ele>
        <time>2013-06-22T06:47:44Z</time>
      </trkpt>
      <trkpt lat="42.95097" lon="-0.72528">
        <ele>2119</ele>
        <time>2013-06-22T06:47:46Z</time>
      </trkpt>
      <trkpt lat="42.95095" lon="-0.72529">
        <ele>2119</ele>
        <time>2013-06-22T06:47:48Z</time>
      </trkpt>
      <trkpt lat="42.95093" lon="-0.7253">
        <ele>2119</ele>
        <time>2013-06-22T06:47:50Z</time>
      </trkpt>
      <trkpt lat="42.95091" lon="-0.72531">
        <ele>2119</ele>
        <time>2013-06-22T06:47:52Z</time>
      </trkpt>
      <trkpt lat="42.95089" lon="-0.72532">
        <ele>2119</ele>
        <time>2013-06-22T06:47:54Z</time>
      </trkpt>
      <trkpt lat="42.95088" lon="-0.72533">
        <ele>2119</ele>
        <time>2013-06-22T06:47:56Z</time>
      </trkpt>
      <trkpt lat="42.95086" lon="-0.72535">
        <ele>2119</ele>
        <time>2013-06-22T06:47:58Z</time>
      </trkpt>
      <trkpt lat="42.95084" lon="-0.72536">
        <ele>2119</ele>
        <time>2013-06-22T06:48:00Z</time>
      </trkpt>
      <trkpt lat="42.95083" lon="-0.72536">
        <ele>2119</ele>
        <time>2013-06-22T06:48:02Z</time>
      </trkpt>
      <trkpt lat="42.95081" lon="-0.72537">
        <ele>2119</ele>
        <time>2013-06-22T06:48:04Z</time>
      </trkpt>
      <trkpt lat="42.95079" lon="-0.72538">
        <ele>2119</ele>
        <time>2013-06-22T06:48:06Z</time>
      </trkpt>
      <trkpt lat="42.95078" lon="-0.72539">
        <ele>2119</ele>
        <time>2013-06-22T06:48:08Z</time>
      </trkpt>
      <trkpt lat="42.95076" lon="-0.7254">
        <ele>2119</ele>
        <time>2013-06-22T06:48:10Z</time>
      </trkpt>
      <trkpt lat="42.95073" lon="-0.7254">
        <ele>2119</ele>
        <time>2013-06-22T06:48:12Z</time>
      </trkpt>
      <trkpt lat="42.95071" lon="-0.72541">
        <ele>2119</ele>
        <time>2013-06-22T06:48:14Z</time>
      </trkpt>
      <trkpt lat="42.9507" lon="-0.72542">
        <ele>2119</ele>
        <time>2013-06-22T06:48:16Z</time>
      </trkpt>
      <trkpt lat="42.95068" lon="-0.72542">
        <ele>2119</ele>
        <time>2013-06-22T06:48:18Z</time>
      </trkpt>
      <trkpt lat="42.95067" lon="-0.72542">
        <ele>2119</ele>
        <time>2013-06-22T06:48:37Z</time>
      </trkpt>
      <trkpt lat="42.95065" lon="-0.72543">
        <ele>2119</ele>
        <time>2013-06-22T06:48:39Z</time>
      </trkpt>
      <trkpt lat="42.95063" lon="-0.72543">
        <ele>2119</ele>
        <time>2013-06-22T06:48:41Z</time>
      </trkpt>
      <trkpt lat="42.95062" lon="-0.72543">
        <ele>2119</ele>
        <time>2013-06-22T06:48:42Z</time>
      </trkpt>
      <trkpt lat="42.9506" lon="-0.72544">
        <ele>2119</ele>
        <time>2013-06-22T06:48:44Z</time>
      </trkpt>
      <trkpt lat="42.95058" lon="-0.72545">
        <ele>2119</ele>
        <time>2013-06-22T06:48:46Z</time>
      </trkpt>
      <trkpt lat="42.95056" lon="-0.72545">
        <ele>2119</ele>
        <time>2013-06-22T06:48:48Z</time>
      </trkpt>
      <trkpt lat="42.95054" lon="-0.72546">
        <ele>2119</ele>
        <time>2013-06-22T06:48:50Z</time>
      </trkpt>
      <trkpt lat="42.95052" lon="-0.72548">
        <ele>2119</ele>
        <time>2013-06-22T06:48:52Z</time>
      </trkpt>
      <trkpt lat="42.9505" lon="-0.72549">
        <ele>2119</ele>
        <time>2013-06-22T06:48:54Z</time>
      </trkpt>
      <trkpt lat="42.95048" lon="-0.7255">
        <ele>2119</ele>
        <time>2013-06-22T06:48:56Z</time>
      </trkpt>
      <trkpt lat="42.95046" lon="-0.72551">
        <ele>2119</ele>
        <time>2013-06-22T06:48:58Z</time>
      </trkpt>
      <trkpt lat="42.95045" lon="-0.72551">
        <ele>2119</ele>
        <time>2013-06-22T06:48:59Z</time>
      </trkpt>
      <trkpt lat="42.95043" lon="-0.72552">
        <ele>2119</ele>
        <time>2013-06-22T06:49:01Z</time>
      </trkpt>
      <trkpt lat="42.95041" lon="-0.72553">
        <ele>2119</ele>
        <time>2013-06-22T06:49:03Z</time>
      </trkpt>
      <trkpt lat="42.95039" lon="-0.72554">
        <ele>2118</ele>
        <time>2013-06-22T06:49:05Z</time>
      </trkpt>
      <trkpt lat="42.95037" lon="-0.72555">
        <ele>2118</ele>
        <time>2013-06-22T06:49:07Z</time>
      </trkpt>
      <trkpt lat="42.95035" lon="-0.72555">
        <ele>2118</ele>
        <time>2013-06-22T06:49:09Z</time>
      </trkpt>
      <trkpt lat="42.95034" lon="-0.72556">
        <ele>2118</ele>
        <time>2013-06-22T06:49:11Z</time>
      </trkpt>
      <trkpt lat="42.95031" lon="-0.72557">
        <ele>2118</ele>
        <time>2013-06-22T06:49:13Z</time>
      </trkpt>
      <trkpt lat="42.9503" lon="-0.72558">
        <ele>2117</ele>
        <time>2013-06-22T06:49:15Z</time>
      </trkpt>
      <trkpt lat="42.95028" lon="-0.72559">
        <ele>2117</ele>
        <time>2013-06-22T06:49:17Z</time>
      </trkpt>
      <trkpt lat="42.95026" lon="-0.7256">
        <ele>2116</ele>
        <time>2013-06-22T06:49:19Z</time>
      </trkpt>
      <trkpt lat="42.95024" lon="-0.72561">
        <ele>2116</ele>
        <time>2013-06-22T06:49:21Z</time>
      </trkpt>
      <trkpt lat="42.95022" lon="-0.72562">
        <ele>2115</ele>
        <time>2013-06-22T06:49:23Z</time>
      </trkpt>
      <trkpt lat="42.9502" lon="-0.72563">
        <ele>2115</ele>
        <time>2013-06-22T06:49:25Z</time>
      </trkpt>
      <trkpt lat="42.95018" lon="-0.72564">
        <ele>2115</ele>
        <time>2013-06-22T06:49:27Z</time>
      </trkpt>
      <trkpt lat="42.95017" lon="-0.72565">
        <ele>2115</ele>
        <time>2013-06-22T06:49:29Z</time>
      </trkpt>
      <trkpt lat="42.95015" lon="-0.72566">
        <ele>2115</ele>
        <time>2013-06-22T06:49:31Z</time>
      </trkpt>
      <trkpt lat="42.95013" lon="-0.72567">
        <ele>2115</ele>
        <time>2013-06-22T06:49:33Z</time>
      </trkpt>
      <trkpt lat="42.95011" lon="-0.72569">
        <ele>2115</ele>
        <time>2013-06-22T06:49:35Z</time>
      </trkpt>
      <trkpt lat="42.9501" lon="-0.7257">
        <ele>2115</ele>
        <time>2013-06-22T06:49:37Z</time>
      </trkpt>
      <trkpt lat="42.95009" lon="-0.72571">
        <ele>2115</ele>
        <time>2013-06-22T06:49:39Z</time>
      </trkpt>
      <trkpt lat="42.95007" lon="-0.72571">
        <ele>2115</ele>
        <time>2013-06-22T06:49:42Z</time>
      </trkpt>
      <trkpt lat="42.95007" lon="-0.72573">
        <ele>2115</ele>
        <time>2013-06-22T06:49:47Z</time>
      </trkpt>
      <trkpt lat="42.95005" lon="-0.72574">
        <ele>2115</ele>
        <time>2013-06-22T06:49:49Z</time>
      </trkpt>
      <trkpt lat="42.95004" lon="-0.72576">
        <ele>2115</ele>
        <time>2013-06-22T06:49:51Z</time>
      </trkpt>
      <trkpt lat="42.95002" lon="-0.72577">
        <ele>2115</ele>
        <time>2013-06-22T06:49:53Z</time>
      </trkpt>
      <trkpt lat="42.95001" lon="-0.72578">
        <ele>2115</ele>
        <time>2013-06-22T06:49:55Z</time>
      </trkpt>
      <trkpt lat="42.94999" lon="-0.72579">
        <ele>2115</ele>
        <time>2013-06-22T06:49:57Z</time>
      </trkpt>
      <trkpt lat="42.94998" lon="-0.7258">
        <ele>2115</ele>
        <time>2013-06-22T06:49:59Z</time>
      </trkpt>
      <trkpt lat="42.94996" lon="-0.72581">
        <ele>2115</ele>
        <time>2013-06-22T06:50:01Z</time>
      </trkpt>
      <trkpt lat="42.94995" lon="-0.72582">
        <ele>2115</ele>
        <time>2013-06-22T06:50:03Z</time>
      </trkpt>
      <trkpt lat="42.94994" lon="-0.72583">
        <ele>2115</ele>
        <time>2013-06-22T06:50:05Z</time>
      </trkpt>
      <trkpt lat="42.94992" lon="-0.72584">
        <ele>2115</ele>
        <time>2013-06-22T06:50:07Z</time>
      </trkpt>
      <trkpt lat="42.94991" lon="-0.72585">
        <ele>2115</ele>
        <time>2013-06-22T06:50:09Z</time>
      </trkpt>
      <trkpt lat="42.94989" lon="-0.72587">
        <ele>2115</ele>
        <time>2013-06-22T06:50:11Z</time>
      </trkpt>
      <trkpt lat="42.94987" lon="-0.72588">
        <ele>2115</ele>
        <time>2013-06-22T06:50:13Z</time>
      </trkpt>
      <trkpt lat="42.94986" lon="-0.72589">
        <ele>2115</ele>
        <time>2013-06-22T06:50:15Z</time>
      </trkpt>
      <trkpt lat="42.94984" lon="-0.72591">
        <ele>2115</ele>
        <time>2013-06-22T06:50:17Z</time>
      </trkpt>
      <trkpt lat="42.94983" lon="-0.72592">
        <ele>2115</ele>
        <time>2013-06-22T06:50:19Z</time>
      </trkpt>
      <trkpt lat="42.94981" lon="-0.72593">
        <ele>2115</ele>
        <time>2013-06-22T06:50:21Z</time>
      </trkpt>
      <trkpt lat="42.9498" lon="-0.72594">
        <ele>2115</ele>
        <time>2013-06-22T06:50:23Z</time>
      </trkpt>
      <trkpt lat="42.94978" lon="-0.72595">
        <ele>2115</ele>
        <time>2013-06-22T06:50:25Z</time>
      </trkpt>
      <trkpt lat="42.94977" lon="-0.72595">
        <ele>2115</ele>
        <time>2013-06-22T06:50:26Z</time>
      </trkpt>
      <trkpt lat="42.94976" lon="-0.72597">
        <ele>2115</ele>
        <time>2013-06-22T06:50:28Z</time>
      </trkpt>
      <trkpt lat="42.94974" lon="-0.72598">
        <ele>2115</ele>
        <time>2013-06-22T06:50:30Z</time>
      </trkpt>
      <trkpt lat="42.94973" lon="-0.72598">
        <ele>2115</ele>
        <time>2013-06-22T06:50:32Z</time>
      </trkpt>
      <trkpt lat="42.94971" lon="-0.72599">
        <ele>2115</ele>
        <time>2013-06-22T06:50:34Z</time>
      </trkpt>
      <trkpt lat="42.94969" lon="-0.726">
        <ele>2115</ele>
        <time>2013-06-22T06:50:36Z</time>
      </trkpt>
      <trkpt lat="42.94967" lon="-0.72601">
        <ele>2115</ele>
        <time>2013-06-22T06:50:38Z</time>
      </trkpt>
      <trkpt lat="42.94966" lon="-0.72602">
        <ele>2115</ele>
        <time>2013-06-22T06:50:40Z</time>
      </trkpt>
      <trkpt lat="42.94965" lon="-0.72603">
        <ele>2114</ele>
        <time>2013-06-22T06:50:42Z</time>
      </trkpt>
      <trkpt lat="42.94963" lon="-0.72605">
        <ele>2114</ele>
        <time>2013-06-22T06:50:44Z</time>
      </trkpt>
      <trkpt lat="42.94961" lon="-0.72606">
        <ele>2114</ele>
        <time>2013-06-22T06:50:47Z</time>
      </trkpt>
      <trkpt lat="42.9496" lon="-0.72607">
        <ele>2113</ele>
        <time>2013-06-22T06:50:50Z</time>
      </trkpt>
      <trkpt lat="42.94958" lon="-0.72609">
        <ele>2112</ele>
        <time>2013-06-22T06:50:52Z</time>
      </trkpt>
      <trkpt lat="42.94957" lon="-0.7261">
        <ele>2112</ele>
        <time>2013-06-22T06:50:54Z</time>
      </trkpt>
      <trkpt lat="42.94956" lon="-0.72611">
        <ele>2112</ele>
        <time>2013-06-22T06:50:56Z</time>
      </trkpt>
      <trkpt lat="42.94955" lon="-0.72613">
        <ele>2111</ele>
        <time>2013-06-22T06:50:59Z</time>
      </trkpt>
      <trkpt lat="42.94954" lon="-0.72614">
        <ele>2111</ele>
        <time>2013-06-22T06:51:02Z</time>
      </trkpt>
      <trkpt lat="42.94952" lon="-0.72616">
        <ele>2111</ele>
        <time>2013-06-22T06:51:05Z</time>
      </trkpt>
      <trkpt lat="42.94951" lon="-0.72617">
        <ele>2111</ele>
        <time>2013-06-22T06:51:07Z</time>
      </trkpt>
      <trkpt lat="42.94949" lon="-0.72618">
        <ele>2111</ele>
        <time>2013-06-22T06:51:09Z</time>
      </trkpt>
      <trkpt lat="42.94948" lon="-0.72619">
        <ele>2111</ele>
        <time>2013-06-22T06:51:11Z</time>
      </trkpt>
      <trkpt lat="42.94946" lon="-0.72621">
        <ele>2111</ele>
        <time>2013-06-22T06:51:13Z</time>
      </trkpt>
      <trkpt lat="42.94945" lon="-0.72623">
        <ele>2111</ele>
        <time>2013-06-22T06:51:16Z</time>
      </trkpt>
      <trkpt lat="42.94943" lon="-0.72623">
        <ele>2111</ele>
        <time>2013-06-22T06:51:18Z</time>
      </trkpt>
      <trkpt lat="42.94942" lon="-0.72625">
        <ele>2111</ele>
        <time>2013-06-22T06:51:20Z</time>
      </trkpt>
      <trkpt lat="42.94941" lon="-0.72627">
        <ele>2110</ele>
        <time>2013-06-22T06:51:22Z</time>
      </trkpt>
      <trkpt lat="42.94939" lon="-0.72627">
        <ele>2110</ele>
        <time>2013-06-22T06:51:24Z</time>
      </trkpt>
      <trkpt lat="42.94938" lon="-0.72628">
        <ele>2110</ele>
        <time>2013-06-22T06:51:26Z</time>
      </trkpt>
      <trkpt lat="42.94937" lon="-0.72629">
        <ele>2110</ele>
        <time>2013-06-22T06:51:28Z</time>
      </trkpt>
      <trkpt lat="42.94935" lon="-0.72629">
        <ele>2110</ele>
        <time>2013-06-22T06:51:30Z</time>
      </trkpt>
      <trkpt lat="42.94933" lon="-0.72629">
        <ele>2110</ele>
        <time>2013-06-22T06:51:32Z</time>
      </trkpt>
      <trkpt lat="42.94932" lon="-0.7263">
        <ele>2110</ele>
        <time>2013-06-22T06:51:34Z</time>
      </trkpt>
      <trkpt lat="42.94931" lon="-0.7263">
        <ele>2110</ele>
        <time>2013-06-22T06:51:36Z</time>
      </trkpt>
      <trkpt lat="42.94929" lon="-0.7263">
        <ele>2110</ele>
        <time>2013-06-22T06:51:39Z</time>
      </trkpt>
      <trkpt lat="42.94928" lon="-0.7263">
        <ele>2110</ele>
        <time>2013-06-22T06:51:42Z</time>
      </trkpt>
      <trkpt lat="42.94926" lon="-0.7263">
        <ele>2110</ele>
        <time>2013-06-22T06:51:45Z</time>
      </trkpt>
      <trkpt lat="42.94925" lon="-0.72629">
        <ele>2110</ele>
        <time>2013-06-22T06:51:47Z</time>
      </trkpt>
      <trkpt lat="42.94924" lon="-0.72629">
        <ele>2110</ele>
        <time>2013-06-22T06:51:49Z</time>
      </trkpt>
      <trkpt lat="42.94922" lon="-0.72629">
        <ele>2110</ele>
        <time>2013-06-22T06:51:51Z</time>
      </trkpt>
      <trkpt lat="42.94921" lon="-0.7263">
        <ele>2110</ele>
        <time>2013-06-22T06:51:53Z</time>
      </trkpt>
      <trkpt lat="42.9492" lon="-0.7263">
        <ele>2110</ele>
        <time>2013-06-22T06:51:55Z</time>
      </trkpt>
      <trkpt lat="42.94918" lon="-0.72631">
        <ele>2110</ele>
        <time>2013-06-22T06:51:57Z</time>
      </trkpt>
      <trkpt lat="42.94917" lon="-0.72631">
        <ele>2110</ele>
        <time>2013-06-22T06:51:59Z</time>
      </trkpt>
      <trkpt lat="42.94915" lon="-0.72631">
        <ele>2110</ele>
        <time>2013-06-22T06:52:02Z</time>
      </trkpt>
      <trkpt lat="42.94914" lon="-0.72632">
        <ele>2110</ele>
        <time>2013-06-22T06:52:04Z</time>
      </trkpt>
      <trkpt lat="42.94912" lon="-0.72632">
        <ele>2110</ele>
        <time>2013-06-22T06:52:06Z</time>
      </trkpt>
      <trkpt lat="42.94911" lon="-0.72632">
        <ele>2110</ele>
        <time>2013-06-22T06:52:08Z</time>
      </trkpt>
      <trkpt lat="42.9491" lon="-0.72633">
        <ele>2110</ele>
        <time>2013-06-22T06:52:10Z</time>
      </trkpt>
      <trkpt lat="42.94908" lon="-0.72633">
        <ele>2110</ele>
        <time>2013-06-22T06:52:12Z</time>
      </trkpt>
      <trkpt lat="42.94907" lon="-0.72633">
        <ele>2110</ele>
        <time>2013-06-22T06:52:14Z</time>
      </trkpt>
      <trkpt lat="42.94905" lon="-0.72634">
        <ele>2110</ele>
        <time>2013-06-22T06:52:16Z</time>
      </trkpt>
      <trkpt lat="42.94904" lon="-0.72635">
        <ele>2110</ele>
        <time>2013-06-22T06:52:18Z</time>
      </trkpt>
      <trkpt lat="42.94903" lon="-0.72635">
        <ele>2110</ele>
        <time>2013-06-22T06:52:20Z</time>
      </trkpt>
      <trkpt lat="42.94901" lon="-0.72636">
        <ele>2110</ele>
        <time>2013-06-22T06:52:23Z</time>
      </trkpt>
      <trkpt lat="42.949" lon="-0.72636">
        <ele>2110</ele>
        <time>2013-06-22T06:52:25Z</time>
      </trkpt>
      <trkpt lat="42.94899" lon="-0.72636">
        <ele>2110</ele>
        <time>2013-06-22T06:52:27Z</time>
      </trkpt>
      <trkpt lat="42.94897" lon="-0.72637">
        <ele>2110</ele>
        <time>2013-06-22T06:52:29Z</time>
      </trkpt>
      <trkpt lat="42.94896" lon="-0.72637">
        <ele>2110</ele>
        <time>2013-06-22T06:52:31Z</time>
      </trkpt>
      <trkpt lat="42.94894" lon="-0.72637">
        <ele>2110</ele>
        <time>2013-06-22T06:52:34Z</time>
      </trkpt>
      <trkpt lat="42.94893" lon="-0.72638">
        <ele>2110</ele>
        <time>2013-06-22T06:52:36Z</time>
      </trkpt>
      <trkpt lat="42.94892" lon="-0.72638">
        <ele>2110</ele>
        <time>2013-06-22T06:52:38Z</time>
      </trkpt>
      <trkpt lat="42.94891" lon="-0.72639">
        <ele>2110</ele>
        <time>2013-06-22T06:52:40Z</time>
      </trkpt>
      <trkpt lat="42.94889" lon="-0.7264">
        <ele>2110</ele>
        <time>2013-06-22T06:52:42Z</time>
      </trkpt>
      <trkpt lat="42.94888" lon="-0.7264">
        <ele>2110</ele>
        <time>2013-06-22T06:52:44Z</time>
      </trkpt>
      <trkpt lat="42.94886" lon="-0.72641">
        <ele>2110</ele>
        <time>2013-06-22T06:52:46Z</time>
      </trkpt>
      <trkpt lat="42.94885" lon="-0.72641">
        <ele>2110</ele>
        <time>2013-06-22T06:52:48Z</time>
      </trkpt>
      <trkpt lat="42.94884" lon="-0.72641">
        <ele>2110</ele>
        <time>2013-06-22T06:52:50Z</time>
      </trkpt>
      <trkpt lat="42.94882" lon="-0.72641">
        <ele>2110</ele>
        <time>2013-06-22T06:52:52Z</time>
      </trkpt>
      <trkpt lat="42.94881" lon="-0.72642">
        <ele>2110</ele>
        <time>2013-06-22T06:52:54Z</time>
      </trkpt>
      <trkpt lat="42.94879" lon="-0.72642">
        <ele>2110</ele>
        <time>2013-06-22T06:52:56Z</time>
      </trkpt>
      <trkpt lat="42.94878" lon="-0.72642">
        <ele>2110</ele>
        <time>2013-06-22T06:52:58Z</time>
      </trkpt>
      <trkpt lat="42.94876" lon="-0.72643">
        <ele>2110</ele>
        <time>2013-06-22T06:53:00Z</time>
      </trkpt>
      <trkpt lat="42.94875" lon="-0.72643">
        <ele>2110</ele>
        <time>2013-06-22T06:53:02Z</time>
      </trkpt>
      <trkpt lat="42.94873" lon="-0.72644">
        <ele>2110</ele>
        <time>2013-06-22T06:53:04Z</time>
      </trkpt>
      <trkpt lat="42.94872" lon="-0.72644">
        <ele>2110</ele>
        <time>2013-06-22T06:53:06Z</time>
      </trkpt>
      <trkpt lat="42.94871" lon="-0.72644">
        <ele>2110</ele>
        <time>2013-06-22T06:53:09Z</time>
      </trkpt>
      <trkpt lat="42.94869" lon="-0.72645">
        <ele>2110</ele>
        <time>2013-06-22T06:53:11Z</time>
      </trkpt>
      <trkpt lat="42.94868" lon="-0.72645">
        <ele>2110</ele>
        <time>2013-06-22T06:53:13Z</time>
      </trkpt>
      <trkpt lat="42.94867" lon="-0.72646">
        <ele>2110</ele>
        <time>2013-06-22T06:53:15Z</time>
      </trkpt>
      <trkpt lat="42.94865" lon="-0.72646">
        <ele>2110</ele>
        <time>2013-06-22T06:53:17Z</time>
      </trkpt>
      <trkpt lat="42.94864" lon="-0.72647">
        <ele>2110</ele>
        <time>2013-06-22T06:53:19Z</time>
      </trkpt>
      <trkpt lat="42.94862" lon="-0.72648">
        <ele>2110</ele>
        <time>2013-06-22T06:53:21Z</time>
      </trkpt>
      <trkpt lat="42.94861" lon="-0.72648">
        <ele>2110</ele>
        <time>2013-06-22T06:53:23Z</time>
      </trkpt>
      <trkpt lat="42.9486" lon="-0.72648">
        <ele>2110</ele>
        <time>2013-06-22T06:53:25Z</time>
      </trkpt>
      <trkpt lat="42.94858" lon="-0.72648">
        <ele>2110</ele>
        <time>2013-06-22T06:53:29Z</time>
      </trkpt>
      <trkpt lat="42.94856" lon="-0.72649">
        <ele>2110</ele>
        <time>2013-06-22T06:53:31Z</time>
      </trkpt>
      <trkpt lat="42.94854" lon="-0.7265">
        <ele>2110</ele>
        <time>2013-06-22T06:53:33Z</time>
      </trkpt>
      <trkpt lat="42.94852" lon="-0.7265">
        <ele>2110</ele>
        <time>2013-06-22T06:53:35Z</time>
      </trkpt>
      <trkpt lat="42.94851" lon="-0.72651">
        <ele>2110</ele>
        <time>2013-06-22T06:53:37Z</time>
      </trkpt>
      <trkpt lat="42.94849" lon="-0.72652">
        <ele>2110</ele>
        <time>2013-06-22T06:53:39Z</time>
      </trkpt>
      <trkpt lat="42.94847" lon="-0.72653">
        <ele>2110</ele>
        <time>2013-06-22T06:53:41Z</time>
      </trkpt>
      <trkpt lat="42.94846" lon="-0.72653">
        <ele>2110</ele>
        <time>2013-06-22T06:53:42Z</time>
      </trkpt>
      <trkpt lat="42.94844" lon="-0.72654">
        <ele>2110</ele>
        <time>2013-06-22T06:53:43Z</time>
      </trkpt>
      <trkpt lat="42.94841" lon="-0.72655">
        <ele>2110</ele>
        <time>2013-06-22T06:53:44Z</time>
      </trkpt>
      <trkpt lat="42.94839" lon="-0.72655">
        <ele>2110</ele>
        <time>2013-06-22T06:53:45Z</time>
      </trkpt>
      <trkpt lat="42.94837" lon="-0.72656">
        <ele>2110</ele>
        <time>2013-06-22T06:53:46Z</time>
      </trkpt>
      <trkpt lat="42.94835" lon="-0.72657">
        <ele>2110</ele>
        <time>2013-06-22T06:53:47Z</time>
      </trkpt>
      <trkpt lat="42.94833" lon="-0.72658">
        <ele>2110</ele>
        <time>2013-06-22T06:53:48Z</time>
      </trkpt>
      <trkpt lat="42.94831" lon="-0.72658">
        <ele>2110</ele>
        <time>2013-06-22T06:53:50Z</time>
      </trkpt>
      <trkpt lat="42.94829" lon="-0.72658">
        <ele>2110</ele>
        <time>2013-06-22T06:53:52Z</time>
      </trkpt>
      <trkpt lat="42.94828" lon="-0.72658">
        <ele>2110</ele>
        <time>2013-06-22T06:53:53Z</time>
      </trkpt>
      <trkpt lat="42.94826" lon="-0.72658">
        <ele>2110</ele>
        <time>2013-06-22T06:53:55Z</time>
      </trkpt>
      <trkpt lat="42.94824" lon="-0.72658">
        <ele>2110</ele>
        <time>2013-06-22T06:53:57Z</time>
      </trkpt>
      <trkpt lat="42.94822" lon="-0.72659">
        <ele>2110</ele>
        <time>2013-06-22T06:53:59Z</time>
      </trkpt>
      <trkpt lat="42.9482" lon="-0.72659">
        <ele>2110</ele>
        <time>2013-06-22T06:54:01Z</time>
      </trkpt>
      <trkpt lat="42.94818" lon="-0.7266">
        <ele>2110</ele>
        <time>2013-06-22T06:54:03Z</time>
      </trkpt>
      <trkpt lat="42.94817" lon="-0.7266">
        <ele>2110</ele>
        <time>2013-06-22T06:54:05Z</time>
      </trkpt>
      <trkpt lat="42.94815" lon="-0.72661">
        <ele>2110</ele>
        <time>2013-06-22T06:54:07Z</time>
      </trkpt>
      <trkpt lat="42.94813" lon="-0.72661">
        <ele>2110</ele>
        <time>2013-06-22T06:54:09Z</time>
      </trkpt>
      <trkpt lat="42.94811" lon="-0.72661">
        <ele>2110</ele>
        <time>2013-06-22T06:54:11Z</time>
      </trkpt>
      <trkpt lat="42.9481" lon="-0.72661">
        <ele>2110</ele>
        <time>2013-06-22T06:54:12Z</time>
      </trkpt>
      <trkpt lat="42.94808" lon="-0.72662">
        <ele>2110</ele>
        <time>2013-06-22T06:54:13Z</time>
      </trkpt>
      <trkpt lat="42.94806" lon="-0.72661">
        <ele>2110</ele>
        <time>2013-06-22T06:54:15Z</time>
      </trkpt>
      <trkpt lat="42.94805" lon="-0.72661">
        <ele>2110</ele>
        <time>2013-06-22T06:54:16Z</time>
      </trkpt>
      <trkpt lat="42.94803" lon="-0.72661">
        <ele>2110</ele>
        <time>2013-06-22T06:54:18Z</time>
      </trkpt>
      <trkpt lat="42.94801" lon="-0.72661">
        <ele>2110</ele>
        <time>2013-06-22T06:54:20Z</time>
      </trkpt>
      <trkpt lat="42.94799" lon="-0.72661">
        <ele>2110</ele>
        <time>2013-06-22T06:54:22Z</time>
      </trkpt>
      <trkpt lat="42.94798" lon="-0.72662">
        <ele>2110</ele>
        <time>2013-06-22T06:54:24Z</time>
      </trkpt>
      <trkpt lat="42.94796" lon="-0.72663">
        <ele>2110</ele>
        <time>2013-06-22T06:54:25Z</time>
      </trkpt>
      <trkpt lat="42.94795" lon="-0.72663">
        <ele>2110</ele>
        <time>2013-06-22T06:54:27Z</time>
      </trkpt>
      <trkpt lat="42.94793" lon="-0.72664">
        <ele>2110</ele>
        <time>2013-06-22T06:54:29Z</time>
      </trkpt>
      <trkpt lat="42.94791" lon="-0.72665">
        <ele>2110</ele>
        <time>2013-06-22T06:54:32Z</time>
      </trkpt>
      <trkpt lat="42.9479" lon="-0.72666">
        <ele>2110</ele>
        <time>2013-06-22T06:54:34Z</time>
      </trkpt>
      <trkpt lat="42.94788" lon="-0.72666">
        <ele>2110</ele>
        <time>2013-06-22T06:54:52Z</time>
      </trkpt>
      <trkpt lat="42.94786" lon="-0.72667">
        <ele>2110</ele>
        <time>2013-06-22T06:54:55Z</time>
      </trkpt>
      <trkpt lat="42.94785" lon="-0.72667">
        <ele>2110</ele>
        <time>2013-06-22T06:54:57Z</time>
      </trkpt>
      <trkpt lat="42.94783" lon="-0.72668">
        <ele>2110</ele>
        <time>2013-06-22T06:54:59Z</time>
      </trkpt>
      <trkpt lat="42.94781" lon="-0.72668">
        <ele>2110</ele>
        <time>2013-06-22T06:55:01Z</time>
      </trkpt>
      <trkpt lat="42.9478" lon="-0.72669">
        <ele>2110</ele>
        <time>2013-06-22T06:55:04Z</time>
      </trkpt>
      <trkpt lat="42.94779" lon="-0.72669">
        <ele>2110</ele>
        <time>2013-06-22T06:55:06Z</time>
      </trkpt>
      <trkpt lat="42.94777" lon="-0.7267">
        <ele>2110</ele>
        <time>2013-06-22T06:55:09Z</time>
      </trkpt>
      <trkpt lat="42.94775" lon="-0.7267">
        <ele>2110</ele>
        <time>2013-06-22T06:55:11Z</time>
      </trkpt>
      <trkpt lat="42.94774" lon="-0.72671">
        <ele>2110</ele>
        <time>2013-06-22T06:55:13Z</time>
      </trkpt>
      <trkpt lat="42.94772" lon="-0.72671">
        <ele>2110</ele>
        <time>2013-06-22T06:55:15Z</time>
      </trkpt>
      <trkpt lat="42.94771" lon="-0.72671">
        <ele>2111</ele>
        <time>2013-06-22T06:55:17Z</time>
      </trkpt>
      <trkpt lat="42.9477" lon="-0.72672">
        <ele>2111</ele>
        <time>2013-06-22T06:55:19Z</time>
      </trkpt>
      <trkpt lat="42.94768" lon="-0.72672">
        <ele>2113</ele>
        <time>2013-06-22T06:55:22Z</time>
      </trkpt>
      <trkpt lat="42.94767" lon="-0.72672">
        <ele>2113</ele>
        <time>2013-06-22T06:55:24Z</time>
      </trkpt>
      <trkpt lat="42.94766" lon="-0.72673">
        <ele>2114</ele>
        <time>2013-06-22T06:55:26Z</time>
      </trkpt>
      <trkpt lat="42.94765" lon="-0.72673">
        <ele>2114</ele>
        <time>2013-06-22T06:55:28Z</time>
      </trkpt>
      <trkpt lat="42.94764" lon="-0.72674">
        <ele>2115</ele>
        <time>2013-06-22T06:55:30Z</time>
      </trkpt>
      <trkpt lat="42.94762" lon="-0.72675">
        <ele>2115</ele>
        <time>2013-06-22T06:55:32Z</time>
      </trkpt>
      <trkpt lat="42.9476" lon="-0.72676">
        <ele>2116</ele>
        <time>2013-06-22T06:55:35Z</time>
      </trkpt>
      <trkpt lat="42.94758" lon="-0.72676">
        <ele>2116</ele>
        <time>2013-06-22T06:55:37Z</time>
      </trkpt>
      <trkpt lat="42.94757" lon="-0.72676">
        <ele>2116</ele>
        <time>2013-06-22T06:55:38Z</time>
      </trkpt>
      <trkpt lat="42.94755" lon="-0.72677">
        <ele>2116</ele>
        <time>2013-06-22T06:55:40Z</time>
      </trkpt>
      <trkpt lat="42.94754" lon="-0.72678">
        <ele>2116</ele>
        <time>2013-06-22T06:55:43Z</time>
      </trkpt>
      <trkpt lat="42.94752" lon="-0.7268">
        <ele>2116</ele>
        <time>2013-06-22T06:55:45Z</time>
      </trkpt>
      <trkpt lat="42.94751" lon="-0.72681">
        <ele>2116</ele>
        <time>2013-06-22T06:55:47Z</time>
      </trkpt>
      <trkpt lat="42.9475" lon="-0.72683">
        <ele>2116</ele>
        <time>2013-06-22T06:55:49Z</time>
      </trkpt>
      <trkpt lat="42.9475" lon="-0.72681">
        <ele>2116</ele>
        <time>2013-06-22T06:56:04Z</time>
      </trkpt>
      <trkpt lat="42.94749" lon="-0.72682">
        <ele>2116</ele>
        <time>2013-06-22T06:56:11Z</time>
      </trkpt>
      <trkpt lat="42.94748" lon="-0.72683">
        <ele>2116</ele>
        <time>2013-06-22T06:56:14Z</time>
      </trkpt>
      <trkpt lat="42.94746" lon="-0.72685">
        <ele>2116</ele>
        <time>2013-06-22T06:56:19Z</time>
      </trkpt>
      <trkpt lat="42.94745" lon="-0.72686">
        <ele>2116</ele>
        <time>2013-06-22T06:56:21Z</time>
      </trkpt>
      <trkpt lat="42.94744" lon="-0.72687">
        <ele>2118</ele>
        <time>2013-06-22T06:56:25Z</time>
      </trkpt>
      <trkpt lat="42.94743" lon="-0.72688">
        <ele>2118</ele>
        <time>2013-06-22T06:56:27Z</time>
      </trkpt>
      <trkpt lat="42.94741" lon="-0.7269">
        <ele>2119</ele>
        <time>2013-06-22T06:56:30Z</time>
      </trkpt>
      <trkpt lat="42.9474" lon="-0.72691">
        <ele>2119</ele>
        <time>2013-06-22T06:56:32Z</time>
      </trkpt>
      <trkpt lat="42.94738" lon="-0.72692">
        <ele>2119</ele>
        <time>2013-06-22T06:56:34Z</time>
      </trkpt>
      <trkpt lat="42.94737" lon="-0.72693">
        <ele>2120</ele>
        <time>2013-06-22T06:56:36Z</time>
      </trkpt>
      <trkpt lat="42.94735" lon="-0.72694">
        <ele>2120</ele>
        <time>2013-06-22T06:56:38Z</time>
      </trkpt>
      <trkpt lat="42.94734" lon="-0.72695">
        <ele>2121</ele>
        <time>2013-06-22T06:56:40Z</time>
      </trkpt>
      <trkpt lat="42.94733" lon="-0.72696">
        <ele>2121</ele>
        <time>2013-06-22T06:56:42Z</time>
      </trkpt>
      <trkpt lat="42.94731" lon="-0.72697">
        <ele>2122</ele>
        <time>2013-06-22T06:56:44Z</time>
      </trkpt>
      <trkpt lat="42.9473" lon="-0.72698">
        <ele>2122</ele>
        <time>2013-06-22T06:56:46Z</time>
      </trkpt>
      <trkpt lat="42.94728" lon="-0.72699">
        <ele>2122</ele>
        <time>2013-06-22T06:56:48Z</time>
      </trkpt>
      <trkpt lat="42.94727" lon="-0.727">
        <ele>2123</ele>
        <time>2013-06-22T06:56:50Z</time>
      </trkpt>
      <trkpt lat="42.94726" lon="-0.727">
        <ele>2123</ele>
        <time>2013-06-22T06:56:52Z</time>
      </trkpt>
      <trkpt lat="42.94725" lon="-0.72701">
        <ele>2124</ele>
        <time>2013-06-22T06:56:54Z</time>
      </trkpt>
      <trkpt lat="42.94723" lon="-0.72701">
        <ele>2125</ele>
        <time>2013-06-22T06:56:57Z</time>
      </trkpt>
      <trkpt lat="42.94722" lon="-0.72701">
        <ele>2125</ele>
        <time>2013-06-22T06:56:59Z</time>
      </trkpt>
      <trkpt lat="42.9472" lon="-0.72701">
        <ele>2126</ele>
        <time>2013-06-22T06:57:01Z</time>
      </trkpt>
      <trkpt lat="42.94719" lon="-0.72702">
        <ele>2126</ele>
        <time>2013-06-22T06:57:03Z</time>
      </trkpt>
      <trkpt lat="42.94717" lon="-0.72702">
        <ele>2126</ele>
        <time>2013-06-22T06:57:05Z</time>
      </trkpt>
      <trkpt lat="42.94716" lon="-0.72703">
        <ele>2127</ele>
        <time>2013-06-22T06:57:07Z</time>
      </trkpt>
      <trkpt lat="42.94715" lon="-0.72704">
        <ele>2128</ele>
        <time>2013-06-22T06:57:09Z</time>
      </trkpt>
      <trkpt lat="42.94714" lon="-0.72704">
        <ele>2128</ele>
        <time>2013-06-22T06:57:11Z</time>
      </trkpt>
      <trkpt lat="42.94712" lon="-0.72705">
        <ele>2129</ele>
        <time>2013-06-22T06:57:13Z</time>
      </trkpt>
      <trkpt lat="42.94711" lon="-0.72705">
        <ele>2129</ele>
        <time>2013-06-22T06:57:15Z</time>
      </trkpt>
      <trkpt lat="42.94709" lon="-0.72706">
        <ele>2129</ele>
        <time>2013-06-22T06:57:17Z</time>
      </trkpt>
      <trkpt lat="42.94708" lon="-0.72707">
        <ele>2129</ele>
        <time>2013-06-22T06:57:19Z</time>
      </trkpt>
      <trkpt lat="42.94706" lon="-0.72707">
        <ele>2129</ele>
        <time>2013-06-22T06:57:21Z</time>
      </trkpt>
      <trkpt lat="42.94705" lon="-0.72708">
        <ele>2129</ele>
        <time>2013-06-22T06:57:23Z</time>
      </trkpt>
      <trkpt lat="42.94703" lon="-0.72708">
        <ele>2129</ele>
        <time>2013-06-22T06:57:25Z</time>
      </trkpt>
      <trkpt lat="42.94702" lon="-0.72709">
        <ele>2130</ele>
        <time>2013-06-22T06:57:27Z</time>
      </trkpt>
      <trkpt lat="42.947" lon="-0.7271">
        <ele>2130</ele>
        <time>2013-06-22T06:57:29Z</time>
      </trkpt>
      <trkpt lat="42.94698" lon="-0.7271">
        <ele>2130</ele>
        <time>2013-06-22T06:57:31Z</time>
      </trkpt>
      <trkpt lat="42.94697" lon="-0.72711">
        <ele>2131</ele>
        <time>2013-06-22T06:57:33Z</time>
      </trkpt>
      <trkpt lat="42.94696" lon="-0.72711">
        <ele>2131</ele>
        <time>2013-06-22T06:57:35Z</time>
      </trkpt>
      <trkpt lat="42.94694" lon="-0.72712">
        <ele>2132</ele>
        <time>2013-06-22T06:57:37Z</time>
      </trkpt>
      <trkpt lat="42.94692" lon="-0.72712">
        <ele>2133</ele>
        <time>2013-06-22T06:57:39Z</time>
      </trkpt>
      <trkpt lat="42.94691" lon="-0.72712">
        <ele>2134</ele>
        <time>2013-06-22T06:57:41Z</time>
      </trkpt>
      <trkpt lat="42.94689" lon="-0.72713">
        <ele>2134</ele>
        <time>2013-06-22T06:57:43Z</time>
      </trkpt>
      <trkpt lat="42.94687" lon="-0.72713">
        <ele>2134</ele>
        <time>2013-06-22T06:57:45Z</time>
      </trkpt>
      <trkpt lat="42.94685" lon="-0.72713">
        <ele>2135</ele>
        <time>2013-06-22T06:57:47Z</time>
      </trkpt>
      <trkpt lat="42.94684" lon="-0.72713">
        <ele>2135</ele>
        <time>2013-06-22T06:57:49Z</time>
      </trkpt>
      <trkpt lat="42.94682" lon="-0.72714">
        <ele>2135</ele>
        <time>2013-06-22T06:57:51Z</time>
      </trkpt>
      <trkpt lat="42.9468" lon="-0.72714">
        <ele>2135</ele>
        <time>2013-06-22T06:57:53Z</time>
      </trkpt>
      <trkpt lat="42.94678" lon="-0.72715">
        <ele>2136</ele>
        <time>2013-06-22T06:57:55Z</time>
      </trkpt>
      <trkpt lat="42.94676" lon="-0.72715">
        <ele>2136</ele>
        <time>2013-06-22T06:57:57Z</time>
      </trkpt>
      <trkpt lat="42.94675" lon="-0.72716">
        <ele>2136</ele>
        <time>2013-06-22T06:57:59Z</time>
      </trkpt>
      <trkpt lat="42.94673" lon="-0.72716">
        <ele>2136</ele>
        <time>2013-06-22T06:58:01Z</time>
      </trkpt>
      <trkpt lat="42.94671" lon="-0.72716">
        <ele>2137</ele>
        <time>2013-06-22T06:58:03Z</time>
      </trkpt>
      <trkpt lat="42.9467" lon="-0.72717">
        <ele>2137</ele>
        <time>2013-06-22T06:58:05Z</time>
      </trkpt>
      <trkpt lat="42.94668" lon="-0.72717">
        <ele>2138</ele>
        <time>2013-06-22T06:58:07Z</time>
      </trkpt>
      <trkpt lat="42.94666" lon="-0.72718">
        <ele>2138</ele>
        <time>2013-06-22T06:58:09Z</time>
      </trkpt>
      <trkpt lat="42.94665" lon="-0.72717">
        <ele>2138</ele>
        <time>2013-06-22T06:58:11Z</time>
      </trkpt>
      <trkpt lat="42.94663" lon="-0.72718">
        <ele>2138</ele>
        <time>2013-06-22T06:58:13Z</time>
      </trkpt>
      <trkpt lat="42.94662" lon="-0.72718">
        <ele>2138</ele>
        <time>2013-06-22T06:58:15Z</time>
      </trkpt>
      <trkpt lat="42.94661" lon="-0.72718">
        <ele>2140</ele>
        <time>2013-06-22T06:58:32Z</time>
      </trkpt>
      <trkpt lat="42.94659" lon="-0.72719">
        <ele>2140</ele>
        <time>2013-06-22T06:58:34Z</time>
      </trkpt>
      <trkpt lat="42.94658" lon="-0.7272">
        <ele>2140</ele>
        <time>2013-06-22T06:58:36Z</time>
      </trkpt>
      <trkpt lat="42.94656" lon="-0.7272">
        <ele>2141</ele>
        <time>2013-06-22T06:58:38Z</time>
      </trkpt>
      <trkpt lat="42.94654" lon="-0.72721">
        <ele>2141</ele>
        <time>2013-06-22T06:58:40Z</time>
      </trkpt>
      <trkpt lat="42.94653" lon="-0.72721">
        <ele>2141</ele>
        <time>2013-06-22T06:58:42Z</time>
      </trkpt>
      <trkpt lat="42.94651" lon="-0.72721">
        <ele>2141</ele>
        <time>2013-06-22T06:58:44Z</time>
      </trkpt>
      <trkpt lat="42.9465" lon="-0.72721">
        <ele>2141</ele>
        <time>2013-06-22T06:58:46Z</time>
      </trkpt>
      <trkpt lat="42.94648" lon="-0.72722">
        <ele>2141</ele>
        <time>2013-06-22T06:58:48Z</time>
      </trkpt>
      <trkpt lat="42.94647" lon="-0.72723">
        <ele>2141</ele>
        <time>2013-06-22T06:58:50Z</time>
      </trkpt>
      <trkpt lat="42.94646" lon="-0.72723">
        <ele>2141</ele>
        <time>2013-06-22T06:58:52Z</time>
      </trkpt>
      <trkpt lat="42.94644" lon="-0.72724">
        <ele>2141</ele>
        <time>2013-06-22T06:58:55Z</time>
      </trkpt>
      <trkpt lat="42.94643" lon="-0.72724">
        <ele>2141</ele>
        <time>2013-06-22T06:58:57Z</time>
      </trkpt>
      <trkpt lat="42.94642" lon="-0.72725">
        <ele>2141</ele>
        <time>2013-06-22T06:58:59Z</time>
      </trkpt>
      <trkpt lat="42.9464" lon="-0.72726">
        <ele>2141</ele>
        <time>2013-06-22T06:59:01Z</time>
      </trkpt>
      <trkpt lat="42.94639" lon="-0.72727">
        <ele>2141</ele>
        <time>2013-06-22T06:59:03Z</time>
      </trkpt>
      <trkpt lat="42.94638" lon="-0.72727">
        <ele>2141</ele>
        <time>2013-06-22T06:59:05Z</time>
      </trkpt>
      <trkpt lat="42.94636" lon="-0.72728">
        <ele>2141</ele>
        <time>2013-06-22T06:59:07Z</time>
      </trkpt>
      <trkpt lat="42.94635" lon="-0.72728">
        <ele>2141</ele>
        <time>2013-06-22T06:59:09Z</time>
      </trkpt>
      <trkpt lat="42.94633" lon="-0.72729">
        <ele>2142</ele>
        <time>2013-06-22T06:59:11Z</time>
      </trkpt>
      <trkpt lat="42.94632" lon="-0.72729">
        <ele>2142</ele>
        <time>2013-06-22T06:59:13Z</time>
      </trkpt>
      <trkpt lat="42.9463" lon="-0.7273">
        <ele>2142</ele>
        <time>2013-06-22T06:59:15Z</time>
      </trkpt>
      <trkpt lat="42.94629" lon="-0.72731">
        <ele>2143</ele>
        <time>2013-06-22T06:59:17Z</time>
      </trkpt>
      <trkpt lat="42.94627" lon="-0.72731">
        <ele>2143</ele>
        <time>2013-06-22T06:59:19Z</time>
      </trkpt>
      <trkpt lat="42.94625" lon="-0.72732">
        <ele>2143</ele>
        <time>2013-06-22T06:59:21Z</time>
      </trkpt>
      <trkpt lat="42.94624" lon="-0.72733">
        <ele>2143</ele>
        <time>2013-06-22T06:59:23Z</time>
      </trkpt>
      <trkpt lat="42.94622" lon="-0.72734">
        <ele>2144</ele>
        <time>2013-06-22T06:59:25Z</time>
      </trkpt>
      <trkpt lat="42.9462" lon="-0.72734">
        <ele>2144</ele>
        <time>2013-06-22T06:59:27Z</time>
      </trkpt>
      <trkpt lat="42.94619" lon="-0.72735">
        <ele>2144</ele>
        <time>2013-06-22T06:59:29Z</time>
      </trkpt>
      <trkpt lat="42.94617" lon="-0.72735">
        <ele>2145</ele>
        <time>2013-06-22T06:59:31Z</time>
      </trkpt>
      <trkpt lat="42.94615" lon="-0.72735">
        <ele>2145</ele>
        <time>2013-06-22T06:59:33Z</time>
      </trkpt>
      <trkpt lat="42.94614" lon="-0.72735">
        <ele>2145</ele>
        <time>2013-06-22T06:59:35Z</time>
      </trkpt>
      <trkpt lat="42.94612" lon="-0.72736">
        <ele>2145</ele>
        <time>2013-06-22T06:59:37Z</time>
      </trkpt>
      <trkpt lat="42.9461" lon="-0.72736">
        <ele>2145</ele>
        <time>2013-06-22T06:59:39Z</time>
      </trkpt>
      <trkpt lat="42.94609" lon="-0.72736">
        <ele>2145</ele>
        <time>2013-06-22T06:59:41Z</time>
      </trkpt>
      <trkpt lat="42.94607" lon="-0.72736">
        <ele>2146</ele>
        <time>2013-06-22T06:59:43Z</time>
      </trkpt>
      <trkpt lat="42.94606" lon="-0.72736">
        <ele>2146</ele>
        <time>2013-06-22T06:59:45Z</time>
      </trkpt>
      <trkpt lat="42.94604" lon="-0.72737">
        <ele>2146</ele>
        <time>2013-06-22T06:59:47Z</time>
      </trkpt>
      <trkpt lat="42.94603" lon="-0.72736">
        <ele>2146</ele>
        <time>2013-06-22T06:59:49Z</time>
      </trkpt>
      <trkpt lat="42.94601" lon="-0.72737">
        <ele>2146</ele>
        <time>2013-06-22T06:59:51Z</time>
      </trkpt>
      <trkpt lat="42.946" lon="-0.72737">
        <ele>2147</ele>
        <time>2013-06-22T06:59:53Z</time>
      </trkpt>
      <trkpt lat="42.94598" lon="-0.72737">
        <ele>2147</ele>
        <time>2013-06-22T06:59:55Z</time>
      </trkpt>
      <trkpt lat="42.94597" lon="-0.72737">
        <ele>2148</ele>
        <time>2013-06-22T06:59:57Z</time>
      </trkpt>
      <trkpt lat="42.94595" lon="-0.72737">
        <ele>2148</ele>
        <time>2013-06-22T06:59:59Z</time>
      </trkpt>
      <trkpt lat="42.94594" lon="-0.72737">
        <ele>2148</ele>
        <time>2013-06-22T07:00:01Z</time>
      </trkpt>
      <trkpt lat="42.94593" lon="-0.72737">
        <ele>2149</ele>
        <time>2013-06-22T07:00:03Z</time>
      </trkpt>
      <trkpt lat="42.94591" lon="-0.72736">
        <ele>2149</ele>
        <time>2013-06-22T07:00:05Z</time>
      </trkpt>
      <trkpt lat="42.9459" lon="-0.72736">
        <ele>2149</ele>
        <time>2013-06-22T07:00:07Z</time>
      </trkpt>
      <trkpt lat="42.94588" lon="-0.72736">
        <ele>2149</ele>
        <time>2013-06-22T07:00:09Z</time>
      </trkpt>
      <trkpt lat="42.94587" lon="-0.72735">
        <ele>2149</ele>
        <time>2013-06-22T07:00:11Z</time>
      </trkpt>
      <trkpt lat="42.94585" lon="-0.72734">
        <ele>2149</ele>
        <time>2013-06-22T07:00:13Z</time>
      </trkpt>
      <trkpt lat="42.94584" lon="-0.72734">
        <ele>2150</ele>
        <time>2013-06-22T07:00:15Z</time>
      </trkpt>
      <trkpt lat="42.94583" lon="-0.72734">
        <ele>2150</ele>
        <time>2013-06-22T07:00:17Z</time>
      </trkpt>
      <trkpt lat="42.94581" lon="-0.72733">
        <ele>2150</ele>
        <time>2013-06-22T07:00:19Z</time>
      </trkpt>
      <trkpt lat="42.9458" lon="-0.72733">
        <ele>2150</ele>
        <time>2013-06-22T07:00:21Z</time>
      </trkpt>
      <trkpt lat="42.94579" lon="-0.72734">
        <ele>2150</ele>
        <time>2013-06-22T07:00:23Z</time>
      </trkpt>
      <trkpt lat="42.94577" lon="-0.72734">
        <ele>2150</ele>
        <time>2013-06-22T07:00:25Z</time>
      </trkpt>
      <trkpt lat="42.94576" lon="-0.72734">
        <ele>2150</ele>
        <time>2013-06-22T07:00:47Z</time>
      </trkpt>
      <trkpt lat="42.94574" lon="-0.72734">
        <ele>2150</ele>
        <time>2013-06-22T07:00:49Z</time>
      </trkpt>
      <trkpt lat="42.94573" lon="-0.72734">
        <ele>2151</ele>
        <time>2013-06-22T07:00:51Z</time>
      </trkpt>
      <trkpt lat="42.94571" lon="-0.72734">
        <ele>2151</ele>
        <time>2013-06-22T07:00:53Z</time>
      </trkpt>
      <trkpt lat="42.9457" lon="-0.72734">
        <ele>2151</ele>
        <time>2013-06-22T07:00:55Z</time>
      </trkpt>
      <trkpt lat="42.94569" lon="-0.72734">
        <ele>2151</ele>
        <time>2013-06-22T07:00:57Z</time>
      </trkpt>
      <trkpt lat="42.94567" lon="-0.72733">
        <ele>2151</ele>
        <time>2013-06-22T07:00:59Z</time>
      </trkpt>
      <trkpt lat="42.94566" lon="-0.72733">
        <ele>2151</ele>
        <time>2013-06-22T07:01:01Z</time>
      </trkpt>
      <trkpt lat="42.94564" lon="-0.72734">
        <ele>2152</ele>
        <time>2013-06-22T07:01:03Z</time>
      </trkpt>
      <trkpt lat="42.94563" lon="-0.72734">
        <ele>2152</ele>
        <time>2013-06-22T07:01:05Z</time>
      </trkpt>
      <trkpt lat="42.94561" lon="-0.72734">
        <ele>2153</ele>
        <time>2013-06-22T07:01:07Z</time>
      </trkpt>
      <trkpt lat="42.94559" lon="-0.72735">
        <ele>2153</ele>
        <time>2013-06-22T07:01:09Z</time>
      </trkpt>
      <trkpt lat="42.94558" lon="-0.72735">
        <ele>2153</ele>
        <time>2013-06-22T07:01:11Z</time>
      </trkpt>
      <trkpt lat="42.94556" lon="-0.72735">
        <ele>2154</ele>
        <time>2013-06-22T07:01:13Z</time>
      </trkpt>
      <trkpt lat="42.94555" lon="-0.72735">
        <ele>2154</ele>
        <time>2013-06-22T07:01:15Z</time>
      </trkpt>
      <trkpt lat="42.94553" lon="-0.72735">
        <ele>2154</ele>
        <time>2013-06-22T07:01:17Z</time>
      </trkpt>
      <trkpt lat="42.94552" lon="-0.72735">
        <ele>2154</ele>
        <time>2013-06-22T07:01:19Z</time>
      </trkpt>
      <trkpt lat="42.9455" lon="-0.72736">
        <ele>2155</ele>
        <time>2013-06-22T07:01:21Z</time>
      </trkpt>
      <trkpt lat="42.94548" lon="-0.72736">
        <ele>2155</ele>
        <time>2013-06-22T07:01:23Z</time>
      </trkpt>
      <trkpt lat="42.94547" lon="-0.72737">
        <ele>2155</ele>
        <time>2013-06-22T07:01:25Z</time>
      </trkpt>
      <trkpt lat="42.94545" lon="-0.72738">
        <ele>2155</ele>
        <time>2013-06-22T07:01:27Z</time>
      </trkpt>
      <trkpt lat="42.94543" lon="-0.72738">
        <ele>2155</ele>
        <time>2013-06-22T07:01:29Z</time>
      </trkpt>
      <trkpt lat="42.94542" lon="-0.72738">
        <ele>2155</ele>
        <time>2013-06-22T07:01:30Z</time>
      </trkpt>
      <trkpt lat="42.9454" lon="-0.72738">
        <ele>2155</ele>
        <time>2013-06-22T07:01:32Z</time>
      </trkpt>
      <trkpt lat="42.94539" lon="-0.72738">
        <ele>2155</ele>
        <time>2013-06-22T07:01:34Z</time>
      </trkpt>
      <trkpt lat="42.94538" lon="-0.72739">
        <ele>2155</ele>
        <time>2013-06-22T07:01:36Z</time>
      </trkpt>
      <trkpt lat="42.94537" lon="-0.72739">
        <ele>2155</ele>
        <time>2013-06-22T07:01:38Z</time>
      </trkpt>
      <trkpt lat="42.94535" lon="-0.72741">
        <ele>2155</ele>
        <time>2013-06-22T07:01:40Z</time>
      </trkpt>
      <trkpt lat="42.94534" lon="-0.72741">
        <ele>2155</ele>
        <time>2013-06-22T07:01:42Z</time>
      </trkpt>
      <trkpt lat="42.94532" lon="-0.72742">
        <ele>2155</ele>
        <time>2013-06-22T07:01:44Z</time>
      </trkpt>
      <trkpt lat="42.94531" lon="-0.72743">
        <ele>2155</ele>
        <time>2013-06-22T07:01:46Z</time>
      </trkpt>
      <trkpt lat="42.9453" lon="-0.72744">
        <ele>2155</ele>
        <time>2013-06-22T07:01:48Z</time>
      </trkpt>
      <trkpt lat="42.94529" lon="-0.72745">
        <ele>2155</ele>
        <time>2013-06-22T07:01:50Z</time>
      </trkpt>
      <trkpt lat="42.94527" lon="-0.72746">
        <ele>2155</ele>
        <time>2013-06-22T07:01:52Z</time>
      </trkpt>
      <trkpt lat="42.94526" lon="-0.72746">
        <ele>2155</ele>
        <time>2013-06-22T07:01:54Z</time>
      </trkpt>
      <trkpt lat="42.94525" lon="-0.72747">
        <ele>2156</ele>
        <time>2013-06-22T07:01:56Z</time>
      </trkpt>
      <trkpt lat="42.94523" lon="-0.72747">
        <ele>2157</ele>
        <time>2013-06-22T07:01:59Z</time>
      </trkpt>
      <trkpt lat="42.94522" lon="-0.72748">
        <ele>2157</ele>
        <time>2013-06-22T07:02:02Z</time>
      </trkpt>
      <trkpt lat="42.94521" lon="-0.72749">
        <ele>2158</ele>
        <time>2013-06-22T07:02:04Z</time>
      </trkpt>
      <trkpt lat="42.94519" lon="-0.72751">
        <ele>2160</ele>
        <time>2013-06-22T07:02:39Z</time>
      </trkpt>
      <trkpt lat="42.94518" lon="-0.72752">
        <ele>2161</ele>
        <time>2013-06-22T07:02:41Z</time>
      </trkpt>
      <trkpt lat="42.94517" lon="-0.72752">
        <ele>2161</ele>
        <time>2013-06-22T07:02:43Z</time>
      </trkpt>
      <trkpt lat="42.94515" lon="-0.72753">
        <ele>2161</ele>
        <time>2013-06-22T07:02:45Z</time>
      </trkpt>
      <trkpt lat="42.94514" lon="-0.72754">
        <ele>2161</ele>
        <time>2013-06-22T07:02:47Z</time>
      </trkpt>
      <trkpt lat="42.94512" lon="-0.72754">
        <ele>2162</ele>
        <time>2013-06-22T07:02:49Z</time>
      </trkpt>
      <trkpt lat="42.94511" lon="-0.72754">
        <ele>2162</ele>
        <time>2013-06-22T07:02:51Z</time>
      </trkpt>
      <trkpt lat="42.94509" lon="-0.72755">
        <ele>2162</ele>
        <time>2013-06-22T07:02:54Z</time>
      </trkpt>
      <trkpt lat="42.94508" lon="-0.72755">
        <ele>2162</ele>
        <time>2013-06-22T07:02:56Z</time>
      </trkpt>
      <trkpt lat="42.94506" lon="-0.72756">
        <ele>2162</ele>
        <time>2013-06-22T07:02:58Z</time>
      </trkpt>
      <trkpt lat="42.94505" lon="-0.72756">
        <ele>2162</ele>
        <time>2013-06-22T07:03:00Z</time>
      </trkpt>
      <trkpt lat="42.94504" lon="-0.72757">
        <ele>2162</ele>
        <time>2013-06-22T07:03:02Z</time>
      </trkpt>
      <trkpt lat="42.94502" lon="-0.72758">
        <ele>2162</ele>
        <time>2013-06-22T07:03:04Z</time>
      </trkpt>
      <trkpt lat="42.94501" lon="-0.72758">
        <ele>2162</ele>
        <time>2013-06-22T07:03:06Z</time>
      </trkpt>
      <trkpt lat="42.945" lon="-0.72759">
        <ele>2162</ele>
        <time>2013-06-22T07:03:08Z</time>
      </trkpt>
      <trkpt lat="42.94499" lon="-0.72759">
        <ele>2162</ele>
        <time>2013-06-22T07:03:10Z</time>
      </trkpt>
      <trkpt lat="42.94497" lon="-0.72759">
        <ele>2162</ele>
        <time>2013-06-22T07:03:12Z</time>
      </trkpt>
      <trkpt lat="42.94496" lon="-0.72759">
        <ele>2162</ele>
        <time>2013-06-22T07:03:14Z</time>
      </trkpt>
      <trkpt lat="42.94495" lon="-0.72759">
        <ele>2162</ele>
        <time>2013-06-22T07:03:16Z</time>
      </trkpt>
      <trkpt lat="42.94493" lon="-0.72759">
        <ele>2162</ele>
        <time>2013-06-22T07:03:18Z</time>
      </trkpt>
      <trkpt lat="42.94492" lon="-0.72759">
        <ele>2162</ele>
        <time>2013-06-22T07:03:20Z</time>
      </trkpt>
      <trkpt lat="42.94491" lon="-0.7276">
        <ele>2163</ele>
        <time>2013-06-22T07:03:22Z</time>
      </trkpt>
      <trkpt lat="42.9449" lon="-0.7276">
        <ele>2163</ele>
        <time>2013-06-22T07:03:24Z</time>
      </trkpt>
      <trkpt lat="42.94488" lon="-0.72761">
        <ele>2164</ele>
        <time>2013-06-22T07:03:26Z</time>
      </trkpt>
      <trkpt lat="42.94487" lon="-0.72762">
        <ele>2164</ele>
        <time>2013-06-22T07:03:28Z</time>
      </trkpt>
      <trkpt lat="42.94485" lon="-0.72763">
        <ele>2164</ele>
        <time>2013-06-22T07:03:30Z</time>
      </trkpt>
      <trkpt lat="42.94484" lon="-0.72764">
        <ele>2165</ele>
        <time>2013-06-22T07:03:32Z</time>
      </trkpt>
      <trkpt lat="42.94482" lon="-0.72765">
        <ele>2165</ele>
        <time>2013-06-22T07:03:34Z</time>
      </trkpt>
      <trkpt lat="42.94481" lon="-0.72766">
        <ele>2166</ele>
        <time>2013-06-22T07:03:36Z</time>
      </trkpt>
      <trkpt lat="42.9448" lon="-0.72767">
        <ele>2166</ele>
        <time>2013-06-22T07:03:38Z</time>
      </trkpt>
      <trkpt lat="42.94479" lon="-0.72767">
        <ele>2168</ele>
        <time>2013-06-22T07:03:54Z</time>
      </trkpt>
      <trkpt lat="42.94478" lon="-0.72768">
        <ele>2168</ele>
        <time>2013-06-22T07:03:56Z</time>
      </trkpt>
      <trkpt lat="42.94477" lon="-0.72768">
        <ele>2168</ele>
        <time>2013-06-22T07:03:58Z</time>
      </trkpt>
      <trkpt lat="42.94476" lon="-0.72767">
        <ele>2169</ele>
        <time>2013-06-22T07:04:00Z</time>
      </trkpt>
      <trkpt lat="42.94476" lon="-0.72764">
        <ele>2170</ele>
        <time>2013-06-22T07:04:02Z</time>
      </trkpt>
      <trkpt lat="42.94475" lon="-0.72762">
        <ele>2170</ele>
        <time>2013-06-22T07:04:04Z</time>
      </trkpt>
      <trkpt lat="42.94474" lon="-0.7276">
        <ele>2171</ele>
        <time>2013-06-22T07:04:06Z</time>
      </trkpt>
      <trkpt lat="42.94474" lon="-0.72758">
        <ele>2171</ele>
        <time>2013-06-22T07:04:08Z</time>
      </trkpt>
      <trkpt lat="42.94473" lon="-0.72755">
        <ele>2171</ele>
        <time>2013-06-22T07:04:10Z</time>
      </trkpt>
      <trkpt lat="42.94472" lon="-0.72753">
        <ele>2171</ele>
        <time>2013-06-22T07:04:12Z</time>
      </trkpt>
      <trkpt lat="42.94471" lon="-0.72753">
        <ele>2171</ele>
        <time>2013-06-22T07:04:14Z</time>
      </trkpt>
      <trkpt lat="42.94469" lon="-0.72753">
        <ele>2171</ele>
        <time>2013-06-22T07:04:16Z</time>
      </trkpt>
      <trkpt lat="42.94468" lon="-0.72753">
        <ele>2172</ele>
        <time>2013-06-22T07:04:18Z</time>
      </trkpt>
      <trkpt lat="42.94466" lon="-0.72753">
        <ele>2172</ele>
        <time>2013-06-22T07:04:20Z</time>
      </trkpt>
      <trkpt lat="42.94465" lon="-0.72754">
        <ele>2172</ele>
        <time>2013-06-22T07:04:22Z</time>
      </trkpt>
      <trkpt lat="42.94463" lon="-0.72754">
        <ele>2173</ele>
        <time>2013-06-22T07:04:24Z</time>
      </trkpt>
      <trkpt lat="42.94461" lon="-0.72754">
        <ele>2173</ele>
        <time>2013-06-22T07:04:26Z</time>
      </trkpt>
      <trkpt lat="42.9446" lon="-0.72753">
        <ele>2174</ele>
        <time>2013-06-22T07:04:29Z</time>
      </trkpt>
      <trkpt lat="42.9446" lon="-0.72752">
        <ele>2174</ele>
        <time>2013-06-22T07:04:57Z</time>
      </trkpt>
      <trkpt lat="42.94458" lon="-0.72751">
        <ele>2174</ele>
        <time>2013-06-22T07:04:59Z</time>
      </trkpt>
      <trkpt lat="42.94457" lon="-0.72751">
        <ele>2174</ele>
        <time>2013-06-22T07:05:01Z</time>
      </trkpt>
      <trkpt lat="42.94456" lon="-0.72751">
        <ele>2174</ele>
        <time>2013-06-22T07:05:03Z</time>
      </trkpt>
      <trkpt lat="42.94455" lon="-0.7275">
        <ele>2174</ele>
        <time>2013-06-22T07:05:05Z</time>
      </trkpt>
      <trkpt lat="42.94453" lon="-0.7275">
        <ele>2174</ele>
        <time>2013-06-22T07:05:07Z</time>
      </trkpt>
      <trkpt lat="42.94452" lon="-0.72749">
        <ele>2174</ele>
        <time>2013-06-22T07:05:09Z</time>
      </trkpt>
      <trkpt lat="42.9445" lon="-0.72749">
        <ele>2174</ele>
        <time>2013-06-22T07:05:11Z</time>
      </trkpt>
      <trkpt lat="42.94448" lon="-0.72749">
        <ele>2175</ele>
        <time>2013-06-22T07:05:13Z</time>
      </trkpt>
      <trkpt lat="42.94447" lon="-0.72748">
        <ele>2175</ele>
        <time>2013-06-22T07:05:15Z</time>
      </trkpt>
      <trkpt lat="42.94445" lon="-0.72747">
        <ele>2176</ele>
        <time>2013-06-22T07:05:17Z</time>
      </trkpt>
      <trkpt lat="42.94444" lon="-0.72747">
        <ele>2176</ele>
        <time>2013-06-22T07:05:19Z</time>
      </trkpt>
      <trkpt lat="42.94442" lon="-0.72746">
        <ele>2176</ele>
        <time>2013-06-22T07:05:21Z</time>
      </trkpt>
      <trkpt lat="42.9444" lon="-0.72746">
        <ele>2177</ele>
        <time>2013-06-22T07:05:23Z</time>
      </trkpt>
      <trkpt lat="42.94438" lon="-0.72746">
        <ele>2177</ele>
        <time>2013-06-22T07:05:25Z</time>
      </trkpt>
      <trkpt lat="42.94437" lon="-0.72745">
        <ele>2177</ele>
        <time>2013-06-22T07:05:27Z</time>
      </trkpt>
      <trkpt lat="42.94435" lon="-0.72744">
        <ele>2177</ele>
        <time>2013-06-22T07:05:29Z</time>
      </trkpt>
      <trkpt lat="42.94433" lon="-0.72744">
        <ele>2177</ele>
        <time>2013-06-22T07:05:31Z</time>
      </trkpt>
      <trkpt lat="42.94432" lon="-0.72743">
        <ele>2178</ele>
        <time>2013-06-22T07:05:33Z</time>
      </trkpt>
      <trkpt lat="42.9443" lon="-0.72743">
        <ele>2178</ele>
        <time>2013-06-22T07:05:35Z</time>
      </trkpt>
      <trkpt lat="42.94428" lon="-0.72743">
        <ele>2179</ele>
        <time>2013-06-22T07:05:37Z</time>
      </trkpt>
      <trkpt lat="42.94427" lon="-0.72742">
        <ele>2180</ele>
        <time>2013-06-22T07:05:39Z</time>
      </trkpt>
      <trkpt lat="42.94425" lon="-0.72742">
        <ele>2180</ele>
        <time>2013-06-22T07:05:41Z</time>
      </trkpt>
      <trkpt lat="42.94424" lon="-0.72741">
        <ele>2180</ele>
        <time>2013-06-22T07:05:43Z</time>
      </trkpt>
      <trkpt lat="42.94422" lon="-0.72741">
        <ele>2180</ele>
        <time>2013-06-22T07:05:45Z</time>
      </trkpt>
      <trkpt lat="42.94421" lon="-0.7274">
        <ele>2181</ele>
        <time>2013-06-22T07:05:47Z</time>
      </trkpt>
      <trkpt lat="42.94419" lon="-0.7274">
        <ele>2181</ele>
        <time>2013-06-22T07:05:49Z</time>
      </trkpt>
      <trkpt lat="42.94417" lon="-0.72739">
        <ele>2181</ele>
        <time>2013-06-22T07:05:51Z</time>
      </trkpt>
      <trkpt lat="42.94416" lon="-0.72738">
        <ele>2181</ele>
        <time>2013-06-22T07:05:53Z</time>
      </trkpt>
      <trkpt lat="42.94414" lon="-0.72738">
        <ele>2181</ele>
        <time>2013-06-22T07:05:55Z</time>
      </trkpt>
      <trkpt lat="42.94412" lon="-0.72737">
        <ele>2181</ele>
        <time>2013-06-22T07:05:57Z</time>
      </trkpt>
      <trkpt lat="42.94411" lon="-0.72737">
        <ele>2181</ele>
        <time>2013-06-22T07:05:59Z</time>
      </trkpt>
      <trkpt lat="42.94409" lon="-0.72736">
        <ele>2181</ele>
        <time>2013-06-22T07:06:01Z</time>
      </trkpt>
      <trkpt lat="42.94408" lon="-0.72736">
        <ele>2181</ele>
        <time>2013-06-22T07:06:03Z</time>
      </trkpt>
      <trkpt lat="42.94406" lon="-0.72735">
        <ele>2181</ele>
        <time>2013-06-22T07:06:05Z</time>
      </trkpt>
      <trkpt lat="42.94405" lon="-0.72734">
        <ele>2182</ele>
        <time>2013-06-22T07:06:07Z</time>
      </trkpt>
      <trkpt lat="42.94403" lon="-0.72734">
        <ele>2182</ele>
        <time>2013-06-22T07:06:09Z</time>
      </trkpt>
      <trkpt lat="42.94401" lon="-0.72733">
        <ele>2182</ele>
        <time>2013-06-22T07:06:11Z</time>
      </trkpt>
      <trkpt lat="42.944" lon="-0.72732">
        <ele>2182</ele>
        <time>2013-06-22T07:06:13Z</time>
      </trkpt>
      <trkpt lat="42.94399" lon="-0.7273">
        <ele>2182</ele>
        <time>2013-06-22T07:06:25Z</time>
      </trkpt>
      <trkpt lat="42.94398" lon="-0.7273">
        <ele>2182</ele>
        <time>2013-06-22T07:06:33Z</time>
      </trkpt>
      <trkpt lat="42.94396" lon="-0.72729">
        <ele>2182</ele>
        <time>2013-06-22T07:06:36Z</time>
      </trkpt>
      <trkpt lat="42.94394" lon="-0.72729">
        <ele>2182</ele>
        <time>2013-06-22T07:06:38Z</time>
      </trkpt>
      <trkpt lat="42.94393" lon="-0.72729">
        <ele>2182</ele>
        <time>2013-06-22T07:06:40Z</time>
      </trkpt>
      <trkpt lat="42.94391" lon="-0.72729">
        <ele>2183</ele>
        <time>2013-06-22T07:06:42Z</time>
      </trkpt>
      <trkpt lat="42.9439" lon="-0.72728">
        <ele>2183</ele>
        <time>2013-06-22T07:06:44Z</time>
      </trkpt>
      <trkpt lat="42.94388" lon="-0.72728">
        <ele>2183</ele>
        <time>2013-06-22T07:06:46Z</time>
      </trkpt>
      <trkpt lat="42.94387" lon="-0.72728">
        <ele>2183</ele>
        <time>2013-06-22T07:06:48Z</time>
      </trkpt>
      <trkpt lat="42.94385" lon="-0.72727">
        <ele>2183</ele>
        <time>2013-06-22T07:06:50Z</time>
      </trkpt>
      <trkpt lat="42.94384" lon="-0.72727">
        <ele>2183</ele>
        <time>2013-06-22T07:06:52Z</time>
      </trkpt>
      <trkpt lat="42.94382" lon="-0.72727">
        <ele>2184</ele>
        <time>2013-06-22T07:06:54Z</time>
      </trkpt>
      <trkpt lat="42.94381" lon="-0.72727">
        <ele>2184</ele>
        <time>2013-06-22T07:06:56Z</time>
      </trkpt>
      <trkpt lat="42.94379" lon="-0.72727">
        <ele>2184</ele>
        <time>2013-06-22T07:06:58Z</time>
      </trkpt>
      <trkpt lat="42.94377" lon="-0.72727">
        <ele>2184</ele>
        <time>2013-06-22T07:07:00Z</time>
      </trkpt>
      <trkpt lat="42.94376" lon="-0.72727">
        <ele>2185</ele>
        <time>2013-06-22T07:07:02Z</time>
      </trkpt>
      <trkpt lat="42.94375" lon="-0.72727">
        <ele>2186</ele>
        <time>2013-06-22T07:07:12Z</time>
      </trkpt>
      <trkpt lat="42.94373" lon="-0.72727">
        <ele>2186</ele>
        <time>2013-06-22T07:07:14Z</time>
      </trkpt>
      <trkpt lat="42.94372" lon="-0.72727">
        <ele>2186</ele>
        <time>2013-06-22T07:07:16Z</time>
      </trkpt>
      <trkpt lat="42.9437" lon="-0.72726">
        <ele>2187</ele>
        <time>2013-06-22T07:07:18Z</time>
      </trkpt>
      <trkpt lat="42.94369" lon="-0.72726">
        <ele>2187</ele>
        <time>2013-06-22T07:07:20Z</time>
      </trkpt>
      <trkpt lat="42.94368" lon="-0.72725">
        <ele>2187</ele>
        <time>2013-06-22T07:07:22Z</time>
      </trkpt>
      <trkpt lat="42.94367" lon="-0.72724">
        <ele>2187</ele>
        <time>2013-06-22T07:07:30Z</time>
      </trkpt>
      <trkpt lat="42.94366" lon="-0.72723">
        <ele>2187</ele>
        <time>2013-06-22T07:07:35Z</time>
      </trkpt>
      <trkpt lat="42.94364" lon="-0.72723">
        <ele>2187</ele>
        <time>2013-06-22T07:07:38Z</time>
      </trkpt>
      <trkpt lat="42.94363" lon="-0.72723">
        <ele>2187</ele>
        <time>2013-06-22T07:07:40Z</time>
      </trkpt>
      <trkpt lat="42.94361" lon="-0.72723">
        <ele>2187</ele>
        <time>2013-06-22T07:07:42Z</time>
      </trkpt>
      <trkpt lat="42.9436" lon="-0.72722">
        <ele>2187</ele>
        <time>2013-06-22T07:07:44Z</time>
      </trkpt>
      <trkpt lat="42.94359" lon="-0.72722">
        <ele>2187</ele>
        <time>2013-06-22T07:07:46Z</time>
      </trkpt>
      <trkpt lat="42.94358" lon="-0.72722">
        <ele>2187</ele>
        <time>2013-06-22T07:07:49Z</time>
      </trkpt>
      <trkpt lat="42.94357" lon="-0.72723">
        <ele>2187</ele>
        <time>2013-06-22T07:07:52Z</time>
      </trkpt>
      <trkpt lat="42.94355" lon="-0.72723">
        <ele>2187</ele>
        <time>2013-06-22T07:07:56Z</time>
      </trkpt>
      <trkpt lat="42.94354" lon="-0.72724">
        <ele>2187</ele>
        <time>2013-06-22T07:08:00Z</time>
      </trkpt>
      <trkpt lat="42.94353" lon="-0.72725">
        <ele>2187</ele>
        <time>2013-06-22T07:08:06Z</time>
      </trkpt>
      <trkpt lat="42.94352" lon="-0.72725">
        <ele>2187</ele>
        <time>2013-06-22T07:08:16Z</time>
      </trkpt>
      <trkpt lat="42.9435" lon="-0.72726">
        <ele>2187</ele>
        <time>2013-06-22T07:08:32Z</time>
      </trkpt>
      <trkpt lat="42.94349" lon="-0.72726">
        <ele>2187</ele>
        <time>2013-06-22T07:08:34Z</time>
      </trkpt>
      <trkpt lat="42.94347" lon="-0.72726">
        <ele>2187</ele>
        <time>2013-06-22T07:08:37Z</time>
      </trkpt>
      <trkpt lat="42.94346" lon="-0.72726">
        <ele>2187</ele>
        <time>2013-06-22T07:08:39Z</time>
      </trkpt>
      <trkpt lat="42.94345" lon="-0.72725">
        <ele>2187</ele>
        <time>2013-06-22T07:08:41Z</time>
      </trkpt>
      <trkpt lat="42.94344" lon="-0.72726">
        <ele>2187</ele>
        <time>2013-06-22T07:08:44Z</time>
      </trkpt>
      <trkpt lat="42.94342" lon="-0.72725">
        <ele>2187</ele>
        <time>2013-06-22T07:08:46Z</time>
      </trkpt>
      <trkpt lat="42.94341" lon="-0.72725">
        <ele>2187</ele>
        <time>2013-06-22T07:08:48Z</time>
      </trkpt>
      <trkpt lat="42.9434" lon="-0.72724">
        <ele>2187</ele>
        <time>2013-06-22T07:08:55Z</time>
      </trkpt>
      <trkpt lat="42.94338" lon="-0.72723">
        <ele>2187</ele>
        <time>2013-06-22T07:08:59Z</time>
      </trkpt>
      <trkpt lat="42.94337" lon="-0.72722">
        <ele>2187</ele>
        <time>2013-06-22T07:09:02Z</time>
      </trkpt>
      <trkpt lat="42.94336" lon="-0.72721">
        <ele>2187</ele>
        <time>2013-06-22T07:09:04Z</time>
      </trkpt>
      <trkpt lat="42.94335" lon="-0.72719">
        <ele>2187</ele>
        <time>2013-06-22T07:09:07Z</time>
      </trkpt>
      <trkpt lat="42.94333" lon="-0.72718">
        <ele>2187</ele>
        <time>2013-06-22T07:09:11Z</time>
      </trkpt>
      <trkpt lat="42.94332" lon="-0.72716">
        <ele>2187</ele>
        <time>2013-06-22T07:09:14Z</time>
      </trkpt>
      <trkpt lat="42.94331" lon="-0.72716">
        <ele>2187</ele>
        <time>2013-06-22T07:09:18Z</time>
      </trkpt>
      <trkpt lat="42.94329" lon="-0.72715">
        <ele>2187</ele>
        <time>2013-06-22T07:09:21Z</time>
      </trkpt>
      <trkpt lat="42.94328" lon="-0.72714">
        <ele>2188</ele>
        <time>2013-06-22T07:09:24Z</time>
      </trkpt>
      <trkpt lat="42.94327" lon="-0.72713">
        <ele>2188</ele>
        <time>2013-06-22T07:09:28Z</time>
      </trkpt>
      <trkpt lat="42.94326" lon="-0.72711">
        <ele>2188</ele>
        <time>2013-06-22T07:09:31Z</time>
      </trkpt>
      <trkpt lat="42.94324" lon="-0.72711">
        <ele>2188</ele>
        <time>2013-06-22T07:09:34Z</time>
      </trkpt>
      <trkpt lat="42.94323" lon="-0.7271">
        <ele>2188</ele>
        <time>2013-06-22T07:09:38Z</time>
      </trkpt>
      <trkpt lat="42.94322" lon="-0.72709">
        <ele>2188</ele>
        <time>2013-06-22T07:09:41Z</time>
      </trkpt>
      <trkpt lat="42.94321" lon="-0.72708">
        <ele>2189</ele>
        <time>2013-06-22T07:09:44Z</time>
      </trkpt>
      <trkpt lat="42.9432" lon="-0.72707">
        <ele>2189</ele>
        <time>2013-06-22T07:09:46Z</time>
      </trkpt>
      <trkpt lat="42.94319" lon="-0.72706">
        <ele>2189</ele>
        <time>2013-06-22T07:09:48Z</time>
      </trkpt>
      <trkpt lat="42.94318" lon="-0.72704">
        <ele>2190</ele>
        <time>2013-06-22T07:09:50Z</time>
      </trkpt>
      <trkpt lat="42.94316" lon="-0.72703">
        <ele>2190</ele>
        <time>2013-06-22T07:09:52Z</time>
      </trkpt>
      <trkpt lat="42.94315" lon="-0.72702">
        <ele>2191</ele>
        <time>2013-06-22T07:09:55Z</time>
      </trkpt>
      <trkpt lat="42.94313" lon="-0.727">
        <ele>2192</ele>
        <time>2013-06-22T07:09:58Z</time>
      </trkpt>
      <trkpt lat="42.94314" lon="-0.72702">
        <ele>2192</ele>
        <time>2013-06-22T07:10:10Z</time>
      </trkpt>
      <trkpt lat="42.94313" lon="-0.72701">
        <ele>2192</ele>
        <time>2013-06-22T07:10:16Z</time>
      </trkpt>
      <trkpt lat="42.94311" lon="-0.727">
        <ele>2192</ele>
        <time>2013-06-22T07:10:19Z</time>
      </trkpt>
      <trkpt lat="42.9431" lon="-0.72699">
        <ele>2192</ele>
        <time>2013-06-22T07:10:21Z</time>
      </trkpt>
      <trkpt lat="42.94309" lon="-0.72698">
        <ele>2192</ele>
        <time>2013-06-22T07:10:23Z</time>
      </trkpt>
      <trkpt lat="42.94307" lon="-0.72698">
        <ele>2192</ele>
        <time>2013-06-22T07:10:26Z</time>
      </trkpt>
      <trkpt lat="42.94306" lon="-0.72696">
        <ele>2192</ele>
        <time>2013-06-22T07:10:29Z</time>
      </trkpt>
      <trkpt lat="42.94304" lon="-0.72695">
        <ele>2193</ele>
        <time>2013-06-22T07:10:32Z</time>
      </trkpt>
      <trkpt lat="42.94303" lon="-0.72694">
        <ele>2193</ele>
        <time>2013-06-22T07:10:35Z</time>
      </trkpt>
      <trkpt lat="42.94302" lon="-0.72693">
        <ele>2193</ele>
        <time>2013-06-22T07:10:38Z</time>
      </trkpt>
      <trkpt lat="42.943" lon="-0.72691">
        <ele>2193</ele>
        <time>2013-06-22T07:10:41Z</time>
      </trkpt>
      <trkpt lat="42.94299" lon="-0.7269">
        <ele>2194</ele>
        <time>2013-06-22T07:10:45Z</time>
      </trkpt>
      <trkpt lat="42.94297" lon="-0.72689">
        <ele>2194</ele>
        <time>2013-06-22T07:10:49Z</time>
      </trkpt>
      <trkpt lat="42.94296" lon="-0.72687">
        <ele>2194</ele>
        <time>2013-06-22T07:10:53Z</time>
      </trkpt>
      <trkpt lat="42.94294" lon="-0.72686">
        <ele>2194</ele>
        <time>2013-06-22T07:10:56Z</time>
      </trkpt>
      <trkpt lat="42.94293" lon="-0.72686">
        <ele>2194</ele>
        <time>2013-06-22T07:10:58Z</time>
      </trkpt>
      <trkpt lat="42.94292" lon="-0.72685">
        <ele>2195</ele>
        <time>2013-06-22T07:11:00Z</time>
      </trkpt>
      <trkpt lat="42.94291" lon="-0.72685">
        <ele>2196</ele>
        <time>2013-06-22T07:11:04Z</time>
      </trkpt>
      <trkpt lat="42.94289" lon="-0.72684">
        <ele>2197</ele>
        <time>2013-06-22T07:11:15Z</time>
      </trkpt>
      <trkpt lat="42.94288" lon="-0.72684">
        <ele>2197</ele>
        <time>2013-06-22T07:11:18Z</time>
      </trkpt>
      <trkpt lat="42.94286" lon="-0.72682">
        <ele>2197</ele>
        <time>2013-06-22T07:11:20Z</time>
      </trkpt>
      <trkpt lat="42.94285" lon="-0.72681">
        <ele>2197</ele>
        <time>2013-06-22T07:11:22Z</time>
      </trkpt>
      <trkpt lat="42.94284" lon="-0.72681">
        <ele>2197</ele>
        <time>2013-06-22T07:11:24Z</time>
      </trkpt>
      <trkpt lat="42.94282" lon="-0.7268">
        <ele>2197</ele>
        <time>2013-06-22T07:11:26Z</time>
      </trkpt>
      <trkpt lat="42.94281" lon="-0.7268">
        <ele>2197</ele>
        <time>2013-06-22T07:11:28Z</time>
      </trkpt>
      <trkpt lat="42.94279" lon="-0.7268">
        <ele>2197</ele>
        <time>2013-06-22T07:11:31Z</time>
      </trkpt>
      <trkpt lat="42.94279" lon="-0.72678">
        <ele>2197</ele>
        <time>2013-06-22T07:11:47Z</time>
      </trkpt>
      <trkpt lat="42.94278" lon="-0.72675">
        <ele>2197</ele>
        <time>2013-06-22T07:11:49Z</time>
      </trkpt>
      <trkpt lat="42.94276" lon="-0.72673">
        <ele>2197</ele>
        <time>2013-06-22T07:11:51Z</time>
      </trkpt>
      <trkpt lat="42.94275" lon="-0.72672">
        <ele>2197</ele>
        <time>2013-06-22T07:11:53Z</time>
      </trkpt>
      <trkpt lat="42.94273" lon="-0.72672">
        <ele>2197</ele>
        <time>2013-06-22T07:11:55Z</time>
      </trkpt>
      <trkpt lat="42.94271" lon="-0.72672">
        <ele>2199</ele>
        <time>2013-06-22T07:11:58Z</time>
      </trkpt>
      <trkpt lat="42.9427" lon="-0.72673">
        <ele>2199</ele>
        <time>2013-06-22T07:12:00Z</time>
      </trkpt>
      <trkpt lat="42.94269" lon="-0.72672">
        <ele>2200</ele>
        <time>2013-06-22T07:12:02Z</time>
      </trkpt>
      <trkpt lat="42.94268" lon="-0.72672">
        <ele>2201</ele>
        <time>2013-06-22T07:12:04Z</time>
      </trkpt>
      <trkpt lat="42.94266" lon="-0.72671">
        <ele>2202</ele>
        <time>2013-06-22T07:12:07Z</time>
      </trkpt>
      <trkpt lat="42.94265" lon="-0.72671">
        <ele>2202</ele>
        <time>2013-06-22T07:12:09Z</time>
      </trkpt>
      <trkpt lat="42.94263" lon="-0.72672">
        <ele>2202</ele>
        <time>2013-06-22T07:12:11Z</time>
      </trkpt>
      <trkpt lat="42.94262" lon="-0.72672">
        <ele>2203</ele>
        <time>2013-06-22T07:12:13Z</time>
      </trkpt>
      <trkpt lat="42.9426" lon="-0.72673">
        <ele>2204</ele>
        <time>2013-06-22T07:12:26Z</time>
      </trkpt>
      <trkpt lat="42.94259" lon="-0.72673">
        <ele>2204</ele>
        <time>2013-06-22T07:12:28Z</time>
      </trkpt>
      <trkpt lat="42.94257" lon="-0.72673">
        <ele>2204</ele>
        <time>2013-06-22T07:12:30Z</time>
      </trkpt>
      <trkpt lat="42.94256" lon="-0.72673">
        <ele>2204</ele>
        <time>2013-06-22T07:12:32Z</time>
      </trkpt>
      <trkpt lat="42.94255" lon="-0.72674">
        <ele>2204</ele>
        <time>2013-06-22T07:12:34Z</time>
      </trkpt>
      <trkpt lat="42.94254" lon="-0.72675">
        <ele>2205</ele>
        <time>2013-06-22T07:12:41Z</time>
      </trkpt>
      <trkpt lat="42.94254" lon="-0.72673">
        <ele>2205</ele>
        <time>2013-06-22T07:12:46Z</time>
      </trkpt>
      <trkpt lat="42.94253" lon="-0.72673">
        <ele>2205</ele>
        <time>2013-06-22T07:13:08Z</time>
      </trkpt>
      <trkpt lat="42.94254" lon="-0.72672">
        <ele>2205</ele>
        <time>2013-06-22T07:13:17Z</time>
      </trkpt>
      <trkpt lat="42.94254" lon="-0.7267">
        <ele>2205</ele>
        <time>2013-06-22T07:13:19Z</time>
      </trkpt>
      <trkpt lat="42.94253" lon="-0.72669">
        <ele>2204</ele>
        <time>2013-06-22T07:13:23Z</time>
      </trkpt>
      <trkpt lat="42.94254" lon="-0.72671">
        <ele>2204</ele>
        <time>2013-06-22T07:13:29Z</time>
      </trkpt>
      <trkpt lat="42.94255" lon="-0.72672">
        <ele>2204</ele>
        <time>2013-06-22T07:13:32Z</time>
      </trkpt>
      <trkpt lat="42.94256" lon="-0.72673">
        <ele>2204</ele>
        <time>2013-06-22T07:13:34Z</time>
      </trkpt>
      <trkpt lat="42.94255" lon="-0.72675">
        <ele>2204</ele>
        <time>2013-06-22T07:13:37Z</time>
      </trkpt>
      <trkpt lat="42.94255" lon="-0.72676">
        <ele>2204</ele>
        <time>2013-06-22T07:13:48Z</time>
      </trkpt>
      <trkpt lat="42.94255" lon="-0.72678">
        <ele>2202</ele>
        <time>2013-06-22T07:14:01Z</time>
      </trkpt>
      <trkpt lat="42.94255" lon="-0.72679">
        <ele>2202</ele>
        <time>2013-06-22T07:14:33Z</time>
      </trkpt>
      <trkpt lat="42.94255" lon="-0.72681">
        <ele>2202</ele>
        <time>2013-06-22T07:14:40Z</time>
      </trkpt>
      <trkpt lat="42.94255" lon="-0.72679">
        <ele>2204</ele>
        <time>2013-06-22T07:15:13Z</time>
      </trkpt>
      <trkpt lat="42.94254" lon="-0.72678">
        <ele>2204</ele>
        <time>2013-06-22T07:15:30Z</time>
      </trkpt>
      <trkpt lat="42.94254" lon="-0.7268">
        <ele>2203</ele>
        <time>2013-06-22T07:15:32Z</time>
      </trkpt>
      <trkpt lat="42.94255" lon="-0.72681">
        <ele>2203</ele>
        <time>2013-06-22T07:15:40Z</time>
      </trkpt>
      <trkpt lat="42.94255" lon="-0.7268">
        <ele>2203</ele>
        <time>2013-06-22T07:15:50Z</time>
      </trkpt>
      <trkpt lat="42.94254" lon="-0.72678">
        <ele>2203</ele>
        <time>2013-06-22T07:16:05Z</time>
      </trkpt>
      <trkpt lat="42.94253" lon="-0.72676">
        <ele>2201</ele>
        <time>2013-06-22T07:16:12Z</time>
      </trkpt>
      <trkpt lat="42.94254" lon="-0.72675">
        <ele>2200</ele>
        <time>2013-06-22T07:16:19Z</time>
      </trkpt>
      <trkpt lat="42.94255" lon="-0.72673">
        <ele>2200</ele>
        <time>2013-06-22T07:16:21Z</time>
      </trkpt>
      <trkpt lat="42.94254" lon="-0.72672">
        <ele>2200</ele>
        <time>2013-06-22T07:16:24Z</time>
      </trkpt>
      <trkpt lat="42.94255" lon="-0.72672">
        <ele>2200</ele>
        <time>2013-06-22T07:16:37Z</time>
      </trkpt>
      <trkpt lat="42.94257" lon="-0.72673">
        <ele>2200</ele>
        <time>2013-06-22T07:16:41Z</time>
      </trkpt>
      <trkpt lat="42.94258" lon="-0.72675">
        <ele>2200</ele>
        <time>2013-06-22T07:16:44Z</time>
      </trkpt>
      <trkpt lat="42.94258" lon="-0.72676">
        <ele>2200</ele>
        <time>2013-06-22T07:16:46Z</time>
      </trkpt>
      <trkpt lat="42.94259" lon="-0.72678">
        <ele>2200</ele>
        <time>2013-06-22T07:16:50Z</time>
      </trkpt>
      <trkpt lat="42.94258" lon="-0.72678">
        <ele>2200</ele>
        <time>2013-06-22T07:17:10Z</time>
      </trkpt>
      <trkpt lat="42.94257" lon="-0.72676">
        <ele>2200</ele>
        <time>2013-06-22T07:17:17Z</time>
      </trkpt>
      <trkpt lat="42.94256" lon="-0.72678">
        <ele>2199</ele>
        <time>2013-06-22T07:17:25Z</time>
      </trkpt>
      <trkpt lat="42.94257" lon="-0.72677">
        <ele>2199</ele>
        <time>2013-06-22T07:17:38Z</time>
      </trkpt>
      <trkpt lat="42.94257" lon="-0.72675">
        <ele>2199</ele>
        <time>2013-06-22T07:17:42Z</time>
      </trkpt>
      <trkpt lat="42.94256" lon="-0.72673">
        <ele>2199</ele>
        <time>2013-06-22T07:17:44Z</time>
      </trkpt>
      <trkpt lat="42.94255" lon="-0.72673">
        <ele>2199</ele>
        <time>2013-06-22T07:18:21Z</time>
      </trkpt>
      <trkpt lat="42.94255" lon="-0.72675">
        <ele>2199</ele>
        <time>2013-06-22T07:18:35Z</time>
      </trkpt>
      <trkpt lat="42.94254" lon="-0.72675">
        <ele>2202</ele>
        <time>2013-06-22T07:19:13Z</time>
      </trkpt>
      <trkpt lat="42.94253" lon="-0.72675">
        <ele>2203</ele>
        <time>2013-06-22T07:19:17Z</time>
      </trkpt>
      <trkpt lat="42.94252" lon="-0.72674">
        <ele>2203</ele>
        <time>2013-06-22T07:19:20Z</time>
      </trkpt>
      <trkpt lat="42.9425" lon="-0.72673">
        <ele>2204</ele>
        <time>2013-06-22T07:19:23Z</time>
      </trkpt>
      <trkpt lat="42.94249" lon="-0.72672">
        <ele>2205</ele>
        <time>2013-06-22T07:19:26Z</time>
      </trkpt>
      <trkpt lat="42.94249" lon="-0.7267">
        <ele>2206</ele>
        <time>2013-06-22T07:19:29Z</time>
      </trkpt>
      <trkpt lat="42.94247" lon="-0.72668">
        <ele>2207</ele>
        <time>2013-06-22T07:19:33Z</time>
      </trkpt>
      <trkpt lat="42.94246" lon="-0.72667">
        <ele>2208</ele>
        <time>2013-06-22T07:19:36Z</time>
      </trkpt>
      <trkpt lat="42.94245" lon="-0.72666">
        <ele>2208</ele>
        <time>2013-06-22T07:19:38Z</time>
      </trkpt>
      <trkpt lat="42.94244" lon="-0.72665">
        <ele>2208</ele>
        <time>2013-06-22T07:19:41Z</time>
      </trkpt>
      <trkpt lat="42.94242" lon="-0.72664">
        <ele>2208</ele>
        <time>2013-06-22T07:19:44Z</time>
      </trkpt>
      <trkpt lat="42.94241" lon="-0.72663">
        <ele>2209</ele>
        <time>2013-06-22T07:19:47Z</time>
      </trkpt>
      <trkpt lat="42.94239" lon="-0.72661">
        <ele>2209</ele>
        <time>2013-06-22T07:19:50Z</time>
      </trkpt>
      <trkpt lat="42.94238" lon="-0.72659">
        <ele>2209</ele>
        <time>2013-06-22T07:19:52Z</time>
      </trkpt>
      <trkpt lat="42.94237" lon="-0.72658">
        <ele>2209</ele>
        <time>2013-06-22T07:19:54Z</time>
      </trkpt>
      <trkpt lat="42.94236" lon="-0.72657">
        <ele>2209</ele>
        <time>2013-06-22T07:19:56Z</time>
      </trkpt>
      <trkpt lat="42.94234" lon="-0.72656">
        <ele>2209</ele>
        <time>2013-06-22T07:19:59Z</time>
      </trkpt>
      <trkpt lat="42.94233" lon="-0.72655">
        <ele>2209</ele>
        <time>2013-06-22T07:20:02Z</time>
      </trkpt>
      <trkpt lat="42.94231" lon="-0.72653">
        <ele>2209</ele>
        <time>2013-06-22T07:20:05Z</time>
      </trkpt>
      <trkpt lat="42.94229" lon="-0.72652">
        <ele>2209</ele>
        <time>2013-06-22T07:20:08Z</time>
      </trkpt>
      <trkpt lat="42.94228" lon="-0.7265">
        <ele>2209</ele>
        <time>2013-06-22T07:20:11Z</time>
      </trkpt>
      <trkpt lat="42.94227" lon="-0.72648">
        <ele>2209</ele>
        <time>2013-06-22T07:20:14Z</time>
      </trkpt>
      <trkpt lat="42.94225" lon="-0.72647">
        <ele>2209</ele>
        <time>2013-06-22T07:20:17Z</time>
      </trkpt>
      <trkpt lat="42.94224" lon="-0.72645">
        <ele>2209</ele>
        <time>2013-06-22T07:20:20Z</time>
      </trkpt>
      <trkpt lat="42.94223" lon="-0.72643">
        <ele>2209</ele>
        <time>2013-06-22T07:20:23Z</time>
      </trkpt>
      <trkpt lat="42.94221" lon="-0.72641">
        <ele>2209</ele>
        <time>2013-06-22T07:20:27Z</time>
      </trkpt>
      <trkpt lat="42.9422" lon="-0.72641">
        <ele>2209</ele>
        <time>2013-06-22T07:20:30Z</time>
      </trkpt>
      <trkpt lat="42.94218" lon="-0.72638">
        <ele>2209</ele>
        <time>2013-06-22T07:20:33Z</time>
      </trkpt>
      <trkpt lat="42.94217" lon="-0.72636">
        <ele>2209</ele>
        <time>2013-06-22T07:20:39Z</time>
      </trkpt>
      <trkpt lat="42.94216" lon="-0.72635">
        <ele>2209</ele>
        <time>2013-06-22T07:20:42Z</time>
      </trkpt>
      <trkpt lat="42.94215" lon="-0.72634">
        <ele>2209</ele>
        <time>2013-06-22T07:20:45Z</time>
      </trkpt>
      <trkpt lat="42.94213" lon="-0.72632">
        <ele>2209</ele>
        <time>2013-06-22T07:20:48Z</time>
      </trkpt>
      <trkpt lat="42.94212" lon="-0.72631">
        <ele>2209</ele>
        <time>2013-06-22T07:20:50Z</time>
      </trkpt>
      <trkpt lat="42.94211" lon="-0.7263">
        <ele>2209</ele>
        <time>2013-06-22T07:20:53Z</time>
      </trkpt>
      <trkpt lat="42.9421" lon="-0.72628">
        <ele>2209</ele>
        <time>2013-06-22T07:20:56Z</time>
      </trkpt>
      <trkpt lat="42.94209" lon="-0.72627">
        <ele>2209</ele>
        <time>2013-06-22T07:20:59Z</time>
      </trkpt>
      <trkpt lat="42.94207" lon="-0.72626">
        <ele>2210</ele>
        <time>2013-06-22T07:21:02Z</time>
      </trkpt>
      <trkpt lat="42.94207" lon="-0.72624">
        <ele>2210</ele>
        <time>2013-06-22T07:21:04Z</time>
      </trkpt>
      <trkpt lat="42.94205" lon="-0.72623">
        <ele>2210</ele>
        <time>2013-06-22T07:21:07Z</time>
      </trkpt>
      <trkpt lat="42.94204" lon="-0.72621">
        <ele>2210</ele>
        <time>2013-06-22T07:21:11Z</time>
      </trkpt>
      <trkpt lat="42.94203" lon="-0.72619">
        <ele>2210</ele>
        <time>2013-06-22T07:21:13Z</time>
      </trkpt>
      <trkpt lat="42.94202" lon="-0.72617">
        <ele>2210</ele>
        <time>2013-06-22T07:21:17Z</time>
      </trkpt>
      <trkpt lat="42.94201" lon="-0.72615">
        <ele>2211</ele>
        <time>2013-06-22T07:21:20Z</time>
      </trkpt>
      <trkpt lat="42.942" lon="-0.72614">
        <ele>2212</ele>
        <time>2013-06-22T07:21:24Z</time>
      </trkpt>
      <trkpt lat="42.94199" lon="-0.72612">
        <ele>2212</ele>
        <time>2013-06-22T07:21:26Z</time>
      </trkpt>
      <trkpt lat="42.94199" lon="-0.72611">
        <ele>2212</ele>
        <time>2013-06-22T07:21:28Z</time>
      </trkpt>
      <trkpt lat="42.94198" lon="-0.72609">
        <ele>2212</ele>
        <time>2013-06-22T07:21:32Z</time>
      </trkpt>
      <trkpt lat="42.94197" lon="-0.72608">
        <ele>2212</ele>
        <time>2013-06-22T07:21:36Z</time>
      </trkpt>
      <trkpt lat="42.94196" lon="-0.72606">
        <ele>2212</ele>
        <time>2013-06-22T07:21:39Z</time>
      </trkpt>
      <trkpt lat="42.94194" lon="-0.72605">
        <ele>2213</ele>
        <time>2013-06-22T07:21:42Z</time>
      </trkpt>
      <trkpt lat="42.94193" lon="-0.72603">
        <ele>2214</ele>
        <time>2013-06-22T07:21:46Z</time>
      </trkpt>
      <trkpt lat="42.94192" lon="-0.72601">
        <ele>2214</ele>
        <time>2013-06-22T07:21:50Z</time>
      </trkpt>
      <trkpt lat="42.94191" lon="-0.72599">
        <ele>2214</ele>
        <time>2013-06-22T07:21:53Z</time>
      </trkpt>
      <trkpt lat="42.94191" lon="-0.72598">
        <ele>2214</ele>
        <time>2013-06-22T07:21:56Z</time>
      </trkpt>
      <trkpt lat="42.9419" lon="-0.72596">
        <ele>2214</ele>
        <time>2013-06-22T07:22:00Z</time>
      </trkpt>
      <trkpt lat="42.94189" lon="-0.72594">
        <ele>2214</ele>
        <time>2013-06-22T07:22:03Z</time>
      </trkpt>
      <trkpt lat="42.94188" lon="-0.72593">
        <ele>2214</ele>
        <time>2013-06-22T07:22:07Z</time>
      </trkpt>
      <trkpt lat="42.94186" lon="-0.72591">
        <ele>2214</ele>
        <time>2013-06-22T07:22:10Z</time>
      </trkpt>
      <trkpt lat="42.94186" lon="-0.72589">
        <ele>2215</ele>
        <time>2013-06-22T07:22:13Z</time>
      </trkpt>
      <trkpt lat="42.94185" lon="-0.72588">
        <ele>2216</ele>
        <time>2013-06-22T07:22:16Z</time>
      </trkpt>
      <trkpt lat="42.94183" lon="-0.72586">
        <ele>2217</ele>
        <time>2013-06-22T07:22:20Z</time>
      </trkpt>
      <trkpt lat="42.94182" lon="-0.72585">
        <ele>2219</ele>
        <time>2013-06-22T07:22:45Z</time>
      </trkpt>
      <trkpt lat="42.94181" lon="-0.72583">
        <ele>2219</ele>
        <time>2013-06-22T07:22:48Z</time>
      </trkpt>
      <trkpt lat="42.9418" lon="-0.72581">
        <ele>2219</ele>
        <time>2013-06-22T07:22:51Z</time>
      </trkpt>
      <trkpt lat="42.94178" lon="-0.7258">
        <ele>2219</ele>
        <time>2013-06-22T07:22:53Z</time>
      </trkpt>
      <trkpt lat="42.94177" lon="-0.72579">
        <ele>2219</ele>
        <time>2013-06-22T07:22:56Z</time>
      </trkpt>
      <trkpt lat="42.94176" lon="-0.72578">
        <ele>2219</ele>
        <time>2013-06-22T07:22:59Z</time>
      </trkpt>
      <trkpt lat="42.94175" lon="-0.72576">
        <ele>2219</ele>
        <time>2013-06-22T07:23:02Z</time>
      </trkpt>
      <trkpt lat="42.94173" lon="-0.72574">
        <ele>2219</ele>
        <time>2013-06-22T07:23:05Z</time>
      </trkpt>
      <trkpt lat="42.94172" lon="-0.72573">
        <ele>2219</ele>
        <time>2013-06-22T07:23:07Z</time>
      </trkpt>
      <trkpt lat="42.9417" lon="-0.72572">
        <ele>2219</ele>
        <time>2013-06-22T07:23:10Z</time>
      </trkpt>
      <trkpt lat="42.94169" lon="-0.72571">
        <ele>2220</ele>
        <time>2013-06-22T07:23:13Z</time>
      </trkpt>
      <trkpt lat="42.94168" lon="-0.7257">
        <ele>2221</ele>
        <time>2013-06-22T07:23:16Z</time>
      </trkpt>
      <trkpt lat="42.94166" lon="-0.72569">
        <ele>2222</ele>
        <time>2013-06-22T07:23:19Z</time>
      </trkpt>
      <trkpt lat="42.94165" lon="-0.72569">
        <ele>2222</ele>
        <time>2013-06-22T07:23:21Z</time>
      </trkpt>
      <trkpt lat="42.94164" lon="-0.72567">
        <ele>2223</ele>
        <time>2013-06-22T07:23:24Z</time>
      </trkpt>
      <trkpt lat="42.94162" lon="-0.72567">
        <ele>2224</ele>
        <time>2013-06-22T07:23:26Z</time>
      </trkpt>
      <trkpt lat="42.94161" lon="-0.72566">
        <ele>2224</ele>
        <time>2013-06-22T07:23:28Z</time>
      </trkpt>
      <trkpt lat="42.94159" lon="-0.72566">
        <ele>2225</ele>
        <time>2013-06-22T07:23:32Z</time>
      </trkpt>
      <trkpt lat="42.94158" lon="-0.72565">
        <ele>2225</ele>
        <time>2013-06-22T07:23:34Z</time>
      </trkpt>
      <trkpt lat="42.94157" lon="-0.72564">
        <ele>2226</ele>
        <time>2013-06-22T07:23:36Z</time>
      </trkpt>
      <trkpt lat="42.94156" lon="-0.72564">
        <ele>2226</ele>
        <time>2013-06-22T07:23:38Z</time>
      </trkpt>
      <trkpt lat="42.94154" lon="-0.72563">
        <ele>2227</ele>
        <time>2013-06-22T07:23:40Z</time>
      </trkpt>
      <trkpt lat="42.94153" lon="-0.72562">
        <ele>2227</ele>
        <time>2013-06-22T07:23:43Z</time>
      </trkpt>
      <trkpt lat="42.94152" lon="-0.72561">
        <ele>2227</ele>
        <time>2013-06-22T07:24:26Z</time>
      </trkpt>
      <trkpt lat="42.94152" lon="-0.72558">
        <ele>2227</ele>
        <time>2013-06-22T07:24:28Z</time>
      </trkpt>
      <trkpt lat="42.94153" lon="-0.72556">
        <ele>2227</ele>
        <time>2013-06-22T07:24:30Z</time>
      </trkpt>
      <trkpt lat="42.94153" lon="-0.72554">
        <ele>2227</ele>
        <time>2013-06-22T07:24:33Z</time>
      </trkpt>
      <trkpt lat="42.94154" lon="-0.72553">
        <ele>2227</ele>
        <time>2013-06-22T07:24:36Z</time>
      </trkpt>
      <trkpt lat="42.94155" lon="-0.72551">
        <ele>2227</ele>
        <time>2013-06-22T07:24:39Z</time>
      </trkpt>
      <trkpt lat="42.94156" lon="-0.72549">
        <ele>2228</ele>
        <time>2013-06-22T07:24:42Z</time>
      </trkpt>
      <trkpt lat="42.94157" lon="-0.72547">
        <ele>2228</ele>
        <time>2013-06-22T07:24:44Z</time>
      </trkpt>
      <trkpt lat="42.94158" lon="-0.72545">
        <ele>2228</ele>
        <time>2013-06-22T07:24:47Z</time>
      </trkpt>
      <trkpt lat="42.94159" lon="-0.72543">
        <ele>2229</ele>
        <time>2013-06-22T07:24:50Z</time>
      </trkpt>
      <trkpt lat="42.9416" lon="-0.72542">
        <ele>2230</ele>
        <time>2013-06-22T07:24:53Z</time>
      </trkpt>
      <trkpt lat="42.94159" lon="-0.72541">
        <ele>2231</ele>
        <time>2013-06-22T07:24:56Z</time>
      </trkpt>
      <trkpt lat="42.94157" lon="-0.72539">
        <ele>2231</ele>
        <time>2013-06-22T07:24:59Z</time>
      </trkpt>
      <trkpt lat="42.94156" lon="-0.72538">
        <ele>2231</ele>
        <time>2013-06-22T07:25:01Z</time>
      </trkpt>
      <trkpt lat="42.94155" lon="-0.72537">
        <ele>2231</ele>
        <time>2013-06-22T07:25:03Z</time>
      </trkpt>
      <trkpt lat="42.94154" lon="-0.72536">
        <ele>2231</ele>
        <time>2013-06-22T07:25:05Z</time>
      </trkpt>
      <trkpt lat="42.94153" lon="-0.72536">
        <ele>2232</ele>
        <time>2013-06-22T07:25:07Z</time>
      </trkpt>
      <trkpt lat="42.94151" lon="-0.72536">
        <ele>2232</ele>
        <time>2013-06-22T07:25:09Z</time>
      </trkpt>
      <trkpt lat="42.9415" lon="-0.72535">
        <ele>2232</ele>
        <time>2013-06-22T07:25:11Z</time>
      </trkpt>
      <trkpt lat="42.94149" lon="-0.72535">
        <ele>2233</ele>
        <time>2013-06-22T07:25:13Z</time>
      </trkpt>
      <trkpt lat="42.94147" lon="-0.72534">
        <ele>2233</ele>
        <time>2013-06-22T07:25:15Z</time>
      </trkpt>
      <trkpt lat="42.94146" lon="-0.72534">
        <ele>2234</ele>
        <time>2013-06-22T07:25:17Z</time>
      </trkpt>
      <trkpt lat="42.94145" lon="-0.72534">
        <ele>2234</ele>
        <time>2013-06-22T07:25:19Z</time>
      </trkpt>
      <trkpt lat="42.94144" lon="-0.72534">
        <ele>2235</ele>
        <time>2013-06-22T07:25:21Z</time>
      </trkpt>
      <trkpt lat="42.94142" lon="-0.72534">
        <ele>2235</ele>
        <time>2013-06-22T07:25:23Z</time>
      </trkpt>
      <trkpt lat="42.94141" lon="-0.72533">
        <ele>2236</ele>
        <time>2013-06-22T07:25:25Z</time>
      </trkpt>
      <trkpt lat="42.9414" lon="-0.72533">
        <ele>2236</ele>
        <time>2013-06-22T07:25:27Z</time>
      </trkpt>
      <trkpt lat="42.94138" lon="-0.72532">
        <ele>2237</ele>
        <time>2013-06-22T07:25:29Z</time>
      </trkpt>
      <trkpt lat="42.94137" lon="-0.72532">
        <ele>2240</ele>
        <time>2013-06-22T07:26:17Z</time>
      </trkpt>
      <trkpt lat="42.94136" lon="-0.72531">
        <ele>2240</ele>
        <time>2013-06-22T07:26:19Z</time>
      </trkpt>
      <trkpt lat="42.94134" lon="-0.72531">
        <ele>2240</ele>
        <time>2013-06-22T07:26:21Z</time>
      </trkpt>
      <trkpt lat="42.94133" lon="-0.72531">
        <ele>2240</ele>
        <time>2013-06-22T07:26:23Z</time>
      </trkpt>
      <trkpt lat="42.94131" lon="-0.7253">
        <ele>2240</ele>
        <time>2013-06-22T07:26:25Z</time>
      </trkpt>
      <trkpt lat="42.9413" lon="-0.72531">
        <ele>2240</ele>
        <time>2013-06-22T07:26:27Z</time>
      </trkpt>
      <trkpt lat="42.94129" lon="-0.7253">
        <ele>2240</ele>
        <time>2013-06-22T07:26:29Z</time>
      </trkpt>
      <trkpt lat="42.94127" lon="-0.7253">
        <ele>2240</ele>
        <time>2013-06-22T07:26:31Z</time>
      </trkpt>
      <trkpt lat="42.94126" lon="-0.7253">
        <ele>2240</ele>
        <time>2013-06-22T07:26:33Z</time>
      </trkpt>
      <trkpt lat="42.94125" lon="-0.72529">
        <ele>2241</ele>
        <time>2013-06-22T07:26:35Z</time>
      </trkpt>
      <trkpt lat="42.94123" lon="-0.72529">
        <ele>2241</ele>
        <time>2013-06-22T07:26:37Z</time>
      </trkpt>
      <trkpt lat="42.94121" lon="-0.72529">
        <ele>2241</ele>
        <time>2013-06-22T07:26:39Z</time>
      </trkpt>
      <trkpt lat="42.9412" lon="-0.72527">
        <ele>2241</ele>
        <time>2013-06-22T07:26:41Z</time>
      </trkpt>
      <trkpt lat="42.94118" lon="-0.72528">
        <ele>2241</ele>
        <time>2013-06-22T07:26:43Z</time>
      </trkpt>
      <trkpt lat="42.94117" lon="-0.72526">
        <ele>2241</ele>
        <time>2013-06-22T07:26:45Z</time>
      </trkpt>
      <trkpt lat="42.94115" lon="-0.72525">
        <ele>2241</ele>
        <time>2013-06-22T07:26:47Z</time>
      </trkpt>
      <trkpt lat="42.94114" lon="-0.72524">
        <ele>2241</ele>
        <time>2013-06-22T07:26:49Z</time>
      </trkpt>
      <trkpt lat="42.94114" lon="-0.72523">
        <ele>2241</ele>
        <time>2013-06-22T07:26:51Z</time>
      </trkpt>
      <trkpt lat="42.94114" lon="-0.72521">
        <ele>2241</ele>
        <time>2013-06-22T07:26:53Z</time>
      </trkpt>
      <trkpt lat="42.94115" lon="-0.72518">
        <ele>2241</ele>
        <time>2013-06-22T07:26:55Z</time>
      </trkpt>
      <trkpt lat="42.94115" lon="-0.72516">
        <ele>2241</ele>
        <time>2013-06-22T07:26:57Z</time>
      </trkpt>
      <trkpt lat="42.94116" lon="-0.72515">
        <ele>2241</ele>
        <time>2013-06-22T07:26:59Z</time>
      </trkpt>
      <trkpt lat="42.94117" lon="-0.72513">
        <ele>2241</ele>
        <time>2013-06-22T07:27:01Z</time>
      </trkpt>
      <trkpt lat="42.94118" lon="-0.72511">
        <ele>2242</ele>
        <time>2013-06-22T07:27:04Z</time>
      </trkpt>
      <trkpt lat="42.94119" lon="-0.72509">
        <ele>2242</ele>
        <time>2013-06-22T07:27:06Z</time>
      </trkpt>
      <trkpt lat="42.9412" lon="-0.72508">
        <ele>2243</ele>
        <time>2013-06-22T07:27:08Z</time>
      </trkpt>
      <trkpt lat="42.94121" lon="-0.72506">
        <ele>2243</ele>
        <time>2013-06-22T07:27:10Z</time>
      </trkpt>
      <trkpt lat="42.94122" lon="-0.72505">
        <ele>2244</ele>
        <time>2013-06-22T07:27:12Z</time>
      </trkpt>
      <trkpt lat="42.94123" lon="-0.72503">
        <ele>2244</ele>
        <time>2013-06-22T07:27:15Z</time>
      </trkpt>
      <trkpt lat="42.94123" lon="-0.72505">
        <ele>2244</ele>
        <time>2013-06-22T07:27:40Z</time>
      </trkpt>
      <trkpt lat="42.94125" lon="-0.72503">
        <ele>2244</ele>
        <time>2013-06-22T07:27:44Z</time>
      </trkpt>
      <trkpt lat="42.94125" lon="-0.72501">
        <ele>2244</ele>
        <time>2013-06-22T07:27:46Z</time>
      </trkpt>
      <trkpt lat="42.94126" lon="-0.72499">
        <ele>2244</ele>
        <time>2013-06-22T07:27:48Z</time>
      </trkpt>
      <trkpt lat="42.94127" lon="-0.72497">
        <ele>2244</ele>
        <time>2013-06-22T07:27:50Z</time>
      </trkpt>
      <trkpt lat="42.94128" lon="-0.72496">
        <ele>2244</ele>
        <time>2013-06-22T07:27:52Z</time>
      </trkpt>
      <trkpt lat="42.94128" lon="-0.72494">
        <ele>2244</ele>
        <time>2013-06-22T07:27:54Z</time>
      </trkpt>
      <trkpt lat="42.94129" lon="-0.72492">
        <ele>2244</ele>
        <time>2013-06-22T07:27:56Z</time>
      </trkpt>
      <trkpt lat="42.94127" lon="-0.72491">
        <ele>2245</ele>
        <time>2013-06-22T07:27:59Z</time>
      </trkpt>
      <trkpt lat="42.94126" lon="-0.72491">
        <ele>2246</ele>
        <time>2013-06-22T07:28:01Z</time>
      </trkpt>
      <trkpt lat="42.94125" lon="-0.72491">
        <ele>2247</ele>
        <time>2013-06-22T07:28:03Z</time>
      </trkpt>
      <trkpt lat="42.94123" lon="-0.7249">
        <ele>2247</ele>
        <time>2013-06-22T07:28:05Z</time>
      </trkpt>
      <trkpt lat="42.94121" lon="-0.7249">
        <ele>2248</ele>
        <time>2013-06-22T07:28:07Z</time>
      </trkpt>
      <trkpt lat="42.9412" lon="-0.7249">
        <ele>2248</ele>
        <time>2013-06-22T07:28:09Z</time>
      </trkpt>
      <trkpt lat="42.94119" lon="-0.7249">
        <ele>2249</ele>
        <time>2013-06-22T07:28:11Z</time>
      </trkpt>
      <trkpt lat="42.94117" lon="-0.72489">
        <ele>2249</ele>
        <time>2013-06-22T07:28:13Z</time>
      </trkpt>
      <trkpt lat="42.94115" lon="-0.72489">
        <ele>2249</ele>
        <time>2013-06-22T07:28:15Z</time>
      </trkpt>
      <trkpt lat="42.94114" lon="-0.72489">
        <ele>2250</ele>
        <time>2013-06-22T07:28:17Z</time>
      </trkpt>
      <trkpt lat="42.94112" lon="-0.72488">
        <ele>2250</ele>
        <time>2013-06-22T07:28:19Z</time>
      </trkpt>
      <trkpt lat="42.9411" lon="-0.72488">
        <ele>2250</ele>
        <time>2013-06-22T07:28:21Z</time>
      </trkpt>
      <trkpt lat="42.94109" lon="-0.72488">
        <ele>2251</ele>
        <time>2013-06-22T07:28:23Z</time>
      </trkpt>
      <trkpt lat="42.94107" lon="-0.72487">
        <ele>2251</ele>
        <time>2013-06-22T07:28:25Z</time>
      </trkpt>
      <trkpt lat="42.94106" lon="-0.72487">
        <ele>2251</ele>
        <time>2013-06-22T07:28:27Z</time>
      </trkpt>
      <trkpt lat="42.94104" lon="-0.72486">
        <ele>2253</ele>
        <time>2013-06-22T07:28:44Z</time>
      </trkpt>
      <trkpt lat="42.94103" lon="-0.72486">
        <ele>2253</ele>
        <time>2013-06-22T07:28:46Z</time>
      </trkpt>
      <trkpt lat="42.94102" lon="-0.72484">
        <ele>2254</ele>
        <time>2013-06-22T07:28:49Z</time>
      </trkpt>
      <trkpt lat="42.94102" lon="-0.72481">
        <ele>2254</ele>
        <time>2013-06-22T07:28:51Z</time>
      </trkpt>
      <trkpt lat="42.94102" lon="-0.72479">
        <ele>2254</ele>
        <time>2013-06-22T07:28:53Z</time>
      </trkpt>
      <trkpt lat="42.94104" lon="-0.72477">
        <ele>2255</ele>
        <time>2013-06-22T07:28:55Z</time>
      </trkpt>
      <trkpt lat="42.94105" lon="-0.72477">
        <ele>2255</ele>
        <time>2013-06-22T07:28:56Z</time>
      </trkpt>
      <trkpt lat="42.94107" lon="-0.72477">
        <ele>2256</ele>
        <time>2013-06-22T07:28:58Z</time>
      </trkpt>
      <trkpt lat="42.94109" lon="-0.72476">
        <ele>2256</ele>
        <time>2013-06-22T07:29:00Z</time>
      </trkpt>
      <trkpt lat="42.94111" lon="-0.72474">
        <ele>2257</ele>
        <time>2013-06-22T07:29:02Z</time>
      </trkpt>
      <trkpt lat="42.94112" lon="-0.72472">
        <ele>2257</ele>
        <time>2013-06-22T07:29:04Z</time>
      </trkpt>
      <trkpt lat="42.94113" lon="-0.7247">
        <ele>2258</ele>
        <time>2013-06-22T07:29:06Z</time>
      </trkpt>
      <trkpt lat="42.94114" lon="-0.72468">
        <ele>2258</ele>
        <time>2013-06-22T07:29:30Z</time>
      </trkpt>
      <trkpt lat="42.94115" lon="-0.72466">
        <ele>2258</ele>
        <time>2013-06-22T07:29:33Z</time>
      </trkpt>
      <trkpt lat="42.94117" lon="-0.72465">
        <ele>2258</ele>
        <time>2013-06-22T07:29:35Z</time>
      </trkpt>
      <trkpt lat="42.94118" lon="-0.72463">
        <ele>2258</ele>
        <time>2013-06-22T07:29:38Z</time>
      </trkpt>
      <trkpt lat="42.94119" lon="-0.72462">
        <ele>2258</ele>
        <time>2013-06-22T07:29:40Z</time>
      </trkpt>
      <trkpt lat="42.9412" lon="-0.72461">
        <ele>2258</ele>
        <time>2013-06-22T07:29:42Z</time>
      </trkpt>
      <trkpt lat="42.94122" lon="-0.72461">
        <ele>2258</ele>
        <time>2013-06-22T07:29:45Z</time>
      </trkpt>
      <trkpt lat="42.9412" lon="-0.7246">
        <ele>2258</ele>
        <time>2013-06-22T07:29:55Z</time>
      </trkpt>
      <trkpt lat="42.94119" lon="-0.72459">
        <ele>2258</ele>
        <time>2013-06-22T07:29:57Z</time>
      </trkpt>
      <trkpt lat="42.94117" lon="-0.72458">
        <ele>2258</ele>
        <time>2013-06-22T07:30:00Z</time>
      </trkpt>
      <trkpt lat="42.94116" lon="-0.72457">
        <ele>2258</ele>
        <time>2013-06-22T07:30:02Z</time>
      </trkpt>
      <trkpt lat="42.94115" lon="-0.72456">
        <ele>2259</ele>
        <time>2013-06-22T07:30:04Z</time>
      </trkpt>
      <trkpt lat="42.94116" lon="-0.72455">
        <ele>2261</ele>
        <time>2013-06-22T07:30:18Z</time>
      </trkpt>
      <trkpt lat="42.94117" lon="-0.72453">
        <ele>2261</ele>
        <time>2013-06-22T07:30:21Z</time>
      </trkpt>
      <trkpt lat="42.94119" lon="-0.72452">
        <ele>2261</ele>
        <time>2013-06-22T07:30:25Z</time>
      </trkpt>
      <trkpt lat="42.9412" lon="-0.72452">
        <ele>2262</ele>
        <time>2013-06-22T07:30:28Z</time>
      </trkpt>
      <trkpt lat="42.94121" lon="-0.72451">
        <ele>2262</ele>
        <time>2013-06-22T07:30:32Z</time>
      </trkpt>
      <trkpt lat="42.94123" lon="-0.72451">
        <ele>2262</ele>
        <time>2013-06-22T07:30:35Z</time>
      </trkpt>
      <trkpt lat="42.94124" lon="-0.72451">
        <ele>2263</ele>
        <time>2013-06-22T07:30:40Z</time>
      </trkpt>
      <trkpt lat="42.94125" lon="-0.7245">
        <ele>2263</ele>
        <time>2013-06-22T07:30:44Z</time>
      </trkpt>
      <trkpt lat="42.94127" lon="-0.7245">
        <ele>2263</ele>
        <time>2013-06-22T07:30:48Z</time>
      </trkpt>
      <trkpt lat="42.94128" lon="-0.7245">
        <ele>2264</ele>
        <time>2013-06-22T07:30:52Z</time>
      </trkpt>
      <trkpt lat="42.94129" lon="-0.7245">
        <ele>2264</ele>
        <time>2013-06-22T07:30:57Z</time>
      </trkpt>
      <trkpt lat="42.9413" lon="-0.7245">
        <ele>2264</ele>
        <time>2013-06-22T07:31:01Z</time>
      </trkpt>
      <trkpt lat="42.94131" lon="-0.7245">
        <ele>2265</ele>
        <time>2013-06-22T07:31:05Z</time>
      </trkpt>
      <trkpt lat="42.94133" lon="-0.7245">
        <ele>2265</ele>
        <time>2013-06-22T07:31:09Z</time>
      </trkpt>
      <trkpt lat="42.94134" lon="-0.7245">
        <ele>2265</ele>
        <time>2013-06-22T07:31:11Z</time>
      </trkpt>
      <trkpt lat="42.94136" lon="-0.7245">
        <ele>2265</ele>
        <time>2013-06-22T07:31:13Z</time>
      </trkpt>
      <trkpt lat="42.94137" lon="-0.7245">
        <ele>2265</ele>
        <time>2013-06-22T07:31:15Z</time>
      </trkpt>
      <trkpt lat="42.94139" lon="-0.72449">
        <ele>2266</ele>
        <time>2013-06-22T07:31:17Z</time>
      </trkpt>
      <trkpt lat="42.9414" lon="-0.72449">
        <ele>2266</ele>
        <time>2013-06-22T07:31:19Z</time>
      </trkpt>
      <trkpt lat="42.94142" lon="-0.72448">
        <ele>2267</ele>
        <time>2013-06-22T07:31:21Z</time>
      </trkpt>
      <trkpt lat="42.94143" lon="-0.72448">
        <ele>2268</ele>
        <time>2013-06-22T07:31:51Z</time>
      </trkpt>
      <trkpt lat="42.94144" lon="-0.72447">
        <ele>2268</ele>
        <time>2013-06-22T07:31:53Z</time>
      </trkpt>
      <trkpt lat="42.94146" lon="-0.72446">
        <ele>2268</ele>
        <time>2013-06-22T07:31:55Z</time>
      </trkpt>
      <trkpt lat="42.94147" lon="-0.72444">
        <ele>2268</ele>
        <time>2013-06-22T07:31:58Z</time>
      </trkpt>
      <trkpt lat="42.94148" lon="-0.72443">
        <ele>2268</ele>
        <time>2013-06-22T07:32:00Z</time>
      </trkpt>
      <trkpt lat="42.94149" lon="-0.72441">
        <ele>2269</ele>
        <time>2013-06-22T07:32:02Z</time>
      </trkpt>
      <trkpt lat="42.9415" lon="-0.72439">
        <ele>2269</ele>
        <time>2013-06-22T07:32:05Z</time>
      </trkpt>
      <trkpt lat="42.94151" lon="-0.72437">
        <ele>2270</ele>
        <time>2013-06-22T07:32:07Z</time>
      </trkpt>
      <trkpt lat="42.94151" lon="-0.72435">
        <ele>2270</ele>
        <time>2013-06-22T07:32:09Z</time>
      </trkpt>
      <trkpt lat="42.94151" lon="-0.72433">
        <ele>2270</ele>
        <time>2013-06-22T07:32:11Z</time>
      </trkpt>
      <trkpt lat="42.94152" lon="-0.7243">
        <ele>2270</ele>
        <time>2013-06-22T07:32:13Z</time>
      </trkpt>
      <trkpt lat="42.94151" lon="-0.72428">
        <ele>2271</ele>
        <time>2013-06-22T07:32:15Z</time>
      </trkpt>
      <trkpt lat="42.9415" lon="-0.72427">
        <ele>2271</ele>
        <time>2013-06-22T07:32:17Z</time>
      </trkpt>
      <trkpt lat="42.94149" lon="-0.72427">
        <ele>2272</ele>
        <time>2013-06-22T07:32:19Z</time>
      </trkpt>
      <trkpt lat="42.94146" lon="-0.72426">
        <ele>2272</ele>
        <time>2013-06-22T07:32:21Z</time>
      </trkpt>
      <trkpt lat="42.94145" lon="-0.72425">
        <ele>2272</ele>
        <time>2013-06-22T07:32:23Z</time>
      </trkpt>
      <trkpt lat="42.94143" lon="-0.72424">
        <ele>2272</ele>
        <time>2013-06-22T07:32:25Z</time>
      </trkpt>
      <trkpt lat="42.94142" lon="-0.72423">
        <ele>2272</ele>
        <time>2013-06-22T07:32:27Z</time>
      </trkpt>
      <trkpt lat="42.94142" lon="-0.72421">
        <ele>2272</ele>
        <time>2013-06-22T07:32:28Z</time>
      </trkpt>
      <trkpt lat="42.94142" lon="-0.72419">
        <ele>2272</ele>
        <time>2013-06-22T07:32:30Z</time>
      </trkpt>
      <trkpt lat="42.94143" lon="-0.7242">
        <ele>2273</ele>
        <time>2013-06-22T07:32:49Z</time>
      </trkpt>
      <trkpt lat="42.94142" lon="-0.72419">
        <ele>2274</ele>
        <time>2013-06-22T07:33:00Z</time>
      </trkpt>
      <trkpt lat="42.94142" lon="-0.72417">
        <ele>2274</ele>
        <time>2013-06-22T07:33:01Z</time>
      </trkpt>
      <trkpt lat="42.94143" lon="-0.72415">
        <ele>2274</ele>
        <time>2013-06-22T07:33:03Z</time>
      </trkpt>
      <trkpt lat="42.94143" lon="-0.72413">
        <ele>2274</ele>
        <time>2013-06-22T07:33:04Z</time>
      </trkpt>
      <trkpt lat="42.94143" lon="-0.72411">
        <ele>2274</ele>
        <time>2013-06-22T07:33:06Z</time>
      </trkpt>
      <trkpt lat="42.94143" lon="-0.72409">
        <ele>2274</ele>
        <time>2013-06-22T07:33:07Z</time>
      </trkpt>
      <trkpt lat="42.94143" lon="-0.72407">
        <ele>2274</ele>
        <time>2013-06-22T07:33:09Z</time>
      </trkpt>
      <trkpt lat="42.94144" lon="-0.72404">
        <ele>2274</ele>
        <time>2013-06-22T07:33:11Z</time>
      </trkpt>
      <trkpt lat="42.94145" lon="-0.72402">
        <ele>2274</ele>
        <time>2013-06-22T07:33:13Z</time>
      </trkpt>
      <trkpt lat="42.94146" lon="-0.724">
        <ele>2274</ele>
        <time>2013-06-22T07:33:15Z</time>
      </trkpt>
      <trkpt lat="42.94148" lon="-0.72399">
        <ele>2274</ele>
        <time>2013-06-22T07:33:17Z</time>
      </trkpt>
      <trkpt lat="42.94149" lon="-0.72398">
        <ele>2274</ele>
        <time>2013-06-22T07:33:19Z</time>
      </trkpt>
      <trkpt lat="42.94151" lon="-0.72397">
        <ele>2274</ele>
        <time>2013-06-22T07:33:21Z</time>
      </trkpt>
      <trkpt lat="42.94153" lon="-0.72395">
        <ele>2274</ele>
        <time>2013-06-22T07:33:23Z</time>
      </trkpt>
      <trkpt lat="42.94154" lon="-0.72395">
        <ele>2274</ele>
        <time>2013-06-22T07:33:25Z</time>
      </trkpt>
      <trkpt lat="42.94156" lon="-0.72396">
        <ele>2274</ele>
        <time>2013-06-22T07:33:28Z</time>
      </trkpt>
      <trkpt lat="42.94157" lon="-0.72396">
        <ele>2274</ele>
        <time>2013-06-22T07:33:30Z</time>
      </trkpt>
      <trkpt lat="42.94159" lon="-0.72397">
        <ele>2274</ele>
        <time>2013-06-22T07:33:32Z</time>
      </trkpt>
      <trkpt lat="42.9416" lon="-0.72398">
        <ele>2274</ele>
        <time>2013-06-22T07:33:33Z</time>
      </trkpt>
      <trkpt lat="42.94162" lon="-0.72398">
        <ele>2274</ele>
        <time>2013-06-22T07:33:35Z</time>
      </trkpt>
      <trkpt lat="42.94163" lon="-0.72399">
        <ele>2274</ele>
        <time>2013-06-22T07:33:37Z</time>
      </trkpt>
      <trkpt lat="42.94164" lon="-0.72399">
        <ele>2275</ele>
        <time>2013-06-22T07:33:39Z</time>
      </trkpt>
      <trkpt lat="42.94166" lon="-0.72399">
        <ele>2275</ele>
        <time>2013-06-22T07:33:42Z</time>
      </trkpt>
      <trkpt lat="42.94167" lon="-0.72399">
        <ele>2275</ele>
        <time>2013-06-22T07:33:44Z</time>
      </trkpt>
      <trkpt lat="42.94168" lon="-0.724">
        <ele>2276</ele>
        <time>2013-06-22T07:33:47Z</time>
      </trkpt>
      <trkpt lat="42.9417" lon="-0.724">
        <ele>2276</ele>
        <time>2013-06-22T07:33:49Z</time>
      </trkpt>
      <trkpt lat="42.94172" lon="-0.724">
        <ele>2276</ele>
        <time>2013-06-22T07:33:51Z</time>
      </trkpt>
      <trkpt lat="42.94173" lon="-0.724">
        <ele>2276</ele>
        <time>2013-06-22T07:33:52Z</time>
      </trkpt>
      <trkpt lat="42.94175" lon="-0.724">
        <ele>2277</ele>
        <time>2013-06-22T07:33:54Z</time>
      </trkpt>
      <trkpt lat="42.94176" lon="-0.72399">
        <ele>2277</ele>
        <time>2013-06-22T07:33:57Z</time>
      </trkpt>
      <trkpt lat="42.94175" lon="-0.72399">
        <ele>2278</ele>
        <time>2013-06-22T07:34:04Z</time>
      </trkpt>
      <trkpt lat="42.94174" lon="-0.724">
        <ele>2278</ele>
        <time>2013-06-22T07:34:17Z</time>
      </trkpt>
      <trkpt lat="42.94175" lon="-0.72397">
        <ele>2278</ele>
        <time>2013-06-22T07:34:25Z</time>
      </trkpt>
      <trkpt lat="42.94176" lon="-0.72395">
        <ele>2278</ele>
        <time>2013-06-22T07:34:27Z</time>
      </trkpt>
      <trkpt lat="42.94177" lon="-0.72393">
        <ele>2278</ele>
        <time>2013-06-22T07:34:29Z</time>
      </trkpt>
      <trkpt lat="42.94179" lon="-0.72391">
        <ele>2278</ele>
        <time>2013-06-22T07:34:31Z</time>
      </trkpt>
      <trkpt lat="42.9418" lon="-0.7239">
        <ele>2278</ele>
        <time>2013-06-22T07:34:33Z</time>
      </trkpt>
      <trkpt lat="42.94182" lon="-0.7239">
        <ele>2278</ele>
        <time>2013-06-22T07:34:35Z</time>
      </trkpt>
      <trkpt lat="42.94184" lon="-0.72389">
        <ele>2278</ele>
        <time>2013-06-22T07:34:36Z</time>
      </trkpt>
      <trkpt lat="42.94185" lon="-0.72388">
        <ele>2278</ele>
        <time>2013-06-22T07:34:37Z</time>
      </trkpt>
      <trkpt lat="42.94186" lon="-0.72388">
        <ele>2278</ele>
        <time>2013-06-22T07:34:38Z</time>
      </trkpt>
      <trkpt lat="42.94188" lon="-0.72387">
        <ele>2279</ele>
        <time>2013-06-22T07:34:40Z</time>
      </trkpt>
      <trkpt lat="42.94188" lon="-0.72385">
        <ele>2279</ele>
        <time>2013-06-22T07:34:42Z</time>
      </trkpt>
      <trkpt lat="42.94189" lon="-0.72383">
        <ele>2280</ele>
        <time>2013-06-22T07:34:45Z</time>
      </trkpt>
      <trkpt lat="42.94189" lon="-0.72382">
        <ele>2282</ele>
        <time>2013-06-22T07:34:48Z</time>
      </trkpt>
      <trkpt lat="42.94189" lon="-0.7238">
        <ele>2282</ele>
        <time>2013-06-22T07:34:50Z</time>
      </trkpt>
      <trkpt lat="42.94189" lon="-0.72378">
        <ele>2284</ele>
        <time>2013-06-22T07:34:52Z</time>
      </trkpt>
      <trkpt lat="42.9419" lon="-0.72376">
        <ele>2285</ele>
        <time>2013-06-22T07:34:54Z</time>
      </trkpt>
      <trkpt lat="42.94191" lon="-0.72375">
        <ele>2285</ele>
        <time>2013-06-22T07:34:57Z</time>
      </trkpt>
      <trkpt lat="42.9419" lon="-0.72376">
        <ele>2286</ele>
        <time>2013-06-22T07:35:18Z</time>
      </trkpt>
      <trkpt lat="42.9419" lon="-0.72374">
        <ele>2286</ele>
        <time>2013-06-22T07:35:26Z</time>
      </trkpt>
      <trkpt lat="42.94191" lon="-0.72372">
        <ele>2286</ele>
        <time>2013-06-22T07:35:28Z</time>
      </trkpt>
      <trkpt lat="42.94191" lon="-0.7237">
        <ele>2287</ele>
        <time>2013-06-22T07:35:30Z</time>
      </trkpt>
      <trkpt lat="42.94192" lon="-0.72368">
        <ele>2288</ele>
        <time>2013-06-22T07:35:33Z</time>
      </trkpt>
      <trkpt lat="42.94192" lon="-0.72366">
        <ele>2289</ele>
        <time>2013-06-22T07:35:35Z</time>
      </trkpt>
      <trkpt lat="42.94193" lon="-0.72364">
        <ele>2289</ele>
        <time>2013-06-22T07:35:37Z</time>
      </trkpt>
      <trkpt lat="42.94193" lon="-0.72362">
        <ele>2290</ele>
        <time>2013-06-22T07:35:38Z</time>
      </trkpt>
      <trkpt lat="42.94194" lon="-0.7236">
        <ele>2290</ele>
        <time>2013-06-22T07:35:40Z</time>
      </trkpt>
      <trkpt lat="42.94195" lon="-0.72359">
        <ele>2290</ele>
        <time>2013-06-22T07:35:43Z</time>
      </trkpt>
      <trkpt lat="42.94194" lon="-0.72357">
        <ele>2292</ele>
        <time>2013-06-22T07:35:48Z</time>
      </trkpt>
      <trkpt lat="42.94192" lon="-0.72356">
        <ele>2293</ele>
        <time>2013-06-22T07:35:52Z</time>
      </trkpt>
      <trkpt lat="42.94194" lon="-0.72357">
        <ele>2293</ele>
        <time>2013-06-22T07:36:02Z</time>
      </trkpt>
      <trkpt lat="42.94194" lon="-0.72359">
        <ele>2293</ele>
        <time>2013-06-22T07:36:11Z</time>
      </trkpt>
      <trkpt lat="42.94196" lon="-0.7236">
        <ele>2293</ele>
        <time>2013-06-22T07:36:47Z</time>
      </trkpt>
      <trkpt lat="42.94196" lon="-0.72361">
        <ele>2294</ele>
        <time>2013-06-22T07:38:20Z</time>
      </trkpt>
      <trkpt lat="42.94196" lon="-0.7236">
        <ele>2294</ele>
        <time>2013-06-22T07:38:37Z</time>
      </trkpt>
      <trkpt lat="42.94197" lon="-0.72358">
        <ele>2295</ele>
        <time>2013-06-22T07:38:39Z</time>
      </trkpt>
      <trkpt lat="42.94198" lon="-0.72358">
        <ele>2295</ele>
        <time>2013-06-22T07:38:41Z</time>
      </trkpt>
      <trkpt lat="42.942" lon="-0.72357">
        <ele>2295</ele>
        <time>2013-06-22T07:38:43Z</time>
      </trkpt>
      <trkpt lat="42.94201" lon="-0.72357">
        <ele>2295</ele>
        <time>2013-06-22T07:38:45Z</time>
      </trkpt>
      <trkpt lat="42.94203" lon="-0.72356">
        <ele>2295</ele>
        <time>2013-06-22T07:38:47Z</time>
      </trkpt>
      <trkpt lat="42.94204" lon="-0.72356">
        <ele>2295</ele>
        <time>2013-06-22T07:38:49Z</time>
      </trkpt>
      <trkpt lat="42.94206" lon="-0.72356">
        <ele>2295</ele>
        <time>2013-06-22T07:38:51Z</time>
      </trkpt>
      <trkpt lat="42.94207" lon="-0.72356">
        <ele>2295</ele>
        <time>2013-06-22T07:38:53Z</time>
      </trkpt>
      <trkpt lat="42.94209" lon="-0.72355">
        <ele>2296</ele>
        <time>2013-06-22T07:38:55Z</time>
      </trkpt>
      <trkpt lat="42.9421" lon="-0.72355">
        <ele>2296</ele>
        <time>2013-06-22T07:38:57Z</time>
      </trkpt>
      <trkpt lat="42.94211" lon="-0.72355">
        <ele>2296</ele>
        <time>2013-06-22T07:38:59Z</time>
      </trkpt>
      <trkpt lat="42.94213" lon="-0.72354">
        <ele>2297</ele>
        <time>2013-06-22T07:39:01Z</time>
      </trkpt>
      <trkpt lat="42.94214" lon="-0.72354">
        <ele>2297</ele>
        <time>2013-06-22T07:39:03Z</time>
      </trkpt>
      <trkpt lat="42.94215" lon="-0.72354">
        <ele>2297</ele>
        <time>2013-06-22T07:39:05Z</time>
      </trkpt>
      <trkpt lat="42.94218" lon="-0.72354">
        <ele>2298</ele>
        <time>2013-06-22T07:39:07Z</time>
      </trkpt>
      <trkpt lat="42.94219" lon="-0.72354">
        <ele>2298</ele>
        <time>2013-06-22T07:39:09Z</time>
      </trkpt>
      <trkpt lat="42.94221" lon="-0.72354">
        <ele>2299</ele>
        <time>2013-06-22T07:39:11Z</time>
      </trkpt>
      <trkpt lat="42.94222" lon="-0.72354">
        <ele>2299</ele>
        <time>2013-06-22T07:39:13Z</time>
      </trkpt>
      <trkpt lat="42.94223" lon="-0.72354">
        <ele>2299</ele>
        <time>2013-06-22T07:39:15Z</time>
      </trkpt>
      <trkpt lat="42.94225" lon="-0.72354">
        <ele>2300</ele>
        <time>2013-06-22T07:39:17Z</time>
      </trkpt>
      <trkpt lat="42.94226" lon="-0.72354">
        <ele>2300</ele>
        <time>2013-06-22T07:39:20Z</time>
      </trkpt>
      <trkpt lat="42.94228" lon="-0.72354">
        <ele>2300</ele>
        <time>2013-06-22T07:39:23Z</time>
      </trkpt>
      <trkpt lat="42.94229" lon="-0.72354">
        <ele>2300</ele>
        <time>2013-06-22T07:39:25Z</time>
      </trkpt>
      <trkpt lat="42.94231" lon="-0.72354">
        <ele>2301</ele>
        <time>2013-06-22T07:39:27Z</time>
      </trkpt>
      <trkpt lat="42.94232" lon="-0.72354">
        <ele>2301</ele>
        <time>2013-06-22T07:39:29Z</time>
      </trkpt>
      <trkpt lat="42.94233" lon="-0.72354">
        <ele>2302</ele>
        <time>2013-06-22T07:39:31Z</time>
      </trkpt>
      <trkpt lat="42.94234" lon="-0.72354">
        <ele>2302</ele>
        <time>2013-06-22T07:39:33Z</time>
      </trkpt>
      <trkpt lat="42.94235" lon="-0.72354">
        <ele>2303</ele>
        <time>2013-06-22T07:39:36Z</time>
      </trkpt>
      <trkpt lat="42.94237" lon="-0.72355">
        <ele>2303</ele>
        <time>2013-06-22T07:39:40Z</time>
      </trkpt>
      <trkpt lat="42.94238" lon="-0.72355">
        <ele>2303</ele>
        <time>2013-06-22T07:39:44Z</time>
      </trkpt>
      <trkpt lat="42.94239" lon="-0.72355">
        <ele>2303</ele>
        <time>2013-06-22T07:39:59Z</time>
      </trkpt>
      <trkpt lat="42.94238" lon="-0.72355">
        <ele>2304</ele>
        <time>2013-06-22T07:40:02Z</time>
      </trkpt>
      <trkpt lat="42.9424" lon="-0.72355">
        <ele>2304</ele>
        <time>2013-06-22T07:40:06Z</time>
      </trkpt>
      <trkpt lat="42.94241" lon="-0.72355">
        <ele>2304</ele>
        <time>2013-06-22T07:40:08Z</time>
      </trkpt>
      <trkpt lat="42.94242" lon="-0.72355">
        <ele>2304</ele>
        <time>2013-06-22T07:40:11Z</time>
      </trkpt>
      <trkpt lat="42.94244" lon="-0.72355">
        <ele>2304</ele>
        <time>2013-06-22T07:40:13Z</time>
      </trkpt>
      <trkpt lat="42.94245" lon="-0.72355">
        <ele>2304</ele>
        <time>2013-06-22T07:40:16Z</time>
      </trkpt>
      <trkpt lat="42.94247" lon="-0.72355">
        <ele>2305</ele>
        <time>2013-06-22T07:40:41Z</time>
      </trkpt>
      <trkpt lat="42.94248" lon="-0.72355">
        <ele>2305</ele>
        <time>2013-06-22T07:40:43Z</time>
      </trkpt>
      <trkpt lat="42.94249" lon="-0.72355">
        <ele>2305</ele>
        <time>2013-06-22T07:40:46Z</time>
      </trkpt>
      <trkpt lat="42.94251" lon="-0.72355">
        <ele>2305</ele>
        <time>2013-06-22T07:40:49Z</time>
      </trkpt>
      <trkpt lat="42.94252" lon="-0.72356">
        <ele>2306</ele>
        <time>2013-06-22T07:40:52Z</time>
      </trkpt>
      <trkpt lat="42.94254" lon="-0.72356">
        <ele>2307</ele>
        <time>2013-06-22T07:40:55Z</time>
      </trkpt>
      <trkpt lat="42.94255" lon="-0.72356">
        <ele>2307</ele>
        <time>2013-06-22T07:40:58Z</time>
      </trkpt>
      <trkpt lat="42.94257" lon="-0.72356">
        <ele>2307</ele>
        <time>2013-06-22T07:41:00Z</time>
      </trkpt>
      <trkpt lat="42.94258" lon="-0.72356">
        <ele>2307</ele>
        <time>2013-06-22T07:41:03Z</time>
      </trkpt>
      <trkpt lat="42.94259" lon="-0.72356">
        <ele>2308</ele>
        <time>2013-06-22T07:41:05Z</time>
      </trkpt>
      <trkpt lat="42.9426" lon="-0.72356">
        <ele>2308</ele>
        <time>2013-06-22T07:41:08Z</time>
      </trkpt>
      <trkpt lat="42.94262" lon="-0.72356">
        <ele>2309</ele>
        <time>2013-06-22T07:41:11Z</time>
      </trkpt>
      <trkpt lat="42.94263" lon="-0.72357">
        <ele>2309</ele>
        <time>2013-06-22T07:41:13Z</time>
      </trkpt>
      <trkpt lat="42.94265" lon="-0.72357">
        <ele>2310</ele>
        <time>2013-06-22T07:41:16Z</time>
      </trkpt>
      <trkpt lat="42.94266" lon="-0.72357">
        <ele>2310</ele>
        <time>2013-06-22T07:41:19Z</time>
      </trkpt>
      <trkpt lat="42.94267" lon="-0.72357">
        <ele>2311</ele>
        <time>2013-06-22T07:41:22Z</time>
      </trkpt>
      <trkpt lat="42.94268" lon="-0.72358">
        <ele>2311</ele>
        <time>2013-06-22T07:41:25Z</time>
      </trkpt>
      <trkpt lat="42.9427" lon="-0.72358">
        <ele>2311</ele>
        <time>2013-06-22T07:41:28Z</time>
      </trkpt>
      <trkpt lat="42.94271" lon="-0.72359">
        <ele>2311</ele>
        <time>2013-06-22T07:41:30Z</time>
      </trkpt>
      <trkpt lat="42.94272" lon="-0.72359">
        <ele>2312</ele>
        <time>2013-06-22T07:41:32Z</time>
      </trkpt>
      <trkpt lat="42.94273" lon="-0.72359">
        <ele>2312</ele>
        <time>2013-06-22T07:41:42Z</time>
      </trkpt>
      <trkpt lat="42.94275" lon="-0.72359">
        <ele>2312</ele>
        <time>2013-06-22T07:41:44Z</time>
      </trkpt>
      <trkpt lat="42.94276" lon="-0.72359">
        <ele>2313</ele>
        <time>2013-06-22T07:41:46Z</time>
      </trkpt>
      <trkpt lat="42.94277" lon="-0.7236">
        <ele>2313</ele>
        <time>2013-06-22T07:41:48Z</time>
      </trkpt>
      <trkpt lat="42.94278" lon="-0.7236">
        <ele>2314</ele>
        <time>2013-06-22T07:41:50Z</time>
      </trkpt>
      <trkpt lat="42.9428" lon="-0.72361">
        <ele>2314</ele>
        <time>2013-06-22T07:41:52Z</time>
      </trkpt>
      <trkpt lat="42.94281" lon="-0.72361">
        <ele>2314</ele>
        <time>2013-06-22T07:41:54Z</time>
      </trkpt>
      <trkpt lat="42.94283" lon="-0.72361">
        <ele>2314</ele>
        <time>2013-06-22T07:41:57Z</time>
      </trkpt>
      <trkpt lat="42.94281" lon="-0.72361">
        <ele>2315</ele>
        <time>2013-06-22T07:42:31Z</time>
      </trkpt>
      <trkpt lat="42.94283" lon="-0.72362">
        <ele>2315</ele>
        <time>2013-06-22T07:42:54Z</time>
      </trkpt>
      <trkpt lat="42.94284" lon="-0.72363">
        <ele>2315</ele>
        <time>2013-06-22T07:42:57Z</time>
      </trkpt>
      <trkpt lat="42.94285" lon="-0.72363">
        <ele>2315</ele>
        <time>2013-06-22T07:43:00Z</time>
      </trkpt>
      <trkpt lat="42.94286" lon="-0.72364">
        <ele>2315</ele>
        <time>2013-06-22T07:43:03Z</time>
      </trkpt>
      <trkpt lat="42.94286" lon="-0.72362">
        <ele>2317</ele>
        <time>2013-06-22T07:43:42Z</time>
      </trkpt>
      <trkpt lat="42.94286" lon="-0.72361">
        <ele>2318</ele>
        <time>2013-06-22T07:43:46Z</time>
      </trkpt>
      <trkpt lat="42.94286" lon="-0.72359">
        <ele>2318</ele>
        <time>2013-06-22T07:43:49Z</time>
      </trkpt>
      <trkpt lat="42.94285" lon="-0.72358">
        <ele>2318</ele>
        <time>2013-06-22T07:43:51Z</time>
      </trkpt>
      <trkpt lat="42.94284" lon="-0.72356">
        <ele>2319</ele>
        <time>2013-06-22T07:43:53Z</time>
      </trkpt>
      <trkpt lat="42.94284" lon="-0.72354">
        <ele>2319</ele>
        <time>2013-06-22T07:43:56Z</time>
      </trkpt>
      <trkpt lat="42.94283" lon="-0.72353">
        <ele>2319</ele>
        <time>2013-06-22T07:43:58Z</time>
      </trkpt>
      <trkpt lat="42.94283" lon="-0.72351">
        <ele>2319</ele>
        <time>2013-06-22T07:44:01Z</time>
      </trkpt>
      <trkpt lat="42.94282" lon="-0.72349">
        <ele>2319</ele>
        <time>2013-06-22T07:44:03Z</time>
      </trkpt>
      <trkpt lat="42.94281" lon="-0.72348">
        <ele>2320</ele>
        <time>2013-06-22T07:44:05Z</time>
      </trkpt>
      <trkpt lat="42.94281" lon="-0.72346">
        <ele>2320</ele>
        <time>2013-06-22T07:44:08Z</time>
      </trkpt>
      <trkpt lat="42.9428" lon="-0.72344">
        <ele>2320</ele>
        <time>2013-06-22T07:44:11Z</time>
      </trkpt>
      <trkpt lat="42.94279" lon="-0.72342">
        <ele>2321</ele>
        <time>2013-06-22T07:44:13Z</time>
      </trkpt>
      <trkpt lat="42.94279" lon="-0.7234">
        <ele>2321</ele>
        <time>2013-06-22T07:44:15Z</time>
      </trkpt>
      <trkpt lat="42.94278" lon="-0.72339">
        <ele>2321</ele>
        <time>2013-06-22T07:44:17Z</time>
      </trkpt>
      <trkpt lat="42.94278" lon="-0.72337">
        <ele>2322</ele>
        <time>2013-06-22T07:44:20Z</time>
      </trkpt>
      <trkpt lat="42.94277" lon="-0.72335">
        <ele>2322</ele>
        <time>2013-06-22T07:44:23Z</time>
      </trkpt>
      <trkpt lat="42.94276" lon="-0.72333">
        <ele>2322</ele>
        <time>2013-06-22T07:44:25Z</time>
      </trkpt>
      <trkpt lat="42.94276" lon="-0.72331">
        <ele>2322</ele>
        <time>2013-06-22T07:44:27Z</time>
      </trkpt>
      <trkpt lat="42.94275" lon="-0.72329">
        <ele>2322</ele>
        <time>2013-06-22T07:44:29Z</time>
      </trkpt>
      <trkpt lat="42.94275" lon="-0.72327">
        <ele>2323</ele>
        <time>2013-06-22T07:44:46Z</time>
      </trkpt>
      <trkpt lat="42.94274" lon="-0.72325">
        <ele>2323</ele>
        <time>2013-06-22T07:44:48Z</time>
      </trkpt>
      <trkpt lat="42.94274" lon="-0.72324">
        <ele>2323</ele>
        <time>2013-06-22T07:44:50Z</time>
      </trkpt>
      <trkpt lat="42.94273" lon="-0.72322">
        <ele>2323</ele>
        <time>2013-06-22T07:44:52Z</time>
      </trkpt>
      <trkpt lat="42.94273" lon="-0.72321">
        <ele>2323</ele>
        <time>2013-06-22T07:44:55Z</time>
      </trkpt>
      <trkpt lat="42.94272" lon="-0.72319">
        <ele>2323</ele>
        <time>2013-06-22T07:44:58Z</time>
      </trkpt>
      <trkpt lat="42.94271" lon="-0.72317">
        <ele>2323</ele>
        <time>2013-06-22T07:45:01Z</time>
      </trkpt>
      <trkpt lat="42.94271" lon="-0.72315">
        <ele>2323</ele>
        <time>2013-06-22T07:45:04Z</time>
      </trkpt>
      <trkpt lat="42.9427" lon="-0.72313">
        <ele>2323</ele>
        <time>2013-06-22T07:45:06Z</time>
      </trkpt>
      <trkpt lat="42.94269" lon="-0.72311">
        <ele>2324</ele>
        <time>2013-06-22T07:45:09Z</time>
      </trkpt>
      <trkpt lat="42.94269" lon="-0.7231">
        <ele>2325</ele>
        <time>2013-06-22T07:45:11Z</time>
      </trkpt>
      <trkpt lat="42.94268" lon="-0.72308">
        <ele>2325</ele>
        <time>2013-06-22T07:45:13Z</time>
      </trkpt>
      <trkpt lat="42.94268" lon="-0.72307">
        <ele>2326</ele>
        <time>2013-06-22T07:45:15Z</time>
      </trkpt>
      <trkpt lat="42.94267" lon="-0.72305">
        <ele>2326</ele>
        <time>2013-06-22T07:45:17Z</time>
      </trkpt>
      <trkpt lat="42.94267" lon="-0.72303">
        <ele>2327</ele>
        <time>2013-06-22T07:45:20Z</time>
      </trkpt>
      <trkpt lat="42.94266" lon="-0.72302">
        <ele>2327</ele>
        <time>2013-06-22T07:45:23Z</time>
      </trkpt>
      <trkpt lat="42.94265" lon="-0.723">
        <ele>2327</ele>
        <time>2013-06-22T07:45:25Z</time>
      </trkpt>
      <trkpt lat="42.94265" lon="-0.72298">
        <ele>2327</ele>
        <time>2013-06-22T07:45:27Z</time>
      </trkpt>
      <trkpt lat="42.94264" lon="-0.72296">
        <ele>2327</ele>
        <time>2013-06-22T07:45:29Z</time>
      </trkpt>
      <trkpt lat="42.94264" lon="-0.72295">
        <ele>2327</ele>
        <time>2013-06-22T07:45:31Z</time>
      </trkpt>
      <trkpt lat="42.94263" lon="-0.72293">
        <ele>2327</ele>
        <time>2013-06-22T07:45:33Z</time>
      </trkpt>
      <trkpt lat="42.94263" lon="-0.72291">
        <ele>2328</ele>
        <time>2013-06-22T07:45:36Z</time>
      </trkpt>
      <trkpt lat="42.94262" lon="-0.7229">
        <ele>2329</ele>
        <time>2013-06-22T07:46:06Z</time>
      </trkpt>
      <trkpt lat="42.94262" lon="-0.72288">
        <ele>2329</ele>
        <time>2013-06-22T07:46:09Z</time>
      </trkpt>
      <trkpt lat="42.94261" lon="-0.72286">
        <ele>2329</ele>
        <time>2013-06-22T07:46:12Z</time>
      </trkpt>
      <trkpt lat="42.94261" lon="-0.72285">
        <ele>2329</ele>
        <time>2013-06-22T07:46:15Z</time>
      </trkpt>
      <trkpt lat="42.9426" lon="-0.72283">
        <ele>2329</ele>
        <time>2013-06-22T07:46:18Z</time>
      </trkpt>
      <trkpt lat="42.9426" lon="-0.72281">
        <ele>2329</ele>
        <time>2013-06-22T07:46:21Z</time>
      </trkpt>
      <trkpt lat="42.94259" lon="-0.7228">
        <ele>2329</ele>
        <time>2013-06-22T07:46:25Z</time>
      </trkpt>
      <trkpt lat="42.94258" lon="-0.72278">
        <ele>2329</ele>
        <time>2013-06-22T07:46:27Z</time>
      </trkpt>
      <trkpt lat="42.94258" lon="-0.72277">
        <ele>2329</ele>
        <time>2013-06-22T07:46:29Z</time>
      </trkpt>
      <trkpt lat="42.94257" lon="-0.72275">
        <ele>2329</ele>
        <time>2013-06-22T07:46:31Z</time>
      </trkpt>
      <trkpt lat="42.94257" lon="-0.72273">
        <ele>2329</ele>
        <time>2013-06-22T07:46:33Z</time>
      </trkpt>
      <trkpt lat="42.94256" lon="-0.72271">
        <ele>2329</ele>
        <time>2013-06-22T07:46:35Z</time>
      </trkpt>
      <trkpt lat="42.94255" lon="-0.72269">
        <ele>2330</ele>
        <time>2013-06-22T07:46:37Z</time>
      </trkpt>
      <trkpt lat="42.94255" lon="-0.72268">
        <ele>2331</ele>
        <time>2013-06-22T07:46:39Z</time>
      </trkpt>
      <trkpt lat="42.94255" lon="-0.72266">
        <ele>2331</ele>
        <time>2013-06-22T07:46:41Z</time>
      </trkpt>
      <trkpt lat="42.94254" lon="-0.72265">
        <ele>2332</ele>
        <time>2013-06-22T07:46:47Z</time>
      </trkpt>
      <trkpt lat="42.94254" lon="-0.72263">
        <ele>2332</ele>
        <time>2013-06-22T07:47:00Z</time>
      </trkpt>
      <trkpt lat="42.94253" lon="-0.72262">
        <ele>2332</ele>
        <time>2013-06-22T07:47:03Z</time>
      </trkpt>
      <trkpt lat="42.94252" lon="-0.7226">
        <ele>2332</ele>
        <time>2013-06-22T07:47:07Z</time>
      </trkpt>
      <trkpt lat="42.94252" lon="-0.72258">
        <ele>2332</ele>
        <time>2013-06-22T07:47:10Z</time>
      </trkpt>
      <trkpt lat="42.94251" lon="-0.72256">
        <ele>2332</ele>
        <time>2013-06-22T07:47:12Z</time>
      </trkpt>
      <trkpt lat="42.9425" lon="-0.72255">
        <ele>2332</ele>
        <time>2013-06-22T07:47:15Z</time>
      </trkpt>
      <trkpt lat="42.9425" lon="-0.72253">
        <ele>2332</ele>
        <time>2013-06-22T07:47:17Z</time>
      </trkpt>
      <trkpt lat="42.94249" lon="-0.72252">
        <ele>2332</ele>
        <time>2013-06-22T07:47:21Z</time>
      </trkpt>
      <trkpt lat="42.94249" lon="-0.7225">
        <ele>2332</ele>
        <time>2013-06-22T07:47:23Z</time>
      </trkpt>
      <trkpt lat="42.94248" lon="-0.72249">
        <ele>2332</ele>
        <time>2013-06-22T07:47:26Z</time>
      </trkpt>
      <trkpt lat="42.94247" lon="-0.72247">
        <ele>2332</ele>
        <time>2013-06-22T07:47:29Z</time>
      </trkpt>
      <trkpt lat="42.94246" lon="-0.72245">
        <ele>2333</ele>
        <time>2013-06-22T07:47:36Z</time>
      </trkpt>
      <trkpt lat="42.94245" lon="-0.72243">
        <ele>2333</ele>
        <time>2013-06-22T07:47:38Z</time>
      </trkpt>
      <trkpt lat="42.94245" lon="-0.72242">
        <ele>2334</ele>
        <time>2013-06-22T07:47:40Z</time>
      </trkpt>
      <trkpt lat="42.94244" lon="-0.7224">
        <ele>2334</ele>
        <time>2013-06-22T07:47:42Z</time>
      </trkpt>
      <trkpt lat="42.94243" lon="-0.72238">
        <ele>2335</ele>
        <time>2013-06-22T07:47:55Z</time>
      </trkpt>
      <trkpt lat="42.94242" lon="-0.72236">
        <ele>2336</ele>
        <time>2013-06-22T07:48:00Z</time>
      </trkpt>
      <trkpt lat="42.94242" lon="-0.72235">
        <ele>2336</ele>
        <time>2013-06-22T07:48:02Z</time>
      </trkpt>
      <trkpt lat="42.94241" lon="-0.72233">
        <ele>2337</ele>
        <time>2013-06-22T07:48:07Z</time>
      </trkpt>
      <trkpt lat="42.9424" lon="-0.72232">
        <ele>2337</ele>
        <time>2013-06-22T07:48:10Z</time>
      </trkpt>
      <trkpt lat="42.9424" lon="-0.72229">
        <ele>2337</ele>
        <time>2013-06-22T07:48:12Z</time>
      </trkpt>
      <trkpt lat="42.94239" lon="-0.72228">
        <ele>2337</ele>
        <time>2013-06-22T07:48:14Z</time>
      </trkpt>
      <trkpt lat="42.94238" lon="-0.72226">
        <ele>2337</ele>
        <time>2013-06-22T07:48:17Z</time>
      </trkpt>
      <trkpt lat="42.94238" lon="-0.72224">
        <ele>2337</ele>
        <time>2013-06-22T07:48:20Z</time>
      </trkpt>
      <trkpt lat="42.94237" lon="-0.72222">
        <ele>2337</ele>
        <time>2013-06-22T07:48:22Z</time>
      </trkpt>
      <trkpt lat="42.94236" lon="-0.7222">
        <ele>2337</ele>
        <time>2013-06-22T07:48:24Z</time>
      </trkpt>
      <trkpt lat="42.94236" lon="-0.72219">
        <ele>2337</ele>
        <time>2013-06-22T07:48:25Z</time>
      </trkpt>
      <trkpt lat="42.94235" lon="-0.72217">
        <ele>2337</ele>
        <time>2013-06-22T07:48:28Z</time>
      </trkpt>
      <trkpt lat="42.94235" lon="-0.72215">
        <ele>2337</ele>
        <time>2013-06-22T07:48:30Z</time>
      </trkpt>
      <trkpt lat="42.94234" lon="-0.72213">
        <ele>2337</ele>
        <time>2013-06-22T07:48:32Z</time>
      </trkpt>
      <trkpt lat="42.94235" lon="-0.72211">
        <ele>2336</ele>
        <time>2013-06-22T07:48:34Z</time>
      </trkpt>
      <trkpt lat="42.94235" lon="-0.72208">
        <ele>2335</ele>
        <time>2013-06-22T07:48:36Z</time>
      </trkpt>
      <trkpt lat="42.94234" lon="-0.72207">
        <ele>2333</ele>
        <time>2013-06-22T07:48:38Z</time>
      </trkpt>
      <trkpt lat="42.94233" lon="-0.72206">
        <ele>2333</ele>
        <time>2013-06-22T07:48:41Z</time>
      </trkpt>
      <trkpt lat="42.94232" lon="-0.72205">
        <ele>2332</ele>
        <time>2013-06-22T07:48:43Z</time>
      </trkpt>
      <trkpt lat="42.94231" lon="-0.72205">
        <ele>2332</ele>
        <time>2013-06-22T07:48:46Z</time>
      </trkpt>
      <trkpt lat="42.9423" lon="-0.72206">
        <ele>2332</ele>
        <time>2013-06-22T07:48:48Z</time>
      </trkpt>
      <trkpt lat="42.9423" lon="-0.72208">
        <ele>2332</ele>
        <time>2013-06-22T07:48:50Z</time>
      </trkpt>
      <trkpt lat="42.94229" lon="-0.7221">
        <ele>2332</ele>
        <time>2013-06-22T07:48:53Z</time>
      </trkpt>
      <trkpt lat="42.94229" lon="-0.72211">
        <ele>2335</ele>
        <time>2013-06-22T07:48:57Z</time>
      </trkpt>
      <trkpt lat="42.94228" lon="-0.72212">
        <ele>2337</ele>
        <time>2013-06-22T07:49:04Z</time>
      </trkpt>
      <trkpt lat="42.94227" lon="-0.72211">
        <ele>2339</ele>
        <time>2013-06-22T07:49:16Z</time>
      </trkpt>
      <trkpt lat="42.94227" lon="-0.72209">
        <ele>2339</ele>
        <time>2013-06-22T07:49:18Z</time>
      </trkpt>
      <trkpt lat="42.94226" lon="-0.72207">
        <ele>2339</ele>
        <time>2013-06-22T07:49:20Z</time>
      </trkpt>
      <trkpt lat="42.94225" lon="-0.72206">
        <ele>2339</ele>
        <time>2013-06-22T07:49:22Z</time>
      </trkpt>
      <trkpt lat="42.94224" lon="-0.72205">
        <ele>2339</ele>
        <time>2013-06-22T07:49:25Z</time>
      </trkpt>
      <trkpt lat="42.94223" lon="-0.72203">
        <ele>2339</ele>
        <time>2013-06-22T07:49:28Z</time>
      </trkpt>
      <trkpt lat="42.94222" lon="-0.72201">
        <ele>2340</ele>
        <time>2013-06-22T07:49:32Z</time>
      </trkpt>
      <trkpt lat="42.94221" lon="-0.72199">
        <ele>2341</ele>
        <time>2013-06-22T07:49:35Z</time>
      </trkpt>
      <trkpt lat="42.9422" lon="-0.72198">
        <ele>2342</ele>
        <time>2013-06-22T07:49:38Z</time>
      </trkpt>
      <trkpt lat="42.94219" lon="-0.72196">
        <ele>2343</ele>
        <time>2013-06-22T07:49:41Z</time>
      </trkpt>
      <trkpt lat="42.94218" lon="-0.72194">
        <ele>2343</ele>
        <time>2013-06-22T07:49:44Z</time>
      </trkpt>
      <trkpt lat="42.94217" lon="-0.72192">
        <ele>2343</ele>
        <time>2013-06-22T07:49:46Z</time>
      </trkpt>
      <trkpt lat="42.94216" lon="-0.72191">
        <ele>2343</ele>
        <time>2013-06-22T07:49:48Z</time>
      </trkpt>
      <trkpt lat="42.94215" lon="-0.72189">
        <ele>2343</ele>
        <time>2013-06-22T07:49:50Z</time>
      </trkpt>
      <trkpt lat="42.94214" lon="-0.72188">
        <ele>2343</ele>
        <time>2013-06-22T07:49:53Z</time>
      </trkpt>
      <trkpt lat="42.94213" lon="-0.72185">
        <ele>2346</ele>
        <time>2013-06-22T07:50:12Z</time>
      </trkpt>
      <trkpt lat="42.94212" lon="-0.72184">
        <ele>2346</ele>
        <time>2013-06-22T07:50:14Z</time>
      </trkpt>
      <trkpt lat="42.94211" lon="-0.72182">
        <ele>2346</ele>
        <time>2013-06-22T07:50:16Z</time>
      </trkpt>
      <trkpt lat="42.94209" lon="-0.7218">
        <ele>2346</ele>
        <time>2013-06-22T07:50:19Z</time>
      </trkpt>
      <trkpt lat="42.94208" lon="-0.72179">
        <ele>2346</ele>
        <time>2013-06-22T07:50:21Z</time>
      </trkpt>
      <trkpt lat="42.94207" lon="-0.72178">
        <ele>2346</ele>
        <time>2013-06-22T07:50:23Z</time>
      </trkpt>
      <trkpt lat="42.94206" lon="-0.72178">
        <ele>2346</ele>
        <time>2013-06-22T07:50:25Z</time>
      </trkpt>
      <trkpt lat="42.94204" lon="-0.72177">
        <ele>2346</ele>
        <time>2013-06-22T07:50:27Z</time>
      </trkpt>
      <trkpt lat="42.94203" lon="-0.72176">
        <ele>2347</ele>
        <time>2013-06-22T07:50:29Z</time>
      </trkpt>
      <trkpt lat="42.94202" lon="-0.72175">
        <ele>2347</ele>
        <time>2013-06-22T07:50:50Z</time>
      </trkpt>
      <trkpt lat="42.94203" lon="-0.72173">
        <ele>2347</ele>
        <time>2013-06-22T07:51:07Z</time>
      </trkpt>
      <trkpt lat="42.94204" lon="-0.72171">
        <ele>2347</ele>
        <time>2013-06-22T07:51:09Z</time>
      </trkpt>
      <trkpt lat="42.94205" lon="-0.72169">
        <ele>2347</ele>
        <time>2013-06-22T07:51:12Z</time>
      </trkpt>
      <trkpt lat="42.94207" lon="-0.72168">
        <ele>2347</ele>
        <time>2013-06-22T07:51:29Z</time>
      </trkpt>
      <trkpt lat="42.94208" lon="-0.72167">
        <ele>2347</ele>
        <time>2013-06-22T07:51:31Z</time>
      </trkpt>
      <trkpt lat="42.94209" lon="-0.72167">
        <ele>2347</ele>
        <time>2013-06-22T07:51:33Z</time>
      </trkpt>
      <trkpt lat="42.94211" lon="-0.72167">
        <ele>2347</ele>
        <time>2013-06-22T07:51:35Z</time>
      </trkpt>
      <trkpt lat="42.94212" lon="-0.72166">
        <ele>2347</ele>
        <time>2013-06-22T07:51:37Z</time>
      </trkpt>
      <trkpt lat="42.94213" lon="-0.72166">
        <ele>2348</ele>
        <time>2013-06-22T07:51:39Z</time>
      </trkpt>
      <trkpt lat="42.94215" lon="-0.72166">
        <ele>2349</ele>
        <time>2013-06-22T07:51:41Z</time>
      </trkpt>
      <trkpt lat="42.94213" lon="-0.72165">
        <ele>2351</ele>
        <time>2013-06-22T07:51:53Z</time>
      </trkpt>
      <trkpt lat="42.94212" lon="-0.72163">
        <ele>2351</ele>
        <time>2013-06-22T07:51:58Z</time>
      </trkpt>
      <trkpt lat="42.94211" lon="-0.72162">
        <ele>2351</ele>
        <time>2013-06-22T07:52:00Z</time>
      </trkpt>
      <trkpt lat="42.9421" lon="-0.7216">
        <ele>2351</ele>
        <time>2013-06-22T07:52:02Z</time>
      </trkpt>
      <trkpt lat="42.9421" lon="-0.72158">
        <ele>2352</ele>
        <time>2013-06-22T07:52:04Z</time>
      </trkpt>
      <trkpt lat="42.94209" lon="-0.72157">
        <ele>2352</ele>
        <time>2013-06-22T07:52:06Z</time>
      </trkpt>
      <trkpt lat="42.94208" lon="-0.72154">
        <ele>2353</ele>
        <time>2013-06-22T07:52:08Z</time>
      </trkpt>
      <trkpt lat="42.94207" lon="-0.72152">
        <ele>2354</ele>
        <time>2013-06-22T07:52:11Z</time>
      </trkpt>
      <trkpt lat="42.94206" lon="-0.7215">
        <ele>2354</ele>
        <time>2013-06-22T07:52:12Z</time>
      </trkpt>
      <trkpt lat="42.94205" lon="-0.72149">
        <ele>2354</ele>
        <time>2013-06-22T07:52:14Z</time>
      </trkpt>
      <trkpt lat="42.94204" lon="-0.72147">
        <ele>2355</ele>
        <time>2013-06-22T07:52:17Z</time>
      </trkpt>
      <trkpt lat="42.94202" lon="-0.72146">
        <ele>2355</ele>
        <time>2013-06-22T07:52:20Z</time>
      </trkpt>
      <trkpt lat="42.94201" lon="-0.72144">
        <ele>2356</ele>
        <time>2013-06-22T07:52:39Z</time>
      </trkpt>
      <trkpt lat="42.942" lon="-0.72142">
        <ele>2356</ele>
        <time>2013-06-22T07:52:41Z</time>
      </trkpt>
      <trkpt lat="42.94199" lon="-0.7214">
        <ele>2356</ele>
        <time>2013-06-22T07:52:44Z</time>
      </trkpt>
      <trkpt lat="42.94199" lon="-0.72139">
        <ele>2357</ele>
        <time>2013-06-22T07:52:56Z</time>
      </trkpt>
      <trkpt lat="42.94199" lon="-0.72141">
        <ele>2358</ele>
        <time>2013-06-22T07:53:44Z</time>
      </trkpt>
      <trkpt lat="42.942" lon="-0.72139">
        <ele>2358</ele>
        <time>2013-06-22T07:54:01Z</time>
      </trkpt>
      <trkpt lat="42.942" lon="-0.72137">
        <ele>2358</ele>
        <time>2013-06-22T07:54:10Z</time>
      </trkpt>
      <trkpt lat="42.94199" lon="-0.72136">
        <ele>2357</ele>
        <time>2013-06-22T07:54:12Z</time>
      </trkpt>
      <trkpt lat="42.94199" lon="-0.72135">
        <ele>2354</ele>
        <time>2013-06-22T07:54:42Z</time>
      </trkpt>
      <trkpt lat="42.94198" lon="-0.72135">
        <ele>2354</ele>
        <time>2013-06-22T07:54:51Z</time>
      </trkpt>
      <trkpt lat="42.94197" lon="-0.72134">
        <ele>2354</ele>
        <time>2013-06-22T07:54:56Z</time>
      </trkpt>
      <trkpt lat="42.94197" lon="-0.72136">
        <ele>2354</ele>
        <time>2013-06-22T07:55:13Z</time>
      </trkpt>
      <trkpt lat="42.94198" lon="-0.72136">
        <ele>2354</ele>
        <time>2013-06-22T07:55:20Z</time>
      </trkpt>
      <trkpt lat="42.94197" lon="-0.72137">
        <ele>2354</ele>
        <time>2013-06-22T07:55:32Z</time>
      </trkpt>
      <trkpt lat="42.94198" lon="-0.72139">
        <ele>2354</ele>
        <time>2013-06-22T07:55:33Z</time>
      </trkpt>
      <trkpt lat="42.94197" lon="-0.72137">
        <ele>2354</ele>
        <time>2013-06-22T07:55:40Z</time>
      </trkpt>
      <trkpt lat="42.94195" lon="-0.72135">
        <ele>2354</ele>
        <time>2013-06-22T07:55:43Z</time>
      </trkpt>
      <trkpt lat="42.94196" lon="-0.72136">
        <ele>2354</ele>
        <time>2013-06-22T07:55:47Z</time>
      </trkpt>
      <trkpt lat="42.94194" lon="-0.72135">
        <ele>2355</ele>
        <time>2013-06-22T07:55:55Z</time>
      </trkpt>
      <trkpt lat="42.94193" lon="-0.72135">
        <ele>2359</ele>
        <time>2013-06-22T07:56:00Z</time>
      </trkpt>
      <trkpt lat="42.94192" lon="-0.72136">
        <ele>2364</ele>
        <time>2013-06-22T07:56:10Z</time>
      </trkpt>
      <trkpt lat="42.94192" lon="-0.72137">
        <ele>2368</ele>
        <time>2013-06-22T07:56:21Z</time>
      </trkpt>
      <trkpt lat="42.94192" lon="-0.72139">
        <ele>2368</ele>
        <time>2013-06-22T07:56:24Z</time>
      </trkpt>
      <trkpt lat="42.94192" lon="-0.72142">
        <ele>2368</ele>
        <time>2013-06-22T07:56:28Z</time>
      </trkpt>
      <trkpt lat="42.94192" lon="-0.72143">
        <ele>2369</ele>
        <time>2013-06-22T07:56:30Z</time>
      </trkpt>
      <trkpt lat="42.94192" lon="-0.72145">
        <ele>2371</ele>
        <time>2013-06-22T07:56:32Z</time>
      </trkpt>
      <trkpt lat="42.94194" lon="-0.72146">
        <ele>2372</ele>
        <time>2013-06-22T07:56:34Z</time>
      </trkpt>
      <trkpt lat="42.94194" lon="-0.72145">
        <ele>2372</ele>
        <time>2013-06-22T07:56:38Z</time>
      </trkpt>
      <trkpt lat="42.94194" lon="-0.72142">
        <ele>2372</ele>
        <time>2013-06-22T07:56:42Z</time>
      </trkpt>
      <trkpt lat="42.94194" lon="-0.72141">
        <ele>2372</ele>
        <time>2013-06-22T07:56:43Z</time>
      </trkpt>
      <trkpt lat="42.94194" lon="-0.72139">
        <ele>2372</ele>
        <time>2013-06-22T07:56:46Z</time>
      </trkpt>
      <trkpt lat="42.94194" lon="-0.72138">
        <ele>2372</ele>
        <time>2013-06-22T07:56:48Z</time>
      </trkpt>
      <trkpt lat="42.94194" lon="-0.72136">
        <ele>2371</ele>
        <time>2013-06-22T07:56:50Z</time>
      </trkpt>
      <trkpt lat="42.94193" lon="-0.72137">
        <ele>2370</ele>
        <time>2013-06-22T07:56:58Z</time>
      </trkpt>
      <trkpt lat="42.94193" lon="-0.72136">
        <ele>2370</ele>
        <time>2013-06-22T07:57:02Z</time>
      </trkpt>
      <trkpt lat="42.94193" lon="-0.72134">
        <ele>2370</ele>
        <time>2013-06-22T07:57:03Z</time>
      </trkpt>
      <trkpt lat="42.94194" lon="-0.72136">
        <ele>2370</ele>
        <time>2013-06-22T07:57:04Z</time>
      </trkpt>
      <trkpt lat="42.94195" lon="-0.72136">
        <ele>2370</ele>
        <time>2013-06-22T07:57:13Z</time>
      </trkpt>
      <trkpt lat="42.94196" lon="-0.72137">
        <ele>2370</ele>
        <time>2013-06-22T07:57:17Z</time>
      </trkpt>
      <trkpt lat="42.94197" lon="-0.72139">
        <ele>2368</ele>
        <time>2013-06-22T07:57:22Z</time>
      </trkpt>
      <trkpt lat="42.94197" lon="-0.7214">
        <ele>2367</ele>
        <time>2013-06-22T07:57:28Z</time>
      </trkpt>
      <trkpt lat="42.94199" lon="-0.72141">
        <ele>2363</ele>
        <time>2013-06-22T07:57:42Z</time>
      </trkpt>
      <trkpt lat="42.94199" lon="-0.7214">
        <ele>2361</ele>
        <time>2013-06-22T07:57:49Z</time>
      </trkpt>
      <trkpt lat="42.94199" lon="-0.72138">
        <ele>2360</ele>
        <time>2013-06-22T07:57:56Z</time>
      </trkpt>
      <trkpt lat="42.94201" lon="-0.72139">
        <ele>2360</ele>
        <time>2013-06-22T07:58:01Z</time>
      </trkpt>
      <trkpt lat="42.94199" lon="-0.72139">
        <ele>2355</ele>
        <time>2013-06-22T07:58:30Z</time>
      </trkpt>
      <trkpt lat="42.94198" lon="-0.72139">
        <ele>2355</ele>
        <time>2013-06-22T07:58:34Z</time>
      </trkpt>
      <trkpt lat="42.94198" lon="-0.72137">
        <ele>2353</ele>
        <time>2013-06-22T07:58:47Z</time>
      </trkpt>
      <trkpt lat="42.94199" lon="-0.72137">
        <ele>2350</ele>
        <time>2013-06-22T07:58:54Z</time>
      </trkpt>
      <trkpt lat="42.94199" lon="-0.72139">
        <ele>2350</ele>
        <time>2013-06-22T07:59:11Z</time>
      </trkpt>
      <trkpt lat="42.94199" lon="-0.72137">
        <ele>2350</ele>
        <time>2013-06-22T07:59:21Z</time>
      </trkpt>
      <trkpt lat="42.942" lon="-0.72136">
        <ele>2350</ele>
        <time>2013-06-22T07:59:33Z</time>
      </trkpt>
      <trkpt lat="42.94199" lon="-0.72134">
        <ele>2350</ele>
        <time>2013-06-22T07:59:35Z</time>
      </trkpt>
      <trkpt lat="42.94199" lon="-0.72136">
        <ele>2348</ele>
        <time>2013-06-22T07:59:47Z</time>
      </trkpt>
      <trkpt lat="42.942" lon="-0.72137">
        <ele>2348</ele>
        <time>2013-06-22T08:00:05Z</time>
      </trkpt>
      <trkpt lat="42.94201" lon="-0.72139">
        <ele>2350</ele>
        <time>2013-06-22T08:00:25Z</time>
      </trkpt>
      <trkpt lat="42.94202" lon="-0.72139">
        <ele>2350</ele>
        <time>2013-06-22T08:00:41Z</time>
      </trkpt>
      <trkpt lat="42.94201" lon="-0.72139">
        <ele>2350</ele>
        <time>2013-06-22T08:00:48Z</time>
      </trkpt>
      <trkpt lat="42.94199" lon="-0.72137">
        <ele>2350</ele>
        <time>2013-06-22T08:00:56Z</time>
      </trkpt>
      <trkpt lat="42.942" lon="-0.72139">
        <ele>2350</ele>
        <time>2013-06-22T08:01:09Z</time>
      </trkpt>
      <trkpt lat="42.94199" lon="-0.7214">
        <ele>2354</ele>
        <time>2013-06-22T08:01:31Z</time>
      </trkpt>
      <trkpt lat="42.94198" lon="-0.72141">
        <ele>2354</ele>
        <time>2013-06-22T08:01:35Z</time>
      </trkpt>
      <trkpt lat="42.94199" lon="-0.7214">
        <ele>2354</ele>
        <time>2013-06-22T08:01:42Z</time>
      </trkpt>
      <trkpt lat="42.94199" lon="-0.72139">
        <ele>2354</ele>
        <time>2013-06-22T08:01:46Z</time>
      </trkpt>
      <trkpt lat="42.94201" lon="-0.72137">
        <ele>2354</ele>
        <time>2013-06-22T08:01:52Z</time>
      </trkpt>
      <trkpt lat="42.942" lon="-0.72139">
        <ele>2354</ele>
        <time>2013-06-22T08:01:59Z</time>
      </trkpt>
      <trkpt lat="42.94199" lon="-0.7214">
        <ele>2354</ele>
        <time>2013-06-22T08:02:05Z</time>
      </trkpt>
      <trkpt lat="42.94201" lon="-0.72141">
        <ele>2354</ele>
        <time>2013-06-22T08:02:11Z</time>
      </trkpt>
      <trkpt lat="42.942" lon="-0.72141">
        <ele>2354</ele>
        <time>2013-06-22T08:02:16Z</time>
      </trkpt>
      <trkpt lat="42.94202" lon="-0.72141">
        <ele>2353</ele>
        <time>2013-06-22T08:02:25Z</time>
      </trkpt>
      <trkpt lat="42.94203" lon="-0.72141">
        <ele>2352</ele>
        <time>2013-06-22T08:02:29Z</time>
      </trkpt>
      <trkpt lat="42.94204" lon="-0.72139">
        <ele>2351</ele>
        <time>2013-06-22T08:02:41Z</time>
      </trkpt>
      <trkpt lat="42.94205" lon="-0.7214">
        <ele>2350</ele>
        <time>2013-06-22T08:02:46Z</time>
      </trkpt>
      <trkpt lat="42.94204" lon="-0.7214">
        <ele>2350</ele>
        <time>2013-06-22T08:03:00Z</time>
      </trkpt>
      <trkpt lat="42.94202" lon="-0.72141">
        <ele>2350</ele>
        <time>2013-06-22T08:03:06Z</time>
      </trkpt>
      <trkpt lat="42.94201" lon="-0.7214">
        <ele>2350</ele>
        <time>2013-06-22T08:03:12Z</time>
      </trkpt>
      <trkpt lat="42.94199" lon="-0.72139">
        <ele>2348</ele>
        <time>2013-06-22T08:03:17Z</time>
      </trkpt>
      <trkpt lat="42.94198" lon="-0.72139">
        <ele>2347</ele>
        <time>2013-06-22T08:03:19Z</time>
      </trkpt>
      <trkpt lat="42.94196" lon="-0.72138">
        <ele>2346</ele>
        <time>2013-06-22T08:03:21Z</time>
      </trkpt>
      <trkpt lat="42.94198" lon="-0.72137">
        <ele>2344</ele>
        <time>2013-06-22T08:03:29Z</time>
      </trkpt>
      <trkpt lat="42.942" lon="-0.72139">
        <ele>2344</ele>
        <time>2013-06-22T08:03:32Z</time>
      </trkpt>
      <trkpt lat="42.942" lon="-0.7214">
        <ele>2345</ele>
        <time>2013-06-22T08:03:56Z</time>
      </trkpt>
      <trkpt lat="42.942" lon="-0.72142">
        <ele>2347</ele>
        <time>2013-06-22T08:04:05Z</time>
      </trkpt>
      <trkpt lat="42.942" lon="-0.7214">
        <ele>2352</ele>
        <time>2013-06-22T08:04:19Z</time>
      </trkpt>
      <trkpt lat="42.94201" lon="-0.72139">
        <ele>2356</ele>
        <time>2013-06-22T08:04:36Z</time>
      </trkpt>
      <trkpt lat="42.94199" lon="-0.7214">
        <ele>2356</ele>
        <time>2013-06-22T08:04:45Z</time>
      </trkpt>
      <trkpt lat="42.94199" lon="-0.72141">
        <ele>2356</ele>
        <time>2013-06-22T08:04:54Z</time>
      </trkpt>
      <trkpt lat="42.94201" lon="-0.72142">
        <ele>2355</ele>
        <time>2013-06-22T08:05:06Z</time>
      </trkpt>
      <trkpt lat="42.94202" lon="-0.72142">
        <ele>2355</ele>
        <time>2013-06-22T08:05:24Z</time>
      </trkpt>
      <trkpt lat="42.94201" lon="-0.72141">
        <ele>2355</ele>
        <time>2013-06-22T08:05:44Z</time>
      </trkpt>
      <trkpt lat="42.942" lon="-0.72143">
        <ele>2355</ele>
        <time>2013-06-22T08:05:56Z</time>
      </trkpt>
      <trkpt lat="42.94199" lon="-0.72144">
        <ele>2355</ele>
        <time>2013-06-22T08:06:08Z</time>
      </trkpt>
      <trkpt lat="42.94199" lon="-0.72143">
        <ele>2356</ele>
        <time>2013-06-22T08:06:32Z</time>
      </trkpt>
      <trkpt lat="42.94201" lon="-0.72142">
        <ele>2356</ele>
        <time>2013-06-22T08:06:36Z</time>
      </trkpt>
      <trkpt lat="42.94202" lon="-0.72143">
        <ele>2356</ele>
        <time>2013-06-22T08:06:47Z</time>
      </trkpt>
      <trkpt lat="42.94203" lon="-0.72142">
        <ele>2356</ele>
        <time>2013-06-22T08:06:56Z</time>
      </trkpt>
      <trkpt lat="42.94204" lon="-0.72143">
        <ele>2356</ele>
        <time>2013-06-22T08:07:08Z</time>
      </trkpt>
      <trkpt lat="42.94206" lon="-0.72144">
        <ele>2356</ele>
        <time>2013-06-22T08:07:10Z</time>
      </trkpt>
      <trkpt lat="42.94207" lon="-0.72145">
        <ele>2356</ele>
        <time>2013-06-22T08:07:12Z</time>
      </trkpt>
      <trkpt lat="42.94207" lon="-0.72147">
        <ele>2356</ele>
        <time>2013-06-22T08:07:14Z</time>
      </trkpt>
      <trkpt lat="42.94206" lon="-0.72148">
        <ele>2356</ele>
        <time>2013-06-22T08:07:16Z</time>
      </trkpt>
      <trkpt lat="42.94205" lon="-0.7215">
        <ele>2356</ele>
        <time>2013-06-22T08:07:18Z</time>
      </trkpt>
      <trkpt lat="42.94204" lon="-0.72152">
        <ele>2356</ele>
        <time>2013-06-22T08:07:21Z</time>
      </trkpt>
      <trkpt lat="42.94204" lon="-0.72154">
        <ele>2355</ele>
        <time>2013-06-22T08:07:24Z</time>
      </trkpt>
      <trkpt lat="42.94203" lon="-0.72155">
        <ele>2354</ele>
        <time>2013-06-22T08:07:27Z</time>
      </trkpt>
      <trkpt lat="42.94204" lon="-0.72156">
        <ele>2354</ele>
        <time>2013-06-22T08:07:30Z</time>
      </trkpt>
      <trkpt lat="42.94205" lon="-0.72157">
        <ele>2353</ele>
        <time>2013-06-22T08:07:32Z</time>
      </trkpt>
      <trkpt lat="42.94207" lon="-0.72158">
        <ele>2353</ele>
        <time>2013-06-22T08:07:35Z</time>
      </trkpt>
      <trkpt lat="42.94208" lon="-0.7216">
        <ele>2353</ele>
        <time>2013-06-22T08:07:38Z</time>
      </trkpt>
      <trkpt lat="42.94209" lon="-0.72162">
        <ele>2352</ele>
        <time>2013-06-22T08:07:41Z</time>
      </trkpt>
      <trkpt lat="42.94208" lon="-0.72163">
        <ele>2352</ele>
        <time>2013-06-22T08:07:44Z</time>
      </trkpt>
      <trkpt lat="42.94207" lon="-0.72165">
        <ele>2351</ele>
        <time>2013-06-22T08:07:47Z</time>
      </trkpt>
      <trkpt lat="42.94208" lon="-0.72166">
        <ele>2351</ele>
        <time>2013-06-22T08:07:50Z</time>
      </trkpt>
      <trkpt lat="42.9421" lon="-0.72168">
        <ele>2350</ele>
        <time>2013-06-22T08:07:53Z</time>
      </trkpt>
      <trkpt lat="42.94211" lon="-0.7217">
        <ele>2350</ele>
        <time>2013-06-22T08:07:56Z</time>
      </trkpt>
      <trkpt lat="42.94213" lon="-0.72171">
        <ele>2350</ele>
        <time>2013-06-22T08:07:59Z</time>
      </trkpt>
      <trkpt lat="42.94214" lon="-0.72173">
        <ele>2350</ele>
        <time>2013-06-22T08:08:02Z</time>
      </trkpt>
      <trkpt lat="42.94216" lon="-0.72175">
        <ele>2349</ele>
        <time>2013-06-22T08:08:05Z</time>
      </trkpt>
      <trkpt lat="42.94217" lon="-0.72177">
        <ele>2349</ele>
        <time>2013-06-22T08:08:08Z</time>
      </trkpt>
      <trkpt lat="42.94219" lon="-0.72179">
        <ele>2349</ele>
        <time>2013-06-22T08:08:11Z</time>
      </trkpt>
      <trkpt lat="42.9422" lon="-0.7218">
        <ele>2349</ele>
        <time>2013-06-22T08:08:13Z</time>
      </trkpt>
      <trkpt lat="42.94221" lon="-0.72182">
        <ele>2349</ele>
        <time>2013-06-22T08:08:16Z</time>
      </trkpt>
      <trkpt lat="42.94222" lon="-0.72184">
        <ele>2349</ele>
        <time>2013-06-22T08:08:19Z</time>
      </trkpt>
      <trkpt lat="42.94223" lon="-0.72185">
        <ele>2349</ele>
        <time>2013-06-22T08:08:22Z</time>
      </trkpt>
      <trkpt lat="42.94224" lon="-0.72186">
        <ele>2348</ele>
        <time>2013-06-22T08:08:30Z</time>
      </trkpt>
      <trkpt lat="42.94225" lon="-0.72188">
        <ele>2348</ele>
        <time>2013-06-22T08:08:33Z</time>
      </trkpt>
      <trkpt lat="42.94226" lon="-0.72189">
        <ele>2348</ele>
        <time>2013-06-22T08:08:36Z</time>
      </trkpt>
      <trkpt lat="42.94228" lon="-0.72191">
        <ele>2348</ele>
        <time>2013-06-22T08:08:39Z</time>
      </trkpt>
      <trkpt lat="42.94229" lon="-0.72193">
        <ele>2347</ele>
        <time>2013-06-22T08:08:42Z</time>
      </trkpt>
      <trkpt lat="42.9423" lon="-0.72194">
        <ele>2347</ele>
        <time>2013-06-22T08:08:45Z</time>
      </trkpt>
      <trkpt lat="42.94231" lon="-0.72196">
        <ele>2347</ele>
        <time>2013-06-22T08:08:49Z</time>
      </trkpt>
      <trkpt lat="42.94231" lon="-0.72197">
        <ele>2346</ele>
        <time>2013-06-22T08:08:52Z</time>
      </trkpt>
      <trkpt lat="42.94232" lon="-0.72199">
        <ele>2346</ele>
        <time>2013-06-22T08:08:55Z</time>
      </trkpt>
      <trkpt lat="42.94233" lon="-0.722">
        <ele>2346</ele>
        <time>2013-06-22T08:08:58Z</time>
      </trkpt>
      <trkpt lat="42.94233" lon="-0.72202">
        <ele>2345</ele>
        <time>2013-06-22T08:09:01Z</time>
      </trkpt>
      <trkpt lat="42.94235" lon="-0.72203">
        <ele>2345</ele>
        <time>2013-06-22T08:09:05Z</time>
      </trkpt>
      <trkpt lat="42.94236" lon="-0.72205">
        <ele>2344</ele>
        <time>2013-06-22T08:09:10Z</time>
      </trkpt>
      <trkpt lat="42.94237" lon="-0.72207">
        <ele>2344</ele>
        <time>2013-06-22T08:09:14Z</time>
      </trkpt>
      <trkpt lat="42.94238" lon="-0.72208">
        <ele>2344</ele>
        <time>2013-06-22T08:09:17Z</time>
      </trkpt>
      <trkpt lat="42.94239" lon="-0.72211">
        <ele>2344</ele>
        <time>2013-06-22T08:09:20Z</time>
      </trkpt>
      <trkpt lat="42.9424" lon="-0.72212">
        <ele>2344</ele>
        <time>2013-06-22T08:09:23Z</time>
      </trkpt>
      <trkpt lat="42.94241" lon="-0.72214">
        <ele>2344</ele>
        <time>2013-06-22T08:09:26Z</time>
      </trkpt>
      <trkpt lat="42.94241" lon="-0.72216">
        <ele>2344</ele>
        <time>2013-06-22T08:09:29Z</time>
      </trkpt>
      <trkpt lat="42.94243" lon="-0.72217">
        <ele>2344</ele>
        <time>2013-06-22T08:09:32Z</time>
      </trkpt>
      <trkpt lat="42.94244" lon="-0.72219">
        <ele>2344</ele>
        <time>2013-06-22T08:09:35Z</time>
      </trkpt>
      <trkpt lat="42.94245" lon="-0.7222">
        <ele>2344</ele>
        <time>2013-06-22T08:09:41Z</time>
      </trkpt>
      <trkpt lat="42.94246" lon="-0.72221">
        <ele>2344</ele>
        <time>2013-06-22T08:09:45Z</time>
      </trkpt>
      <trkpt lat="42.94247" lon="-0.72223">
        <ele>2344</ele>
        <time>2013-06-22T08:09:49Z</time>
      </trkpt>
      <trkpt lat="42.94248" lon="-0.72225">
        <ele>2344</ele>
        <time>2013-06-22T08:09:52Z</time>
      </trkpt>
      <trkpt lat="42.94249" lon="-0.72227">
        <ele>2344</ele>
        <time>2013-06-22T08:09:55Z</time>
      </trkpt>
      <trkpt lat="42.9425" lon="-0.72228">
        <ele>2344</ele>
        <time>2013-06-22T08:09:58Z</time>
      </trkpt>
      <trkpt lat="42.94251" lon="-0.7223">
        <ele>2344</ele>
        <time>2013-06-22T08:10:09Z</time>
      </trkpt>
      <trkpt lat="42.94252" lon="-0.72231">
        <ele>2344</ele>
        <time>2013-06-22T08:10:12Z</time>
      </trkpt>
      <trkpt lat="42.94253" lon="-0.72233">
        <ele>2344</ele>
        <time>2013-06-22T08:10:15Z</time>
      </trkpt>
      <trkpt lat="42.94254" lon="-0.72234">
        <ele>2344</ele>
        <time>2013-06-22T08:10:18Z</time>
      </trkpt>
      <trkpt lat="42.94255" lon="-0.72236">
        <ele>2344</ele>
        <time>2013-06-22T08:10:21Z</time>
      </trkpt>
      <trkpt lat="42.94256" lon="-0.72237">
        <ele>2344</ele>
        <time>2013-06-22T08:10:24Z</time>
      </trkpt>
      <trkpt lat="42.94257" lon="-0.72238">
        <ele>2344</ele>
        <time>2013-06-22T08:10:27Z</time>
      </trkpt>
      <trkpt lat="42.94258" lon="-0.7224">
        <ele>2344</ele>
        <time>2013-06-22T08:10:31Z</time>
      </trkpt>
      <trkpt lat="42.9426" lon="-0.72241">
        <ele>2344</ele>
        <time>2013-06-22T08:10:34Z</time>
      </trkpt>
      <trkpt lat="42.94261" lon="-0.72243">
        <ele>2344</ele>
        <time>2013-06-22T08:10:38Z</time>
      </trkpt>
      <trkpt lat="42.94262" lon="-0.72245">
        <ele>2344</ele>
        <time>2013-06-22T08:10:41Z</time>
      </trkpt>
      <trkpt lat="42.94263" lon="-0.72247">
        <ele>2344</ele>
        <time>2013-06-22T08:10:44Z</time>
      </trkpt>
      <trkpt lat="42.94265" lon="-0.72248">
        <ele>2344</ele>
        <time>2013-06-22T08:10:48Z</time>
      </trkpt>
      <trkpt lat="42.94265" lon="-0.7225">
        <ele>2344</ele>
        <time>2013-06-22T08:11:01Z</time>
      </trkpt>
      <trkpt lat="42.94267" lon="-0.72251">
        <ele>2344</ele>
        <time>2013-06-22T08:11:05Z</time>
      </trkpt>
      <trkpt lat="42.94267" lon="-0.72253">
        <ele>2344</ele>
        <time>2013-06-22T08:11:07Z</time>
      </trkpt>
      <trkpt lat="42.94268" lon="-0.72255">
        <ele>2344</ele>
        <time>2013-06-22T08:11:10Z</time>
      </trkpt>
      <trkpt lat="42.94269" lon="-0.72257">
        <ele>2344</ele>
        <time>2013-06-22T08:11:12Z</time>
      </trkpt>
      <trkpt lat="42.9427" lon="-0.72259">
        <ele>2344</ele>
        <time>2013-06-22T08:11:14Z</time>
      </trkpt>
      <trkpt lat="42.94272" lon="-0.7226">
        <ele>2344</ele>
        <time>2013-06-22T08:11:16Z</time>
      </trkpt>
      <trkpt lat="42.94273" lon="-0.72262">
        <ele>2344</ele>
        <time>2013-06-22T08:11:19Z</time>
      </trkpt>
      <trkpt lat="42.94274" lon="-0.72263">
        <ele>2344</ele>
        <time>2013-06-22T08:11:21Z</time>
      </trkpt>
      <trkpt lat="42.94275" lon="-0.72265">
        <ele>2344</ele>
        <time>2013-06-22T08:11:23Z</time>
      </trkpt>
      <trkpt lat="42.94276" lon="-0.72266">
        <ele>2344</ele>
        <time>2013-06-22T08:11:26Z</time>
      </trkpt>
      <trkpt lat="42.94277" lon="-0.72268">
        <ele>2344</ele>
        <time>2013-06-22T08:11:31Z</time>
      </trkpt>
      <trkpt lat="42.94278" lon="-0.72269">
        <ele>2344</ele>
        <time>2013-06-22T08:11:34Z</time>
      </trkpt>
      <trkpt lat="42.94279" lon="-0.72271">
        <ele>2344</ele>
        <time>2013-06-22T08:11:37Z</time>
      </trkpt>
      <trkpt lat="42.94281" lon="-0.72272">
        <ele>2344</ele>
        <time>2013-06-22T08:11:40Z</time>
      </trkpt>
      <trkpt lat="42.94282" lon="-0.72273">
        <ele>2344</ele>
        <time>2013-06-22T08:11:43Z</time>
      </trkpt>
      <trkpt lat="42.94283" lon="-0.72274">
        <ele>2344</ele>
        <time>2013-06-22T08:11:46Z</time>
      </trkpt>
      <trkpt lat="42.94284" lon="-0.72276">
        <ele>2344</ele>
        <time>2013-06-22T08:11:59Z</time>
      </trkpt>
      <trkpt lat="42.94285" lon="-0.72277">
        <ele>2344</ele>
        <time>2013-06-22T08:12:23Z</time>
      </trkpt>
      <trkpt lat="42.94286" lon="-0.72277">
        <ele>2344</ele>
        <time>2013-06-22T08:12:25Z</time>
      </trkpt>
      <trkpt lat="42.94287" lon="-0.72278">
        <ele>2344</ele>
        <time>2013-06-22T08:12:28Z</time>
      </trkpt>
      <trkpt lat="42.94287" lon="-0.72277">
        <ele>2344</ele>
        <time>2013-06-22T08:12:46Z</time>
      </trkpt>
      <trkpt lat="42.94287" lon="-0.72275">
        <ele>2345</ele>
        <time>2013-06-22T08:12:57Z</time>
      </trkpt>
      <trkpt lat="42.94287" lon="-0.72273">
        <ele>2345</ele>
        <time>2013-06-22T08:13:00Z</time>
      </trkpt>
      <trkpt lat="42.94287" lon="-0.72272">
        <ele>2346</ele>
        <time>2013-06-22T08:13:03Z</time>
      </trkpt>
      <trkpt lat="42.94286" lon="-0.7227">
        <ele>2347</ele>
        <time>2013-06-22T08:13:06Z</time>
      </trkpt>
      <trkpt lat="42.94286" lon="-0.72268">
        <ele>2347</ele>
        <time>2013-06-22T08:13:11Z</time>
      </trkpt>
      <trkpt lat="42.94287" lon="-0.72267">
        <ele>2348</ele>
        <time>2013-06-22T08:13:19Z</time>
      </trkpt>
      <trkpt lat="42.94288" lon="-0.72265">
        <ele>2350</ele>
        <time>2013-06-22T08:13:43Z</time>
      </trkpt>
      <trkpt lat="42.94287" lon="-0.72263">
        <ele>2350</ele>
        <time>2013-06-22T08:13:46Z</time>
      </trkpt>
      <trkpt lat="42.94287" lon="-0.72261">
        <ele>2350</ele>
        <time>2013-06-22T08:13:49Z</time>
      </trkpt>
      <trkpt lat="42.94286" lon="-0.72259">
        <ele>2350</ele>
        <time>2013-06-22T08:13:51Z</time>
      </trkpt>
      <trkpt lat="42.94286" lon="-0.72258">
        <ele>2350</ele>
        <time>2013-06-22T08:13:53Z</time>
      </trkpt>
      <trkpt lat="42.94285" lon="-0.72255">
        <ele>2351</ele>
        <time>2013-06-22T08:13:56Z</time>
      </trkpt>
      <trkpt lat="42.94284" lon="-0.72254">
        <ele>2351</ele>
        <time>2013-06-22T08:13:58Z</time>
      </trkpt>
      <trkpt lat="42.94284" lon="-0.72252">
        <ele>2351</ele>
        <time>2013-06-22T08:14:01Z</time>
      </trkpt>
      <trkpt lat="42.94283" lon="-0.7225">
        <ele>2351</ele>
        <time>2013-06-22T08:14:03Z</time>
      </trkpt>
      <trkpt lat="42.94282" lon="-0.72248">
        <ele>2352</ele>
        <time>2013-06-22T08:14:05Z</time>
      </trkpt>
      <trkpt lat="42.94281" lon="-0.72246">
        <ele>2352</ele>
        <time>2013-06-22T08:14:07Z</time>
      </trkpt>
      <trkpt lat="42.94281" lon="-0.72245">
        <ele>2353</ele>
        <time>2013-06-22T08:14:13Z</time>
      </trkpt>
      <trkpt lat="42.94281" lon="-0.72243">
        <ele>2353</ele>
        <time>2013-06-22T08:14:43Z</time>
      </trkpt>
      <trkpt lat="42.9428" lon="-0.72242">
        <ele>2353</ele>
        <time>2013-06-22T08:14:46Z</time>
      </trkpt>
      <trkpt lat="42.9428" lon="-0.7224">
        <ele>2353</ele>
        <time>2013-06-22T08:14:48Z</time>
      </trkpt>
      <trkpt lat="42.94279" lon="-0.72238">
        <ele>2353</ele>
        <time>2013-06-22T08:14:50Z</time>
      </trkpt>
      <trkpt lat="42.94278" lon="-0.72237">
        <ele>2353</ele>
        <time>2013-06-22T08:14:53Z</time>
      </trkpt>
      <trkpt lat="42.94278" lon="-0.72235">
        <ele>2354</ele>
        <time>2013-06-22T08:14:56Z</time>
      </trkpt>
      <trkpt lat="42.94278" lon="-0.72233">
        <ele>2355</ele>
        <time>2013-06-22T08:14:58Z</time>
      </trkpt>
      <trkpt lat="42.94279" lon="-0.72233">
        <ele>2356</ele>
        <time>2013-06-22T08:15:01Z</time>
      </trkpt>
      <trkpt lat="42.94281" lon="-0.72233">
        <ele>2356</ele>
        <time>2013-06-22T08:15:04Z</time>
      </trkpt>
      <trkpt lat="42.94282" lon="-0.72234">
        <ele>2357</ele>
        <time>2013-06-22T08:15:06Z</time>
      </trkpt>
      <trkpt lat="42.94284" lon="-0.72234">
        <ele>2357</ele>
        <time>2013-06-22T08:15:09Z</time>
      </trkpt>
      <trkpt lat="42.94285" lon="-0.72234">
        <ele>2357</ele>
        <time>2013-06-22T08:15:11Z</time>
      </trkpt>
      <trkpt lat="42.94286" lon="-0.72235">
        <ele>2357</ele>
        <time>2013-06-22T08:15:13Z</time>
      </trkpt>
      <trkpt lat="42.94287" lon="-0.72235">
        <ele>2358</ele>
        <time>2013-06-22T08:15:15Z</time>
      </trkpt>
      <trkpt lat="42.94289" lon="-0.72235">
        <ele>2358</ele>
        <time>2013-06-22T08:15:17Z</time>
      </trkpt>
      <trkpt lat="42.9429" lon="-0.72236">
        <ele>2358</ele>
        <time>2013-06-22T08:15:20Z</time>
      </trkpt>
      <trkpt lat="42.94291" lon="-0.72236">
        <ele>2360</ele>
        <time>2013-06-22T08:15:44Z</time>
      </trkpt>
      <trkpt lat="42.94293" lon="-0.72237">
        <ele>2360</ele>
        <time>2013-06-22T08:15:49Z</time>
      </trkpt>
      <trkpt lat="42.94294" lon="-0.72237">
        <ele>2360</ele>
        <time>2013-06-22T08:15:58Z</time>
      </trkpt>
      <trkpt lat="42.94296" lon="-0.72238">
        <ele>2360</ele>
        <time>2013-06-22T08:16:02Z</time>
      </trkpt>
      <trkpt lat="42.94297" lon="-0.72238">
        <ele>2360</ele>
        <time>2013-06-22T08:16:05Z</time>
      </trkpt>
      <trkpt lat="42.94299" lon="-0.72238">
        <ele>2361</ele>
        <time>2013-06-22T08:16:08Z</time>
      </trkpt>
      <trkpt lat="42.943" lon="-0.72239">
        <ele>2362</ele>
        <time>2013-06-22T08:16:13Z</time>
      </trkpt>
      <trkpt lat="42.94301" lon="-0.7224">
        <ele>2362</ele>
        <time>2013-06-22T08:16:16Z</time>
      </trkpt>
      <trkpt lat="42.94302" lon="-0.7224">
        <ele>2362</ele>
        <time>2013-06-22T08:16:18Z</time>
      </trkpt>
      <trkpt lat="42.94304" lon="-0.7224">
        <ele>2363</ele>
        <time>2013-06-22T08:16:21Z</time>
      </trkpt>
      <trkpt lat="42.94304" lon="-0.72238">
        <ele>2364</ele>
        <time>2013-06-22T08:16:24Z</time>
      </trkpt>
      <trkpt lat="42.94303" lon="-0.72237">
        <ele>2365</ele>
        <time>2013-06-22T08:16:26Z</time>
      </trkpt>
      <trkpt lat="42.94303" lon="-0.72235">
        <ele>2365</ele>
        <time>2013-06-22T08:16:28Z</time>
      </trkpt>
      <trkpt lat="42.94302" lon="-0.72233">
        <ele>2365</ele>
        <time>2013-06-22T08:16:30Z</time>
      </trkpt>
      <trkpt lat="42.94302" lon="-0.72231">
        <ele>2366</ele>
        <time>2013-06-22T08:16:32Z</time>
      </trkpt>
      <trkpt lat="42.94302" lon="-0.7223">
        <ele>2366</ele>
        <time>2013-06-22T08:16:34Z</time>
      </trkpt>
      <trkpt lat="42.94301" lon="-0.72228">
        <ele>2367</ele>
        <time>2013-06-22T08:16:36Z</time>
      </trkpt>
      <trkpt lat="42.94301" lon="-0.72227">
        <ele>2369</ele>
        <time>2013-06-22T08:16:50Z</time>
      </trkpt>
      <trkpt lat="42.94301" lon="-0.72225">
        <ele>2369</ele>
        <time>2013-06-22T08:16:52Z</time>
      </trkpt>
      <trkpt lat="42.943" lon="-0.72223">
        <ele>2369</ele>
        <time>2013-06-22T08:16:54Z</time>
      </trkpt>
      <trkpt lat="42.94299" lon="-0.72221">
        <ele>2369</ele>
        <time>2013-06-22T08:16:56Z</time>
      </trkpt>
      <trkpt lat="42.943" lon="-0.72219">
        <ele>2369</ele>
        <time>2013-06-22T08:17:05Z</time>
      </trkpt>
      <trkpt lat="42.94299" lon="-0.72218">
        <ele>2369</ele>
        <time>2013-06-22T08:17:07Z</time>
      </trkpt>
      <trkpt lat="42.94298" lon="-0.72216">
        <ele>2369</ele>
        <time>2013-06-22T08:17:09Z</time>
      </trkpt>
      <trkpt lat="42.94297" lon="-0.72214">
        <ele>2369</ele>
        <time>2013-06-22T08:17:11Z</time>
      </trkpt>
      <trkpt lat="42.94297" lon="-0.72212">
        <ele>2369</ele>
        <time>2013-06-22T08:17:13Z</time>
      </trkpt>
      <trkpt lat="42.94296" lon="-0.72211">
        <ele>2369</ele>
        <time>2013-06-22T08:17:16Z</time>
      </trkpt>
      <trkpt lat="42.94295" lon="-0.72209">
        <ele>2370</ele>
        <time>2013-06-22T08:17:20Z</time>
      </trkpt>
      <trkpt lat="42.94295" lon="-0.72207">
        <ele>2371</ele>
        <time>2013-06-22T08:17:22Z</time>
      </trkpt>
      <trkpt lat="42.94294" lon="-0.72205">
        <ele>2371</ele>
        <time>2013-06-22T08:17:24Z</time>
      </trkpt>
      <trkpt lat="42.94293" lon="-0.72203">
        <ele>2371</ele>
        <time>2013-06-22T08:17:26Z</time>
      </trkpt>
      <trkpt lat="42.94292" lon="-0.72201">
        <ele>2371</ele>
        <time>2013-06-22T08:17:28Z</time>
      </trkpt>
      <trkpt lat="42.94292" lon="-0.722">
        <ele>2371</ele>
        <time>2013-06-22T08:17:30Z</time>
      </trkpt>
      <trkpt lat="42.94291" lon="-0.72198">
        <ele>2373</ele>
        <time>2013-06-22T08:17:47Z</time>
      </trkpt>
      <trkpt lat="42.94289" lon="-0.72197">
        <ele>2373</ele>
        <time>2013-06-22T08:17:50Z</time>
      </trkpt>
      <trkpt lat="42.94289" lon="-0.72195">
        <ele>2373</ele>
        <time>2013-06-22T08:17:52Z</time>
      </trkpt>
      <trkpt lat="42.94287" lon="-0.72193">
        <ele>2374</ele>
        <time>2013-06-22T08:17:54Z</time>
      </trkpt>
      <trkpt lat="42.94286" lon="-0.72191">
        <ele>2374</ele>
        <time>2013-06-22T08:17:57Z</time>
      </trkpt>
      <trkpt lat="42.94285" lon="-0.7219">
        <ele>2375</ele>
        <time>2013-06-22T08:18:00Z</time>
      </trkpt>
      <trkpt lat="42.94284" lon="-0.72188">
        <ele>2376</ele>
        <time>2013-06-22T08:18:02Z</time>
      </trkpt>
      <trkpt lat="42.94283" lon="-0.72186">
        <ele>2376</ele>
        <time>2013-06-22T08:18:04Z</time>
      </trkpt>
      <trkpt lat="42.94283" lon="-0.72185">
        <ele>2376</ele>
        <time>2013-06-22T08:18:06Z</time>
      </trkpt>
      <trkpt lat="42.94282" lon="-0.72183">
        <ele>2376</ele>
        <time>2013-06-22T08:18:08Z</time>
      </trkpt>
      <trkpt lat="42.94281" lon="-0.72181">
        <ele>2376</ele>
        <time>2013-06-22T08:18:10Z</time>
      </trkpt>
      <trkpt lat="42.94283" lon="-0.7218">
        <ele>2376</ele>
        <time>2013-06-22T08:18:12Z</time>
      </trkpt>
      <trkpt lat="42.94284" lon="-0.72181">
        <ele>2376</ele>
        <time>2013-06-22T08:18:14Z</time>
      </trkpt>
      <trkpt lat="42.94286" lon="-0.72181">
        <ele>2376</ele>
        <time>2013-06-22T08:18:16Z</time>
      </trkpt>
      <trkpt lat="42.94287" lon="-0.72181">
        <ele>2376</ele>
        <time>2013-06-22T08:18:18Z</time>
      </trkpt>
      <trkpt lat="42.94288" lon="-0.72181">
        <ele>2376</ele>
        <time>2013-06-22T08:18:20Z</time>
      </trkpt>
      <trkpt lat="42.9429" lon="-0.72183">
        <ele>2376</ele>
        <time>2013-06-22T08:18:22Z</time>
      </trkpt>
      <trkpt lat="42.94291" lon="-0.72183">
        <ele>2376</ele>
        <time>2013-06-22T08:18:24Z</time>
      </trkpt>
      <trkpt lat="42.94292" lon="-0.72183">
        <ele>2376</ele>
        <time>2013-06-22T08:18:26Z</time>
      </trkpt>
      <trkpt lat="42.94294" lon="-0.72182">
        <ele>2377</ele>
        <time>2013-06-22T08:18:28Z</time>
      </trkpt>
      <trkpt lat="42.94294" lon="-0.72183">
        <ele>2377</ele>
        <time>2013-06-22T08:18:33Z</time>
      </trkpt>
      <trkpt lat="42.94293" lon="-0.72185">
        <ele>2379</ele>
        <time>2013-06-22T08:18:44Z</time>
      </trkpt>
      <trkpt lat="42.94294" lon="-0.72186">
        <ele>2381</ele>
        <time>2013-06-22T08:19:01Z</time>
      </trkpt>
      <trkpt lat="42.94296" lon="-0.72186">
        <ele>2381</ele>
        <time>2013-06-22T08:19:03Z</time>
      </trkpt>
      <trkpt lat="42.94297" lon="-0.72187">
        <ele>2381</ele>
        <time>2013-06-22T08:19:05Z</time>
      </trkpt>
      <trkpt lat="42.94299" lon="-0.72187">
        <ele>2381</ele>
        <time>2013-06-22T08:19:07Z</time>
      </trkpt>
      <trkpt lat="42.943" lon="-0.72188">
        <ele>2381</ele>
        <time>2013-06-22T08:19:09Z</time>
      </trkpt>
      <trkpt lat="42.94302" lon="-0.72187">
        <ele>2381</ele>
        <time>2013-06-22T08:19:12Z</time>
      </trkpt>
      <trkpt lat="42.94303" lon="-0.72187">
        <ele>2381</ele>
        <time>2013-06-22T08:19:14Z</time>
      </trkpt>
      <trkpt lat="42.94304" lon="-0.72188">
        <ele>2381</ele>
        <time>2013-06-22T08:19:16Z</time>
      </trkpt>
      <trkpt lat="42.94305" lon="-0.72188">
        <ele>2381</ele>
        <time>2013-06-22T08:19:18Z</time>
      </trkpt>
      <trkpt lat="42.94306" lon="-0.72188">
        <ele>2381</ele>
        <time>2013-06-22T08:19:20Z</time>
      </trkpt>
      <trkpt lat="42.94308" lon="-0.72188">
        <ele>2381</ele>
        <time>2013-06-22T08:19:22Z</time>
      </trkpt>
      <trkpt lat="42.94309" lon="-0.72188">
        <ele>2381</ele>
        <time>2013-06-22T08:19:24Z</time>
      </trkpt>
      <trkpt lat="42.94311" lon="-0.72188">
        <ele>2381</ele>
        <time>2013-06-22T08:19:27Z</time>
      </trkpt>
      <trkpt lat="42.94312" lon="-0.72189">
        <ele>2382</ele>
        <time>2013-06-22T08:19:30Z</time>
      </trkpt>
      <trkpt lat="42.94313" lon="-0.72189">
        <ele>2382</ele>
        <time>2013-06-22T08:19:32Z</time>
      </trkpt>
      <trkpt lat="42.94312" lon="-0.7219">
        <ele>2383</ele>
        <time>2013-06-22T08:19:55Z</time>
      </trkpt>
      <trkpt lat="42.94313" lon="-0.7219">
        <ele>2383</ele>
        <time>2013-06-22T08:20:06Z</time>
      </trkpt>
      <trkpt lat="42.94315" lon="-0.72191">
        <ele>2383</ele>
        <time>2013-06-22T08:20:14Z</time>
      </trkpt>
      <trkpt lat="42.94316" lon="-0.72191">
        <ele>2383</ele>
        <time>2013-06-22T08:20:19Z</time>
      </trkpt>
      <trkpt lat="42.94316" lon="-0.72189">
        <ele>2384</ele>
        <time>2013-06-22T08:20:24Z</time>
      </trkpt>
      <trkpt lat="42.94316" lon="-0.72188">
        <ele>2385</ele>
        <time>2013-06-22T08:20:31Z</time>
      </trkpt>
      <trkpt lat="42.94315" lon="-0.72186">
        <ele>2386</ele>
        <time>2013-06-22T08:20:36Z</time>
      </trkpt>
      <trkpt lat="42.94315" lon="-0.72184">
        <ele>2387</ele>
        <time>2013-06-22T08:20:40Z</time>
      </trkpt>
      <trkpt lat="42.94314" lon="-0.72182">
        <ele>2388</ele>
        <time>2013-06-22T08:20:44Z</time>
      </trkpt>
      <trkpt lat="42.94314" lon="-0.72181">
        <ele>2389</ele>
        <time>2013-06-22T08:20:46Z</time>
      </trkpt>
      <trkpt lat="42.94313" lon="-0.72179">
        <ele>2389</ele>
        <time>2013-06-22T08:20:49Z</time>
      </trkpt>
      <trkpt lat="42.94313" lon="-0.72177">
        <ele>2390</ele>
        <time>2013-06-22T08:21:17Z</time>
      </trkpt>
      <trkpt lat="42.94315" lon="-0.72176">
        <ele>2390</ele>
        <time>2013-06-22T08:21:20Z</time>
      </trkpt>
      <trkpt lat="42.94316" lon="-0.72177">
        <ele>2390</ele>
        <time>2013-06-22T08:21:25Z</time>
      </trkpt>
      <trkpt lat="42.94317" lon="-0.72177">
        <ele>2390</ele>
        <time>2013-06-22T08:21:27Z</time>
      </trkpt>
      <trkpt lat="42.94319" lon="-0.72177">
        <ele>2390</ele>
        <time>2013-06-22T08:21:30Z</time>
      </trkpt>
      <trkpt lat="42.9432" lon="-0.72177">
        <ele>2390</ele>
        <time>2013-06-22T08:21:34Z</time>
      </trkpt>
      <trkpt lat="42.94321" lon="-0.72177">
        <ele>2390</ele>
        <time>2013-06-22T08:21:38Z</time>
      </trkpt>
      <trkpt lat="42.94323" lon="-0.72178">
        <ele>2391</ele>
        <time>2013-06-22T08:21:41Z</time>
      </trkpt>
      <trkpt lat="42.94324" lon="-0.72178">
        <ele>2391</ele>
        <time>2013-06-22T08:21:43Z</time>
      </trkpt>
      <trkpt lat="42.94326" lon="-0.72179">
        <ele>2392</ele>
        <time>2013-06-22T08:21:46Z</time>
      </trkpt>
      <trkpt lat="42.94327" lon="-0.72179">
        <ele>2392</ele>
        <time>2013-06-22T08:21:49Z</time>
      </trkpt>
      <trkpt lat="42.94326" lon="-0.72177">
        <ele>2393</ele>
        <time>2013-06-22T08:22:11Z</time>
      </trkpt>
      <trkpt lat="42.94326" lon="-0.72176">
        <ele>2394</ele>
        <time>2013-06-22T08:22:14Z</time>
      </trkpt>
      <trkpt lat="42.94325" lon="-0.72174">
        <ele>2394</ele>
        <time>2013-06-22T08:22:17Z</time>
      </trkpt>
      <trkpt lat="42.94325" lon="-0.72173">
        <ele>2396</ele>
        <time>2013-06-22T08:22:21Z</time>
      </trkpt>
      <trkpt lat="42.94324" lon="-0.72171">
        <ele>2397</ele>
        <time>2013-06-22T08:22:23Z</time>
      </trkpt>
      <trkpt lat="42.94323" lon="-0.72169">
        <ele>2398</ele>
        <time>2013-06-22T08:22:27Z</time>
      </trkpt>
      <trkpt lat="42.94323" lon="-0.72168">
        <ele>2400</ele>
        <time>2013-06-22T08:22:31Z</time>
      </trkpt>
      <trkpt lat="42.94322" lon="-0.72166">
        <ele>2400</ele>
        <time>2013-06-22T08:22:34Z</time>
      </trkpt>
      <trkpt lat="42.94321" lon="-0.72166">
        <ele>2402</ele>
        <time>2013-06-22T08:22:55Z</time>
      </trkpt>
      <trkpt lat="42.94321" lon="-0.72165">
        <ele>2404</ele>
        <time>2013-06-22T08:23:01Z</time>
      </trkpt>
      <trkpt lat="42.94321" lon="-0.72163">
        <ele>2404</ele>
        <time>2013-06-22T08:23:03Z</time>
      </trkpt>
      <trkpt lat="42.94321" lon="-0.72162">
        <ele>2404</ele>
        <time>2013-06-22T08:23:05Z</time>
      </trkpt>
      <trkpt lat="42.94321" lon="-0.7216">
        <ele>2404</ele>
        <time>2013-06-22T08:23:08Z</time>
      </trkpt>
      <trkpt lat="42.9432" lon="-0.72158">
        <ele>2404</ele>
        <time>2013-06-22T08:23:11Z</time>
      </trkpt>
      <trkpt lat="42.94319" lon="-0.72157">
        <ele>2405</ele>
        <time>2013-06-22T08:23:14Z</time>
      </trkpt>
      <trkpt lat="42.94318" lon="-0.72155">
        <ele>2405</ele>
        <time>2013-06-22T08:23:17Z</time>
      </trkpt>
      <trkpt lat="42.94318" lon="-0.72153">
        <ele>2405</ele>
        <time>2013-06-22T08:23:20Z</time>
      </trkpt>
      <trkpt lat="42.94318" lon="-0.72152">
        <ele>2406</ele>
        <time>2013-06-22T08:23:38Z</time>
      </trkpt>
      <trkpt lat="42.94318" lon="-0.7215">
        <ele>2406</ele>
        <time>2013-06-22T08:23:41Z</time>
      </trkpt>
      <trkpt lat="42.94317" lon="-0.72149">
        <ele>2406</ele>
        <time>2013-06-22T08:23:43Z</time>
      </trkpt>
      <trkpt lat="42.94315" lon="-0.72148">
        <ele>2406</ele>
        <time>2013-06-22T08:23:46Z</time>
      </trkpt>
      <trkpt lat="42.94314" lon="-0.72147">
        <ele>2406</ele>
        <time>2013-06-22T08:23:48Z</time>
      </trkpt>
      <trkpt lat="42.94313" lon="-0.72147">
        <ele>2407</ele>
        <time>2013-06-22T08:23:51Z</time>
      </trkpt>
      <trkpt lat="42.94311" lon="-0.72147">
        <ele>2407</ele>
        <time>2013-06-22T08:23:53Z</time>
      </trkpt>
      <trkpt lat="42.94309" lon="-0.72147">
        <ele>2408</ele>
        <time>2013-06-22T08:23:56Z</time>
      </trkpt>
      <trkpt lat="42.94308" lon="-0.72146">
        <ele>2409</ele>
        <time>2013-06-22T08:24:00Z</time>
      </trkpt>
      <trkpt lat="42.94307" lon="-0.72145">
        <ele>2410</ele>
        <time>2013-06-22T08:24:26Z</time>
      </trkpt>
      <trkpt lat="42.94306" lon="-0.72144">
        <ele>2410</ele>
        <time>2013-06-22T08:24:31Z</time>
      </trkpt>
      <trkpt lat="42.94307" lon="-0.72145">
        <ele>2410</ele>
        <time>2013-06-22T08:24:49Z</time>
      </trkpt>
      <trkpt lat="42.94308" lon="-0.72143">
        <ele>2410</ele>
        <time>2013-06-22T08:25:05Z</time>
      </trkpt>
      <trkpt lat="42.94308" lon="-0.72142">
        <ele>2410</ele>
        <time>2013-06-22T08:25:09Z</time>
      </trkpt>
      <trkpt lat="42.94307" lon="-0.7214">
        <ele>2407</ele>
        <time>2013-06-22T08:25:21Z</time>
      </trkpt>
      <trkpt lat="42.94307" lon="-0.72139">
        <ele>2407</ele>
        <time>2013-06-22T08:25:27Z</time>
      </trkpt>
      <trkpt lat="42.94306" lon="-0.7214">
        <ele>2404</ele>
        <time>2013-06-22T08:25:39Z</time>
      </trkpt>
      <trkpt lat="42.94306" lon="-0.72141">
        <ele>2404</ele>
        <time>2013-06-22T08:25:43Z</time>
      </trkpt>
      <trkpt lat="42.94307" lon="-0.72141">
        <ele>2406</ele>
        <time>2013-06-22T08:26:02Z</time>
      </trkpt>
      <trkpt lat="42.94307" lon="-0.72142">
        <ele>2407</ele>
        <time>2013-06-22T08:26:08Z</time>
      </trkpt>
      <trkpt lat="42.94307" lon="-0.72141">
        <ele>2407</ele>
        <time>2013-06-22T08:26:17Z</time>
      </trkpt>
      <trkpt lat="42.94307" lon="-0.7214">
        <ele>2407</ele>
        <time>2013-06-22T08:26:25Z</time>
      </trkpt>
      <trkpt lat="42.94307" lon="-0.72141">
        <ele>2407</ele>
        <time>2013-06-22T08:26:36Z</time>
      </trkpt>
      <trkpt lat="42.94307" lon="-0.72143">
        <ele>2407</ele>
        <time>2013-06-22T08:26:41Z</time>
      </trkpt>
      <trkpt lat="42.94308" lon="-0.72142">
        <ele>2407</ele>
        <time>2013-06-22T08:26:48Z</time>
      </trkpt>
      <trkpt lat="42.94306" lon="-0.72142">
        <ele>2407</ele>
        <time>2013-06-22T08:26:57Z</time>
      </trkpt>
      <trkpt lat="42.94307" lon="-0.72143">
        <ele>2408</ele>
        <time>2013-06-22T08:28:10Z</time>
      </trkpt>
      <trkpt lat="42.94308" lon="-0.72144">
        <ele>2408</ele>
        <time>2013-06-22T08:28:55Z</time>
      </trkpt>
      <trkpt lat="42.9431" lon="-0.72142">
        <ele>2408</ele>
        <time>2013-06-22T08:31:55Z</time>
      </trkpt>
      <trkpt lat="42.94308" lon="-0.72142">
        <ele>2408</ele>
        <time>2013-06-22T08:32:17Z</time>
      </trkpt>
      <trkpt lat="42.94307" lon="-0.72143">
        <ele>2408</ele>
        <time>2013-06-22T08:32:40Z</time>
      </trkpt>
      <trkpt lat="42.94308" lon="-0.72144">
        <ele>2408</ele>
        <time>2013-06-22T08:33:04Z</time>
      </trkpt>
      <trkpt lat="42.94309" lon="-0.72142">
        <ele>2408</ele>
        <time>2013-06-22T08:33:15Z</time>
      </trkpt>
      <trkpt lat="42.94308" lon="-0.72141">
        <ele>2408</ele>
        <time>2013-06-22T08:33:19Z</time>
      </trkpt>
      <trkpt lat="42.94307" lon="-0.72143">
        <ele>2408</ele>
        <time>2013-06-22T08:33:52Z</time>
      </trkpt>
      <trkpt lat="42.94306" lon="-0.72143">
        <ele>2408</ele>
        <time>2013-06-22T08:34:19Z</time>
      </trkpt>
      <trkpt lat="42.94305" lon="-0.72142">
        <ele>2408</ele>
        <time>2013-06-22T08:34:23Z</time>
      </trkpt>
      <trkpt lat="42.94303" lon="-0.72141">
        <ele>2408</ele>
        <time>2013-06-22T08:34:26Z</time>
      </trkpt>
      <trkpt lat="42.94305" lon="-0.72142">
        <ele>2409</ele>
        <time>2013-06-22T08:34:32Z</time>
      </trkpt>
      <trkpt lat="42.94306" lon="-0.72142">
        <ele>2409</ele>
        <time>2013-06-22T08:34:34Z</time>
      </trkpt>
      <trkpt lat="42.94307" lon="-0.72143">
        <ele>2409</ele>
        <time>2013-06-22T08:34:39Z</time>
      </trkpt>
      <trkpt lat="42.94307" lon="-0.72141">
        <ele>2409</ele>
        <time>2013-06-22T08:35:02Z</time>
      </trkpt>
      <trkpt lat="42.94305" lon="-0.7214">
        <ele>2409</ele>
        <time>2013-06-22T08:35:05Z</time>
      </trkpt>
      <trkpt lat="42.94303" lon="-0.72139">
        <ele>2409</ele>
        <time>2013-06-22T08:35:09Z</time>
      </trkpt>
      <trkpt lat="42.94302" lon="-0.72138">
        <ele>2409</ele>
        <time>2013-06-22T08:35:12Z</time>
      </trkpt>
      <trkpt lat="42.94301" lon="-0.72136">
        <ele>2409</ele>
        <time>2013-06-22T08:35:15Z</time>
      </trkpt>
      <trkpt lat="42.94302" lon="-0.72136">
        <ele>2409</ele>
        <time>2013-06-22T08:35:21Z</time>
      </trkpt>
      <trkpt lat="42.94303" lon="-0.72135">
        <ele>2411</ele>
        <time>2013-06-22T08:35:44Z</time>
      </trkpt>
      <trkpt lat="42.94305" lon="-0.72135">
        <ele>2411</ele>
        <time>2013-06-22T08:35:47Z</time>
      </trkpt>
      <trkpt lat="42.94306" lon="-0.72136">
        <ele>2412</ele>
        <time>2013-06-22T08:35:51Z</time>
      </trkpt>
      <trkpt lat="42.94305" lon="-0.72134">
        <ele>2413</ele>
        <time>2013-06-22T08:35:54Z</time>
      </trkpt>
      <trkpt lat="42.94305" lon="-0.72133">
        <ele>2413</ele>
        <time>2013-06-22T08:35:56Z</time>
      </trkpt>
      <trkpt lat="42.94306" lon="-0.72131">
        <ele>2414</ele>
        <time>2013-06-22T08:35:59Z</time>
      </trkpt>
      <trkpt lat="42.94307" lon="-0.7213">
        <ele>2414</ele>
        <time>2013-06-22T08:36:02Z</time>
      </trkpt>
      <trkpt lat="42.94308" lon="-0.72129">
        <ele>2415</ele>
        <time>2013-06-22T08:36:06Z</time>
      </trkpt>
      <trkpt lat="42.94309" lon="-0.72127">
        <ele>2416</ele>
        <time>2013-06-22T08:36:10Z</time>
      </trkpt>
      <trkpt lat="42.94308" lon="-0.72126">
        <ele>2417</ele>
        <time>2013-06-22T08:36:13Z</time>
      </trkpt>
      <trkpt lat="42.94308" lon="-0.72124">
        <ele>2418</ele>
        <time>2013-06-22T08:36:15Z</time>
      </trkpt>
      <trkpt lat="42.94309" lon="-0.72123">
        <ele>2418</ele>
        <time>2013-06-22T08:36:18Z</time>
      </trkpt>
      <trkpt lat="42.94308" lon="-0.72121">
        <ele>2419</ele>
        <time>2013-06-22T08:36:21Z</time>
      </trkpt>
      <trkpt lat="42.94307" lon="-0.72121">
        <ele>2420</ele>
        <time>2013-06-22T08:36:51Z</time>
      </trkpt>
      <trkpt lat="42.94306" lon="-0.72119">
        <ele>2420</ele>
        <time>2013-06-22T08:36:59Z</time>
      </trkpt>
      <trkpt lat="42.94306" lon="-0.72116">
        <ele>2421</ele>
        <time>2013-06-22T08:37:01Z</time>
      </trkpt>
      <trkpt lat="42.94307" lon="-0.72116">
        <ele>2421</ele>
        <time>2013-06-22T08:37:03Z</time>
      </trkpt>
      <trkpt lat="42.94308" lon="-0.72117">
        <ele>2421</ele>
        <time>2013-06-22T08:37:05Z</time>
      </trkpt>
      <trkpt lat="42.9431" lon="-0.72117">
        <ele>2422</ele>
        <time>2013-06-22T08:37:07Z</time>
      </trkpt>
      <trkpt lat="42.94311" lon="-0.72118">
        <ele>2422</ele>
        <time>2013-06-22T08:37:09Z</time>
      </trkpt>
      <trkpt lat="42.94312" lon="-0.72119">
        <ele>2422</ele>
        <time>2013-06-22T08:37:11Z</time>
      </trkpt>
      <trkpt lat="42.94313" lon="-0.72117">
        <ele>2423</ele>
        <time>2013-06-22T08:37:16Z</time>
      </trkpt>
      <trkpt lat="42.94314" lon="-0.72115">
        <ele>2424</ele>
        <time>2013-06-22T08:37:19Z</time>
      </trkpt>
      <trkpt lat="42.94313" lon="-0.72114">
        <ele>2424</ele>
        <time>2013-06-22T08:37:21Z</time>
      </trkpt>
      <trkpt lat="42.94314" lon="-0.72112">
        <ele>2424</ele>
        <time>2013-06-22T08:37:23Z</time>
      </trkpt>
      <trkpt lat="42.94313" lon="-0.7211">
        <ele>2425</ele>
        <time>2013-06-22T08:37:26Z</time>
      </trkpt>
      <trkpt lat="42.94313" lon="-0.72108">
        <ele>2425</ele>
        <time>2013-06-22T08:37:28Z</time>
      </trkpt>
      <trkpt lat="42.94313" lon="-0.72106">
        <ele>2426</ele>
        <time>2013-06-22T08:37:30Z</time>
      </trkpt>
      <trkpt lat="42.94314" lon="-0.72105">
        <ele>2426</ele>
        <time>2013-06-22T08:37:33Z</time>
      </trkpt>
      <trkpt lat="42.94315" lon="-0.72105">
        <ele>2426</ele>
        <time>2013-06-22T08:37:35Z</time>
      </trkpt>
      <trkpt lat="42.94317" lon="-0.72106">
        <ele>2427</ele>
        <time>2013-06-22T08:37:38Z</time>
      </trkpt>
      <trkpt lat="42.94318" lon="-0.72106">
        <ele>2427</ele>
        <time>2013-06-22T08:37:40Z</time>
      </trkpt>
      <trkpt lat="42.9432" lon="-0.72106">
        <ele>2427</ele>
        <time>2013-06-22T08:37:42Z</time>
      </trkpt>
      <trkpt lat="42.94321" lon="-0.72108">
        <ele>2428</ele>
        <time>2013-06-22T08:37:44Z</time>
      </trkpt>
      <trkpt lat="42.94322" lon="-0.72109">
        <ele>2428</ele>
        <time>2013-06-22T08:37:46Z</time>
      </trkpt>
      <trkpt lat="42.94324" lon="-0.7211">
        <ele>2429</ele>
        <time>2013-06-22T08:37:49Z</time>
      </trkpt>
      <trkpt lat="42.94325" lon="-0.72108">
        <ele>2429</ele>
        <time>2013-06-22T08:38:05Z</time>
      </trkpt>
      <trkpt lat="42.94327" lon="-0.72109">
        <ele>2429</ele>
        <time>2013-06-22T08:38:07Z</time>
      </trkpt>
      <trkpt lat="42.94328" lon="-0.7211">
        <ele>2429</ele>
        <time>2013-06-22T08:38:10Z</time>
      </trkpt>
      <trkpt lat="42.94329" lon="-0.72111">
        <ele>2429</ele>
        <time>2013-06-22T08:38:13Z</time>
      </trkpt>
      <trkpt lat="42.9433" lon="-0.72111">
        <ele>2429</ele>
        <time>2013-06-22T08:38:17Z</time>
      </trkpt>
      <trkpt lat="42.9433" lon="-0.72109">
        <ele>2430</ele>
        <time>2013-06-22T08:38:20Z</time>
      </trkpt>
      <trkpt lat="42.9433" lon="-0.72107">
        <ele>2431</ele>
        <time>2013-06-22T08:38:24Z</time>
      </trkpt>
      <trkpt lat="42.9433" lon="-0.72106">
        <ele>2431</ele>
        <time>2013-06-22T08:38:26Z</time>
      </trkpt>
      <trkpt lat="42.94331" lon="-0.72105">
        <ele>2432</ele>
        <time>2013-06-22T08:38:28Z</time>
      </trkpt>
      <trkpt lat="42.94333" lon="-0.72105">
        <ele>2432</ele>
        <time>2013-06-22T08:38:30Z</time>
      </trkpt>
      <trkpt lat="42.94334" lon="-0.72106">
        <ele>2433</ele>
        <time>2013-06-22T08:38:34Z</time>
      </trkpt>
      <trkpt lat="42.94335" lon="-0.72106">
        <ele>2434</ele>
        <time>2013-06-22T08:38:52Z</time>
      </trkpt>
      <trkpt lat="42.94336" lon="-0.72107">
        <ele>2434</ele>
        <time>2013-06-22T08:38:55Z</time>
      </trkpt>
      <trkpt lat="42.94338" lon="-0.72108">
        <ele>2434</ele>
        <time>2013-06-22T08:38:58Z</time>
      </trkpt>
      <trkpt lat="42.94339" lon="-0.72107">
        <ele>2435</ele>
        <time>2013-06-22T08:39:02Z</time>
      </trkpt>
      <trkpt lat="42.9434" lon="-0.72105">
        <ele>2435</ele>
        <time>2013-06-22T08:39:04Z</time>
      </trkpt>
      <trkpt lat="42.94341" lon="-0.72104">
        <ele>2435</ele>
        <time>2013-06-22T08:39:07Z</time>
      </trkpt>
      <trkpt lat="42.94341" lon="-0.72102">
        <ele>2435</ele>
        <time>2013-06-22T08:39:10Z</time>
      </trkpt>
      <trkpt lat="42.94341" lon="-0.72101">
        <ele>2436</ele>
        <time>2013-06-22T08:39:13Z</time>
      </trkpt>
      <trkpt lat="42.94342" lon="-0.72101">
        <ele>2437</ele>
        <time>2013-06-22T08:39:17Z</time>
      </trkpt>
      <trkpt lat="42.94343" lon="-0.72103">
        <ele>2437</ele>
        <time>2013-06-22T08:39:20Z</time>
      </trkpt>
      <trkpt lat="42.94344" lon="-0.72103">
        <ele>2438</ele>
        <time>2013-06-22T08:39:23Z</time>
      </trkpt>
      <trkpt lat="42.94346" lon="-0.72104">
        <ele>2439</ele>
        <time>2013-06-22T08:39:26Z</time>
      </trkpt>
      <trkpt lat="42.94347" lon="-0.72104">
        <ele>2439</ele>
        <time>2013-06-22T08:39:30Z</time>
      </trkpt>
      <trkpt lat="42.94349" lon="-0.72103">
        <ele>2440</ele>
        <time>2013-06-22T08:40:03Z</time>
      </trkpt>
      <trkpt lat="42.9435" lon="-0.72104">
        <ele>2440</ele>
        <time>2013-06-22T08:40:06Z</time>
      </trkpt>
      <trkpt lat="42.94352" lon="-0.72104">
        <ele>2441</ele>
        <time>2013-06-22T08:40:09Z</time>
      </trkpt>
      <trkpt lat="42.94353" lon="-0.72104">
        <ele>2441</ele>
        <time>2013-06-22T08:40:13Z</time>
      </trkpt>
      <trkpt lat="42.94354" lon="-0.72103">
        <ele>2442</ele>
        <time>2013-06-22T08:40:16Z</time>
      </trkpt>
      <trkpt lat="42.94355" lon="-0.72103">
        <ele>2443</ele>
        <time>2013-06-22T08:40:20Z</time>
      </trkpt>
      <trkpt lat="42.94357" lon="-0.72103">
        <ele>2444</ele>
        <time>2013-06-22T08:40:24Z</time>
      </trkpt>
      <trkpt lat="42.94358" lon="-0.72103">
        <ele>2444</ele>
        <time>2013-06-22T08:40:27Z</time>
      </trkpt>
      <trkpt lat="42.9436" lon="-0.72104">
        <ele>2444</ele>
        <time>2013-06-22T08:40:29Z</time>
      </trkpt>
      <trkpt lat="42.94361" lon="-0.72105">
        <ele>2445</ele>
        <time>2013-06-22T08:40:32Z</time>
      </trkpt>
      <trkpt lat="42.94362" lon="-0.72105">
        <ele>2445</ele>
        <time>2013-06-22T08:40:35Z</time>
      </trkpt>
      <trkpt lat="42.94363" lon="-0.72105">
        <ele>2446</ele>
        <time>2013-06-22T08:40:40Z</time>
      </trkpt>
      <trkpt lat="42.94365" lon="-0.72105">
        <ele>2447</ele>
        <time>2013-06-22T08:41:13Z</time>
      </trkpt>
      <trkpt lat="42.94366" lon="-0.72105">
        <ele>2448</ele>
        <time>2013-06-22T08:41:15Z</time>
      </trkpt>
      <trkpt lat="42.94368" lon="-0.72106">
        <ele>2449</ele>
        <time>2013-06-22T08:41:19Z</time>
      </trkpt>
      <trkpt lat="42.94369" lon="-0.72106">
        <ele>2449</ele>
        <time>2013-06-22T08:41:22Z</time>
      </trkpt>
      <trkpt lat="42.94369" lon="-0.72104">
        <ele>2451</ele>
        <time>2013-06-22T08:41:31Z</time>
      </trkpt>
      <trkpt lat="42.9437" lon="-0.72103">
        <ele>2451</ele>
        <time>2013-06-22T08:41:34Z</time>
      </trkpt>
      <trkpt lat="42.94371" lon="-0.72104">
        <ele>2452</ele>
        <time>2013-06-22T08:41:38Z</time>
      </trkpt>
      <trkpt lat="42.94372" lon="-0.72105">
        <ele>2452</ele>
        <time>2013-06-22T08:41:41Z</time>
      </trkpt>
      <trkpt lat="42.94374" lon="-0.72105">
        <ele>2453</ele>
        <time>2013-06-22T08:41:44Z</time>
      </trkpt>
      <trkpt lat="42.94375" lon="-0.72106">
        <ele>2453</ele>
        <time>2013-06-22T08:41:47Z</time>
      </trkpt>
      <trkpt lat="42.94376" lon="-0.72106">
        <ele>2453</ele>
        <time>2013-06-22T08:41:49Z</time>
      </trkpt>
      <trkpt lat="42.94378" lon="-0.72107">
        <ele>2457</ele>
        <time>2013-06-22T08:42:30Z</time>
      </trkpt>
      <trkpt lat="42.94379" lon="-0.72108">
        <ele>2457</ele>
        <time>2013-06-22T08:42:33Z</time>
      </trkpt>
      <trkpt lat="42.9438" lon="-0.72106">
        <ele>2457</ele>
        <time>2013-06-22T08:42:40Z</time>
      </trkpt>
      <trkpt lat="42.94381" lon="-0.72104">
        <ele>2458</ele>
        <time>2013-06-22T08:42:44Z</time>
      </trkpt>
      <trkpt lat="42.94381" lon="-0.72103">
        <ele>2458</ele>
        <time>2013-06-22T08:42:47Z</time>
      </trkpt>
      <trkpt lat="42.9438" lon="-0.72101">
        <ele>2458</ele>
        <time>2013-06-22T08:42:51Z</time>
      </trkpt>
      <trkpt lat="42.94379" lon="-0.72099">
        <ele>2459</ele>
        <time>2013-06-22T08:42:55Z</time>
      </trkpt>
      <trkpt lat="42.94379" lon="-0.72098">
        <ele>2460</ele>
        <time>2013-06-22T08:42:59Z</time>
      </trkpt>
      <trkpt lat="42.94379" lon="-0.72096">
        <ele>2461</ele>
        <time>2013-06-22T08:43:05Z</time>
      </trkpt>
      <trkpt lat="42.94379" lon="-0.72095">
        <ele>2461</ele>
        <time>2013-06-22T08:43:08Z</time>
      </trkpt>
      <trkpt lat="42.94379" lon="-0.72093">
        <ele>2462</ele>
        <time>2013-06-22T08:43:12Z</time>
      </trkpt>
      <trkpt lat="42.94379" lon="-0.72091">
        <ele>2463</ele>
        <time>2013-06-22T08:43:16Z</time>
      </trkpt>
      <trkpt lat="42.94377" lon="-0.72091">
        <ele>2464</ele>
        <time>2013-06-22T08:43:30Z</time>
      </trkpt>
      <trkpt lat="42.94376" lon="-0.72089">
        <ele>2466</ele>
        <time>2013-06-22T08:43:55Z</time>
      </trkpt>
      <trkpt lat="42.94376" lon="-0.72087">
        <ele>2467</ele>
        <time>2013-06-22T08:43:59Z</time>
      </trkpt>
      <trkpt lat="42.94377" lon="-0.72086">
        <ele>2468</ele>
        <time>2013-06-22T08:44:02Z</time>
      </trkpt>
      <trkpt lat="42.94377" lon="-0.72084">
        <ele>2468</ele>
        <time>2013-06-22T08:44:06Z</time>
      </trkpt>
      <trkpt lat="42.94378" lon="-0.72084">
        <ele>2469</ele>
        <time>2013-06-22T08:44:13Z</time>
      </trkpt>
      <trkpt lat="42.94379" lon="-0.72082">
        <ele>2469</ele>
        <time>2013-06-22T08:44:20Z</time>
      </trkpt>
      <trkpt lat="42.94379" lon="-0.72081">
        <ele>2469</ele>
        <time>2013-06-22T08:44:27Z</time>
      </trkpt>
      <trkpt lat="42.94379" lon="-0.72079">
        <ele>2469</ele>
        <time>2013-06-22T08:44:32Z</time>
      </trkpt>
      <trkpt lat="42.94379" lon="-0.72077">
        <ele>2469</ele>
        <time>2013-06-22T08:44:35Z</time>
      </trkpt>
      <trkpt lat="42.94379" lon="-0.72075">
        <ele>2470</ele>
        <time>2013-06-22T08:45:00Z</time>
      </trkpt>
      <trkpt lat="42.9438" lon="-0.72074">
        <ele>2470</ele>
        <time>2013-06-22T08:45:02Z</time>
      </trkpt>
      <trkpt lat="42.94379" lon="-0.72071">
        <ele>2470</ele>
        <time>2013-06-22T08:45:05Z</time>
      </trkpt>
      <trkpt lat="42.94378" lon="-0.7207">
        <ele>2470</ele>
        <time>2013-06-22T08:45:08Z</time>
      </trkpt>
      <trkpt lat="42.9438" lon="-0.72069">
        <ele>2470</ele>
        <time>2013-06-22T08:45:11Z</time>
      </trkpt>
      <trkpt lat="42.94381" lon="-0.72071">
        <ele>2470</ele>
        <time>2013-06-22T08:45:18Z</time>
      </trkpt>
      <trkpt lat="42.94382" lon="-0.72071">
        <ele>2470</ele>
        <time>2013-06-22T08:45:22Z</time>
      </trkpt>
      <trkpt lat="42.94383" lon="-0.72072">
        <ele>2470</ele>
        <time>2013-06-22T08:45:25Z</time>
      </trkpt>
      <trkpt lat="42.94384" lon="-0.72073">
        <ele>2470</ele>
        <time>2013-06-22T08:45:29Z</time>
      </trkpt>
      <trkpt lat="42.94386" lon="-0.72073">
        <ele>2470</ele>
        <time>2013-06-22T08:45:39Z</time>
      </trkpt>
      <trkpt lat="42.94387" lon="-0.72074">
        <ele>2470</ele>
        <time>2013-06-22T08:45:42Z</time>
      </trkpt>
      <trkpt lat="42.94388" lon="-0.72076">
        <ele>2471</ele>
        <time>2013-06-22T08:45:45Z</time>
      </trkpt>
      <trkpt lat="42.94389" lon="-0.72077">
        <ele>2471</ele>
        <time>2013-06-22T08:45:48Z</time>
      </trkpt>
      <trkpt lat="42.9439" lon="-0.72076">
        <ele>2473</ele>
        <time>2013-06-22T08:46:19Z</time>
      </trkpt>
      <trkpt lat="42.94392" lon="-0.72078">
        <ele>2473</ele>
        <time>2013-06-22T08:46:22Z</time>
      </trkpt>
      <trkpt lat="42.94393" lon="-0.72076">
        <ele>2474</ele>
        <time>2013-06-22T08:46:29Z</time>
      </trkpt>
      <trkpt lat="42.94394" lon="-0.72075">
        <ele>2474</ele>
        <time>2013-06-22T08:46:39Z</time>
      </trkpt>
      <trkpt lat="42.94395" lon="-0.72075">
        <ele>2474</ele>
        <time>2013-06-22T08:46:42Z</time>
      </trkpt>
      <trkpt lat="42.94397" lon="-0.72076">
        <ele>2475</ele>
        <time>2013-06-22T08:46:47Z</time>
      </trkpt>
      <trkpt lat="42.94398" lon="-0.72077">
        <ele>2477</ele>
        <time>2013-06-22T08:47:00Z</time>
      </trkpt>
      <trkpt lat="42.94399" lon="-0.72078">
        <ele>2477</ele>
        <time>2013-06-22T08:47:03Z</time>
      </trkpt>
      <trkpt lat="42.944" lon="-0.72079">
        <ele>2478</ele>
        <time>2013-06-22T08:47:08Z</time>
      </trkpt>
      <trkpt lat="42.94402" lon="-0.7208">
        <ele>2479</ele>
        <time>2013-06-22T08:47:11Z</time>
      </trkpt>
      <trkpt lat="42.94403" lon="-0.7208">
        <ele>2480</ele>
        <time>2013-06-22T08:47:31Z</time>
      </trkpt>
      <trkpt lat="42.94404" lon="-0.7208">
        <ele>2481</ele>
        <time>2013-06-22T08:47:37Z</time>
      </trkpt>
      <trkpt lat="42.94405" lon="-0.7208">
        <ele>2481</ele>
        <time>2013-06-22T08:47:43Z</time>
      </trkpt>
      <trkpt lat="42.94404" lon="-0.72079">
        <ele>2485</ele>
        <time>2013-06-22T08:48:03Z</time>
      </trkpt>
      <trkpt lat="42.94403" lon="-0.72077">
        <ele>2486</ele>
        <time>2013-06-22T08:48:08Z</time>
      </trkpt>
      <trkpt lat="42.94403" lon="-0.72075">
        <ele>2486</ele>
        <time>2013-06-22T08:48:12Z</time>
      </trkpt>
      <trkpt lat="42.94404" lon="-0.72074">
        <ele>2487</ele>
        <time>2013-06-22T08:48:15Z</time>
      </trkpt>
      <trkpt lat="42.94405" lon="-0.72074">
        <ele>2487</ele>
        <time>2013-06-22T08:48:22Z</time>
      </trkpt>
      <trkpt lat="42.94406" lon="-0.72073">
        <ele>2487</ele>
        <time>2013-06-22T08:48:33Z</time>
      </trkpt>
      <trkpt lat="42.94407" lon="-0.72072">
        <ele>2487</ele>
        <time>2013-06-22T08:48:48Z</time>
      </trkpt>
      <trkpt lat="42.94408" lon="-0.72073">
        <ele>2487</ele>
        <time>2013-06-22T08:48:52Z</time>
      </trkpt>
      <trkpt lat="42.9441" lon="-0.72073">
        <ele>2487</ele>
        <time>2013-06-22T08:48:55Z</time>
      </trkpt>
      <trkpt lat="42.94411" lon="-0.72074">
        <ele>2487</ele>
        <time>2013-06-22T08:48:57Z</time>
      </trkpt>
      <trkpt lat="42.94412" lon="-0.72076">
        <ele>2488</ele>
        <time>2013-06-22T08:49:00Z</time>
      </trkpt>
      <trkpt lat="42.94413" lon="-0.72077">
        <ele>2488</ele>
        <time>2013-06-22T08:49:03Z</time>
      </trkpt>
      <trkpt lat="42.94415" lon="-0.72079">
        <ele>2489</ele>
        <time>2013-06-22T08:49:06Z</time>
      </trkpt>
      <trkpt lat="42.94414" lon="-0.72077">
        <ele>2489</ele>
        <time>2013-06-22T08:49:10Z</time>
      </trkpt>
      <trkpt lat="42.94413" lon="-0.72075">
        <ele>2490</ele>
        <time>2013-06-22T08:49:12Z</time>
      </trkpt>
      <trkpt lat="42.94413" lon="-0.72074">
        <ele>2491</ele>
        <time>2013-06-22T08:49:14Z</time>
      </trkpt>
      <trkpt lat="42.94414" lon="-0.72073">
        <ele>2492</ele>
        <time>2013-06-22T08:49:18Z</time>
      </trkpt>
      <trkpt lat="42.94415" lon="-0.72074">
        <ele>2493</ele>
        <time>2013-06-22T08:49:24Z</time>
      </trkpt>
      <trkpt lat="42.94415" lon="-0.72073">
        <ele>2493</ele>
        <time>2013-06-22T08:49:27Z</time>
      </trkpt>
      <trkpt lat="42.94416" lon="-0.72072">
        <ele>2494</ele>
        <time>2013-06-22T08:49:38Z</time>
      </trkpt>
      <trkpt lat="42.94416" lon="-0.72073">
        <ele>2494</ele>
        <time>2013-06-22T08:49:56Z</time>
      </trkpt>
      <trkpt lat="42.94418" lon="-0.72074">
        <ele>2494</ele>
        <time>2013-06-22T08:50:00Z</time>
      </trkpt>
      <trkpt lat="42.94419" lon="-0.72074">
        <ele>2494</ele>
        <time>2013-06-22T08:50:04Z</time>
      </trkpt>
      <trkpt lat="42.94421" lon="-0.72075">
        <ele>2495</ele>
        <time>2013-06-22T08:50:09Z</time>
      </trkpt>
      <trkpt lat="42.94422" lon="-0.72075">
        <ele>2495</ele>
        <time>2013-06-22T08:50:11Z</time>
      </trkpt>
      <trkpt lat="42.94422" lon="-0.72074">
        <ele>2496</ele>
        <time>2013-06-22T08:50:17Z</time>
      </trkpt>
      <trkpt lat="42.94421" lon="-0.72072">
        <ele>2499</ele>
        <time>2013-06-22T08:50:47Z</time>
      </trkpt>
      <trkpt lat="42.94421" lon="-0.7207">
        <ele>2499</ele>
        <time>2013-06-22T08:50:50Z</time>
      </trkpt>
      <trkpt lat="42.94422" lon="-0.72068">
        <ele>2500</ele>
        <time>2013-06-22T08:50:53Z</time>
      </trkpt>
      <trkpt lat="42.94422" lon="-0.72067">
        <ele>2500</ele>
        <time>2013-06-22T08:50:55Z</time>
      </trkpt>
      <trkpt lat="42.94423" lon="-0.72065">
        <ele>2501</ele>
        <time>2013-06-22T08:50:59Z</time>
      </trkpt>
      <trkpt lat="42.94423" lon="-0.72064">
        <ele>2502</ele>
        <time>2013-06-22T08:51:03Z</time>
      </trkpt>
      <trkpt lat="42.94423" lon="-0.72062">
        <ele>2503</ele>
        <time>2013-06-22T08:51:19Z</time>
      </trkpt>
      <trkpt lat="42.94424" lon="-0.72061">
        <ele>2503</ele>
        <time>2013-06-22T08:51:23Z</time>
      </trkpt>
      <trkpt lat="42.94425" lon="-0.7206">
        <ele>2503</ele>
        <time>2013-06-22T08:51:47Z</time>
      </trkpt>
      <trkpt lat="42.94425" lon="-0.7206">
        <ele>2503</ele>
        <time>2013-06-22T08:51:49Z</time>
      </trkpt>
    </trkseg>
  </trk>
</gpx>